<?xml version="1.0" encoding="UTF-8" standalone="no" ?>
<gpx xmlns="http://www.topografix.com/GPX/1/1" xmlns:xsi="http://www.w3.org/2001/XMLSchema-instance" xsi:schemaLocation="http://www.topografix.com/GPX/1/1 http://www.topografix.com/GPX/1/1/gpx.xsd" version="1.1" creator="VisuGPX - https://www.visugpx.com">
  <metadata>
    <name>Z'Accros Bike 2022</name>
  </metadata>
  <trk>
    <name><![CDATA[Z'Accros Bike 2022_1]]></name>
    <trkseg>
      <trkpt lat="45.05129" lon="0.3908">
        <ele>53.2</ele>
        <time>2022-10-09T06:14:31Z</time>
      </trkpt>
      <trkpt lat="45.05127" lon="0.3906">
        <ele>53</ele>
        <time>2022-10-09T06:14:37Z</time>
      </trkpt>
      <trkpt lat="45.05127" lon="0.39053">
        <ele>53</ele>
        <time>2022-10-09T06:14:39Z</time>
      </trkpt>
      <trkpt lat="45.05127" lon="0.39049">
        <ele>53</ele>
        <time>2022-10-09T06:14:41Z</time>
      </trkpt>
      <trkpt lat="45.0513" lon="0.39033">
        <ele>52.9</ele>
        <time>2022-10-09T06:14:46Z</time>
      </trkpt>
      <trkpt lat="45.05133" lon="0.39013">
        <ele>52.8</ele>
        <time>2022-10-09T06:14:51Z</time>
      </trkpt>
      <trkpt lat="45.05133" lon="0.3898">
        <ele>52.8</ele>
        <time>2022-10-09T06:14:58Z</time>
      </trkpt>
      <trkpt lat="45.0513" lon="0.38942">
        <ele>52.9</ele>
        <time>2022-10-09T06:15:06Z</time>
      </trkpt>
      <trkpt lat="45.05128" lon="0.38928">
        <ele>52.9</ele>
        <time>2022-10-09T06:15:09Z</time>
      </trkpt>
      <trkpt lat="45.05128" lon="0.38904">
        <ele>53.3</ele>
        <time>2022-10-09T06:15:14Z</time>
      </trkpt>
      <trkpt lat="45.05128" lon="0.38885">
        <ele>53.7</ele>
        <time>2022-10-09T06:15:18Z</time>
      </trkpt>
      <trkpt lat="45.05128" lon="0.38859">
        <ele>54.2</ele>
        <time>2022-10-09T06:15:23Z</time>
      </trkpt>
      <trkpt lat="45.05132" lon="0.38835">
        <ele>54.3</ele>
        <time>2022-10-09T06:15:28Z</time>
      </trkpt>
      <trkpt lat="45.05137" lon="0.38803">
        <ele>54.2</ele>
        <time>2022-10-09T06:15:33Z</time>
      </trkpt>
      <trkpt lat="45.05134" lon="0.38769">
        <ele>54.5</ele>
        <time>2022-10-09T06:15:39Z</time>
      </trkpt>
      <trkpt lat="45.05125" lon="0.38753">
        <ele>54.8</ele>
        <time>2022-10-09T06:15:43Z</time>
      </trkpt>
      <trkpt lat="45.05111" lon="0.38731">
        <ele>55.6</ele>
        <time>2022-10-09T06:15:49Z</time>
      </trkpt>
      <trkpt lat="45.05087" lon="0.38694">
        <ele>56.5</ele>
        <time>2022-10-09T06:15:59Z</time>
      </trkpt>
      <trkpt lat="45.0507" lon="0.38668">
        <ele>56.7</ele>
        <time>2022-10-09T06:16:06Z</time>
      </trkpt>
      <trkpt lat="45.05043" lon="0.38627">
        <ele>56.7</ele>
        <time>2022-10-09T06:16:16Z</time>
      </trkpt>
      <trkpt lat="45.05015" lon="0.38583">
        <ele>56.6</ele>
        <time>2022-10-09T06:16:26Z</time>
      </trkpt>
      <trkpt lat="45.04985" lon="0.38538">
        <ele>56.7</ele>
        <time>2022-10-09T06:16:36Z</time>
      </trkpt>
      <trkpt lat="45.0497" lon="0.38511">
        <ele>56.8</ele>
        <time>2022-10-09T06:16:42Z</time>
      </trkpt>
      <trkpt lat="45.04958" lon="0.38485">
        <ele>57</ele>
        <time>2022-10-09T06:16:48Z</time>
      </trkpt>
      <trkpt lat="45.04951" lon="0.38486">
        <ele>56.9</ele>
        <time>2022-10-09T06:16:50Z</time>
      </trkpt>
      <trkpt lat="45.04947" lon="0.38488">
        <ele>56.8</ele>
        <time>2022-10-09T06:16:51Z</time>
      </trkpt>
      <trkpt lat="45.04935" lon="0.38495">
        <ele>56.8</ele>
        <time>2022-10-09T06:16:54Z</time>
      </trkpt>
      <trkpt lat="45.04924" lon="0.38501">
        <ele>56.8</ele>
        <time>2022-10-09T06:16:57Z</time>
      </trkpt>
      <trkpt lat="45.04887" lon="0.38523">
        <ele>57.1</ele>
        <time>2022-10-09T06:17:07Z</time>
      </trkpt>
      <trkpt lat="45.04854" lon="0.38542">
        <ele>57.5</ele>
        <time>2022-10-09T06:17:16Z</time>
      </trkpt>
      <trkpt lat="45.04843" lon="0.38549">
        <ele>57.5</ele>
        <time>2022-10-09T06:17:23Z</time>
      </trkpt>
      <trkpt lat="45.04806" lon="0.38571">
        <ele>57.9</ele>
        <time>2022-10-09T06:17:30Z</time>
      </trkpt>
      <trkpt lat="45.04795" lon="0.38577">
        <ele>58.9</ele>
        <time>2022-10-09T06:17:33Z</time>
      </trkpt>
      <trkpt lat="45.04782" lon="0.38588">
        <ele>60.3</ele>
        <time>2022-10-09T06:17:37Z</time>
      </trkpt>
      <trkpt lat="45.04764" lon="0.38611">
        <ele>66.7</ele>
        <time>2022-10-09T06:17:44Z</time>
      </trkpt>
      <trkpt lat="45.04758" lon="0.3863">
        <ele>67.6</ele>
        <time>2022-10-09T06:17:48Z</time>
      </trkpt>
      <trkpt lat="45.0476" lon="0.38643">
        <ele>68.8</ele>
        <time>2022-10-09T06:17:51Z</time>
      </trkpt>
      <trkpt lat="45.04761" lon="0.38647">
        <ele>68.7</ele>
        <time>2022-10-09T06:17:52Z</time>
      </trkpt>
      <trkpt lat="45.04762" lon="0.38659">
        <ele>70.2</ele>
        <time>2022-10-09T06:17:56Z</time>
      </trkpt>
      <trkpt lat="45.04763" lon="0.38671">
        <ele>70.1</ele>
        <time>2022-10-09T06:18:00Z</time>
      </trkpt>
      <trkpt lat="45.04763" lon="0.38674">
        <ele>70.1</ele>
        <time>2022-10-09T06:18:01Z</time>
      </trkpt>
      <trkpt lat="45.04765" lon="0.38692">
        <ele>71.7</ele>
        <time>2022-10-09T06:18:06Z</time>
      </trkpt>
      <trkpt lat="45.04764" lon="0.38698">
        <ele>73.1</ele>
        <time>2022-10-09T06:18:08Z</time>
      </trkpt>
      <trkpt lat="45.04766" lon="0.38705">
        <ele>73.1</ele>
        <time>2022-10-09T06:18:10Z</time>
      </trkpt>
      <trkpt lat="45.04765" lon="0.38708">
        <ele>73.1</ele>
        <time>2022-10-09T06:18:11Z</time>
      </trkpt>
      <trkpt lat="45.04765" lon="0.38724">
        <ele>74.2</ele>
        <time>2022-10-09T06:18:16Z</time>
      </trkpt>
      <trkpt lat="45.04765" lon="0.38739">
        <ele>75.5</ele>
        <time>2022-10-09T06:18:21Z</time>
      </trkpt>
      <trkpt lat="45.04766" lon="0.38751">
        <ele>76.8</ele>
        <time>2022-10-09T06:18:25Z</time>
      </trkpt>
      <trkpt lat="45.04767" lon="0.38754">
        <ele>76.7</ele>
        <time>2022-10-09T06:18:26Z</time>
      </trkpt>
      <trkpt lat="45.04765" lon="0.38761">
        <ele>77.9</ele>
        <time>2022-10-09T06:18:29Z</time>
      </trkpt>
      <trkpt lat="45.04764" lon="0.38776">
        <ele>77.8</ele>
        <time>2022-10-09T06:18:34Z</time>
      </trkpt>
      <trkpt lat="45.04765" lon="0.38782">
        <ele>78.7</ele>
        <time>2022-10-09T06:18:36Z</time>
      </trkpt>
      <trkpt lat="45.04766" lon="0.38791">
        <ele>78.7</ele>
        <time>2022-10-09T06:18:39Z</time>
      </trkpt>
      <trkpt lat="45.04766" lon="0.38807">
        <ele>79.1</ele>
        <time>2022-10-09T06:18:45Z</time>
      </trkpt>
      <trkpt lat="45.04766" lon="0.38821">
        <ele>79.3</ele>
        <time>2022-10-09T06:18:51Z</time>
      </trkpt>
      <trkpt lat="45.04766" lon="0.38835">
        <ele>79.4</ele>
        <time>2022-10-09T06:18:56Z</time>
      </trkpt>
      <trkpt lat="45.04765" lon="0.38846">
        <ele>79.3</ele>
        <time>2022-10-09T06:19:01Z</time>
      </trkpt>
      <trkpt lat="45.04762" lon="0.38858">
        <ele>79.5</ele>
        <time>2022-10-09T06:19:05Z</time>
      </trkpt>
      <trkpt lat="45.0476" lon="0.38859">
        <ele>79.6</ele>
        <time>2022-10-09T06:19:07Z</time>
      </trkpt>
      <trkpt lat="45.04757" lon="0.38862">
        <ele>80.1</ele>
        <time>2022-10-09T06:19:09Z</time>
      </trkpt>
      <trkpt lat="45.04756" lon="0.38866">
        <ele>80.5</ele>
        <time>2022-10-09T06:19:11Z</time>
      </trkpt>
      <trkpt lat="45.04749" lon="0.38876">
        <ele>81.4</ele>
        <time>2022-10-09T06:19:16Z</time>
      </trkpt>
      <trkpt lat="45.04743" lon="0.38885">
        <ele>81.9</ele>
        <time>2022-10-09T06:19:20Z</time>
      </trkpt>
      <trkpt lat="45.04742" lon="0.38887">
        <ele>82</ele>
        <time>2022-10-09T06:19:21Z</time>
      </trkpt>
      <trkpt lat="45.04732" lon="0.389">
        <ele>82.4</ele>
        <time>2022-10-09T06:19:26Z</time>
      </trkpt>
      <trkpt lat="45.04713" lon="0.38915">
        <ele>82.7</ele>
        <time>2022-10-09T06:19:34Z</time>
      </trkpt>
      <trkpt lat="45.0469" lon="0.3893">
        <ele>82.7</ele>
        <time>2022-10-09T06:19:43Z</time>
      </trkpt>
      <trkpt lat="45.04679" lon="0.38937">
        <ele>82.7</ele>
        <time>2022-10-09T06:19:48Z</time>
      </trkpt>
      <trkpt lat="45.04655" lon="0.38952">
        <ele>82.7</ele>
        <time>2022-10-09T06:19:58Z</time>
      </trkpt>
      <trkpt lat="45.04635" lon="0.38966">
        <ele>82.7</ele>
        <time>2022-10-09T06:20:05Z</time>
      </trkpt>
      <trkpt lat="45.0463" lon="0.38952">
        <ele>82.5</ele>
        <time>2022-10-09T06:20:08Z</time>
      </trkpt>
      <trkpt lat="45.04614" lon="0.38914">
        <ele>81.9</ele>
        <time>2022-10-09T06:20:16Z</time>
      </trkpt>
      <trkpt lat="45.04598" lon="0.38873">
        <ele>81.3</ele>
        <time>2022-10-09T06:20:24Z</time>
      </trkpt>
      <trkpt lat="45.0458" lon="0.3883">
        <ele>80.7</ele>
        <time>2022-10-09T06:20:32Z</time>
      </trkpt>
      <trkpt lat="45.04565" lon="0.38793">
        <ele>80.2</ele>
        <time>2022-10-09T06:20:39Z</time>
      </trkpt>
      <trkpt lat="45.04545" lon="0.38743">
        <ele>79.8</ele>
        <time>2022-10-09T06:20:48Z</time>
      </trkpt>
      <trkpt lat="45.04524" lon="0.38694">
        <ele>79.1</ele>
        <time>2022-10-09T06:20:57Z</time>
      </trkpt>
      <trkpt lat="45.04514" lon="0.3867">
        <ele>78.5</ele>
        <time>2022-10-09T06:21:01Z</time>
      </trkpt>
      <trkpt lat="45.04507" lon="0.3866">
        <ele>78.2</ele>
        <time>2022-10-09T06:21:03Z</time>
      </trkpt>
      <trkpt lat="45.04499" lon="0.3865">
        <ele>77.8</ele>
        <time>2022-10-09T06:21:05Z</time>
      </trkpt>
      <trkpt lat="45.04481" lon="0.38636">
        <ele>77.1</ele>
        <time>2022-10-09T06:21:09Z</time>
      </trkpt>
      <trkpt lat="45.04457" lon="0.38617">
        <ele>76.3</ele>
        <time>2022-10-09T06:21:14Z</time>
      </trkpt>
      <trkpt lat="45.04452" lon="0.38611">
        <ele>76.2</ele>
        <time>2022-10-09T06:21:15Z</time>
      </trkpt>
      <trkpt lat="45.04448" lon="0.38606">
        <ele>76.1</ele>
        <time>2022-10-09T06:21:16Z</time>
      </trkpt>
      <trkpt lat="45.04434" lon="0.38601">
        <ele>76.4</ele>
        <time>2022-10-09T06:21:19Z</time>
      </trkpt>
      <trkpt lat="45.0443" lon="0.38598">
        <ele>76.5</ele>
        <time>2022-10-09T06:21:20Z</time>
      </trkpt>
      <trkpt lat="45.0442" lon="0.38592">
        <ele>76.8</ele>
        <time>2022-10-09T06:21:22Z</time>
      </trkpt>
      <trkpt lat="45.04411" lon="0.3859">
        <ele>77</ele>
        <time>2022-10-09T06:21:24Z</time>
      </trkpt>
      <trkpt lat="45.04403" lon="0.38592">
        <ele>77.1</ele>
        <time>2022-10-09T06:21:26Z</time>
      </trkpt>
      <trkpt lat="45.04391" lon="0.38596">
        <ele>77.4</ele>
        <time>2022-10-09T06:21:29Z</time>
      </trkpt>
      <trkpt lat="45.04383" lon="0.38599">
        <ele>77.5</ele>
        <time>2022-10-09T06:21:31Z</time>
      </trkpt>
      <trkpt lat="45.04361" lon="0.38606">
        <ele>77.5</ele>
        <time>2022-10-09T06:21:36Z</time>
      </trkpt>
      <trkpt lat="45.04356" lon="0.38607">
        <ele>77.5</ele>
        <time>2022-10-09T06:21:37Z</time>
      </trkpt>
      <trkpt lat="45.04331" lon="0.38607">
        <ele>77</ele>
        <time>2022-10-09T06:21:42Z</time>
      </trkpt>
      <trkpt lat="45.04302" lon="0.38602">
        <ele>76.6</ele>
        <time>2022-10-09T06:21:47Z</time>
      </trkpt>
      <trkpt lat="45.04291" lon="0.38599">
        <ele>76.4</ele>
        <time>2022-10-09T06:21:49Z</time>
      </trkpt>
      <trkpt lat="45.0428" lon="0.38597">
        <ele>76.1</ele>
        <time>2022-10-09T06:21:51Z</time>
      </trkpt>
      <trkpt lat="45.04274" lon="0.38595">
        <ele>76</ele>
        <time>2022-10-09T06:21:52Z</time>
      </trkpt>
      <trkpt lat="45.04262" lon="0.38592">
        <ele>75.6</ele>
        <time>2022-10-09T06:21:54Z</time>
      </trkpt>
      <trkpt lat="45.04238" lon="0.38585">
        <ele>74.8</ele>
        <time>2022-10-09T06:21:59Z</time>
      </trkpt>
      <trkpt lat="45.04223" lon="0.38581">
        <ele>74.3</ele>
        <time>2022-10-09T06:22:02Z</time>
      </trkpt>
      <trkpt lat="45.04192" lon="0.38569">
        <ele>74.2</ele>
        <time>2022-10-09T06:22:08Z</time>
      </trkpt>
      <trkpt lat="45.04181" lon="0.38565">
        <ele>75</ele>
        <time>2022-10-09T06:22:10Z</time>
      </trkpt>
      <trkpt lat="45.04174" lon="0.3857">
        <ele>75.3</ele>
        <time>2022-10-09T06:22:12Z</time>
      </trkpt>
      <trkpt lat="45.0417" lon="0.38572">
        <ele>75.5</ele>
        <time>2022-10-09T06:22:13Z</time>
      </trkpt>
      <trkpt lat="45.04158" lon="0.3858">
        <ele>76</ele>
        <time>2022-10-09T06:22:16Z</time>
      </trkpt>
      <trkpt lat="45.04126" lon="0.386">
        <ele>77.3</ele>
        <time>2022-10-09T06:22:23Z</time>
      </trkpt>
      <trkpt lat="45.04096" lon="0.38634">
        <ele>79.4</ele>
        <time>2022-10-09T06:22:31Z</time>
      </trkpt>
      <trkpt lat="45.04068" lon="0.38668">
        <ele>80.8</ele>
        <time>2022-10-09T06:22:39Z</time>
      </trkpt>
      <trkpt lat="45.0405" lon="0.38688">
        <ele>81.7</ele>
        <time>2022-10-09T06:22:44Z</time>
      </trkpt>
      <trkpt lat="45.04043" lon="0.38696">
        <ele>82</ele>
        <time>2022-10-09T06:22:46Z</time>
      </trkpt>
      <trkpt lat="45.04034" lon="0.38707">
        <ele>82.6</ele>
        <time>2022-10-09T06:22:49Z</time>
      </trkpt>
      <trkpt lat="45.04029" lon="0.38707">
        <ele>82.7</ele>
        <time>2022-10-09T06:22:50Z</time>
      </trkpt>
      <trkpt lat="45.04025" lon="0.38706">
        <ele>82.9</ele>
        <time>2022-10-09T06:22:51Z</time>
      </trkpt>
      <trkpt lat="45.04015" lon="0.387">
        <ele>83.4</ele>
        <time>2022-10-09T06:22:54Z</time>
      </trkpt>
      <trkpt lat="45.04001" lon="0.38683">
        <ele>84.8</ele>
        <time>2022-10-09T06:23:00Z</time>
      </trkpt>
      <trkpt lat="45.0399" lon="0.3867">
        <ele>85.9</ele>
        <time>2022-10-09T06:23:05Z</time>
      </trkpt>
      <trkpt lat="45.03978" lon="0.38656">
        <ele>86.3</ele>
        <time>2022-10-09T06:23:10Z</time>
      </trkpt>
      <trkpt lat="45.03958" lon="0.3864">
        <ele>86</ele>
        <time>2022-10-09T06:23:15Z</time>
      </trkpt>
      <trkpt lat="45.03935" lon="0.38626">
        <ele>85.7</ele>
        <time>2022-10-09T06:23:20Z</time>
      </trkpt>
      <trkpt lat="45.03927" lon="0.38621">
        <ele>85.7</ele>
        <time>2022-10-09T06:23:22Z</time>
      </trkpt>
      <trkpt lat="45.03915" lon="0.38613">
        <ele>85.8</ele>
        <time>2022-10-09T06:23:25Z</time>
      </trkpt>
      <trkpt lat="45.0391" lon="0.3861">
        <ele>85.8</ele>
        <time>2022-10-09T06:23:26Z</time>
      </trkpt>
      <trkpt lat="45.03888" lon="0.386">
        <ele>85.9</ele>
        <time>2022-10-09T06:23:31Z</time>
      </trkpt>
      <trkpt lat="45.03878" lon="0.38594">
        <ele>86</ele>
        <time>2022-10-09T06:23:33Z</time>
      </trkpt>
      <trkpt lat="45.0387" lon="0.38589">
        <ele>86.1</ele>
        <time>2022-10-09T06:23:35Z</time>
      </trkpt>
      <trkpt lat="45.03866" lon="0.38587">
        <ele>86.1</ele>
        <time>2022-10-09T06:23:36Z</time>
      </trkpt>
      <trkpt lat="45.03859" lon="0.38584">
        <ele>86.2</ele>
        <time>2022-10-09T06:23:38Z</time>
      </trkpt>
      <trkpt lat="45.03856" lon="0.38586">
        <ele>86.3</ele>
        <time>2022-10-09T06:23:39Z</time>
      </trkpt>
      <trkpt lat="45.03853" lon="0.38589">
        <ele>86.4</ele>
        <time>2022-10-09T06:23:40Z</time>
      </trkpt>
      <trkpt lat="45.03845" lon="0.38601">
        <ele>86.6</ele>
        <time>2022-10-09T06:23:43Z</time>
      </trkpt>
      <trkpt lat="45.03834" lon="0.38616">
        <ele>87.1</ele>
        <time>2022-10-09T06:23:47Z</time>
      </trkpt>
      <trkpt lat="45.03823" lon="0.38632">
        <ele>87.6</ele>
        <time>2022-10-09T06:23:51Z</time>
      </trkpt>
      <trkpt lat="45.03811" lon="0.3865">
        <ele>88.4</ele>
        <time>2022-10-09T06:23:56Z</time>
      </trkpt>
      <trkpt lat="45.03798" lon="0.38673">
        <ele>89.3</ele>
        <time>2022-10-09T06:24:02Z</time>
      </trkpt>
      <trkpt lat="45.0379" lon="0.38687">
        <ele>90.1</ele>
        <time>2022-10-09T06:24:06Z</time>
      </trkpt>
      <trkpt lat="45.03786" lon="0.38692">
        <ele>90.4</ele>
        <time>2022-10-09T06:24:08Z</time>
      </trkpt>
      <trkpt lat="45.03783" lon="0.38697">
        <ele>90.8</ele>
        <time>2022-10-09T06:24:10Z</time>
      </trkpt>
      <trkpt lat="45.03778" lon="0.38705">
        <ele>91.4</ele>
        <time>2022-10-09T06:24:13Z</time>
      </trkpt>
      <trkpt lat="45.03776" lon="0.38708">
        <ele>91.7</ele>
        <time>2022-10-09T06:24:14Z</time>
      </trkpt>
      <trkpt lat="45.03772" lon="0.38714">
        <ele>92.2</ele>
        <time>2022-10-09T06:24:16Z</time>
      </trkpt>
      <trkpt lat="45.0377" lon="0.38718">
        <ele>92.4</ele>
        <time>2022-10-09T06:24:17Z</time>
      </trkpt>
      <trkpt lat="45.03761" lon="0.38732">
        <ele>93.4</ele>
        <time>2022-10-09T06:24:23Z</time>
      </trkpt>
      <trkpt lat="45.03755" lon="0.3874">
        <ele>94</ele>
        <time>2022-10-09T06:24:26Z</time>
      </trkpt>
      <trkpt lat="45.03753" lon="0.38742">
        <ele>94.1</ele>
        <time>2022-10-09T06:24:27Z</time>
      </trkpt>
      <trkpt lat="45.03744" lon="0.38757">
        <ele>94.9</ele>
        <time>2022-10-09T06:24:32Z</time>
      </trkpt>
      <trkpt lat="45.03733" lon="0.38773">
        <ele>95.6</ele>
        <time>2022-10-09T06:24:37Z</time>
      </trkpt>
      <trkpt lat="45.03723" lon="0.38789">
        <ele>96.1</ele>
        <time>2022-10-09T06:24:42Z</time>
      </trkpt>
      <trkpt lat="45.03719" lon="0.38796">
        <ele>96.3</ele>
        <time>2022-10-09T06:24:44Z</time>
      </trkpt>
      <trkpt lat="45.03716" lon="0.388">
        <ele>96.3</ele>
        <time>2022-10-09T06:24:45Z</time>
      </trkpt>
      <trkpt lat="45.03706" lon="0.38819">
        <ele>96.7</ele>
        <time>2022-10-09T06:24:50Z</time>
      </trkpt>
      <trkpt lat="45.03695" lon="0.38837">
        <ele>97.1</ele>
        <time>2022-10-09T06:24:55Z</time>
      </trkpt>
      <trkpt lat="45.03687" lon="0.38843">
        <ele>97.3</ele>
        <time>2022-10-09T06:24:58Z</time>
      </trkpt>
      <trkpt lat="45.03673" lon="0.38838">
        <ele>97.4</ele>
        <time>2022-10-09T06:25:02Z</time>
      </trkpt>
      <trkpt lat="45.03652" lon="0.38825">
        <ele>97.1</ele>
        <time>2022-10-09T06:25:08Z</time>
      </trkpt>
      <trkpt lat="45.03635" lon="0.3881">
        <ele>96.4</ele>
        <time>2022-10-09T06:25:13Z</time>
      </trkpt>
      <trkpt lat="45.03619" lon="0.38796">
        <ele>95.8</ele>
        <time>2022-10-09T06:25:17Z</time>
      </trkpt>
      <trkpt lat="45.03614" lon="0.38796">
        <ele>95.7</ele>
        <time>2022-10-09T06:25:18Z</time>
      </trkpt>
      <trkpt lat="45.03605" lon="0.38797">
        <ele>95.5</ele>
        <time>2022-10-09T06:25:20Z</time>
      </trkpt>
      <trkpt lat="45.03597" lon="0.388">
        <ele>95.4</ele>
        <time>2022-10-09T06:25:22Z</time>
      </trkpt>
      <trkpt lat="45.03582" lon="0.38812">
        <ele>95.5</ele>
        <time>2022-10-09T06:25:26Z</time>
      </trkpt>
      <trkpt lat="45.03578" lon="0.38815">
        <ele>95.6</ele>
        <time>2022-10-09T06:25:27Z</time>
      </trkpt>
      <trkpt lat="45.03548" lon="0.38841">
        <ele>96.6</ele>
        <time>2022-10-09T06:25:35Z</time>
      </trkpt>
      <trkpt lat="45.03544" lon="0.38844">
        <ele>96.8</ele>
        <time>2022-10-09T06:25:36Z</time>
      </trkpt>
      <trkpt lat="45.03537" lon="0.3885">
        <ele>97</ele>
        <time>2022-10-09T06:25:38Z</time>
      </trkpt>
      <trkpt lat="45.03534" lon="0.38852">
        <ele>97.1</ele>
        <time>2022-10-09T06:25:39Z</time>
      </trkpt>
      <trkpt lat="45.03519" lon="0.38864">
        <ele>97.3</ele>
        <time>2022-10-09T06:25:43Z</time>
      </trkpt>
      <trkpt lat="45.03512" lon="0.38871">
        <ele>97.2</ele>
        <time>2022-10-09T06:25:45Z</time>
      </trkpt>
      <trkpt lat="45.03504" lon="0.38877">
        <ele>97.2</ele>
        <time>2022-10-09T06:25:47Z</time>
      </trkpt>
      <trkpt lat="45.03501" lon="0.3888">
        <ele>97.2</ele>
        <time>2022-10-09T06:25:48Z</time>
      </trkpt>
      <trkpt lat="45.03494" lon="0.38887">
        <ele>97</ele>
        <time>2022-10-09T06:25:50Z</time>
      </trkpt>
      <trkpt lat="45.0348" lon="0.38894">
        <ele>96.6</ele>
        <time>2022-10-09T06:25:53Z</time>
      </trkpt>
      <trkpt lat="45.03461" lon="0.38894">
        <ele>96.4</ele>
        <time>2022-10-09T06:25:57Z</time>
      </trkpt>
      <trkpt lat="45.03452" lon="0.38898">
        <ele>96.3</ele>
        <time>2022-10-09T06:25:59Z</time>
      </trkpt>
      <trkpt lat="45.03439" lon="0.38906">
        <ele>96.5</ele>
        <time>2022-10-09T06:26:03Z</time>
      </trkpt>
      <trkpt lat="45.03432" lon="0.38906">
        <ele>96.6</ele>
        <time>2022-10-09T06:26:04Z</time>
      </trkpt>
      <trkpt lat="45.0343" lon="0.38899">
        <ele>96.6</ele>
        <time>2022-10-09T06:26:06Z</time>
      </trkpt>
      <trkpt lat="45.03425" lon="0.38866">
        <ele>96.6</ele>
        <time>2022-10-09T06:26:13Z</time>
      </trkpt>
      <trkpt lat="45.03418" lon="0.38822">
        <ele>97</ele>
        <time>2022-10-09T06:26:21Z</time>
      </trkpt>
      <trkpt lat="45.03411" lon="0.38781">
        <ele>97.9</ele>
        <time>2022-10-09T06:26:29Z</time>
      </trkpt>
      <trkpt lat="45.03405" lon="0.38747">
        <ele>98.8</ele>
        <time>2022-10-09T06:26:36Z</time>
      </trkpt>
      <trkpt lat="45.03398" lon="0.38701">
        <ele>100.4</ele>
        <time>2022-10-09T06:26:45Z</time>
      </trkpt>
      <trkpt lat="45.03391" lon="0.3866">
        <ele>101.6</ele>
        <time>2022-10-09T06:26:53Z</time>
      </trkpt>
      <trkpt lat="45.03385" lon="0.38625">
        <ele>101.9</ele>
        <time>2022-10-09T06:27:00Z</time>
      </trkpt>
      <trkpt lat="45.03381" lon="0.38599">
        <ele>101.5</ele>
        <time>2022-10-09T06:27:05Z</time>
      </trkpt>
      <trkpt lat="45.03379" lon="0.38587">
        <ele>101.2</ele>
        <time>2022-10-09T06:27:07Z</time>
      </trkpt>
      <trkpt lat="45.03372" lon="0.38543">
        <ele>100.1</ele>
        <time>2022-10-09T06:27:14Z</time>
      </trkpt>
      <trkpt lat="45.03362" lon="0.38532">
        <ele>99.7</ele>
        <time>2022-10-09T06:27:16Z</time>
      </trkpt>
      <trkpt lat="45.03358" lon="0.38534">
        <ele>99.8</ele>
        <time>2022-10-09T06:27:17Z</time>
      </trkpt>
      <trkpt lat="45.03325" lon="0.38544">
        <ele>101</ele>
        <time>2022-10-09T06:27:25Z</time>
      </trkpt>
      <trkpt lat="45.03299" lon="0.3855">
        <ele>102.6</ele>
        <time>2022-10-09T06:27:32Z</time>
      </trkpt>
      <trkpt lat="45.0328" lon="0.38555">
        <ele>104</ele>
        <time>2022-10-09T06:27:38Z</time>
      </trkpt>
      <trkpt lat="45.03273" lon="0.38557">
        <ele>104.4</ele>
        <time>2022-10-09T06:27:41Z</time>
      </trkpt>
      <trkpt lat="45.0327" lon="0.38573">
        <ele>104.8</ele>
        <time>2022-10-09T06:27:44Z</time>
      </trkpt>
      <trkpt lat="45.03271" lon="0.38588">
        <ele>105.1</ele>
        <time>2022-10-09T06:27:47Z</time>
      </trkpt>
      <trkpt lat="45.03275" lon="0.38613">
        <ele>105.3</ele>
        <time>2022-10-09T06:27:52Z</time>
      </trkpt>
      <trkpt lat="45.0328" lon="0.38645">
        <ele>105.3</ele>
        <time>2022-10-09T06:27:58Z</time>
      </trkpt>
      <trkpt lat="45.03285" lon="0.38677">
        <ele>105.1</ele>
        <time>2022-10-09T06:28:04Z</time>
      </trkpt>
      <trkpt lat="45.03287" lon="0.38706">
        <ele>105</ele>
        <time>2022-10-09T06:28:09Z</time>
      </trkpt>
      <trkpt lat="45.03287" lon="0.38712">
        <ele>105</ele>
        <time>2022-10-09T06:28:10Z</time>
      </trkpt>
      <trkpt lat="45.03287" lon="0.38724">
        <ele>105</ele>
        <time>2022-10-09T06:28:12Z</time>
      </trkpt>
      <trkpt lat="45.03286" lon="0.38742">
        <ele>104.9</ele>
        <time>2022-10-09T06:28:15Z</time>
      </trkpt>
      <trkpt lat="45.03283" lon="0.38777">
        <ele>104.9</ele>
        <time>2022-10-09T06:28:21Z</time>
      </trkpt>
      <trkpt lat="45.03282" lon="0.38784">
        <ele>105</ele>
        <time>2022-10-09T06:28:22Z</time>
      </trkpt>
      <trkpt lat="45.03277" lon="0.38807">
        <ele>105.1</ele>
        <time>2022-10-09T06:28:26Z</time>
      </trkpt>
      <trkpt lat="45.03256" lon="0.38841">
        <ele>105.3</ele>
        <time>2022-10-09T06:28:33Z</time>
      </trkpt>
      <trkpt lat="45.0325" lon="0.3885">
        <ele>105.4</ele>
        <time>2022-10-09T06:28:35Z</time>
      </trkpt>
      <trkpt lat="45.03238" lon="0.38867">
        <ele>105.5</ele>
        <time>2022-10-09T06:28:39Z</time>
      </trkpt>
      <trkpt lat="45.03214" lon="0.38893">
        <ele>105.7</ele>
        <time>2022-10-09T06:28:46Z</time>
      </trkpt>
      <trkpt lat="45.03207" lon="0.389">
        <ele>105.8</ele>
        <time>2022-10-09T06:28:48Z</time>
      </trkpt>
      <trkpt lat="45.03197" lon="0.38911">
        <ele>106</ele>
        <time>2022-10-09T06:28:51Z</time>
      </trkpt>
      <trkpt lat="45.03194" lon="0.38914">
        <ele>106</ele>
        <time>2022-10-09T06:28:52Z</time>
      </trkpt>
      <trkpt lat="45.03188" lon="0.38923">
        <ele>106.1</ele>
        <time>2022-10-09T06:28:54Z</time>
      </trkpt>
      <trkpt lat="45.03187" lon="0.38929">
        <ele>106.2</ele>
        <time>2022-10-09T06:28:55Z</time>
      </trkpt>
      <trkpt lat="45.0319" lon="0.38941">
        <ele>106.1</ele>
        <time>2022-10-09T06:28:58Z</time>
      </trkpt>
      <trkpt lat="45.0319" lon="0.38941">
        <ele>106.1</ele>
        <time>2022-10-09T06:29:00Z</time>
      </trkpt>
      <trkpt lat="45.03187" lon="0.38926">
        <ele>106.2</ele>
        <time>2022-10-09T06:29:06Z</time>
      </trkpt>
      <trkpt lat="45.03187" lon="0.38926">
        <ele>106.2</ele>
        <time>2022-10-09T06:29:07Z</time>
      </trkpt>
      <trkpt lat="45.03187" lon="0.38931">
        <ele>106.2</ele>
        <time>2022-10-09T06:29:09Z</time>
      </trkpt>
      <trkpt lat="45.03186" lon="0.38927">
        <ele>106.2</ele>
        <time>2022-10-09T06:29:11Z</time>
      </trkpt>
      <trkpt lat="45.03181" lon="0.38929">
        <ele>106.4</ele>
        <time>2022-10-09T06:29:13Z</time>
      </trkpt>
      <trkpt lat="45.03174" lon="0.3893">
        <ele>106.8</ele>
        <time>2022-10-09T06:29:15Z</time>
      </trkpt>
      <trkpt lat="45.03161" lon="0.3893">
        <ele>107.2</ele>
        <time>2022-10-09T06:29:20Z</time>
      </trkpt>
      <trkpt lat="45.03148" lon="0.38929">
        <ele>107.6</ele>
        <time>2022-10-09T06:29:25Z</time>
      </trkpt>
      <trkpt lat="45.03133" lon="0.38928">
        <ele>108</ele>
        <time>2022-10-09T06:29:30Z</time>
      </trkpt>
      <trkpt lat="45.03116" lon="0.38927">
        <ele>108.6</ele>
        <time>2022-10-09T06:29:35Z</time>
      </trkpt>
      <trkpt lat="45.03099" lon="0.38927">
        <ele>109.2</ele>
        <time>2022-10-09T06:29:40Z</time>
      </trkpt>
      <trkpt lat="45.03083" lon="0.38931">
        <ele>109.6</ele>
        <time>2022-10-09T06:29:45Z</time>
      </trkpt>
      <trkpt lat="45.03065" lon="0.38938">
        <ele>109.7</ele>
        <time>2022-10-09T06:29:50Z</time>
      </trkpt>
      <trkpt lat="45.03044" lon="0.38947">
        <ele>110</ele>
        <time>2022-10-09T06:29:55Z</time>
      </trkpt>
      <trkpt lat="45.0304" lon="0.38949">
        <ele>110.1</ele>
        <time>2022-10-09T06:29:56Z</time>
      </trkpt>
      <trkpt lat="45.03027" lon="0.38956">
        <ele>110.5</ele>
        <time>2022-10-09T06:30:00Z</time>
      </trkpt>
      <trkpt lat="45.0301" lon="0.38965">
        <ele>111.1</ele>
        <time>2022-10-09T06:30:05Z</time>
      </trkpt>
      <trkpt lat="45.02994" lon="0.38973">
        <ele>111.9</ele>
        <time>2022-10-09T06:30:10Z</time>
      </trkpt>
      <trkpt lat="45.02982" lon="0.38979">
        <ele>112.5</ele>
        <time>2022-10-09T06:30:14Z</time>
      </trkpt>
      <trkpt lat="45.02982" lon="0.38987">
        <ele>112.5</ele>
        <time>2022-10-09T06:30:17Z</time>
      </trkpt>
      <trkpt lat="45.02982" lon="0.38987">
        <ele>112.5</ele>
        <time>2022-10-09T06:30:19Z</time>
      </trkpt>
      <trkpt lat="45.02983" lon="0.39002">
        <ele>112.5</ele>
        <time>2022-10-09T06:30:33Z</time>
      </trkpt>
      <trkpt lat="45.02983" lon="0.39006">
        <ele>112.6</ele>
        <time>2022-10-09T06:30:34Z</time>
      </trkpt>
      <trkpt lat="45.02985" lon="0.39028">
        <ele>112.9</ele>
        <time>2022-10-09T06:30:39Z</time>
      </trkpt>
      <trkpt lat="45.02983" lon="0.3905">
        <ele>113.3</ele>
        <time>2022-10-09T06:30:43Z</time>
      </trkpt>
      <trkpt lat="45.02985" lon="0.39075">
        <ele>114</ele>
        <time>2022-10-09T06:30:48Z</time>
      </trkpt>
      <trkpt lat="45.02988" lon="0.39095">
        <ele>114.8</ele>
        <time>2022-10-09T06:30:52Z</time>
      </trkpt>
      <trkpt lat="45.0299" lon="0.39116">
        <ele>116</ele>
        <time>2022-10-09T06:30:56Z</time>
      </trkpt>
      <trkpt lat="45.02993" lon="0.39135">
        <ele>117</ele>
        <time>2022-10-09T06:31:00Z</time>
      </trkpt>
      <trkpt lat="45.02993" lon="0.39153">
        <ele>117.6</ele>
        <time>2022-10-09T06:31:04Z</time>
      </trkpt>
      <trkpt lat="45.02993" lon="0.39162">
        <ele>118</ele>
        <time>2022-10-09T06:31:06Z</time>
      </trkpt>
      <trkpt lat="45.0299" lon="0.3917">
        <ele>118.5</ele>
        <time>2022-10-09T06:31:08Z</time>
      </trkpt>
      <trkpt lat="45.02983" lon="0.39175">
        <ele>119.2</ele>
        <time>2022-10-09T06:31:11Z</time>
      </trkpt>
      <trkpt lat="45.02981" lon="0.39176">
        <ele>119.5</ele>
        <time>2022-10-09T06:31:12Z</time>
      </trkpt>
      <trkpt lat="45.02977" lon="0.39178">
        <ele>119.9</ele>
        <time>2022-10-09T06:31:14Z</time>
      </trkpt>
      <trkpt lat="45.02973" lon="0.39182">
        <ele>120.5</ele>
        <time>2022-10-09T06:31:16Z</time>
      </trkpt>
      <trkpt lat="45.02965" lon="0.39192">
        <ele>121.9</ele>
        <time>2022-10-09T06:31:21Z</time>
      </trkpt>
      <trkpt lat="45.02963" lon="0.39194">
        <ele>122.2</ele>
        <time>2022-10-09T06:31:22Z</time>
      </trkpt>
      <trkpt lat="45.02959" lon="0.392">
        <ele>123</ele>
        <time>2022-10-09T06:31:25Z</time>
      </trkpt>
      <trkpt lat="45.02957" lon="0.39204">
        <ele>123.6</ele>
        <time>2022-10-09T06:31:27Z</time>
      </trkpt>
      <trkpt lat="45.02954" lon="0.39208">
        <ele>124.3</ele>
        <time>2022-10-09T06:31:29Z</time>
      </trkpt>
      <trkpt lat="45.02951" lon="0.39215">
        <ele>125.2</ele>
        <time>2022-10-09T06:31:32Z</time>
      </trkpt>
      <trkpt lat="45.02949" lon="0.39221">
        <ele>125.7</ele>
        <time>2022-10-09T06:31:34Z</time>
      </trkpt>
      <trkpt lat="45.02947" lon="0.39226">
        <ele>126.3</ele>
        <time>2022-10-09T06:31:37Z</time>
      </trkpt>
      <trkpt lat="45.02945" lon="0.39229">
        <ele>126.6</ele>
        <time>2022-10-09T06:31:39Z</time>
      </trkpt>
      <trkpt lat="45.02932" lon="0.39243">
        <ele>127.8</ele>
        <time>2022-10-09T06:31:46Z</time>
      </trkpt>
      <trkpt lat="45.02923" lon="0.39248">
        <ele>128.1</ele>
        <time>2022-10-09T06:31:50Z</time>
      </trkpt>
      <trkpt lat="45.02921" lon="0.3925">
        <ele>128.2</ele>
        <time>2022-10-09T06:31:51Z</time>
      </trkpt>
      <trkpt lat="45.02916" lon="0.39254">
        <ele>128.3</ele>
        <time>2022-10-09T06:31:55Z</time>
      </trkpt>
      <trkpt lat="45.02907" lon="0.39263">
        <ele>128.4</ele>
        <time>2022-10-09T06:31:57Z</time>
      </trkpt>
      <trkpt lat="45.02902" lon="0.39271">
        <ele>128.3</ele>
        <time>2022-10-09T06:31:59Z</time>
      </trkpt>
      <trkpt lat="45.02892" lon="0.39289">
        <ele>128.1</ele>
        <time>2022-10-09T06:32:03Z</time>
      </trkpt>
      <trkpt lat="45.02877" lon="0.3931">
        <ele>127.8</ele>
        <time>2022-10-09T06:32:08Z</time>
      </trkpt>
      <trkpt lat="45.02858" lon="0.3933">
        <ele>127.4</ele>
        <time>2022-10-09T06:32:14Z</time>
      </trkpt>
      <trkpt lat="45.02842" lon="0.39355">
        <ele>126.9</ele>
        <time>2022-10-09T06:32:20Z</time>
      </trkpt>
      <trkpt lat="45.02828" lon="0.39371">
        <ele>126.4</ele>
        <time>2022-10-09T06:32:25Z</time>
      </trkpt>
      <trkpt lat="45.02811" lon="0.39376">
        <ele>126</ele>
        <time>2022-10-09T06:32:30Z</time>
      </trkpt>
      <trkpt lat="45.02791" lon="0.39379">
        <ele>125.7</ele>
        <time>2022-10-09T06:32:36Z</time>
      </trkpt>
      <trkpt lat="45.02769" lon="0.39381">
        <ele>125.3</ele>
        <time>2022-10-09T06:32:43Z</time>
      </trkpt>
      <trkpt lat="45.02754" lon="0.3938">
        <ele>125</ele>
        <time>2022-10-09T06:32:48Z</time>
      </trkpt>
      <trkpt lat="45.0274" lon="0.39379">
        <ele>124.6</ele>
        <time>2022-10-09T06:32:53Z</time>
      </trkpt>
      <trkpt lat="45.02726" lon="0.39379">
        <ele>124</ele>
        <time>2022-10-09T06:32:58Z</time>
      </trkpt>
      <trkpt lat="45.02719" lon="0.39379">
        <ele>123.8</ele>
        <time>2022-10-09T06:33:00Z</time>
      </trkpt>
      <trkpt lat="45.0271" lon="0.39379">
        <ele>123.4</ele>
        <time>2022-10-09T06:33:02Z</time>
      </trkpt>
      <trkpt lat="45.02685" lon="0.3937">
        <ele>122.5</ele>
        <time>2022-10-09T06:33:08Z</time>
      </trkpt>
      <trkpt lat="45.02657" lon="0.39358">
        <ele>121.6</ele>
        <time>2022-10-09T06:33:15Z</time>
      </trkpt>
      <trkpt lat="45.02653" lon="0.39357">
        <ele>121.5</ele>
        <time>2022-10-09T06:33:16Z</time>
      </trkpt>
      <trkpt lat="45.02648" lon="0.39356">
        <ele>121.4</ele>
        <time>2022-10-09T06:33:17Z</time>
      </trkpt>
      <trkpt lat="45.02641" lon="0.39358">
        <ele>121.1</ele>
        <time>2022-10-09T06:33:19Z</time>
      </trkpt>
      <trkpt lat="45.02648" lon="0.39375">
        <ele>121.3</ele>
        <time>2022-10-09T06:33:22Z</time>
      </trkpt>
      <trkpt lat="45.02659" lon="0.39392">
        <ele>121.2</ele>
        <time>2022-10-09T06:33:27Z</time>
      </trkpt>
      <trkpt lat="45.02681" lon="0.39423">
        <ele>120.6</ele>
        <time>2022-10-09T06:33:35Z</time>
      </trkpt>
      <trkpt lat="45.02706" lon="0.39459">
        <ele>119.9</ele>
        <time>2022-10-09T06:33:44Z</time>
      </trkpt>
      <trkpt lat="45.02729" lon="0.39491">
        <ele>119.7</ele>
        <time>2022-10-09T06:33:52Z</time>
      </trkpt>
      <trkpt lat="45.02747" lon="0.39518">
        <ele>118.5</ele>
        <time>2022-10-09T06:33:58Z</time>
      </trkpt>
      <trkpt lat="45.02767" lon="0.39544">
        <ele>116.5</ele>
        <time>2022-10-09T06:34:02Z</time>
      </trkpt>
      <trkpt lat="45.02779" lon="0.3956">
        <ele>115.2</ele>
        <time>2022-10-09T06:34:04Z</time>
      </trkpt>
      <trkpt lat="45.02784" lon="0.39568">
        <ele>114.4</ele>
        <time>2022-10-09T06:34:05Z</time>
      </trkpt>
      <trkpt lat="45.02814" lon="0.39612">
        <ele>110</ele>
        <time>2022-10-09T06:34:10Z</time>
      </trkpt>
      <trkpt lat="45.0282" lon="0.3962">
        <ele>108.9</ele>
        <time>2022-10-09T06:34:11Z</time>
      </trkpt>
      <trkpt lat="45.02836" lon="0.39626">
        <ele>106.9</ele>
        <time>2022-10-09T06:34:13Z</time>
      </trkpt>
      <trkpt lat="45.02862" lon="0.3963">
        <ele>104.9</ele>
        <time>2022-10-09T06:34:16Z</time>
      </trkpt>
      <trkpt lat="45.02881" lon="0.39627">
        <ele>105.2</ele>
        <time>2022-10-09T06:34:19Z</time>
      </trkpt>
      <trkpt lat="45.02892" lon="0.39626">
        <ele>105.7</ele>
        <time>2022-10-09T06:34:22Z</time>
      </trkpt>
      <trkpt lat="45.02897" lon="0.39628">
        <ele>106</ele>
        <time>2022-10-09T06:34:24Z</time>
      </trkpt>
      <trkpt lat="45.02902" lon="0.39633">
        <ele>106.1</ele>
        <time>2022-10-09T06:34:26Z</time>
      </trkpt>
      <trkpt lat="45.0292" lon="0.39649">
        <ele>106.8</ele>
        <time>2022-10-09T06:34:30Z</time>
      </trkpt>
      <trkpt lat="45.02935" lon="0.39663">
        <ele>108.4</ele>
        <time>2022-10-09T06:34:35Z</time>
      </trkpt>
      <trkpt lat="45.0294" lon="0.39668">
        <ele>109.2</ele>
        <time>2022-10-09T06:34:37Z</time>
      </trkpt>
      <trkpt lat="45.02944" lon="0.39672">
        <ele>109.8</ele>
        <time>2022-10-09T06:34:39Z</time>
      </trkpt>
      <trkpt lat="45.02958" lon="0.39683">
        <ele>111.4</ele>
        <time>2022-10-09T06:34:45Z</time>
      </trkpt>
      <trkpt lat="45.02964" lon="0.39692">
        <ele>111.8</ele>
        <time>2022-10-09T06:34:48Z</time>
      </trkpt>
      <trkpt lat="45.02968" lon="0.39698">
        <ele>112</ele>
        <time>2022-10-09T06:34:50Z</time>
      </trkpt>
      <trkpt lat="45.02973" lon="0.39724">
        <ele>111.3</ele>
        <time>2022-10-09T06:34:55Z</time>
      </trkpt>
      <trkpt lat="45.02975" lon="0.39738">
        <ele>110.1</ele>
        <time>2022-10-09T06:34:57Z</time>
      </trkpt>
      <trkpt lat="45.02978" lon="0.39755">
        <ele>108.1</ele>
        <time>2022-10-09T06:34:59Z</time>
      </trkpt>
      <trkpt lat="45.02982" lon="0.39771">
        <ele>106.1</ele>
        <time>2022-10-09T06:35:01Z</time>
      </trkpt>
      <trkpt lat="45.02987" lon="0.39781">
        <ele>105.1</ele>
        <time>2022-10-09T06:35:02Z</time>
      </trkpt>
      <trkpt lat="45.02992" lon="0.39789">
        <ele>104.3</ele>
        <time>2022-10-09T06:35:03Z</time>
      </trkpt>
      <trkpt lat="45.03005" lon="0.39801">
        <ele>103.5</ele>
        <time>2022-10-09T06:35:05Z</time>
      </trkpt>
      <trkpt lat="45.03022" lon="0.39812">
        <ele>103.4</ele>
        <time>2022-10-09T06:35:08Z</time>
      </trkpt>
      <trkpt lat="45.03027" lon="0.39816">
        <ele>103.5</ele>
        <time>2022-10-09T06:35:09Z</time>
      </trkpt>
      <trkpt lat="45.03031" lon="0.39822">
        <ele>103.7</ele>
        <time>2022-10-09T06:35:10Z</time>
      </trkpt>
      <trkpt lat="45.03044" lon="0.39839">
        <ele>104.3</ele>
        <time>2022-10-09T06:35:13Z</time>
      </trkpt>
      <trkpt lat="45.03073" lon="0.39867">
        <ele>105.4</ele>
        <time>2022-10-09T06:35:19Z</time>
      </trkpt>
      <trkpt lat="45.03092" lon="0.3988">
        <ele>106.2</ele>
        <time>2022-10-09T06:35:23Z</time>
      </trkpt>
      <trkpt lat="45.03104" lon="0.39888">
        <ele>107.1</ele>
        <time>2022-10-09T06:35:26Z</time>
      </trkpt>
      <trkpt lat="45.03117" lon="0.39897">
        <ele>108.4</ele>
        <time>2022-10-09T06:35:30Z</time>
      </trkpt>
      <trkpt lat="45.03132" lon="0.39907">
        <ele>109.9</ele>
        <time>2022-10-09T06:35:34Z</time>
      </trkpt>
      <trkpt lat="45.03139" lon="0.39911">
        <ele>110.5</ele>
        <time>2022-10-09T06:35:36Z</time>
      </trkpt>
      <trkpt lat="45.03146" lon="0.39916">
        <ele>111.3</ele>
        <time>2022-10-09T06:35:38Z</time>
      </trkpt>
      <trkpt lat="45.03164" lon="0.39929">
        <ele>112.7</ele>
        <time>2022-10-09T06:35:43Z</time>
      </trkpt>
      <trkpt lat="45.03178" lon="0.39938">
        <ele>113.4</ele>
        <time>2022-10-09T06:35:47Z</time>
      </trkpt>
      <trkpt lat="45.032" lon="0.39953">
        <ele>113.6</ele>
        <time>2022-10-09T06:35:53Z</time>
      </trkpt>
      <trkpt lat="45.0322" lon="0.3997">
        <ele>113.3</ele>
        <time>2022-10-09T06:35:58Z</time>
      </trkpt>
      <trkpt lat="45.03224" lon="0.39973">
        <ele>113.3</ele>
        <time>2022-10-09T06:35:59Z</time>
      </trkpt>
      <trkpt lat="45.03234" lon="0.39982">
        <ele>113.5</ele>
        <time>2022-10-09T06:36:02Z</time>
      </trkpt>
      <trkpt lat="45.03251" lon="0.39993">
        <ele>113.7</ele>
        <time>2022-10-09T06:36:07Z</time>
      </trkpt>
      <trkpt lat="45.03258" lon="0.39988">
        <ele>113.6</ele>
        <time>2022-10-09T06:36:09Z</time>
      </trkpt>
      <trkpt lat="45.03266" lon="0.39983">
        <ele>113.3</ele>
        <time>2022-10-09T06:36:11Z</time>
      </trkpt>
      <trkpt lat="45.0327" lon="0.39979">
        <ele>113.1</ele>
        <time>2022-10-09T06:36:12Z</time>
      </trkpt>
      <trkpt lat="45.03283" lon="0.39969">
        <ele>112.5</ele>
        <time>2022-10-09T06:36:15Z</time>
      </trkpt>
      <trkpt lat="45.03288" lon="0.39965">
        <ele>112.4</ele>
        <time>2022-10-09T06:36:16Z</time>
      </trkpt>
      <trkpt lat="45.033" lon="0.39959">
        <ele>112.7</ele>
        <time>2022-10-09T06:36:19Z</time>
      </trkpt>
      <trkpt lat="45.03308" lon="0.39957">
        <ele>113.2</ele>
        <time>2022-10-09T06:36:21Z</time>
      </trkpt>
      <trkpt lat="45.03323" lon="0.39958">
        <ele>114.7</ele>
        <time>2022-10-09T06:36:26Z</time>
      </trkpt>
      <trkpt lat="45.03334" lon="0.39963">
        <ele>116.3</ele>
        <time>2022-10-09T06:36:30Z</time>
      </trkpt>
      <trkpt lat="45.03335" lon="0.39976">
        <ele>116.5</ele>
        <time>2022-10-09T06:36:34Z</time>
      </trkpt>
      <trkpt lat="45.03332" lon="0.39982">
        <ele>116.7</ele>
        <time>2022-10-09T06:36:35Z</time>
      </trkpt>
      <trkpt lat="45.03327" lon="0.39983">
        <ele>117.3</ele>
        <time>2022-10-09T06:36:38Z</time>
      </trkpt>
      <trkpt lat="45.03313" lon="0.39988">
        <ele>118.3</ele>
        <time>2022-10-09T06:36:44Z</time>
      </trkpt>
      <trkpt lat="45.03299" lon="0.39995">
        <ele>119.6</ele>
        <time>2022-10-09T06:36:51Z</time>
      </trkpt>
      <trkpt lat="45.03286" lon="0.40005">
        <ele>120.8</ele>
        <time>2022-10-09T06:36:57Z</time>
      </trkpt>
      <trkpt lat="45.03276" lon="0.40015">
        <ele>121.8</ele>
        <time>2022-10-09T06:37:03Z</time>
      </trkpt>
      <trkpt lat="45.03265" lon="0.40026">
        <ele>122.7</ele>
        <time>2022-10-09T06:37:09Z</time>
      </trkpt>
      <trkpt lat="45.03252" lon="0.40039">
        <ele>123.5</ele>
        <time>2022-10-09T06:37:15Z</time>
      </trkpt>
      <trkpt lat="45.03237" lon="0.40056">
        <ele>124.2</ele>
        <time>2022-10-09T06:37:22Z</time>
      </trkpt>
      <trkpt lat="45.03219" lon="0.40074">
        <ele>124.6</ele>
        <time>2022-10-09T06:37:29Z</time>
      </trkpt>
      <trkpt lat="45.03204" lon="0.40088">
        <ele>124.8</ele>
        <time>2022-10-09T06:37:34Z</time>
      </trkpt>
      <trkpt lat="45.03193" lon="0.40098">
        <ele>124.7</ele>
        <time>2022-10-09T06:37:38Z</time>
      </trkpt>
      <trkpt lat="45.03196" lon="0.40106">
        <ele>124.5</ele>
        <time>2022-10-09T06:37:39Z</time>
      </trkpt>
      <trkpt lat="45.03201" lon="0.40105">
        <ele>124.5</ele>
        <time>2022-10-09T06:37:41Z</time>
      </trkpt>
      <trkpt lat="45.03203" lon="0.40104">
        <ele>124.5</ele>
        <time>2022-10-09T06:37:42Z</time>
      </trkpt>
      <trkpt lat="45.0322" lon="0.40102">
        <ele>124.5</ele>
        <time>2022-10-09T06:37:47Z</time>
      </trkpt>
      <trkpt lat="45.03233" lon="0.40108">
        <ele>124.4</ele>
        <time>2022-10-09T06:37:50Z</time>
      </trkpt>
      <trkpt lat="45.03245" lon="0.40116">
        <ele>124.4</ele>
        <time>2022-10-09T06:37:53Z</time>
      </trkpt>
      <trkpt lat="45.03279" lon="0.40137">
        <ele>123.4</ele>
        <time>2022-10-09T06:38:01Z</time>
      </trkpt>
      <trkpt lat="45.0331" lon="0.40156">
        <ele>122.2</ele>
        <time>2022-10-09T06:38:07Z</time>
      </trkpt>
      <trkpt lat="45.03342" lon="0.40181">
        <ele>121.2</ele>
        <time>2022-10-09T06:38:13Z</time>
      </trkpt>
      <trkpt lat="45.03353" lon="0.4019">
        <ele>121</ele>
        <time>2022-10-09T06:38:15Z</time>
      </trkpt>
      <trkpt lat="45.0337" lon="0.40199">
        <ele>120.5</ele>
        <time>2022-10-09T06:38:18Z</time>
      </trkpt>
      <trkpt lat="45.03399" lon="0.40216">
        <ele>120</ele>
        <time>2022-10-09T06:38:23Z</time>
      </trkpt>
      <trkpt lat="45.03409" lon="0.40223">
        <ele>120.1</ele>
        <time>2022-10-09T06:38:25Z</time>
      </trkpt>
      <trkpt lat="45.03418" lon="0.4023">
        <ele>120.3</ele>
        <time>2022-10-09T06:38:27Z</time>
      </trkpt>
      <trkpt lat="45.03429" lon="0.40245">
        <ele>120.8</ele>
        <time>2022-10-09T06:38:32Z</time>
      </trkpt>
      <trkpt lat="45.03438" lon="0.40269">
        <ele>121.9</ele>
        <time>2022-10-09T06:38:37Z</time>
      </trkpt>
      <trkpt lat="45.03446" lon="0.40287">
        <ele>123.6</ele>
        <time>2022-10-09T06:38:43Z</time>
      </trkpt>
      <trkpt lat="45.03453" lon="0.40304">
        <ele>125.3</ele>
        <time>2022-10-09T06:38:49Z</time>
      </trkpt>
      <trkpt lat="45.03462" lon="0.40314">
        <ele>126.7</ele>
        <time>2022-10-09T06:38:54Z</time>
      </trkpt>
      <trkpt lat="45.0347" lon="0.40318">
        <ele>127.7</ele>
        <time>2022-10-09T06:38:58Z</time>
      </trkpt>
      <trkpt lat="45.03484" lon="0.40318">
        <ele>129.1</ele>
        <time>2022-10-09T06:39:04Z</time>
      </trkpt>
      <trkpt lat="45.03496" lon="0.40317">
        <ele>130.3</ele>
        <time>2022-10-09T06:39:10Z</time>
      </trkpt>
      <trkpt lat="45.03509" lon="0.4032">
        <ele>131.2</ele>
        <time>2022-10-09T06:39:15Z</time>
      </trkpt>
      <trkpt lat="45.03519" lon="0.40334">
        <ele>132.1</ele>
        <time>2022-10-09T06:39:21Z</time>
      </trkpt>
      <trkpt lat="45.03528" lon="0.40346">
        <ele>132.7</ele>
        <time>2022-10-09T06:39:27Z</time>
      </trkpt>
      <trkpt lat="45.03542" lon="0.40353">
        <ele>133.1</ele>
        <time>2022-10-09T06:39:32Z</time>
      </trkpt>
      <trkpt lat="45.03558" lon="0.40368">
        <ele>133.6</ele>
        <time>2022-10-09T06:39:38Z</time>
      </trkpt>
      <trkpt lat="45.03573" lon="0.40384">
        <ele>134.1</ele>
        <time>2022-10-09T06:39:44Z</time>
      </trkpt>
      <trkpt lat="45.03586" lon="0.40397">
        <ele>134.6</ele>
        <time>2022-10-09T06:39:49Z</time>
      </trkpt>
      <trkpt lat="45.03607" lon="0.40417">
        <ele>135.2</ele>
        <time>2022-10-09T06:39:56Z</time>
      </trkpt>
      <trkpt lat="45.0363" lon="0.40443">
        <ele>135.8</ele>
        <time>2022-10-09T06:40:04Z</time>
      </trkpt>
      <trkpt lat="45.03649" lon="0.40464">
        <ele>136.5</ele>
        <time>2022-10-09T06:40:10Z</time>
      </trkpt>
      <trkpt lat="45.03664" lon="0.40481">
        <ele>137.3</ele>
        <time>2022-10-09T06:40:15Z</time>
      </trkpt>
      <trkpt lat="45.03682" lon="0.40501">
        <ele>137.8</ele>
        <time>2022-10-09T06:40:22Z</time>
      </trkpt>
      <trkpt lat="45.03696" lon="0.40515">
        <ele>136.9</ele>
        <time>2022-10-09T06:40:26Z</time>
      </trkpt>
      <trkpt lat="45.03709" lon="0.40529">
        <ele>135.4</ele>
        <time>2022-10-09T06:40:29Z</time>
      </trkpt>
      <trkpt lat="45.03721" lon="0.40541">
        <ele>134.3</ele>
        <time>2022-10-09T06:40:31Z</time>
      </trkpt>
      <trkpt lat="45.03752" lon="0.40573">
        <ele>133.4</ele>
        <time>2022-10-09T06:40:36Z</time>
      </trkpt>
      <trkpt lat="45.03768" lon="0.40589">
        <ele>132.2</ele>
        <time>2022-10-09T06:40:39Z</time>
      </trkpt>
      <trkpt lat="45.03771" lon="0.40598">
        <ele>131.8</ele>
        <time>2022-10-09T06:40:40Z</time>
      </trkpt>
      <trkpt lat="45.03777" lon="0.40609">
        <ele>131.3</ele>
        <time>2022-10-09T06:40:42Z</time>
      </trkpt>
      <trkpt lat="45.03786" lon="0.40611">
        <ele>130.8</ele>
        <time>2022-10-09T06:40:44Z</time>
      </trkpt>
      <trkpt lat="45.03793" lon="0.40612">
        <ele>130.6</ele>
        <time>2022-10-09T06:40:45Z</time>
      </trkpt>
      <trkpt lat="45.03805" lon="0.40623">
        <ele>130.2</ele>
        <time>2022-10-09T06:40:47Z</time>
      </trkpt>
      <trkpt lat="45.03837" lon="0.4066">
        <ele>128</ele>
        <time>2022-10-09T06:40:53Z</time>
      </trkpt>
      <trkpt lat="45.03861" lon="0.40687">
        <ele>126.3</ele>
        <time>2022-10-09T06:40:57Z</time>
      </trkpt>
      <trkpt lat="45.03876" lon="0.40705">
        <ele>127.4</ele>
        <time>2022-10-09T06:41:00Z</time>
      </trkpt>
      <trkpt lat="45.0388" lon="0.40712">
        <ele>128.1</ele>
        <time>2022-10-09T06:41:01Z</time>
      </trkpt>
      <trkpt lat="45.03885" lon="0.40722">
        <ele>129.4</ele>
        <time>2022-10-09T06:41:04Z</time>
      </trkpt>
      <trkpt lat="45.0389" lon="0.40733">
        <ele>131.1</ele>
        <time>2022-10-09T06:41:09Z</time>
      </trkpt>
      <trkpt lat="45.0389" lon="0.40736">
        <ele>131.4</ele>
        <time>2022-10-09T06:41:10Z</time>
      </trkpt>
      <trkpt lat="45.03895" lon="0.40751">
        <ele>133.4</ele>
        <time>2022-10-09T06:41:16Z</time>
      </trkpt>
      <trkpt lat="45.03898" lon="0.40762">
        <ele>134.8</ele>
        <time>2022-10-09T06:41:22Z</time>
      </trkpt>
      <trkpt lat="45.03901" lon="0.40774">
        <ele>136</ele>
        <time>2022-10-09T06:41:27Z</time>
      </trkpt>
      <trkpt lat="45.03907" lon="0.40786">
        <ele>137.2</ele>
        <time>2022-10-09T06:41:33Z</time>
      </trkpt>
      <trkpt lat="45.03916" lon="0.40802">
        <ele>138.3</ele>
        <time>2022-10-09T06:41:41Z</time>
      </trkpt>
      <trkpt lat="45.03928" lon="0.40819">
        <ele>138.9</ele>
        <time>2022-10-09T06:41:49Z</time>
      </trkpt>
      <trkpt lat="45.0394" lon="0.40836">
        <ele>138.9</ele>
        <time>2022-10-09T06:41:56Z</time>
      </trkpt>
      <trkpt lat="45.03949" lon="0.40846">
        <ele>138.4</ele>
        <time>2022-10-09T06:42:00Z</time>
      </trkpt>
      <trkpt lat="45.03971" lon="0.40869">
        <ele>136.1</ele>
        <time>2022-10-09T06:42:05Z</time>
      </trkpt>
      <trkpt lat="45.03981" lon="0.40878">
        <ele>134.8</ele>
        <time>2022-10-09T06:42:07Z</time>
      </trkpt>
      <trkpt lat="45.03995" lon="0.40889">
        <ele>132.5</ele>
        <time>2022-10-09T06:42:09Z</time>
      </trkpt>
      <trkpt lat="45.04029" lon="0.40915">
        <ele>127.3</ele>
        <time>2022-10-09T06:42:13Z</time>
      </trkpt>
      <trkpt lat="45.04043" lon="0.40929">
        <ele>125.8</ele>
        <time>2022-10-09T06:42:15Z</time>
      </trkpt>
      <trkpt lat="45.04046" lon="0.40936">
        <ele>125.1</ele>
        <time>2022-10-09T06:42:16Z</time>
      </trkpt>
      <trkpt lat="45.04048" lon="0.40942">
        <ele>124.5</ele>
        <time>2022-10-09T06:42:17Z</time>
      </trkpt>
      <trkpt lat="45.0405" lon="0.40952">
        <ele>123.6</ele>
        <time>2022-10-09T06:42:19Z</time>
      </trkpt>
      <trkpt lat="45.04042" lon="0.40958">
        <ele>122</ele>
        <time>2022-10-09T06:42:21Z</time>
      </trkpt>
      <trkpt lat="45.04037" lon="0.4096">
        <ele>121.5</ele>
        <time>2022-10-09T06:42:22Z</time>
      </trkpt>
      <trkpt lat="45.04033" lon="0.40962">
        <ele>121</ele>
        <time>2022-10-09T06:42:23Z</time>
      </trkpt>
      <trkpt lat="45.04022" lon="0.40967">
        <ele>119.8</ele>
        <time>2022-10-09T06:42:25Z</time>
      </trkpt>
      <trkpt lat="45.03996" lon="0.40985">
        <ele>118.1</ele>
        <time>2022-10-09T06:42:30Z</time>
      </trkpt>
      <trkpt lat="45.0397" lon="0.41003">
        <ele>117.9</ele>
        <time>2022-10-09T06:42:35Z</time>
      </trkpt>
      <trkpt lat="45.0396" lon="0.4101">
        <ele>118.1</ele>
        <time>2022-10-09T06:42:37Z</time>
      </trkpt>
      <trkpt lat="45.03933" lon="0.41028">
        <ele>118.6</ele>
        <time>2022-10-09T06:42:43Z</time>
      </trkpt>
      <trkpt lat="45.03923" lon="0.41035">
        <ele>118.6</ele>
        <time>2022-10-09T06:42:45Z</time>
      </trkpt>
      <trkpt lat="45.03908" lon="0.41045">
        <ele>118.5</ele>
        <time>2022-10-09T06:42:48Z</time>
      </trkpt>
      <trkpt lat="45.03877" lon="0.41067">
        <ele>118.3</ele>
        <time>2022-10-09T06:42:54Z</time>
      </trkpt>
      <trkpt lat="45.03868" lon="0.41081">
        <ele>118</ele>
        <time>2022-10-09T06:42:56Z</time>
      </trkpt>
      <trkpt lat="45.03865" lon="0.41089">
        <ele>117.8</ele>
        <time>2022-10-09T06:42:57Z</time>
      </trkpt>
      <trkpt lat="45.03858" lon="0.41132">
        <ele>118</ele>
        <time>2022-10-09T06:43:02Z</time>
      </trkpt>
      <trkpt lat="45.03857" lon="0.41145">
        <ele>118.8</ele>
        <time>2022-10-09T06:43:04Z</time>
      </trkpt>
      <trkpt lat="45.03855" lon="0.41162">
        <ele>120.2</ele>
        <time>2022-10-09T06:43:07Z</time>
      </trkpt>
      <trkpt lat="45.03851" lon="0.41173">
        <ele>121.3</ele>
        <time>2022-10-09T06:43:10Z</time>
      </trkpt>
      <trkpt lat="45.03848" lon="0.41175">
        <ele>121.6</ele>
        <time>2022-10-09T06:43:11Z</time>
      </trkpt>
      <trkpt lat="45.03834" lon="0.41175">
        <ele>123.2</ele>
        <time>2022-10-09T06:43:16Z</time>
      </trkpt>
      <trkpt lat="45.03831" lon="0.41176">
        <ele>123.6</ele>
        <time>2022-10-09T06:43:17Z</time>
      </trkpt>
      <trkpt lat="45.03828" lon="0.41185">
        <ele>124.3</ele>
        <time>2022-10-09T06:43:20Z</time>
      </trkpt>
      <trkpt lat="45.0383" lon="0.41201">
        <ele>125.3</ele>
        <time>2022-10-09T06:43:25Z</time>
      </trkpt>
      <trkpt lat="45.03832" lon="0.41229">
        <ele>126.3</ele>
        <time>2022-10-09T06:43:31Z</time>
      </trkpt>
      <trkpt lat="45.03831" lon="0.41253">
        <ele>126.7</ele>
        <time>2022-10-09T06:43:36Z</time>
      </trkpt>
      <trkpt lat="45.03832" lon="0.41279">
        <ele>127.1</ele>
        <time>2022-10-09T06:43:41Z</time>
      </trkpt>
      <trkpt lat="45.03834" lon="0.41286">
        <ele>127.2</ele>
        <time>2022-10-09T06:43:43Z</time>
      </trkpt>
      <trkpt lat="45.0383" lon="0.41292">
        <ele>127.4</ele>
        <time>2022-10-09T06:43:45Z</time>
      </trkpt>
      <trkpt lat="45.03819" lon="0.41298">
        <ele>127.9</ele>
        <time>2022-10-09T06:43:49Z</time>
      </trkpt>
      <trkpt lat="45.03799" lon="0.41311">
        <ele>128.8</ele>
        <time>2022-10-09T06:43:57Z</time>
      </trkpt>
      <trkpt lat="45.03782" lon="0.41321">
        <ele>129.7</ele>
        <time>2022-10-09T06:44:04Z</time>
      </trkpt>
      <trkpt lat="45.03762" lon="0.41333">
        <ele>130.9</ele>
        <time>2022-10-09T06:44:12Z</time>
      </trkpt>
      <trkpt lat="45.03746" lon="0.41343">
        <ele>131.9</ele>
        <time>2022-10-09T06:44:19Z</time>
      </trkpt>
      <trkpt lat="45.0373" lon="0.41352">
        <ele>132.8</ele>
        <time>2022-10-09T06:44:25Z</time>
      </trkpt>
      <trkpt lat="45.03713" lon="0.41364">
        <ele>133.9</ele>
        <time>2022-10-09T06:44:32Z</time>
      </trkpt>
      <trkpt lat="45.03697" lon="0.41377">
        <ele>135</ele>
        <time>2022-10-09T06:44:39Z</time>
      </trkpt>
      <trkpt lat="45.03676" lon="0.41393">
        <ele>136.2</ele>
        <time>2022-10-09T06:44:47Z</time>
      </trkpt>
      <trkpt lat="45.03671" lon="0.41409">
        <ele>136.5</ele>
        <time>2022-10-09T06:44:51Z</time>
      </trkpt>
      <trkpt lat="45.03675" lon="0.41438">
        <ele>136.4</ele>
        <time>2022-10-09T06:44:57Z</time>
      </trkpt>
      <trkpt lat="45.03684" lon="0.41476">
        <ele>136.5</ele>
        <time>2022-10-09T06:45:05Z</time>
      </trkpt>
      <trkpt lat="45.03693" lon="0.4151">
        <ele>137.1</ele>
        <time>2022-10-09T06:45:13Z</time>
      </trkpt>
      <trkpt lat="45.03702" lon="0.41545">
        <ele>137.8</ele>
        <time>2022-10-09T06:45:21Z</time>
      </trkpt>
      <trkpt lat="45.03712" lon="0.41562">
        <ele>138.3</ele>
        <time>2022-10-09T06:45:26Z</time>
      </trkpt>
      <trkpt lat="45.03722" lon="0.41585">
        <ele>138.9</ele>
        <time>2022-10-09T06:45:32Z</time>
      </trkpt>
      <trkpt lat="45.0373" lon="0.41605">
        <ele>139.5</ele>
        <time>2022-10-09T06:45:37Z</time>
      </trkpt>
      <trkpt lat="45.03732" lon="0.41607">
        <ele>139.6</ele>
        <time>2022-10-09T06:45:38Z</time>
      </trkpt>
      <trkpt lat="45.03738" lon="0.41614">
        <ele>139.9</ele>
        <time>2022-10-09T06:45:41Z</time>
      </trkpt>
      <trkpt lat="45.03751" lon="0.41644">
        <ele>140.9</ele>
        <time>2022-10-09T06:45:48Z</time>
      </trkpt>
      <trkpt lat="45.03759" lon="0.41664">
        <ele>141.3</ele>
        <time>2022-10-09T06:45:53Z</time>
      </trkpt>
      <trkpt lat="45.03768" lon="0.41695">
        <ele>141.3</ele>
        <time>2022-10-09T06:46:01Z</time>
      </trkpt>
      <trkpt lat="45.03777" lon="0.41726">
        <ele>141.3</ele>
        <time>2022-10-09T06:46:08Z</time>
      </trkpt>
      <trkpt lat="45.03786" lon="0.41757">
        <ele>141.7</ele>
        <time>2022-10-09T06:46:15Z</time>
      </trkpt>
      <trkpt lat="45.03792" lon="0.41772">
        <ele>142.1</ele>
        <time>2022-10-09T06:46:19Z</time>
      </trkpt>
      <trkpt lat="45.03795" lon="0.41776">
        <ele>142.2</ele>
        <time>2022-10-09T06:46:20Z</time>
      </trkpt>
      <trkpt lat="45.0381" lon="0.41804">
        <ele>143</ele>
        <time>2022-10-09T06:46:27Z</time>
      </trkpt>
      <trkpt lat="45.0382" lon="0.41826">
        <ele>143.2</ele>
        <time>2022-10-09T06:46:32Z</time>
      </trkpt>
      <trkpt lat="45.03829" lon="0.41834">
        <ele>142.9</ele>
        <time>2022-10-09T06:46:35Z</time>
      </trkpt>
      <trkpt lat="45.0383" lon="0.4184">
        <ele>142.8</ele>
        <time>2022-10-09T06:46:36Z</time>
      </trkpt>
      <trkpt lat="45.03839" lon="0.41887">
        <ele>141.6</ele>
        <time>2022-10-09T06:46:42Z</time>
      </trkpt>
      <trkpt lat="45.03849" lon="0.41907">
        <ele>140.9</ele>
        <time>2022-10-09T06:46:45Z</time>
      </trkpt>
      <trkpt lat="45.03856" lon="0.41922">
        <ele>140.6</ele>
        <time>2022-10-09T06:46:47Z</time>
      </trkpt>
      <trkpt lat="45.03873" lon="0.41959">
        <ele>140.1</ele>
        <time>2022-10-09T06:46:52Z</time>
      </trkpt>
      <trkpt lat="45.03893" lon="0.41993">
        <ele>140.1</ele>
        <time>2022-10-09T06:46:57Z</time>
      </trkpt>
      <trkpt lat="45.03897" lon="0.41998">
        <ele>140.1</ele>
        <time>2022-10-09T06:46:58Z</time>
      </trkpt>
      <trkpt lat="45.03901" lon="0.42004">
        <ele>140.2</ele>
        <time>2022-10-09T06:46:59Z</time>
      </trkpt>
      <trkpt lat="45.03913" lon="0.42021">
        <ele>140.3</ele>
        <time>2022-10-09T06:47:02Z</time>
      </trkpt>
      <trkpt lat="45.03936" lon="0.42057">
        <ele>140.6</ele>
        <time>2022-10-09T06:47:08Z</time>
      </trkpt>
      <trkpt lat="45.03939" lon="0.42062">
        <ele>140.7</ele>
        <time>2022-10-09T06:47:09Z</time>
      </trkpt>
      <trkpt lat="45.03942" lon="0.42068">
        <ele>140.7</ele>
        <time>2022-10-09T06:47:10Z</time>
      </trkpt>
      <trkpt lat="45.03948" lon="0.4208">
        <ele>140.8</ele>
        <time>2022-10-09T06:47:12Z</time>
      </trkpt>
      <trkpt lat="45.03963" lon="0.42102">
        <ele>141</ele>
        <time>2022-10-09T06:47:16Z</time>
      </trkpt>
      <trkpt lat="45.03967" lon="0.42106">
        <ele>141.1</ele>
        <time>2022-10-09T06:47:17Z</time>
      </trkpt>
      <trkpt lat="45.03985" lon="0.42122">
        <ele>141.6</ele>
        <time>2022-10-09T06:47:21Z</time>
      </trkpt>
      <trkpt lat="45.04001" lon="0.4215">
        <ele>142.2</ele>
        <time>2022-10-09T06:47:26Z</time>
      </trkpt>
      <trkpt lat="45.04004" lon="0.42155">
        <ele>142.3</ele>
        <time>2022-10-09T06:47:27Z</time>
      </trkpt>
      <trkpt lat="45.04006" lon="0.42161">
        <ele>142.4</ele>
        <time>2022-10-09T06:47:28Z</time>
      </trkpt>
      <trkpt lat="45.04012" lon="0.42172">
        <ele>142.6</ele>
        <time>2022-10-09T06:47:30Z</time>
      </trkpt>
      <trkpt lat="45.04017" lon="0.42184">
        <ele>142.9</ele>
        <time>2022-10-09T06:47:32Z</time>
      </trkpt>
      <trkpt lat="45.04023" lon="0.42195">
        <ele>143.2</ele>
        <time>2022-10-09T06:47:34Z</time>
      </trkpt>
      <trkpt lat="45.0403" lon="0.4221">
        <ele>143.7</ele>
        <time>2022-10-09T06:47:37Z</time>
      </trkpt>
      <trkpt lat="45.04036" lon="0.42219">
        <ele>144</ele>
        <time>2022-10-09T06:47:39Z</time>
      </trkpt>
      <trkpt lat="45.04045" lon="0.42231">
        <ele>144.3</ele>
        <time>2022-10-09T06:47:42Z</time>
      </trkpt>
      <trkpt lat="45.04054" lon="0.42259">
        <ele>145</ele>
        <time>2022-10-09T06:47:48Z</time>
      </trkpt>
      <trkpt lat="45.0407" lon="0.4228">
        <ele>146</ele>
        <time>2022-10-09T06:47:54Z</time>
      </trkpt>
      <trkpt lat="45.04082" lon="0.42297">
        <ele>146.7</ele>
        <time>2022-10-09T06:47:59Z</time>
      </trkpt>
      <trkpt lat="45.04092" lon="0.4231">
        <ele>147.1</ele>
        <time>2022-10-09T06:48:03Z</time>
      </trkpt>
      <trkpt lat="45.04105" lon="0.42323">
        <ele>147.4</ele>
        <time>2022-10-09T06:48:08Z</time>
      </trkpt>
      <trkpt lat="45.04122" lon="0.42333">
        <ele>147.7</ele>
        <time>2022-10-09T06:48:14Z</time>
      </trkpt>
      <trkpt lat="45.04138" lon="0.42344">
        <ele>147.7</ele>
        <time>2022-10-09T06:48:19Z</time>
      </trkpt>
      <trkpt lat="45.04154" lon="0.42347">
        <ele>147.7</ele>
        <time>2022-10-09T06:48:23Z</time>
      </trkpt>
      <trkpt lat="45.04175" lon="0.42344">
        <ele>147.8</ele>
        <time>2022-10-09T06:48:28Z</time>
      </trkpt>
      <trkpt lat="45.04182" lon="0.42343">
        <ele>147.9</ele>
        <time>2022-10-09T06:48:30Z</time>
      </trkpt>
      <trkpt lat="45.04185" lon="0.42342">
        <ele>147.9</ele>
        <time>2022-10-09T06:48:31Z</time>
      </trkpt>
      <trkpt lat="45.042" lon="0.4234">
        <ele>148</ele>
        <time>2022-10-09T06:48:35Z</time>
      </trkpt>
      <trkpt lat="45.04217" lon="0.42337">
        <ele>148</ele>
        <time>2022-10-09T06:48:39Z</time>
      </trkpt>
      <trkpt lat="45.04226" lon="0.42332">
        <ele>148</ele>
        <time>2022-10-09T06:48:41Z</time>
      </trkpt>
      <trkpt lat="45.04235" lon="0.42328">
        <ele>147.9</ele>
        <time>2022-10-09T06:48:43Z</time>
      </trkpt>
      <trkpt lat="45.04244" lon="0.42324">
        <ele>147.9</ele>
        <time>2022-10-09T06:48:45Z</time>
      </trkpt>
      <trkpt lat="45.04256" lon="0.42321">
        <ele>147.7</ele>
        <time>2022-10-09T06:48:48Z</time>
      </trkpt>
      <trkpt lat="45.04266" lon="0.42325">
        <ele>147.5</ele>
        <time>2022-10-09T06:48:50Z</time>
      </trkpt>
      <trkpt lat="45.0427" lon="0.42327">
        <ele>147.4</ele>
        <time>2022-10-09T06:48:51Z</time>
      </trkpt>
      <trkpt lat="45.04285" lon="0.42338">
        <ele>147</ele>
        <time>2022-10-09T06:48:56Z</time>
      </trkpt>
      <trkpt lat="45.04299" lon="0.42341">
        <ele>146.5</ele>
        <time>2022-10-09T06:48:59Z</time>
      </trkpt>
      <trkpt lat="45.04317" lon="0.42357">
        <ele>145.8</ele>
        <time>2022-10-09T06:49:03Z</time>
      </trkpt>
      <trkpt lat="45.04329" lon="0.42357">
        <ele>145.4</ele>
        <time>2022-10-09T06:49:05Z</time>
      </trkpt>
      <trkpt lat="45.04334" lon="0.42354">
        <ele>145.3</ele>
        <time>2022-10-09T06:49:06Z</time>
      </trkpt>
      <trkpt lat="45.0434" lon="0.42353">
        <ele>145.1</ele>
        <time>2022-10-09T06:49:07Z</time>
      </trkpt>
      <trkpt lat="45.04351" lon="0.4235">
        <ele>144.8</ele>
        <time>2022-10-09T06:49:09Z</time>
      </trkpt>
      <trkpt lat="45.04356" lon="0.42349">
        <ele>144.6</ele>
        <time>2022-10-09T06:49:10Z</time>
      </trkpt>
      <trkpt lat="45.04367" lon="0.42346">
        <ele>144.2</ele>
        <time>2022-10-09T06:49:12Z</time>
      </trkpt>
      <trkpt lat="45.04376" lon="0.42339">
        <ele>143.8</ele>
        <time>2022-10-09T06:49:14Z</time>
      </trkpt>
      <trkpt lat="45.04386" lon="0.42318">
        <ele>142.8</ele>
        <time>2022-10-09T06:49:17Z</time>
      </trkpt>
      <trkpt lat="45.04391" lon="0.42291">
        <ele>141.8</ele>
        <time>2022-10-09T06:49:20Z</time>
      </trkpt>
      <trkpt lat="45.04398" lon="0.42273">
        <ele>141.2</ele>
        <time>2022-10-09T06:49:22Z</time>
      </trkpt>
      <trkpt lat="45.04402" lon="0.42267">
        <ele>141</ele>
        <time>2022-10-09T06:49:23Z</time>
      </trkpt>
      <trkpt lat="45.04408" lon="0.42262">
        <ele>140.9</ele>
        <time>2022-10-09T06:49:24Z</time>
      </trkpt>
      <trkpt lat="45.04421" lon="0.42257">
        <ele>140.7</ele>
        <time>2022-10-09T06:49:26Z</time>
      </trkpt>
      <trkpt lat="45.04439" lon="0.42258">
        <ele>140.8</ele>
        <time>2022-10-09T06:49:30Z</time>
      </trkpt>
      <trkpt lat="45.04459" lon="0.42257">
        <ele>141.2</ele>
        <time>2022-10-09T06:49:35Z</time>
      </trkpt>
      <trkpt lat="45.04464" lon="0.42251">
        <ele>141.4</ele>
        <time>2022-10-09T06:49:37Z</time>
      </trkpt>
      <trkpt lat="45.04467" lon="0.42248">
        <ele>141.4</ele>
        <time>2022-10-09T06:49:38Z</time>
      </trkpt>
      <trkpt lat="45.04473" lon="0.42242">
        <ele>141.6</ele>
        <time>2022-10-09T06:49:40Z</time>
      </trkpt>
      <trkpt lat="45.0448" lon="0.42236">
        <ele>141.7</ele>
        <time>2022-10-09T06:49:42Z</time>
      </trkpt>
      <trkpt lat="45.04485" lon="0.42208">
        <ele>141.9</ele>
        <time>2022-10-09T06:49:46Z</time>
      </trkpt>
      <trkpt lat="45.04485" lon="0.42202">
        <ele>142</ele>
        <time>2022-10-09T06:49:47Z</time>
      </trkpt>
      <trkpt lat="45.04485" lon="0.42197">
        <ele>142</ele>
        <time>2022-10-09T06:49:48Z</time>
      </trkpt>
      <trkpt lat="45.04485" lon="0.42185">
        <ele>142.1</ele>
        <time>2022-10-09T06:49:50Z</time>
      </trkpt>
      <trkpt lat="45.04485" lon="0.42179">
        <ele>142.2</ele>
        <time>2022-10-09T06:49:51Z</time>
      </trkpt>
      <trkpt lat="45.04485" lon="0.42165">
        <ele>142.3</ele>
        <time>2022-10-09T06:49:53Z</time>
      </trkpt>
      <trkpt lat="45.04485" lon="0.42153">
        <ele>142.4</ele>
        <time>2022-10-09T06:49:55Z</time>
      </trkpt>
      <trkpt lat="45.04487" lon="0.42142">
        <ele>142.5</ele>
        <time>2022-10-09T06:49:57Z</time>
      </trkpt>
      <trkpt lat="45.04489" lon="0.42138">
        <ele>142.5</ele>
        <time>2022-10-09T06:49:58Z</time>
      </trkpt>
      <trkpt lat="45.04494" lon="0.42131">
        <ele>142.6</ele>
        <time>2022-10-09T06:50:00Z</time>
      </trkpt>
      <trkpt lat="45.04499" lon="0.42122">
        <ele>142.6</ele>
        <time>2022-10-09T06:50:02Z</time>
      </trkpt>
      <trkpt lat="45.045" lon="0.42117">
        <ele>142.6</ele>
        <time>2022-10-09T06:50:03Z</time>
      </trkpt>
      <trkpt lat="45.04505" lon="0.42098">
        <ele>142.4</ele>
        <time>2022-10-09T06:50:06Z</time>
      </trkpt>
      <trkpt lat="45.04514" lon="0.4206">
        <ele>141.9</ele>
        <time>2022-10-09T06:50:10Z</time>
      </trkpt>
      <trkpt lat="45.04514" lon="0.4205">
        <ele>141.7</ele>
        <time>2022-10-09T06:50:11Z</time>
      </trkpt>
      <trkpt lat="45.04516" lon="0.42022">
        <ele>141.3</ele>
        <time>2022-10-09T06:50:14Z</time>
      </trkpt>
      <trkpt lat="45.04518" lon="0.41986">
        <ele>141</ele>
        <time>2022-10-09T06:50:18Z</time>
      </trkpt>
      <trkpt lat="45.04524" lon="0.41974">
        <ele>140.9</ele>
        <time>2022-10-09T06:50:19Z</time>
      </trkpt>
      <trkpt lat="45.04537" lon="0.41971">
        <ele>140.6</ele>
        <time>2022-10-09T06:50:21Z</time>
      </trkpt>
      <trkpt lat="45.04544" lon="0.41973">
        <ele>140.4</ele>
        <time>2022-10-09T06:50:22Z</time>
      </trkpt>
      <trkpt lat="45.04567" lon="0.41986">
        <ele>139.7</ele>
        <time>2022-10-09T06:50:27Z</time>
      </trkpt>
      <trkpt lat="45.04572" lon="0.4199">
        <ele>139.6</ele>
        <time>2022-10-09T06:50:28Z</time>
      </trkpt>
      <trkpt lat="45.04585" lon="0.42">
        <ele>139.4</ele>
        <time>2022-10-09T06:50:31Z</time>
      </trkpt>
      <trkpt lat="45.04603" lon="0.42009">
        <ele>139.1</ele>
        <time>2022-10-09T06:50:34Z</time>
      </trkpt>
      <trkpt lat="45.04617" lon="0.42012">
        <ele>139</ele>
        <time>2022-10-09T06:50:36Z</time>
      </trkpt>
      <trkpt lat="45.0463" lon="0.41999">
        <ele>138.8</ele>
        <time>2022-10-09T06:50:38Z</time>
      </trkpt>
      <trkpt lat="45.04634" lon="0.41993">
        <ele>138.8</ele>
        <time>2022-10-09T06:50:39Z</time>
      </trkpt>
      <trkpt lat="45.04645" lon="0.41975">
        <ele>138.6</ele>
        <time>2022-10-09T06:50:42Z</time>
      </trkpt>
      <trkpt lat="45.04647" lon="0.41973">
        <ele>138.6</ele>
        <time>2022-10-09T06:50:43Z</time>
      </trkpt>
      <trkpt lat="45.04648" lon="0.41971">
        <ele>138.5</ele>
        <time>2022-10-09T06:50:44Z</time>
      </trkpt>
      <trkpt lat="45.04642" lon="0.41959">
        <ele>138.3</ele>
        <time>2022-10-09T06:50:47Z</time>
      </trkpt>
      <trkpt lat="45.04643" lon="0.41957">
        <ele>138.2</ele>
        <time>2022-10-09T06:50:48Z</time>
      </trkpt>
      <trkpt lat="45.04643" lon="0.41952">
        <ele>138.1</ele>
        <time>2022-10-09T06:50:50Z</time>
      </trkpt>
      <trkpt lat="45.04639" lon="0.41946">
        <ele>137.9</ele>
        <time>2022-10-09T06:50:53Z</time>
      </trkpt>
      <trkpt lat="45.04629" lon="0.41932">
        <ele>137.6</ele>
        <time>2022-10-09T06:50:57Z</time>
      </trkpt>
      <trkpt lat="45.04625" lon="0.41926">
        <ele>137.4</ele>
        <time>2022-10-09T06:50:59Z</time>
      </trkpt>
      <trkpt lat="45.04622" lon="0.41923">
        <ele>137.3</ele>
        <time>2022-10-09T06:51:00Z</time>
      </trkpt>
      <trkpt lat="45.04616" lon="0.41917">
        <ele>137</ele>
        <time>2022-10-09T06:51:02Z</time>
      </trkpt>
      <trkpt lat="45.04613" lon="0.41914">
        <ele>136.8</ele>
        <time>2022-10-09T06:51:03Z</time>
      </trkpt>
      <trkpt lat="45.04611" lon="0.41907">
        <ele>136.6</ele>
        <time>2022-10-09T06:51:05Z</time>
      </trkpt>
      <trkpt lat="45.04611" lon="0.41902">
        <ele>136.5</ele>
        <time>2022-10-09T06:51:06Z</time>
      </trkpt>
      <trkpt lat="45.04612" lon="0.41883">
        <ele>135.9</ele>
        <time>2022-10-09T06:51:10Z</time>
      </trkpt>
      <trkpt lat="45.0461" lon="0.41872">
        <ele>135.6</ele>
        <time>2022-10-09T06:51:13Z</time>
      </trkpt>
      <trkpt lat="45.04602" lon="0.41859">
        <ele>135.1</ele>
        <time>2022-10-09T06:51:17Z</time>
      </trkpt>
      <trkpt lat="45.04598" lon="0.41852">
        <ele>135</ele>
        <time>2022-10-09T06:51:19Z</time>
      </trkpt>
      <trkpt lat="45.04594" lon="0.41845">
        <ele>134.9</ele>
        <time>2022-10-09T06:51:21Z</time>
      </trkpt>
      <trkpt lat="45.04588" lon="0.41845">
        <ele>135</ele>
        <time>2022-10-09T06:51:24Z</time>
      </trkpt>
      <trkpt lat="45.04587" lon="0.41845">
        <ele>135</ele>
        <time>2022-10-09T06:51:26Z</time>
      </trkpt>
      <trkpt lat="45.04588" lon="0.41854">
        <ele>135.2</ele>
        <time>2022-10-09T06:51:28Z</time>
      </trkpt>
      <trkpt lat="45.04583" lon="0.41862">
        <ele>135.4</ele>
        <time>2022-10-09T06:51:32Z</time>
      </trkpt>
      <trkpt lat="45.04581" lon="0.41868">
        <ele>135.6</ele>
        <time>2022-10-09T06:51:36Z</time>
      </trkpt>
      <trkpt lat="45.04578" lon="0.4188">
        <ele>136.1</ele>
        <time>2022-10-09T06:51:40Z</time>
      </trkpt>
      <trkpt lat="45.04575" lon="0.41894">
        <ele>136.7</ele>
        <time>2022-10-09T06:51:44Z</time>
      </trkpt>
      <trkpt lat="45.04573" lon="0.41895">
        <ele>136.8</ele>
        <time>2022-10-09T06:51:46Z</time>
      </trkpt>
      <trkpt lat="45.04568" lon="0.41898">
        <ele>137.1</ele>
        <time>2022-10-09T06:51:49Z</time>
      </trkpt>
      <trkpt lat="45.04566" lon="0.41899">
        <ele>137.2</ele>
        <time>2022-10-09T06:51:50Z</time>
      </trkpt>
      <trkpt lat="45.04562" lon="0.41901">
        <ele>137.4</ele>
        <time>2022-10-09T06:51:53Z</time>
      </trkpt>
      <trkpt lat="45.04559" lon="0.41903">
        <ele>137.6</ele>
        <time>2022-10-09T06:51:55Z</time>
      </trkpt>
      <trkpt lat="45.04555" lon="0.41905">
        <ele>137.7</ele>
        <time>2022-10-09T06:51:58Z</time>
      </trkpt>
      <trkpt lat="45.04554" lon="0.41905">
        <ele>137.8</ele>
        <time>2022-10-09T06:51:59Z</time>
      </trkpt>
      <trkpt lat="45.04551" lon="0.41904">
        <ele>137.8</ele>
        <time>2022-10-09T06:52:00Z</time>
      </trkpt>
      <trkpt lat="45.0455" lon="0.419">
        <ele>137.9</ele>
        <time>2022-10-09T06:52:02Z</time>
      </trkpt>
      <trkpt lat="45.04547" lon="0.41895">
        <ele>137.9</ele>
        <time>2022-10-09T06:52:04Z</time>
      </trkpt>
      <trkpt lat="45.04539" lon="0.41891">
        <ele>137.9</ele>
        <time>2022-10-09T06:52:07Z</time>
      </trkpt>
      <trkpt lat="45.04526" lon="0.4189">
        <ele>137.8</ele>
        <time>2022-10-09T06:52:11Z</time>
      </trkpt>
      <trkpt lat="45.04526" lon="0.4189">
        <ele>137.8</ele>
        <time>2022-10-09T06:52:13Z</time>
      </trkpt>
      <trkpt lat="45.04518" lon="0.41891">
        <ele>137.6</ele>
        <time>2022-10-09T06:52:15Z</time>
      </trkpt>
      <trkpt lat="45.04504" lon="0.4189">
        <ele>137</ele>
        <time>2022-10-09T06:52:20Z</time>
      </trkpt>
      <trkpt lat="45.04502" lon="0.41889">
        <ele>136.8</ele>
        <time>2022-10-09T06:52:21Z</time>
      </trkpt>
      <trkpt lat="45.04492" lon="0.41885">
        <ele>136</ele>
        <time>2022-10-09T06:52:24Z</time>
      </trkpt>
      <trkpt lat="45.04487" lon="0.41884">
        <ele>135.7</ele>
        <time>2022-10-09T06:52:25Z</time>
      </trkpt>
      <trkpt lat="45.04478" lon="0.41883">
        <ele>134.9</ele>
        <time>2022-10-09T06:52:27Z</time>
      </trkpt>
      <trkpt lat="45.04468" lon="0.41886">
        <ele>134</ele>
        <time>2022-10-09T06:52:29Z</time>
      </trkpt>
      <trkpt lat="45.04465" lon="0.41888">
        <ele>133.7</ele>
        <time>2022-10-09T06:52:30Z</time>
      </trkpt>
      <trkpt lat="45.04464" lon="0.41884">
        <ele>133.4</ele>
        <time>2022-10-09T06:52:32Z</time>
      </trkpt>
      <trkpt lat="45.04462" lon="0.41882">
        <ele>133.2</ele>
        <time>2022-10-09T06:52:33Z</time>
      </trkpt>
      <trkpt lat="45.0446" lon="0.41879">
        <ele>132.9</ele>
        <time>2022-10-09T06:52:34Z</time>
      </trkpt>
      <trkpt lat="45.04456" lon="0.41871">
        <ele>132.1</ele>
        <time>2022-10-09T06:52:36Z</time>
      </trkpt>
      <trkpt lat="45.04454" lon="0.41868">
        <ele>131.7</ele>
        <time>2022-10-09T06:52:37Z</time>
      </trkpt>
      <trkpt lat="45.04453" lon="0.41866">
        <ele>131.5</ele>
        <time>2022-10-09T06:52:38Z</time>
      </trkpt>
      <trkpt lat="45.0445" lon="0.41857">
        <ele>130.7</ele>
        <time>2022-10-09T06:52:41Z</time>
      </trkpt>
      <trkpt lat="45.04449" lon="0.41853">
        <ele>130.3</ele>
        <time>2022-10-09T06:52:42Z</time>
      </trkpt>
      <trkpt lat="45.04447" lon="0.41847">
        <ele>129.7</ele>
        <time>2022-10-09T06:52:43Z</time>
      </trkpt>
      <trkpt lat="45.04445" lon="0.4184">
        <ele>129</ele>
        <time>2022-10-09T06:52:45Z</time>
      </trkpt>
      <trkpt lat="45.0444" lon="0.4183">
        <ele>128</ele>
        <time>2022-10-09T06:52:48Z</time>
      </trkpt>
      <trkpt lat="45.04437" lon="0.41821">
        <ele>127.3</ele>
        <time>2022-10-09T06:52:50Z</time>
      </trkpt>
      <trkpt lat="45.04438" lon="0.41811">
        <ele>126.5</ele>
        <time>2022-10-09T06:52:52Z</time>
      </trkpt>
      <trkpt lat="45.04442" lon="0.41801">
        <ele>125.7</ele>
        <time>2022-10-09T06:52:54Z</time>
      </trkpt>
      <trkpt lat="45.04444" lon="0.41797">
        <ele>124.5</ele>
        <time>2022-10-09T06:52:56Z</time>
      </trkpt>
      <trkpt lat="45.04444" lon="0.41797">
        <ele>124.4</ele>
        <time>2022-10-09T06:52:57Z</time>
      </trkpt>
      <trkpt lat="45.04444" lon="0.41797">
        <ele>124.4</ele>
        <time>2022-10-09T06:53:02Z</time>
      </trkpt>
      <trkpt lat="45.04444" lon="0.41797">
        <ele>124.3</ele>
        <time>2022-10-09T06:53:03Z</time>
      </trkpt>
      <trkpt lat="45.04444" lon="0.41797">
        <ele>124.3</ele>
        <time>2022-10-09T06:53:06Z</time>
      </trkpt>
      <trkpt lat="45.04444" lon="0.41797">
        <ele>124.2</ele>
        <time>2022-10-09T06:53:08Z</time>
      </trkpt>
      <trkpt lat="45.04458" lon="0.41825">
        <ele>127.1</ele>
        <time>2022-10-09T06:53:10Z</time>
      </trkpt>
      <trkpt lat="45.04461" lon="0.41824">
        <ele>127</ele>
        <time>2022-10-09T06:53:12Z</time>
      </trkpt>
      <trkpt lat="45.04465" lon="0.41825">
        <ele>127</ele>
        <time>2022-10-09T06:53:15Z</time>
      </trkpt>
      <trkpt lat="45.04474" lon="0.41823">
        <ele>127.3</ele>
        <time>2022-10-09T06:53:20Z</time>
      </trkpt>
      <trkpt lat="45.04478" lon="0.41815">
        <ele>125.7</ele>
        <time>2022-10-09T06:53:24Z</time>
      </trkpt>
      <trkpt lat="45.04487" lon="0.41798">
        <ele>125.2</ele>
        <time>2022-10-09T06:53:29Z</time>
      </trkpt>
      <trkpt lat="45.04489" lon="0.41791">
        <ele>125.1</ele>
        <time>2022-10-09T06:53:31Z</time>
      </trkpt>
      <trkpt lat="45.04494" lon="0.41785">
        <ele>125.9</ele>
        <time>2022-10-09T06:53:33Z</time>
      </trkpt>
      <trkpt lat="45.04497" lon="0.41784">
        <ele>125.9</ele>
        <time>2022-10-09T06:53:34Z</time>
      </trkpt>
      <trkpt lat="45.04501" lon="0.41787">
        <ele>125.8</ele>
        <time>2022-10-09T06:53:36Z</time>
      </trkpt>
      <trkpt lat="45.04505" lon="0.41789">
        <ele>127.2</ele>
        <time>2022-10-09T06:53:38Z</time>
      </trkpt>
      <trkpt lat="45.04508" lon="0.41792">
        <ele>127.2</ele>
        <time>2022-10-09T06:53:40Z</time>
      </trkpt>
      <trkpt lat="45.04517" lon="0.41795">
        <ele>128.8</ele>
        <time>2022-10-09T06:53:44Z</time>
      </trkpt>
      <trkpt lat="45.04527" lon="0.41801">
        <ele>129.3</ele>
        <time>2022-10-09T06:53:48Z</time>
      </trkpt>
      <trkpt lat="45.0454" lon="0.41809">
        <ele>132.3</ele>
        <time>2022-10-09T06:53:54Z</time>
      </trkpt>
      <trkpt lat="45.0455" lon="0.41812">
        <ele>132.2</ele>
        <time>2022-10-09T06:53:59Z</time>
      </trkpt>
      <trkpt lat="45.04562" lon="0.41813">
        <ele>133.3</ele>
        <time>2022-10-09T06:54:05Z</time>
      </trkpt>
      <trkpt lat="45.04568" lon="0.41817">
        <ele>133.4</ele>
        <time>2022-10-09T06:54:09Z</time>
      </trkpt>
      <trkpt lat="45.0457" lon="0.41817">
        <ele>133.4</ele>
        <time>2022-10-09T06:54:10Z</time>
      </trkpt>
      <trkpt lat="45.04575" lon="0.4182">
        <ele>133.3</ele>
        <time>2022-10-09T06:54:13Z</time>
      </trkpt>
      <trkpt lat="45.04587" lon="0.41829">
        <ele>133</ele>
        <time>2022-10-09T06:54:18Z</time>
      </trkpt>
      <trkpt lat="45.04593" lon="0.41834">
        <ele>132.7</ele>
        <time>2022-10-09T06:54:21Z</time>
      </trkpt>
      <trkpt lat="45.04594" lon="0.41845">
        <ele>132.7</ele>
        <time>2022-10-09T06:54:23Z</time>
      </trkpt>
      <trkpt lat="45.04596" lon="0.41849">
        <ele>132.6</ele>
        <time>2022-10-09T06:54:25Z</time>
      </trkpt>
      <trkpt lat="45.04598" lon="0.41852">
        <ele>133.6</ele>
        <time>2022-10-09T06:54:27Z</time>
      </trkpt>
      <trkpt lat="45.04594" lon="0.41845">
        <ele>132.5</ele>
        <time>2022-10-09T06:54:28Z</time>
      </trkpt>
      <trkpt lat="45.04602" lon="0.41858">
        <ele>132.7</ele>
        <time>2022-10-09T06:54:30Z</time>
      </trkpt>
      <trkpt lat="45.04619" lon="0.41854">
        <ele>132</ele>
        <time>2022-10-09T06:54:33Z</time>
      </trkpt>
      <trkpt lat="45.04627" lon="0.41862">
        <ele>131.6</ele>
        <time>2022-10-09T06:54:37Z</time>
      </trkpt>
      <trkpt lat="45.04634" lon="0.41867">
        <ele>131.6</ele>
        <time>2022-10-09T06:54:40Z</time>
      </trkpt>
      <trkpt lat="45.04649" lon="0.41872">
        <ele>132.4</ele>
        <time>2022-10-09T06:54:45Z</time>
      </trkpt>
      <trkpt lat="45.04655" lon="0.41884">
        <ele>132.4</ele>
        <time>2022-10-09T06:54:49Z</time>
      </trkpt>
      <trkpt lat="45.04653" lon="0.41891">
        <ele>133.4</ele>
        <time>2022-10-09T06:54:51Z</time>
      </trkpt>
      <trkpt lat="45.04653" lon="0.41897">
        <ele>133.3</ele>
        <time>2022-10-09T06:54:53Z</time>
      </trkpt>
      <trkpt lat="45.04653" lon="0.41904">
        <ele>134.3</ele>
        <time>2022-10-09T06:54:56Z</time>
      </trkpt>
      <trkpt lat="45.04655" lon="0.41906">
        <ele>134.3</ele>
        <time>2022-10-09T06:54:57Z</time>
      </trkpt>
      <trkpt lat="45.04656" lon="0.41912">
        <ele>134.2</ele>
        <time>2022-10-09T06:54:59Z</time>
      </trkpt>
      <trkpt lat="45.04656" lon="0.41919">
        <ele>134.2</ele>
        <time>2022-10-09T06:55:01Z</time>
      </trkpt>
      <trkpt lat="45.04657" lon="0.4193">
        <ele>135.3</ele>
        <time>2022-10-09T06:55:04Z</time>
      </trkpt>
      <trkpt lat="45.0466" lon="0.41936">
        <ele>135.2</ele>
        <time>2022-10-09T06:55:06Z</time>
      </trkpt>
      <trkpt lat="45.04668" lon="0.41946">
        <ele>136.3</ele>
        <time>2022-10-09T06:55:10Z</time>
      </trkpt>
      <trkpt lat="45.0467" lon="0.41945">
        <ele>136.2</ele>
        <time>2022-10-09T06:55:11Z</time>
      </trkpt>
      <trkpt lat="45.04678" lon="0.41942">
        <ele>135.7</ele>
        <time>2022-10-09T06:55:15Z</time>
      </trkpt>
      <trkpt lat="45.04689" lon="0.41942">
        <ele>135.3</ele>
        <time>2022-10-09T06:55:19Z</time>
      </trkpt>
      <trkpt lat="45.04703" lon="0.41945">
        <ele>134.8</ele>
        <time>2022-10-09T06:55:25Z</time>
      </trkpt>
      <trkpt lat="45.04706" lon="0.41946">
        <ele>134.7</ele>
        <time>2022-10-09T06:55:27Z</time>
      </trkpt>
      <trkpt lat="45.04712" lon="0.41944">
        <ele>134.4</ele>
        <time>2022-10-09T06:55:30Z</time>
      </trkpt>
      <trkpt lat="45.04713" lon="0.41943">
        <ele>134.3</ele>
        <time>2022-10-09T06:55:34Z</time>
      </trkpt>
      <trkpt lat="45.04716" lon="0.41941">
        <ele>134.2</ele>
        <time>2022-10-09T06:55:38Z</time>
      </trkpt>
      <trkpt lat="45.04724" lon="0.4195">
        <ele>134.3</ele>
        <time>2022-10-09T06:55:40Z</time>
      </trkpt>
      <trkpt lat="45.04744" lon="0.41957">
        <ele>134.7</ele>
        <time>2022-10-09T06:55:46Z</time>
      </trkpt>
      <trkpt lat="45.04763" lon="0.41961">
        <ele>135</ele>
        <time>2022-10-09T06:55:51Z</time>
      </trkpt>
      <trkpt lat="45.04783" lon="0.41965">
        <ele>135.4</ele>
        <time>2022-10-09T06:55:56Z</time>
      </trkpt>
      <trkpt lat="45.048" lon="0.41963">
        <ele>135.8</ele>
        <time>2022-10-09T06:56:00Z</time>
      </trkpt>
      <trkpt lat="45.04805" lon="0.41961">
        <ele>135.8</ele>
        <time>2022-10-09T06:56:01Z</time>
      </trkpt>
      <trkpt lat="45.0483" lon="0.41952">
        <ele>136.5</ele>
        <time>2022-10-09T06:56:07Z</time>
      </trkpt>
      <trkpt lat="45.04834" lon="0.41951">
        <ele>136.6</ele>
        <time>2022-10-09T06:56:08Z</time>
      </trkpt>
      <trkpt lat="45.04851" lon="0.41945">
        <ele>136.9</ele>
        <time>2022-10-09T06:56:12Z</time>
      </trkpt>
      <trkpt lat="45.04855" lon="0.41944">
        <ele>136.9</ele>
        <time>2022-10-09T06:56:13Z</time>
      </trkpt>
      <trkpt lat="45.04862" lon="0.41948">
        <ele>136.9</ele>
        <time>2022-10-09T06:56:15Z</time>
      </trkpt>
      <trkpt lat="45.04876" lon="0.41965">
        <ele>136.6</ele>
        <time>2022-10-09T06:56:19Z</time>
      </trkpt>
      <trkpt lat="45.04896" lon="0.42004">
        <ele>135</ele>
        <time>2022-10-09T06:56:25Z</time>
      </trkpt>
      <trkpt lat="45.04899" lon="0.42012">
        <ele>134.7</ele>
        <time>2022-10-09T06:56:27Z</time>
      </trkpt>
      <trkpt lat="45.04897" lon="0.42012">
        <ele>134.6</ele>
        <time>2022-10-09T06:56:28Z</time>
      </trkpt>
      <trkpt lat="45.04893" lon="0.42011">
        <ele>134.5</ele>
        <time>2022-10-09T06:56:31Z</time>
      </trkpt>
      <trkpt lat="45.04892" lon="0.42011">
        <ele>134.5</ele>
        <time>2022-10-09T06:56:32Z</time>
      </trkpt>
      <trkpt lat="45.04885" lon="0.42008">
        <ele>134.3</ele>
        <time>2022-10-09T06:56:35Z</time>
      </trkpt>
      <trkpt lat="45.04879" lon="0.42007">
        <ele>134.3</ele>
        <time>2022-10-09T06:56:38Z</time>
      </trkpt>
      <trkpt lat="45.04878" lon="0.42006">
        <ele>134.2</ele>
        <time>2022-10-09T06:56:39Z</time>
      </trkpt>
      <trkpt lat="45.04871" lon="0.42006">
        <ele>134.1</ele>
        <time>2022-10-09T06:56:42Z</time>
      </trkpt>
      <trkpt lat="45.04867" lon="0.42006">
        <ele>134</ele>
        <time>2022-10-09T06:56:46Z</time>
      </trkpt>
      <trkpt lat="45.04863" lon="0.42008">
        <ele>133.8</ele>
        <time>2022-10-09T06:56:48Z</time>
      </trkpt>
      <trkpt lat="45.04862" lon="0.42009">
        <ele>133.7</ele>
        <time>2022-10-09T06:56:50Z</time>
      </trkpt>
      <trkpt lat="45.04862" lon="0.42016">
        <ele>133.4</ele>
        <time>2022-10-09T06:56:53Z</time>
      </trkpt>
      <trkpt lat="45.04867" lon="0.42025">
        <ele>132.8</ele>
        <time>2022-10-09T06:56:55Z</time>
      </trkpt>
      <trkpt lat="45.0487" lon="0.42029">
        <ele>132.5</ele>
        <time>2022-10-09T06:56:56Z</time>
      </trkpt>
      <trkpt lat="45.04879" lon="0.4204">
        <ele>131.5</ele>
        <time>2022-10-09T06:56:59Z</time>
      </trkpt>
      <trkpt lat="45.04883" lon="0.42045">
        <ele>131.1</ele>
        <time>2022-10-09T06:57:00Z</time>
      </trkpt>
      <trkpt lat="45.04892" lon="0.42055">
        <ele>130.1</ele>
        <time>2022-10-09T06:57:03Z</time>
      </trkpt>
      <trkpt lat="45.04905" lon="0.42057">
        <ele>129.2</ele>
        <time>2022-10-09T06:57:07Z</time>
      </trkpt>
      <trkpt lat="45.04916" lon="0.42061">
        <ele>128.4</ele>
        <time>2022-10-09T06:57:12Z</time>
      </trkpt>
      <trkpt lat="45.04916" lon="0.42061">
        <ele>128.4</ele>
        <time>2022-10-09T06:57:13Z</time>
      </trkpt>
      <trkpt lat="45.04915" lon="0.42064">
        <ele>128.2</ele>
        <time>2022-10-09T06:57:14Z</time>
      </trkpt>
      <trkpt lat="45.04909" lon="0.42069">
        <ele>127.6</ele>
        <time>2022-10-09T06:57:17Z</time>
      </trkpt>
      <trkpt lat="45.04903" lon="0.42075">
        <ele>126.7</ele>
        <time>2022-10-09T06:57:19Z</time>
      </trkpt>
      <trkpt lat="45.04899" lon="0.42076">
        <ele>126.2</ele>
        <time>2022-10-09T06:57:20Z</time>
      </trkpt>
      <trkpt lat="45.04896" lon="0.42079">
        <ele>125.7</ele>
        <time>2022-10-09T06:57:23Z</time>
      </trkpt>
      <trkpt lat="45.04898" lon="0.42083">
        <ele>125.2</ele>
        <time>2022-10-09T06:57:26Z</time>
      </trkpt>
      <trkpt lat="45.04905" lon="0.42093">
        <ele>123.9</ele>
        <time>2022-10-09T06:57:29Z</time>
      </trkpt>
      <trkpt lat="45.04907" lon="0.42096">
        <ele>123.5</ele>
        <time>2022-10-09T06:57:30Z</time>
      </trkpt>
      <trkpt lat="45.04916" lon="0.42105">
        <ele>122</ele>
        <time>2022-10-09T06:57:33Z</time>
      </trkpt>
      <trkpt lat="45.04918" lon="0.42106">
        <ele>121.7</ele>
        <time>2022-10-09T06:57:34Z</time>
      </trkpt>
      <trkpt lat="45.04921" lon="0.42108">
        <ele>121.4</ele>
        <time>2022-10-09T06:57:35Z</time>
      </trkpt>
      <trkpt lat="45.04928" lon="0.42113">
        <ele>120.6</ele>
        <time>2022-10-09T06:57:37Z</time>
      </trkpt>
      <trkpt lat="45.04932" lon="0.42116">
        <ele>120.1</ele>
        <time>2022-10-09T06:57:38Z</time>
      </trkpt>
      <trkpt lat="45.04938" lon="0.4212">
        <ele>119.4</ele>
        <time>2022-10-09T06:57:40Z</time>
      </trkpt>
      <trkpt lat="45.04951" lon="0.42129">
        <ele>117.5</ele>
        <time>2022-10-09T06:57:43Z</time>
      </trkpt>
      <trkpt lat="45.04953" lon="0.42129">
        <ele>117.1</ele>
        <time>2022-10-09T06:57:44Z</time>
      </trkpt>
      <trkpt lat="45.04955" lon="0.42131">
        <ele>116.6</ele>
        <time>2022-10-09T06:57:47Z</time>
      </trkpt>
      <trkpt lat="45.0496" lon="0.42135">
        <ele>115.5</ele>
        <time>2022-10-09T06:57:49Z</time>
      </trkpt>
      <trkpt lat="45.04968" lon="0.42139">
        <ele>113.8</ele>
        <time>2022-10-09T06:57:52Z</time>
      </trkpt>
      <trkpt lat="45.04976" lon="0.42142">
        <ele>112.4</ele>
        <time>2022-10-09T06:57:55Z</time>
      </trkpt>
      <trkpt lat="45.04979" lon="0.42144">
        <ele>111.8</ele>
        <time>2022-10-09T06:57:56Z</time>
      </trkpt>
      <trkpt lat="45.04985" lon="0.42148">
        <ele>111</ele>
        <time>2022-10-09T06:57:57Z</time>
      </trkpt>
      <trkpt lat="45.04991" lon="0.42158">
        <ele>109.9</ele>
        <time>2022-10-09T06:57:59Z</time>
      </trkpt>
      <trkpt lat="45.04992" lon="0.42162">
        <ele>109.6</ele>
        <time>2022-10-09T06:58:00Z</time>
      </trkpt>
      <trkpt lat="45.04997" lon="0.42174">
        <ele>108.8</ele>
        <time>2022-10-09T06:58:03Z</time>
      </trkpt>
      <trkpt lat="45.04998" lon="0.42176">
        <ele>108.7</ele>
        <time>2022-10-09T06:58:04Z</time>
      </trkpt>
      <trkpt lat="45.05011" lon="0.42183">
        <ele>108.3</ele>
        <time>2022-10-09T06:58:07Z</time>
      </trkpt>
      <trkpt lat="45.05027" lon="0.42186">
        <ele>107.9</ele>
        <time>2022-10-09T06:58:12Z</time>
      </trkpt>
      <trkpt lat="45.05035" lon="0.42187">
        <ele>107.7</ele>
        <time>2022-10-09T06:58:15Z</time>
      </trkpt>
      <trkpt lat="45.05049" lon="0.4219">
        <ele>107.3</ele>
        <time>2022-10-09T06:58:19Z</time>
      </trkpt>
      <trkpt lat="45.05069" lon="0.42198">
        <ele>106.8</ele>
        <time>2022-10-09T06:58:24Z</time>
      </trkpt>
      <trkpt lat="45.05095" lon="0.42214">
        <ele>106</ele>
        <time>2022-10-09T06:58:29Z</time>
      </trkpt>
      <trkpt lat="45.05106" lon="0.42224">
        <ele>105.6</ele>
        <time>2022-10-09T06:58:31Z</time>
      </trkpt>
      <trkpt lat="45.05117" lon="0.42237">
        <ele>104.8</ele>
        <time>2022-10-09T06:58:33Z</time>
      </trkpt>
      <trkpt lat="45.05139" lon="0.42274">
        <ele>102.7</ele>
        <time>2022-10-09T06:58:38Z</time>
      </trkpt>
      <trkpt lat="45.05143" lon="0.42282">
        <ele>102.3</ele>
        <time>2022-10-09T06:58:39Z</time>
      </trkpt>
      <trkpt lat="45.05158" lon="0.42317">
        <ele>101.1</ele>
        <time>2022-10-09T06:58:44Z</time>
      </trkpt>
      <trkpt lat="45.05165" lon="0.42334">
        <ele>100.7</ele>
        <time>2022-10-09T06:58:47Z</time>
      </trkpt>
      <trkpt lat="45.05168" lon="0.4234">
        <ele>100.6</ele>
        <time>2022-10-09T06:58:48Z</time>
      </trkpt>
      <trkpt lat="45.05172" lon="0.42348">
        <ele>100.4</ele>
        <time>2022-10-09T06:58:49Z</time>
      </trkpt>
      <trkpt lat="45.05178" lon="0.42361">
        <ele>100.4</ele>
        <time>2022-10-09T06:58:51Z</time>
      </trkpt>
      <trkpt lat="45.05174" lon="0.42389">
        <ele>100.9</ele>
        <time>2022-10-09T06:58:55Z</time>
      </trkpt>
      <trkpt lat="45.05164" lon="0.42404">
        <ele>101.4</ele>
        <time>2022-10-09T06:59:00Z</time>
      </trkpt>
      <trkpt lat="45.05153" lon="0.42417">
        <ele>101.9</ele>
        <time>2022-10-09T06:59:05Z</time>
      </trkpt>
      <trkpt lat="45.05144" lon="0.42432">
        <ele>103</ele>
        <time>2022-10-09T06:59:10Z</time>
      </trkpt>
      <trkpt lat="45.05131" lon="0.42453">
        <ele>104.4</ele>
        <time>2022-10-09T06:59:17Z</time>
      </trkpt>
      <trkpt lat="45.05124" lon="0.42459">
        <ele>105.1</ele>
        <time>2022-10-09T06:59:20Z</time>
      </trkpt>
      <trkpt lat="45.05122" lon="0.42457">
        <ele>105.4</ele>
        <time>2022-10-09T06:59:21Z</time>
      </trkpt>
      <trkpt lat="45.05112" lon="0.42452">
        <ele>106.6</ele>
        <time>2022-10-09T06:59:27Z</time>
      </trkpt>
      <trkpt lat="45.05102" lon="0.42447">
        <ele>108.1</ele>
        <time>2022-10-09T06:59:34Z</time>
      </trkpt>
      <trkpt lat="45.05092" lon="0.42445">
        <ele>109.6</ele>
        <time>2022-10-09T06:59:41Z</time>
      </trkpt>
      <trkpt lat="45.05082" lon="0.42442">
        <ele>111.5</ele>
        <time>2022-10-09T06:59:47Z</time>
      </trkpt>
      <trkpt lat="45.05074" lon="0.42441">
        <ele>112.9</ele>
        <time>2022-10-09T06:59:52Z</time>
      </trkpt>
      <trkpt lat="45.05065" lon="0.4244">
        <ele>114.7</ele>
        <time>2022-10-09T06:59:59Z</time>
      </trkpt>
      <trkpt lat="45.05054" lon="0.4244">
        <ele>116.6</ele>
        <time>2022-10-09T07:00:05Z</time>
      </trkpt>
      <trkpt lat="45.05046" lon="0.42439">
        <ele>118.1</ele>
        <time>2022-10-09T07:00:11Z</time>
      </trkpt>
      <trkpt lat="45.05037" lon="0.4244">
        <ele>119.5</ele>
        <time>2022-10-09T07:00:18Z</time>
      </trkpt>
      <trkpt lat="45.05031" lon="0.42441">
        <ele>120.5</ele>
        <time>2022-10-09T07:00:22Z</time>
      </trkpt>
      <trkpt lat="45.0503" lon="0.42441">
        <ele>120.8</ele>
        <time>2022-10-09T07:00:23Z</time>
      </trkpt>
      <trkpt lat="45.05027" lon="0.42441">
        <ele>121.2</ele>
        <time>2022-10-09T07:00:25Z</time>
      </trkpt>
      <trkpt lat="45.05022" lon="0.42442">
        <ele>122</ele>
        <time>2022-10-09T07:00:29Z</time>
      </trkpt>
      <trkpt lat="45.05011" lon="0.42443">
        <ele>123.7</ele>
        <time>2022-10-09T07:00:37Z</time>
      </trkpt>
      <trkpt lat="45.05005" lon="0.42443">
        <ele>124.6</ele>
        <time>2022-10-09T07:00:42Z</time>
      </trkpt>
      <trkpt lat="45.05003" lon="0.42443">
        <ele>125</ele>
        <time>2022-10-09T07:00:44Z</time>
      </trkpt>
      <trkpt lat="45.04994" lon="0.42443">
        <ele>126.6</ele>
        <time>2022-10-09T07:00:51Z</time>
      </trkpt>
      <trkpt lat="45.04988" lon="0.42443">
        <ele>127.6</ele>
        <time>2022-10-09T07:00:56Z</time>
      </trkpt>
      <trkpt lat="45.04985" lon="0.42443">
        <ele>128</ele>
        <time>2022-10-09T07:00:58Z</time>
      </trkpt>
      <trkpt lat="45.04975" lon="0.42443">
        <ele>129.5</ele>
        <time>2022-10-09T07:01:05Z</time>
      </trkpt>
      <trkpt lat="45.04966" lon="0.42442">
        <ele>130.7</ele>
        <time>2022-10-09T07:01:11Z</time>
      </trkpt>
      <trkpt lat="45.04959" lon="0.42442">
        <ele>131.5</ele>
        <time>2022-10-09T07:01:16Z</time>
      </trkpt>
      <trkpt lat="45.04955" lon="0.42442">
        <ele>131.8</ele>
        <time>2022-10-09T07:01:18Z</time>
      </trkpt>
      <trkpt lat="45.04942" lon="0.42442">
        <ele>132.7</ele>
        <time>2022-10-09T07:01:25Z</time>
      </trkpt>
      <trkpt lat="45.04932" lon="0.42441">
        <ele>133.5</ele>
        <time>2022-10-09T07:01:31Z</time>
      </trkpt>
      <trkpt lat="45.04924" lon="0.42441">
        <ele>134.1</ele>
        <time>2022-10-09T07:01:36Z</time>
      </trkpt>
      <trkpt lat="45.04913" lon="0.42441">
        <ele>134.9</ele>
        <time>2022-10-09T07:01:43Z</time>
      </trkpt>
      <trkpt lat="45.0491" lon="0.42441">
        <ele>135.2</ele>
        <time>2022-10-09T07:01:46Z</time>
      </trkpt>
      <trkpt lat="45.04907" lon="0.42441">
        <ele>135.4</ele>
        <time>2022-10-09T07:01:48Z</time>
      </trkpt>
      <trkpt lat="45.04897" lon="0.42441">
        <ele>135.9</ele>
        <time>2022-10-09T07:01:53Z</time>
      </trkpt>
      <trkpt lat="45.04893" lon="0.42441">
        <ele>136.1</ele>
        <time>2022-10-09T07:01:55Z</time>
      </trkpt>
      <trkpt lat="45.04885" lon="0.42441">
        <ele>136.4</ele>
        <time>2022-10-09T07:01:58Z</time>
      </trkpt>
      <trkpt lat="45.04873" lon="0.42441">
        <ele>136.5</ele>
        <time>2022-10-09T07:02:03Z</time>
      </trkpt>
      <trkpt lat="45.04854" lon="0.42441">
        <ele>136.7</ele>
        <time>2022-10-09T07:02:09Z</time>
      </trkpt>
      <trkpt lat="45.04833" lon="0.42444">
        <ele>137.1</ele>
        <time>2022-10-09T07:02:15Z</time>
      </trkpt>
      <trkpt lat="45.04813" lon="0.42445">
        <ele>137.4</ele>
        <time>2022-10-09T07:02:21Z</time>
      </trkpt>
      <trkpt lat="45.04794" lon="0.42444">
        <ele>137.7</ele>
        <time>2022-10-09T07:02:27Z</time>
      </trkpt>
      <trkpt lat="45.04776" lon="0.42442">
        <ele>137.9</ele>
        <time>2022-10-09T07:02:32Z</time>
      </trkpt>
      <trkpt lat="45.04765" lon="0.42442">
        <ele>138</ele>
        <time>2022-10-09T07:02:36Z</time>
      </trkpt>
      <trkpt lat="45.04764" lon="0.42414">
        <ele>138.2</ele>
        <time>2022-10-09T07:02:40Z</time>
      </trkpt>
      <trkpt lat="45.04766" lon="0.42397">
        <ele>137.7</ele>
        <time>2022-10-09T07:02:44Z</time>
      </trkpt>
      <trkpt lat="45.04768" lon="0.42395">
        <ele>137.5</ele>
        <time>2022-10-09T07:02:45Z</time>
      </trkpt>
      <trkpt lat="45.04771" lon="0.42386">
        <ele>137.1</ele>
        <time>2022-10-09T07:02:47Z</time>
      </trkpt>
      <trkpt lat="45.04775" lon="0.4237">
        <ele>136.5</ele>
        <time>2022-10-09T07:02:50Z</time>
      </trkpt>
      <trkpt lat="45.04778" lon="0.42359">
        <ele>135.6</ele>
        <time>2022-10-09T07:02:52Z</time>
      </trkpt>
      <trkpt lat="45.04782" lon="0.42352">
        <ele>135.3</ele>
        <time>2022-10-09T07:02:53Z</time>
      </trkpt>
      <trkpt lat="45.04784" lon="0.42334">
        <ele>134.4</ele>
        <time>2022-10-09T07:02:55Z</time>
      </trkpt>
      <trkpt lat="45.04785" lon="0.42324">
        <ele>133.2</ele>
        <time>2022-10-09T07:02:56Z</time>
      </trkpt>
      <trkpt lat="45.04785" lon="0.42303">
        <ele>131.9</ele>
        <time>2022-10-09T07:02:58Z</time>
      </trkpt>
      <trkpt lat="45.04787" lon="0.42276">
        <ele>129.4</ele>
        <time>2022-10-09T07:03:01Z</time>
      </trkpt>
      <trkpt lat="45.04789" lon="0.4225">
        <ele>128.1</ele>
        <time>2022-10-09T07:03:05Z</time>
      </trkpt>
      <trkpt lat="45.04804" lon="0.42252">
        <ele>127.6</ele>
        <time>2022-10-09T07:03:09Z</time>
      </trkpt>
      <trkpt lat="45.04802" lon="0.42227">
        <ele>125</ele>
        <time>2022-10-09T07:03:11Z</time>
      </trkpt>
      <trkpt lat="45.04799" lon="0.42201">
        <ele>123.8</ele>
        <time>2022-10-09T07:03:13Z</time>
      </trkpt>
      <trkpt lat="45.04798" lon="0.42194">
        <ele>122.7</ele>
        <time>2022-10-09T07:03:15Z</time>
      </trkpt>
      <trkpt lat="45.04797" lon="0.42189">
        <ele>122.5</ele>
        <time>2022-10-09T07:03:16Z</time>
      </trkpt>
      <trkpt lat="45.04791" lon="0.42182">
        <ele>122.9</ele>
        <time>2022-10-09T07:03:18Z</time>
      </trkpt>
      <trkpt lat="45.04786" lon="0.4218">
        <ele>123.2</ele>
        <time>2022-10-09T07:03:19Z</time>
      </trkpt>
      <trkpt lat="45.04782" lon="0.4218">
        <ele>123.5</ele>
        <time>2022-10-09T07:03:20Z</time>
      </trkpt>
      <trkpt lat="45.04779" lon="0.42182">
        <ele>123.7</ele>
        <time>2022-10-09T07:03:22Z</time>
      </trkpt>
      <trkpt lat="45.04778" lon="0.42184">
        <ele>123.9</ele>
        <time>2022-10-09T07:03:24Z</time>
      </trkpt>
      <trkpt lat="45.04775" lon="0.42188">
        <ele>124.2</ele>
        <time>2022-10-09T07:03:26Z</time>
      </trkpt>
      <trkpt lat="45.0476" lon="0.42204">
        <ele>125.3</ele>
        <time>2022-10-09T07:03:33Z</time>
      </trkpt>
      <trkpt lat="45.04749" lon="0.42229">
        <ele>126.4</ele>
        <time>2022-10-09T07:03:40Z</time>
      </trkpt>
      <trkpt lat="45.04742" lon="0.42245">
        <ele>127.2</ele>
        <time>2022-10-09T07:03:44Z</time>
      </trkpt>
      <trkpt lat="45.0472" lon="0.42256">
        <ele>128</ele>
        <time>2022-10-09T07:03:49Z</time>
      </trkpt>
      <trkpt lat="45.04699" lon="0.42255">
        <ele>128.4</ele>
        <time>2022-10-09T07:03:55Z</time>
      </trkpt>
      <trkpt lat="45.04678" lon="0.42264">
        <ele>129.3</ele>
        <time>2022-10-09T07:04:01Z</time>
      </trkpt>
      <trkpt lat="45.04663" lon="0.42273">
        <ele>130.4</ele>
        <time>2022-10-09T07:04:06Z</time>
      </trkpt>
      <trkpt lat="45.04652" lon="0.42281">
        <ele>131</ele>
        <time>2022-10-09T07:04:10Z</time>
      </trkpt>
      <trkpt lat="45.04638" lon="0.4229">
        <ele>131.7</ele>
        <time>2022-10-09T07:04:15Z</time>
      </trkpt>
      <trkpt lat="45.04615" lon="0.42313">
        <ele>133</ele>
        <time>2022-10-09T07:04:23Z</time>
      </trkpt>
      <trkpt lat="45.04596" lon="0.42339">
        <ele>134.5</ele>
        <time>2022-10-09T07:04:30Z</time>
      </trkpt>
      <trkpt lat="45.04584" lon="0.42359">
        <ele>135.5</ele>
        <time>2022-10-09T07:04:36Z</time>
      </trkpt>
      <trkpt lat="45.04567" lon="0.42376">
        <ele>136.4</ele>
        <time>2022-10-09T07:04:42Z</time>
      </trkpt>
      <trkpt lat="45.04552" lon="0.42381">
        <ele>137.1</ele>
        <time>2022-10-09T07:04:47Z</time>
      </trkpt>
      <trkpt lat="45.04538" lon="0.42391">
        <ele>137.7</ele>
        <time>2022-10-09T07:04:52Z</time>
      </trkpt>
      <trkpt lat="45.04521" lon="0.42409">
        <ele>138.7</ele>
        <time>2022-10-09T07:05:00Z</time>
      </trkpt>
      <trkpt lat="45.04518" lon="0.42432">
        <ele>139.5</ele>
        <time>2022-10-09T07:05:06Z</time>
      </trkpt>
      <trkpt lat="45.04521" lon="0.42449">
        <ele>140.3</ele>
        <time>2022-10-09T07:05:11Z</time>
      </trkpt>
      <trkpt lat="45.04525" lon="0.42463">
        <ele>141.1</ele>
        <time>2022-10-09T07:05:16Z</time>
      </trkpt>
      <trkpt lat="45.0453" lon="0.42479">
        <ele>142</ele>
        <time>2022-10-09T07:05:21Z</time>
      </trkpt>
      <trkpt lat="45.04533" lon="0.42486">
        <ele>142.3</ele>
        <time>2022-10-09T07:05:23Z</time>
      </trkpt>
      <trkpt lat="45.04534" lon="0.42502">
        <ele>142.7</ele>
        <time>2022-10-09T07:05:28Z</time>
      </trkpt>
      <trkpt lat="45.04526" lon="0.42516">
        <ele>142.9</ele>
        <time>2022-10-09T07:05:33Z</time>
      </trkpt>
      <trkpt lat="45.04516" lon="0.42526">
        <ele>143</ele>
        <time>2022-10-09T07:05:37Z</time>
      </trkpt>
      <trkpt lat="45.04516" lon="0.42531">
        <ele>142.7</ele>
        <time>2022-10-09T07:05:40Z</time>
      </trkpt>
      <trkpt lat="45.04519" lon="0.42535">
        <ele>142.5</ele>
        <time>2022-10-09T07:05:41Z</time>
      </trkpt>
      <trkpt lat="45.04532" lon="0.42556">
        <ele>141.9</ele>
        <time>2022-10-09T07:05:44Z</time>
      </trkpt>
      <trkpt lat="45.04538" lon="0.42573">
        <ele>141.1</ele>
        <time>2022-10-09T07:05:47Z</time>
      </trkpt>
      <trkpt lat="45.04537" lon="0.42573">
        <ele>141.1</ele>
        <time>2022-10-09T07:05:48Z</time>
      </trkpt>
      <trkpt lat="45.04524" lon="0.42579">
        <ele>141</ele>
        <time>2022-10-09T07:05:52Z</time>
      </trkpt>
      <trkpt lat="45.0452" lon="0.42583">
        <ele>140.9</ele>
        <time>2022-10-09T07:05:53Z</time>
      </trkpt>
      <trkpt lat="45.04513" lon="0.42593">
        <ele>140.6</ele>
        <time>2022-10-09T07:05:55Z</time>
      </trkpt>
      <trkpt lat="45.0451" lon="0.42599">
        <ele>140.3</ele>
        <time>2022-10-09T07:05:56Z</time>
      </trkpt>
      <trkpt lat="45.04506" lon="0.42604">
        <ele>140.1</ele>
        <time>2022-10-09T07:05:57Z</time>
      </trkpt>
      <trkpt lat="45.04502" lon="0.42616">
        <ele>139.7</ele>
        <time>2022-10-09T07:05:59Z</time>
      </trkpt>
      <trkpt lat="45.04501" lon="0.42622">
        <ele>139.5</ele>
        <time>2022-10-09T07:06:00Z</time>
      </trkpt>
      <trkpt lat="45.04499" lon="0.42628">
        <ele>139.4</ele>
        <time>2022-10-09T07:06:01Z</time>
      </trkpt>
      <trkpt lat="45.04492" lon="0.42649">
        <ele>139.2</ele>
        <time>2022-10-09T07:06:04Z</time>
      </trkpt>
      <trkpt lat="45.0449" lon="0.42655">
        <ele>139.2</ele>
        <time>2022-10-09T07:06:05Z</time>
      </trkpt>
      <trkpt lat="45.0448" lon="0.42696">
        <ele>140.1</ele>
        <time>2022-10-09T07:06:12Z</time>
      </trkpt>
      <trkpt lat="45.04469" lon="0.42733">
        <ele>140.1</ele>
        <time>2022-10-09T07:06:17Z</time>
      </trkpt>
      <trkpt lat="45.04468" lon="0.42739">
        <ele>140</ele>
        <time>2022-10-09T07:06:18Z</time>
      </trkpt>
      <trkpt lat="45.04457" lon="0.42744">
        <ele>139.9</ele>
        <time>2022-10-09T07:06:19Z</time>
      </trkpt>
      <trkpt lat="45.04448" lon="0.42745">
        <ele>139.9</ele>
        <time>2022-10-09T07:06:21Z</time>
      </trkpt>
      <trkpt lat="45.04447" lon="0.42743">
        <ele>140.9</ele>
        <time>2022-10-09T07:06:22Z</time>
      </trkpt>
      <trkpt lat="45.04445" lon="0.42737">
        <ele>141.2</ele>
        <time>2022-10-09T07:06:24Z</time>
      </trkpt>
      <trkpt lat="45.04439" lon="0.42719">
        <ele>142.2</ele>
        <time>2022-10-09T07:06:30Z</time>
      </trkpt>
      <trkpt lat="45.04433" lon="0.42706">
        <ele>143</ele>
        <time>2022-10-09T07:06:35Z</time>
      </trkpt>
      <trkpt lat="45.04423" lon="0.42693">
        <ele>144</ele>
        <time>2022-10-09T07:06:41Z</time>
      </trkpt>
      <trkpt lat="45.04414" lon="0.42685">
        <ele>144.7</ele>
        <time>2022-10-09T07:06:47Z</time>
      </trkpt>
      <trkpt lat="45.04413" lon="0.42684">
        <ele>144.7</ele>
        <time>2022-10-09T07:06:48Z</time>
      </trkpt>
      <trkpt lat="45.0441" lon="0.42682">
        <ele>144.9</ele>
        <time>2022-10-09T07:06:50Z</time>
      </trkpt>
      <trkpt lat="45.04403" lon="0.42675">
        <ele>145.5</ele>
        <time>2022-10-09T07:06:54Z</time>
      </trkpt>
      <trkpt lat="45.04385" lon="0.42672">
        <ele>146.5</ele>
        <time>2022-10-09T07:07:01Z</time>
      </trkpt>
      <trkpt lat="45.0437" lon="0.42669">
        <ele>147.3</ele>
        <time>2022-10-09T07:07:07Z</time>
      </trkpt>
      <trkpt lat="45.04362" lon="0.4265">
        <ele>148</ele>
        <time>2022-10-09T07:07:12Z</time>
      </trkpt>
      <trkpt lat="45.04361" lon="0.42624">
        <ele>148.2</ele>
        <time>2022-10-09T07:07:19Z</time>
      </trkpt>
      <trkpt lat="45.0436" lon="0.42597">
        <ele>147.4</ele>
        <time>2022-10-09T07:07:25Z</time>
      </trkpt>
      <trkpt lat="45.04358" lon="0.42576">
        <ele>146.6</ele>
        <time>2022-10-09T07:07:29Z</time>
      </trkpt>
      <trkpt lat="45.04358" lon="0.42571">
        <ele>146.4</ele>
        <time>2022-10-09T07:07:30Z</time>
      </trkpt>
      <trkpt lat="45.04354" lon="0.42567">
        <ele>146.2</ele>
        <time>2022-10-09T07:07:31Z</time>
      </trkpt>
      <trkpt lat="45.0435" lon="0.42566">
        <ele>146</ele>
        <time>2022-10-09T07:07:32Z</time>
      </trkpt>
      <trkpt lat="45.04334" lon="0.42573">
        <ele>146.7</ele>
        <time>2022-10-09T07:07:38Z</time>
      </trkpt>
      <trkpt lat="45.04318" lon="0.42578">
        <ele>148.5</ele>
        <time>2022-10-09T07:07:44Z</time>
      </trkpt>
      <trkpt lat="45.04302" lon="0.42583">
        <ele>149.3</ele>
        <time>2022-10-09T07:07:51Z</time>
      </trkpt>
      <trkpt lat="45.04286" lon="0.42589">
        <ele>150.2</ele>
        <time>2022-10-09T07:07:58Z</time>
      </trkpt>
      <trkpt lat="45.04271" lon="0.42591">
        <ele>151.9</ele>
        <time>2022-10-09T07:08:04Z</time>
      </trkpt>
      <trkpt lat="45.04257" lon="0.42596">
        <ele>152.1</ele>
        <time>2022-10-09T07:08:10Z</time>
      </trkpt>
      <trkpt lat="45.04239" lon="0.42602">
        <ele>152.1</ele>
        <time>2022-10-09T07:08:17Z</time>
      </trkpt>
      <trkpt lat="45.04225" lon="0.42604">
        <ele>152</ele>
        <time>2022-10-09T07:08:23Z</time>
      </trkpt>
      <trkpt lat="45.04213" lon="0.42608">
        <ele>151.9</ele>
        <time>2022-10-09T07:08:28Z</time>
      </trkpt>
      <trkpt lat="45.04196" lon="0.42614">
        <ele>151.6</ele>
        <time>2022-10-09T07:08:34Z</time>
      </trkpt>
      <trkpt lat="45.04187" lon="0.42622">
        <ele>151.2</ele>
        <time>2022-10-09T07:08:38Z</time>
      </trkpt>
      <trkpt lat="45.04187" lon="0.42636">
        <ele>151.1</ele>
        <time>2022-10-09T07:08:42Z</time>
      </trkpt>
      <trkpt lat="45.04191" lon="0.42653">
        <ele>151</ele>
        <time>2022-10-09T07:08:46Z</time>
      </trkpt>
      <trkpt lat="45.04203" lon="0.42701">
        <ele>150.7</ele>
        <time>2022-10-09T07:08:55Z</time>
      </trkpt>
      <trkpt lat="45.04211" lon="0.42737">
        <ele>150.5</ele>
        <time>2022-10-09T07:09:01Z</time>
      </trkpt>
      <trkpt lat="45.0422" lon="0.42774">
        <ele>150.2</ele>
        <time>2022-10-09T07:09:07Z</time>
      </trkpt>
      <trkpt lat="45.04226" lon="0.42799">
        <ele>150</ele>
        <time>2022-10-09T07:09:11Z</time>
      </trkpt>
      <trkpt lat="45.04229" lon="0.42813">
        <ele>150</ele>
        <time>2022-10-09T07:09:13Z</time>
      </trkpt>
      <trkpt lat="45.0423" lon="0.4282">
        <ele>149.9</ele>
        <time>2022-10-09T07:09:14Z</time>
      </trkpt>
      <trkpt lat="45.04231" lon="0.42859">
        <ele>150.2</ele>
        <time>2022-10-09T07:09:20Z</time>
      </trkpt>
      <trkpt lat="45.04231" lon="0.42897">
        <ele>151</ele>
        <time>2022-10-09T07:09:26Z</time>
      </trkpt>
      <trkpt lat="45.0423" lon="0.42933">
        <ele>152</ele>
        <time>2022-10-09T07:09:32Z</time>
      </trkpt>
      <trkpt lat="45.04231" lon="0.42967">
        <ele>153</ele>
        <time>2022-10-09T07:09:38Z</time>
      </trkpt>
      <trkpt lat="45.04233" lon="0.42987">
        <ele>153.6</ele>
        <time>2022-10-09T07:09:42Z</time>
      </trkpt>
      <trkpt lat="45.04235" lon="0.43014">
        <ele>154.3</ele>
        <time>2022-10-09T07:09:47Z</time>
      </trkpt>
      <trkpt lat="45.04232" lon="0.43034">
        <ele>154.7</ele>
        <time>2022-10-09T07:09:51Z</time>
      </trkpt>
      <trkpt lat="45.04228" lon="0.43043">
        <ele>154.8</ele>
        <time>2022-10-09T07:09:53Z</time>
      </trkpt>
      <trkpt lat="45.04223" lon="0.43051">
        <ele>154.8</ele>
        <time>2022-10-09T07:09:55Z</time>
      </trkpt>
      <trkpt lat="45.04213" lon="0.43066">
        <ele>154.4</ele>
        <time>2022-10-09T07:09:59Z</time>
      </trkpt>
      <trkpt lat="45.0421" lon="0.4307">
        <ele>154.3</ele>
        <time>2022-10-09T07:10:00Z</time>
      </trkpt>
      <trkpt lat="45.042" lon="0.43084">
        <ele>153.7</ele>
        <time>2022-10-09T07:10:03Z</time>
      </trkpt>
      <trkpt lat="45.04197" lon="0.4309">
        <ele>153.3</ele>
        <time>2022-10-09T07:10:04Z</time>
      </trkpt>
      <trkpt lat="45.04183" lon="0.43117">
        <ele>151.8</ele>
        <time>2022-10-09T07:10:08Z</time>
      </trkpt>
      <trkpt lat="45.0418" lon="0.43126">
        <ele>151.5</ele>
        <time>2022-10-09T07:10:09Z</time>
      </trkpt>
      <trkpt lat="45.04174" lon="0.43153">
        <ele>150.3</ele>
        <time>2022-10-09T07:10:12Z</time>
      </trkpt>
      <trkpt lat="45.04174" lon="0.43162">
        <ele>149.9</ele>
        <time>2022-10-09T07:10:13Z</time>
      </trkpt>
      <trkpt lat="45.0417" lon="0.43164">
        <ele>149.3</ele>
        <time>2022-10-09T07:10:14Z</time>
      </trkpt>
      <trkpt lat="45.04161" lon="0.43168">
        <ele>147.3</ele>
        <time>2022-10-09T07:10:16Z</time>
      </trkpt>
      <trkpt lat="45.04155" lon="0.4317">
        <ele>146.2</ele>
        <time>2022-10-09T07:10:17Z</time>
      </trkpt>
      <trkpt lat="45.04148" lon="0.43173">
        <ele>144.6</ele>
        <time>2022-10-09T07:10:19Z</time>
      </trkpt>
      <trkpt lat="45.04143" lon="0.43172">
        <ele>143.5</ele>
        <time>2022-10-09T07:10:21Z</time>
      </trkpt>
      <trkpt lat="45.04134" lon="0.43169">
        <ele>141.4</ele>
        <time>2022-10-09T07:10:23Z</time>
      </trkpt>
      <trkpt lat="45.04126" lon="0.43164">
        <ele>139.6</ele>
        <time>2022-10-09T07:10:25Z</time>
      </trkpt>
      <trkpt lat="45.04123" lon="0.43162">
        <ele>138.9</ele>
        <time>2022-10-09T07:10:26Z</time>
      </trkpt>
      <trkpt lat="45.04121" lon="0.43161">
        <ele>138.4</ele>
        <time>2022-10-09T07:10:27Z</time>
      </trkpt>
      <trkpt lat="45.04115" lon="0.43162">
        <ele>137.4</ele>
        <time>2022-10-09T07:10:29Z</time>
      </trkpt>
      <trkpt lat="45.04113" lon="0.43162">
        <ele>137.2</ele>
        <time>2022-10-09T07:10:32Z</time>
      </trkpt>
      <trkpt lat="45.04113" lon="0.43162">
        <ele>137.2</ele>
        <time>2022-10-09T07:10:33Z</time>
      </trkpt>
      <trkpt lat="45.04112" lon="0.43167">
        <ele>136.7</ele>
        <time>2022-10-09T07:10:35Z</time>
      </trkpt>
      <trkpt lat="45.04111" lon="0.43171">
        <ele>136.5</ele>
        <time>2022-10-09T07:10:36Z</time>
      </trkpt>
      <trkpt lat="45.04112" lon="0.43174">
        <ele>136.3</ele>
        <time>2022-10-09T07:10:38Z</time>
      </trkpt>
      <trkpt lat="45.04112" lon="0.4318">
        <ele>136.1</ele>
        <time>2022-10-09T07:10:40Z</time>
      </trkpt>
      <trkpt lat="45.04113" lon="0.43186">
        <ele>136</ele>
        <time>2022-10-09T07:10:42Z</time>
      </trkpt>
      <trkpt lat="45.04114" lon="0.43189">
        <ele>135.9</ele>
        <time>2022-10-09T07:10:43Z</time>
      </trkpt>
      <trkpt lat="45.04115" lon="0.43198">
        <ele>135.9</ele>
        <time>2022-10-09T07:10:46Z</time>
      </trkpt>
      <trkpt lat="45.04116" lon="0.43205">
        <ele>135.7</ele>
        <time>2022-10-09T07:10:48Z</time>
      </trkpt>
      <trkpt lat="45.04117" lon="0.43208">
        <ele>135.4</ele>
        <time>2022-10-09T07:10:50Z</time>
      </trkpt>
      <trkpt lat="45.04111" lon="0.43214">
        <ele>134.3</ele>
        <time>2022-10-09T07:10:51Z</time>
      </trkpt>
      <trkpt lat="45.0411" lon="0.43212">
        <ele>133.9</ele>
        <time>2022-10-09T07:10:53Z</time>
      </trkpt>
      <trkpt lat="45.04108" lon="0.43212">
        <ele>133.5</ele>
        <time>2022-10-09T07:10:56Z</time>
      </trkpt>
      <trkpt lat="45.04105" lon="0.43212">
        <ele>132.8</ele>
        <time>2022-10-09T07:10:58Z</time>
      </trkpt>
      <trkpt lat="45.04102" lon="0.43214">
        <ele>131.9</ele>
        <time>2022-10-09T07:11:00Z</time>
      </trkpt>
      <trkpt lat="45.04097" lon="0.43217">
        <ele>130.5</ele>
        <time>2022-10-09T07:11:02Z</time>
      </trkpt>
      <trkpt lat="45.04093" lon="0.4322">
        <ele>128.9</ele>
        <time>2022-10-09T07:11:04Z</time>
      </trkpt>
      <trkpt lat="45.04086" lon="0.43224">
        <ele>126.6</ele>
        <time>2022-10-09T07:11:07Z</time>
      </trkpt>
      <trkpt lat="45.04083" lon="0.43228">
        <ele>125.5</ele>
        <time>2022-10-09T07:11:10Z</time>
      </trkpt>
      <trkpt lat="45.04081" lon="0.43231">
        <ele>124.5</ele>
        <time>2022-10-09T07:11:11Z</time>
      </trkpt>
      <trkpt lat="45.04085" lon="0.43245">
        <ele>124.1</ele>
        <time>2022-10-09T07:11:16Z</time>
      </trkpt>
      <trkpt lat="45.04103" lon="0.43265">
        <ele>125</ele>
        <time>2022-10-09T07:11:22Z</time>
      </trkpt>
      <trkpt lat="45.04112" lon="0.43271">
        <ele>125.7</ele>
        <time>2022-10-09T07:11:26Z</time>
      </trkpt>
      <trkpt lat="45.04122" lon="0.43277">
        <ele>126.5</ele>
        <time>2022-10-09T07:11:31Z</time>
      </trkpt>
      <trkpt lat="45.04131" lon="0.43283">
        <ele>127.1</ele>
        <time>2022-10-09T07:11:36Z</time>
      </trkpt>
      <trkpt lat="45.04144" lon="0.43293">
        <ele>128</ele>
        <time>2022-10-09T07:11:42Z</time>
      </trkpt>
      <trkpt lat="45.04153" lon="0.43302">
        <ele>128.8</ele>
        <time>2022-10-09T07:11:47Z</time>
      </trkpt>
      <trkpt lat="45.04164" lon="0.43311">
        <ele>129.7</ele>
        <time>2022-10-09T07:11:52Z</time>
      </trkpt>
      <trkpt lat="45.04168" lon="0.43315">
        <ele>130</ele>
        <time>2022-10-09T07:11:54Z</time>
      </trkpt>
      <trkpt lat="45.04172" lon="0.43319">
        <ele>130.2</ele>
        <time>2022-10-09T07:11:57Z</time>
      </trkpt>
      <trkpt lat="45.04174" lon="0.4332">
        <ele>130.3</ele>
        <time>2022-10-09T07:11:58Z</time>
      </trkpt>
      <trkpt lat="45.04177" lon="0.43323">
        <ele>130.3</ele>
        <time>2022-10-09T07:12:00Z</time>
      </trkpt>
      <trkpt lat="45.04184" lon="0.43319">
        <ele>130.3</ele>
        <time>2022-10-09T07:12:01Z</time>
      </trkpt>
      <trkpt lat="45.04186" lon="0.43328">
        <ele>129.9</ele>
        <time>2022-10-09T07:12:03Z</time>
      </trkpt>
      <trkpt lat="45.0419" lon="0.43339">
        <ele>128.9</ele>
        <time>2022-10-09T07:12:05Z</time>
      </trkpt>
      <trkpt lat="45.04192" lon="0.43345">
        <ele>128.3</ele>
        <time>2022-10-09T07:12:06Z</time>
      </trkpt>
      <trkpt lat="45.042" lon="0.43359">
        <ele>126.9</ele>
        <time>2022-10-09T07:12:08Z</time>
      </trkpt>
      <trkpt lat="45.04223" lon="0.43394">
        <ele>125.2</ele>
        <time>2022-10-09T07:12:13Z</time>
      </trkpt>
      <trkpt lat="45.04239" lon="0.43432">
        <ele>124</ele>
        <time>2022-10-09T07:12:18Z</time>
      </trkpt>
      <trkpt lat="45.04246" lon="0.43449">
        <ele>123.3</ele>
        <time>2022-10-09T07:12:20Z</time>
      </trkpt>
      <trkpt lat="45.04258" lon="0.43471">
        <ele>122.8</ele>
        <time>2022-10-09T07:12:23Z</time>
      </trkpt>
      <trkpt lat="45.04267" lon="0.43484">
        <ele>122.8</ele>
        <time>2022-10-09T07:12:25Z</time>
      </trkpt>
      <trkpt lat="45.0427" lon="0.4349">
        <ele>122.8</ele>
        <time>2022-10-09T07:12:26Z</time>
      </trkpt>
      <trkpt lat="45.04273" lon="0.43495">
        <ele>122.9</ele>
        <time>2022-10-09T07:12:27Z</time>
      </trkpt>
      <trkpt lat="45.04282" lon="0.4351">
        <ele>122.9</ele>
        <time>2022-10-09T07:12:30Z</time>
      </trkpt>
      <trkpt lat="45.04299" lon="0.43536">
        <ele>122.9</ele>
        <time>2022-10-09T07:12:35Z</time>
      </trkpt>
      <trkpt lat="45.04313" lon="0.43565">
        <ele>122.9</ele>
        <time>2022-10-09T07:12:40Z</time>
      </trkpt>
      <trkpt lat="45.04318" lon="0.43577">
        <ele>124.9</ele>
        <time>2022-10-09T07:12:42Z</time>
      </trkpt>
      <trkpt lat="45.04322" lon="0.43584">
        <ele>126</ele>
        <time>2022-10-09T07:12:45Z</time>
      </trkpt>
      <trkpt lat="45.04322" lon="0.43584">
        <ele>126</ele>
        <time>2022-10-09T07:12:47Z</time>
      </trkpt>
      <trkpt lat="45.04307" lon="0.43469">
        <ele>141.4</ele>
        <time>2022-10-09T07:14:20Z</time>
      </trkpt>
      <trkpt lat="45.04306" lon="0.43467">
        <ele>141.6</ele>
        <time>2022-10-09T07:14:21Z</time>
      </trkpt>
      <trkpt lat="45.04304" lon="0.43464">
        <ele>141.7</ele>
        <time>2022-10-09T07:14:23Z</time>
      </trkpt>
      <trkpt lat="45.043" lon="0.43457">
        <ele>142</ele>
        <time>2022-10-09T07:14:26Z</time>
      </trkpt>
      <trkpt lat="45.04293" lon="0.43444">
        <ele>142.4</ele>
        <time>2022-10-09T07:14:31Z</time>
      </trkpt>
      <trkpt lat="45.04291" lon="0.43442">
        <ele>142.5</ele>
        <time>2022-10-09T07:14:32Z</time>
      </trkpt>
      <trkpt lat="45.0429" lon="0.4344">
        <ele>142.5</ele>
        <time>2022-10-09T07:14:33Z</time>
      </trkpt>
      <trkpt lat="45.04285" lon="0.43431">
        <ele>142.8</ele>
        <time>2022-10-09T07:14:36Z</time>
      </trkpt>
      <trkpt lat="45.04283" lon="0.43427">
        <ele>142.9</ele>
        <time>2022-10-09T07:14:38Z</time>
      </trkpt>
      <trkpt lat="45.0428" lon="0.43422">
        <ele>143.1</ele>
        <time>2022-10-09T07:14:41Z</time>
      </trkpt>
      <trkpt lat="45.04277" lon="0.43404">
        <ele>144</ele>
        <time>2022-10-09T07:14:47Z</time>
      </trkpt>
      <trkpt lat="45.04277" lon="0.43395">
        <ele>144.6</ele>
        <time>2022-10-09T07:14:53Z</time>
      </trkpt>
      <trkpt lat="45.04277" lon="0.43388">
        <ele>145.1</ele>
        <time>2022-10-09T07:14:56Z</time>
      </trkpt>
      <trkpt lat="45.04277" lon="0.43383">
        <ele>145.5</ele>
        <time>2022-10-09T07:14:58Z</time>
      </trkpt>
      <trkpt lat="45.04277" lon="0.43364">
        <ele>147.2</ele>
        <time>2022-10-09T07:15:05Z</time>
      </trkpt>
      <trkpt lat="45.04277" lon="0.43354">
        <ele>148</ele>
        <time>2022-10-09T07:15:11Z</time>
      </trkpt>
      <trkpt lat="45.04277" lon="0.43353">
        <ele>148.1</ele>
        <time>2022-10-09T07:15:12Z</time>
      </trkpt>
      <trkpt lat="45.04278" lon="0.43348">
        <ele>148.6</ele>
        <time>2022-10-09T07:15:15Z</time>
      </trkpt>
      <trkpt lat="45.04279" lon="0.43338">
        <ele>149.4</ele>
        <time>2022-10-09T07:15:19Z</time>
      </trkpt>
      <trkpt lat="45.04279" lon="0.43337">
        <ele>149.6</ele>
        <time>2022-10-09T07:15:20Z</time>
      </trkpt>
      <trkpt lat="45.04279" lon="0.43335">
        <ele>149.7</ele>
        <time>2022-10-09T07:15:21Z</time>
      </trkpt>
      <trkpt lat="45.04281" lon="0.43324">
        <ele>150.9</ele>
        <time>2022-10-09T07:15:25Z</time>
      </trkpt>
      <trkpt lat="45.04286" lon="0.43318">
        <ele>151.8</ele>
        <time>2022-10-09T07:15:31Z</time>
      </trkpt>
      <trkpt lat="45.04294" lon="0.4331">
        <ele>153.3</ele>
        <time>2022-10-09T07:15:39Z</time>
      </trkpt>
      <trkpt lat="45.04302" lon="0.43304">
        <ele>154.7</ele>
        <time>2022-10-09T07:15:44Z</time>
      </trkpt>
      <trkpt lat="45.04306" lon="0.43301">
        <ele>155.4</ele>
        <time>2022-10-09T07:15:46Z</time>
      </trkpt>
      <trkpt lat="45.04311" lon="0.43297">
        <ele>156.2</ele>
        <time>2022-10-09T07:15:49Z</time>
      </trkpt>
      <trkpt lat="45.04321" lon="0.43291">
        <ele>157.4</ele>
        <time>2022-10-09T07:15:55Z</time>
      </trkpt>
      <trkpt lat="45.04327" lon="0.43286">
        <ele>158.2</ele>
        <time>2022-10-09T07:15:59Z</time>
      </trkpt>
      <trkpt lat="45.04329" lon="0.43285">
        <ele>158.4</ele>
        <time>2022-10-09T07:16:00Z</time>
      </trkpt>
      <trkpt lat="45.04334" lon="0.43282">
        <ele>159</ele>
        <time>2022-10-09T07:16:04Z</time>
      </trkpt>
      <trkpt lat="45.04343" lon="0.43276">
        <ele>159.8</ele>
        <time>2022-10-09T07:16:08Z</time>
      </trkpt>
      <trkpt lat="45.04346" lon="0.43272">
        <ele>160.1</ele>
        <time>2022-10-09T07:16:10Z</time>
      </trkpt>
      <trkpt lat="45.0435" lon="0.43268">
        <ele>160.3</ele>
        <time>2022-10-09T07:16:12Z</time>
      </trkpt>
      <trkpt lat="45.0436" lon="0.43256">
        <ele>160.8</ele>
        <time>2022-10-09T07:16:18Z</time>
      </trkpt>
      <trkpt lat="45.04361" lon="0.43255">
        <ele>160.9</ele>
        <time>2022-10-09T07:16:19Z</time>
      </trkpt>
      <trkpt lat="45.04366" lon="0.43243">
        <ele>161.1</ele>
        <time>2022-10-09T07:16:21Z</time>
      </trkpt>
      <trkpt lat="45.04364" lon="0.43241">
        <ele>161.1</ele>
        <time>2022-10-09T07:16:22Z</time>
      </trkpt>
      <trkpt lat="45.0436" lon="0.43237">
        <ele>161.1</ele>
        <time>2022-10-09T07:16:25Z</time>
      </trkpt>
      <trkpt lat="45.0435" lon="0.43226">
        <ele>160.9</ele>
        <time>2022-10-09T07:16:30Z</time>
      </trkpt>
      <trkpt lat="45.04337" lon="0.4321">
        <ele>160.6</ele>
        <time>2022-10-09T07:16:35Z</time>
      </trkpt>
      <trkpt lat="45.04323" lon="0.43193">
        <ele>160.1</ele>
        <time>2022-10-09T07:16:41Z</time>
      </trkpt>
      <trkpt lat="45.04308" lon="0.43175">
        <ele>159.6</ele>
        <time>2022-10-09T07:16:47Z</time>
      </trkpt>
      <trkpt lat="45.04297" lon="0.43161">
        <ele>159.2</ele>
        <time>2022-10-09T07:16:51Z</time>
      </trkpt>
      <trkpt lat="45.04284" lon="0.43138">
        <ele>158.4</ele>
        <time>2022-10-09T07:16:56Z</time>
      </trkpt>
      <trkpt lat="45.04281" lon="0.43133">
        <ele>158.3</ele>
        <time>2022-10-09T07:16:57Z</time>
      </trkpt>
      <trkpt lat="45.04271" lon="0.43109">
        <ele>157.4</ele>
        <time>2022-10-09T07:17:01Z</time>
      </trkpt>
      <trkpt lat="45.04267" lon="0.43098">
        <ele>157</ele>
        <time>2022-10-09T07:17:03Z</time>
      </trkpt>
      <trkpt lat="45.04265" lon="0.43094">
        <ele>156.9</ele>
        <time>2022-10-09T07:17:04Z</time>
      </trkpt>
      <trkpt lat="45.04278" lon="0.43084">
        <ele>156</ele>
        <time>2022-10-09T07:17:07Z</time>
      </trkpt>
      <trkpt lat="45.04282" lon="0.43084">
        <ele>155.8</ele>
        <time>2022-10-09T07:17:08Z</time>
      </trkpt>
      <trkpt lat="45.04292" lon="0.43084">
        <ele>155.3</ele>
        <time>2022-10-09T07:17:10Z</time>
      </trkpt>
      <trkpt lat="45.04323" lon="0.43078">
        <ele>152.4</ele>
        <time>2022-10-09T07:17:16Z</time>
      </trkpt>
      <trkpt lat="45.04345" lon="0.43073">
        <ele>150.8</ele>
        <time>2022-10-09T07:17:19Z</time>
      </trkpt>
      <trkpt lat="45.0436" lon="0.43072">
        <ele>150.3</ele>
        <time>2022-10-09T07:17:21Z</time>
      </trkpt>
      <trkpt lat="45.04397" lon="0.43073">
        <ele>149.5</ele>
        <time>2022-10-09T07:17:26Z</time>
      </trkpt>
      <trkpt lat="45.04433" lon="0.43063">
        <ele>149.7</ele>
        <time>2022-10-09T07:17:31Z</time>
      </trkpt>
      <trkpt lat="45.04476" lon="0.43052">
        <ele>149.5</ele>
        <time>2022-10-09T07:17:38Z</time>
      </trkpt>
      <trkpt lat="45.04527" lon="0.43038">
        <ele>147.9</ele>
        <time>2022-10-09T07:17:46Z</time>
      </trkpt>
      <trkpt lat="45.04554" lon="0.43019">
        <ele>145.8</ele>
        <time>2022-10-09T07:17:50Z</time>
      </trkpt>
      <trkpt lat="45.04561" lon="0.43015">
        <ele>145.2</ele>
        <time>2022-10-09T07:17:51Z</time>
      </trkpt>
      <trkpt lat="45.0457" lon="0.4301">
        <ele>144.4</ele>
        <time>2022-10-09T07:17:53Z</time>
      </trkpt>
      <trkpt lat="45.04568" lon="0.42992">
        <ele>143.3</ele>
        <time>2022-10-09T07:17:56Z</time>
      </trkpt>
      <trkpt lat="45.04566" lon="0.42981">
        <ele>142.9</ele>
        <time>2022-10-09T07:17:58Z</time>
      </trkpt>
      <trkpt lat="45.04568" lon="0.42968">
        <ele>142.5</ele>
        <time>2022-10-09T07:18:00Z</time>
      </trkpt>
      <trkpt lat="45.04572" lon="0.42937">
        <ele>141.5</ele>
        <time>2022-10-09T07:18:04Z</time>
      </trkpt>
      <trkpt lat="45.04569" lon="0.42902">
        <ele>139.8</ele>
        <time>2022-10-09T07:18:08Z</time>
      </trkpt>
      <trkpt lat="45.04568" lon="0.42898">
        <ele>139.6</ele>
        <time>2022-10-09T07:18:09Z</time>
      </trkpt>
      <trkpt lat="45.04565" lon="0.42897">
        <ele>139.3</ele>
        <time>2022-10-09T07:18:10Z</time>
      </trkpt>
      <trkpt lat="45.0456" lon="0.42895">
        <ele>139</ele>
        <time>2022-10-09T07:18:11Z</time>
      </trkpt>
      <trkpt lat="45.04555" lon="0.42892">
        <ele>138.7</ele>
        <time>2022-10-09T07:18:12Z</time>
      </trkpt>
      <trkpt lat="45.04537" lon="0.4288">
        <ele>137.5</ele>
        <time>2022-10-09T07:18:15Z</time>
      </trkpt>
      <trkpt lat="45.0451" lon="0.42861">
        <ele>135.8</ele>
        <time>2022-10-09T07:18:19Z</time>
      </trkpt>
      <trkpt lat="45.04506" lon="0.42857">
        <ele>135.6</ele>
        <time>2022-10-09T07:18:20Z</time>
      </trkpt>
      <trkpt lat="45.04487" lon="0.42832">
        <ele>134.6</ele>
        <time>2022-10-09T07:18:23Z</time>
      </trkpt>
      <trkpt lat="45.04482" lon="0.42825">
        <ele>134.5</ele>
        <time>2022-10-09T07:18:24Z</time>
      </trkpt>
      <trkpt lat="45.04477" lon="0.42818">
        <ele>134.4</ele>
        <time>2022-10-09T07:18:25Z</time>
      </trkpt>
      <trkpt lat="45.04466" lon="0.42798">
        <ele>134.4</ele>
        <time>2022-10-09T07:18:28Z</time>
      </trkpt>
      <trkpt lat="45.04466" lon="0.4278">
        <ele>134.1</ele>
        <time>2022-10-09T07:18:30Z</time>
      </trkpt>
      <trkpt lat="45.04476" lon="0.4278">
        <ele>133.4</ele>
        <time>2022-10-09T07:18:32Z</time>
      </trkpt>
      <trkpt lat="45.04482" lon="0.4278">
        <ele>133</ele>
        <time>2022-10-09T07:18:33Z</time>
      </trkpt>
      <trkpt lat="45.04489" lon="0.4278">
        <ele>132.6</ele>
        <time>2022-10-09T07:18:34Z</time>
      </trkpt>
      <trkpt lat="45.04503" lon="0.42773">
        <ele>131.6</ele>
        <time>2022-10-09T07:18:36Z</time>
      </trkpt>
      <trkpt lat="45.04537" lon="0.42743">
        <ele>128.8</ele>
        <time>2022-10-09T07:18:41Z</time>
      </trkpt>
      <trkpt lat="45.04549" lon="0.42728">
        <ele>127.5</ele>
        <time>2022-10-09T07:18:43Z</time>
      </trkpt>
      <trkpt lat="45.04557" lon="0.42719">
        <ele>126.7</ele>
        <time>2022-10-09T07:18:44Z</time>
      </trkpt>
      <trkpt lat="45.04564" lon="0.42713">
        <ele>126.1</ele>
        <time>2022-10-09T07:18:45Z</time>
      </trkpt>
      <trkpt lat="45.04581" lon="0.42702">
        <ele>124.8</ele>
        <time>2022-10-09T07:18:47Z</time>
      </trkpt>
      <trkpt lat="45.04617" lon="0.42686">
        <ele>122.2</ele>
        <time>2022-10-09T07:18:51Z</time>
      </trkpt>
      <trkpt lat="45.04642" lon="0.4267">
        <ele>120.4</ele>
        <time>2022-10-09T07:18:54Z</time>
      </trkpt>
      <trkpt lat="45.04694" lon="0.42655">
        <ele>117.9</ele>
        <time>2022-10-09T07:19:00Z</time>
      </trkpt>
      <trkpt lat="45.04725" lon="0.42636">
        <ele>116.2</ele>
        <time>2022-10-09T07:19:04Z</time>
      </trkpt>
      <trkpt lat="45.0476" lon="0.42634">
        <ele>114.2</ele>
        <time>2022-10-09T07:19:08Z</time>
      </trkpt>
      <trkpt lat="45.04804" lon="0.42631">
        <ele>112.5</ele>
        <time>2022-10-09T07:19:13Z</time>
      </trkpt>
      <trkpt lat="45.04838" lon="0.42628">
        <ele>111.4</ele>
        <time>2022-10-09T07:19:17Z</time>
      </trkpt>
      <trkpt lat="45.04846" lon="0.42627">
        <ele>111.1</ele>
        <time>2022-10-09T07:19:18Z</time>
      </trkpt>
      <trkpt lat="45.0486" lon="0.42626">
        <ele>110.6</ele>
        <time>2022-10-09T07:19:20Z</time>
      </trkpt>
      <trkpt lat="45.04913" lon="0.42628">
        <ele>108.6</ele>
        <time>2022-10-09T07:19:26Z</time>
      </trkpt>
      <trkpt lat="45.04963" lon="0.42632">
        <ele>106.6</ele>
        <time>2022-10-09T07:19:32Z</time>
      </trkpt>
      <trkpt lat="45.04969" lon="0.42634">
        <ele>106.4</ele>
        <time>2022-10-09T07:19:33Z</time>
      </trkpt>
      <trkpt lat="45.04978" lon="0.42637">
        <ele>105.8</ele>
        <time>2022-10-09T07:19:35Z</time>
      </trkpt>
      <trkpt lat="45.04982" lon="0.42653">
        <ele>104.6</ele>
        <time>2022-10-09T07:19:37Z</time>
      </trkpt>
      <trkpt lat="45.04988" lon="0.42654">
        <ele>103.8</ele>
        <time>2022-10-09T07:19:38Z</time>
      </trkpt>
      <trkpt lat="45.04987" lon="0.42672">
        <ele>102.6</ele>
        <time>2022-10-09T07:19:40Z</time>
      </trkpt>
      <trkpt lat="45.04987" lon="0.42701">
        <ele>101.1</ele>
        <time>2022-10-09T07:19:43Z</time>
      </trkpt>
      <trkpt lat="45.0499" lon="0.42745">
        <ele>100</ele>
        <time>2022-10-09T07:19:48Z</time>
      </trkpt>
      <trkpt lat="45.04993" lon="0.42765">
        <ele>100.1</ele>
        <time>2022-10-09T07:19:52Z</time>
      </trkpt>
      <trkpt lat="45.04995" lon="0.42777">
        <ele>100.4</ele>
        <time>2022-10-09T07:19:56Z</time>
      </trkpt>
      <trkpt lat="45.04996" lon="0.4278">
        <ele>100.6</ele>
        <time>2022-10-09T07:19:57Z</time>
      </trkpt>
      <trkpt lat="45.04997" lon="0.42785">
        <ele>100.9</ele>
        <time>2022-10-09T07:20:02Z</time>
      </trkpt>
      <trkpt lat="45.04999" lon="0.42796">
        <ele>101.5</ele>
        <time>2022-10-09T07:20:21Z</time>
      </trkpt>
      <trkpt lat="45.04999" lon="0.42799">
        <ele>101.7</ele>
        <time>2022-10-09T07:20:24Z</time>
      </trkpt>
      <trkpt lat="45.04999" lon="0.42799">
        <ele>101.7</ele>
        <time>2022-10-09T07:20:25Z</time>
      </trkpt>
      <trkpt lat="45.05004" lon="0.42816">
        <ele>102.6</ele>
        <time>2022-10-09T07:24:26Z</time>
      </trkpt>
      <trkpt lat="45.05004" lon="0.42817">
        <ele>102.6</ele>
        <time>2022-10-09T07:24:28Z</time>
      </trkpt>
      <trkpt lat="45.05004" lon="0.42817">
        <ele>102.6</ele>
        <time>2022-10-09T07:24:29Z</time>
      </trkpt>
      <trkpt lat="45.05002" lon="0.42827">
        <ele>104.1</ele>
        <time>2022-10-09T07:24:31Z</time>
      </trkpt>
      <trkpt lat="45.04993" lon="0.42827">
        <ele>105</ele>
        <time>2022-10-09T07:24:37Z</time>
      </trkpt>
      <trkpt lat="45.04983" lon="0.42827">
        <ele>106.2</ele>
        <time>2022-10-09T07:24:43Z</time>
      </trkpt>
      <trkpt lat="45.04983" lon="0.42827">
        <ele>106.2</ele>
        <time>2022-10-09T07:24:45Z</time>
      </trkpt>
      <trkpt lat="45.0496" lon="0.42831">
        <ele>109.6</ele>
        <time>2022-10-09T07:24:58Z</time>
      </trkpt>
      <trkpt lat="45.04959" lon="0.42831">
        <ele>109.9</ele>
        <time>2022-10-09T07:24:59Z</time>
      </trkpt>
      <trkpt lat="45.04948" lon="0.42836">
        <ele>111.8</ele>
        <time>2022-10-09T07:25:07Z</time>
      </trkpt>
      <trkpt lat="45.04935" lon="0.42842">
        <ele>114.1</ele>
        <time>2022-10-09T07:25:16Z</time>
      </trkpt>
      <trkpt lat="45.04925" lon="0.42848">
        <ele>115.8</ele>
        <time>2022-10-09T07:25:23Z</time>
      </trkpt>
      <trkpt lat="45.04914" lon="0.42855">
        <ele>117.6</ele>
        <time>2022-10-09T07:25:31Z</time>
      </trkpt>
      <trkpt lat="45.04902" lon="0.42861">
        <ele>119.8</ele>
        <time>2022-10-09T07:25:41Z</time>
      </trkpt>
      <trkpt lat="45.04896" lon="0.42862">
        <ele>120.8</ele>
        <time>2022-10-09T07:25:46Z</time>
      </trkpt>
      <trkpt lat="45.04893" lon="0.42862">
        <ele>121.2</ele>
        <time>2022-10-09T07:25:48Z</time>
      </trkpt>
      <trkpt lat="45.04883" lon="0.42858">
        <ele>122.8</ele>
        <time>2022-10-09T07:25:55Z</time>
      </trkpt>
      <trkpt lat="45.04873" lon="0.42854">
        <ele>124.4</ele>
        <time>2022-10-09T07:26:03Z</time>
      </trkpt>
      <trkpt lat="45.04864" lon="0.42849">
        <ele>125.7</ele>
        <time>2022-10-09T07:26:09Z</time>
      </trkpt>
      <trkpt lat="45.04852" lon="0.42844">
        <ele>127.1</ele>
        <time>2022-10-09T07:26:16Z</time>
      </trkpt>
      <trkpt lat="45.04838" lon="0.42837">
        <ele>128.1</ele>
        <time>2022-10-09T07:26:24Z</time>
      </trkpt>
      <trkpt lat="45.04817" lon="0.42827">
        <ele>129.2</ele>
        <time>2022-10-09T07:26:34Z</time>
      </trkpt>
      <trkpt lat="45.04802" lon="0.42824">
        <ele>129.6</ele>
        <time>2022-10-09T07:26:41Z</time>
      </trkpt>
      <trkpt lat="45.04789" lon="0.42823">
        <ele>130</ele>
        <time>2022-10-09T07:26:47Z</time>
      </trkpt>
      <trkpt lat="45.04773" lon="0.42822">
        <ele>130.3</ele>
        <time>2022-10-09T07:26:54Z</time>
      </trkpt>
      <trkpt lat="45.04759" lon="0.42824">
        <ele>130.7</ele>
        <time>2022-10-09T07:27:00Z</time>
      </trkpt>
      <trkpt lat="45.04748" lon="0.42829">
        <ele>131.2</ele>
        <time>2022-10-09T07:27:05Z</time>
      </trkpt>
      <trkpt lat="45.04732" lon="0.4284">
        <ele>131.9</ele>
        <time>2022-10-09T07:27:13Z</time>
      </trkpt>
      <trkpt lat="45.04717" lon="0.4286">
        <ele>133</ele>
        <time>2022-10-09T07:27:22Z</time>
      </trkpt>
      <trkpt lat="45.04705" lon="0.42882">
        <ele>134.6</ele>
        <time>2022-10-09T07:27:30Z</time>
      </trkpt>
      <trkpt lat="45.04692" lon="0.42907">
        <ele>136.6</ele>
        <time>2022-10-09T07:27:39Z</time>
      </trkpt>
      <trkpt lat="45.0468" lon="0.42929">
        <ele>138.2</ele>
        <time>2022-10-09T07:27:47Z</time>
      </trkpt>
      <trkpt lat="45.04669" lon="0.42941">
        <ele>139.3</ele>
        <time>2022-10-09T07:27:52Z</time>
      </trkpt>
      <trkpt lat="45.04667" lon="0.42943">
        <ele>139.5</ele>
        <time>2022-10-09T07:27:53Z</time>
      </trkpt>
      <trkpt lat="45.04661" lon="0.42948">
        <ele>140.1</ele>
        <time>2022-10-09T07:27:55Z</time>
      </trkpt>
      <trkpt lat="45.04648" lon="0.42961">
        <ele>141.4</ele>
        <time>2022-10-09T07:28:00Z</time>
      </trkpt>
      <trkpt lat="45.04637" lon="0.42972">
        <ele>142.3</ele>
        <time>2022-10-09T07:28:04Z</time>
      </trkpt>
      <trkpt lat="45.04625" lon="0.42984">
        <ele>143.6</ele>
        <time>2022-10-09T07:28:09Z</time>
      </trkpt>
      <trkpt lat="45.04619" lon="0.42994">
        <ele>144.3</ele>
        <time>2022-10-09T07:28:10Z</time>
      </trkpt>
      <trkpt lat="45.04622" lon="0.43004">
        <ele>144.6</ele>
        <time>2022-10-09T07:28:13Z</time>
      </trkpt>
      <trkpt lat="45.04623" lon="0.43006">
        <ele>144.7</ele>
        <time>2022-10-09T07:28:14Z</time>
      </trkpt>
      <trkpt lat="45.04627" lon="0.43019">
        <ele>145.2</ele>
        <time>2022-10-09T07:28:18Z</time>
      </trkpt>
      <trkpt lat="45.04629" lon="0.43022">
        <ele>145.3</ele>
        <time>2022-10-09T07:28:19Z</time>
      </trkpt>
      <trkpt lat="45.04634" lon="0.43038">
        <ele>145.9</ele>
        <time>2022-10-09T07:28:23Z</time>
      </trkpt>
      <trkpt lat="45.04636" lon="0.43042">
        <ele>146</ele>
        <time>2022-10-09T07:28:24Z</time>
      </trkpt>
      <trkpt lat="45.04642" lon="0.43073">
        <ele>146.2</ele>
        <time>2022-10-09T07:28:30Z</time>
      </trkpt>
      <trkpt lat="45.04643" lon="0.4309">
        <ele>146</ele>
        <time>2022-10-09T07:28:33Z</time>
      </trkpt>
      <trkpt lat="45.04643" lon="0.43103">
        <ele>145.8</ele>
        <time>2022-10-09T07:28:35Z</time>
      </trkpt>
      <trkpt lat="45.04641" lon="0.43124">
        <ele>145.2</ele>
        <time>2022-10-09T07:28:38Z</time>
      </trkpt>
      <trkpt lat="45.0464" lon="0.43132">
        <ele>144.9</ele>
        <time>2022-10-09T07:28:39Z</time>
      </trkpt>
      <trkpt lat="45.04637" lon="0.43147">
        <ele>144.2</ele>
        <time>2022-10-09T07:28:41Z</time>
      </trkpt>
      <trkpt lat="45.04633" lon="0.43166">
        <ele>143</ele>
        <time>2022-10-09T07:28:43Z</time>
      </trkpt>
      <trkpt lat="45.0463" lon="0.43182">
        <ele>141.6</ele>
        <time>2022-10-09T07:28:45Z</time>
      </trkpt>
      <trkpt lat="45.0463" lon="0.43198">
        <ele>140.6</ele>
        <time>2022-10-09T07:28:47Z</time>
      </trkpt>
      <trkpt lat="45.04632" lon="0.43208">
        <ele>140.2</ele>
        <time>2022-10-09T07:28:48Z</time>
      </trkpt>
      <trkpt lat="45.04634" lon="0.43218">
        <ele>139.9</ele>
        <time>2022-10-09T07:28:49Z</time>
      </trkpt>
      <trkpt lat="45.04637" lon="0.43237">
        <ele>140.4</ele>
        <time>2022-10-09T07:28:51Z</time>
      </trkpt>
      <trkpt lat="45.04637" lon="0.43244">
        <ele>140.7</ele>
        <time>2022-10-09T07:28:52Z</time>
      </trkpt>
      <trkpt lat="45.04638" lon="0.43257">
        <ele>141.3</ele>
        <time>2022-10-09T07:28:54Z</time>
      </trkpt>
      <trkpt lat="45.04639" lon="0.43264">
        <ele>141.7</ele>
        <time>2022-10-09T07:28:55Z</time>
      </trkpt>
      <trkpt lat="45.04639" lon="0.4327">
        <ele>142</ele>
        <time>2022-10-09T07:28:56Z</time>
      </trkpt>
      <trkpt lat="45.04639" lon="0.43285">
        <ele>142.8</ele>
        <time>2022-10-09T07:28:59Z</time>
      </trkpt>
      <trkpt lat="45.04639" lon="0.43309">
        <ele>143.9</ele>
        <time>2022-10-09T07:29:04Z</time>
      </trkpt>
      <trkpt lat="45.04639" lon="0.43313">
        <ele>144</ele>
        <time>2022-10-09T07:29:05Z</time>
      </trkpt>
      <trkpt lat="45.04639" lon="0.43321">
        <ele>144.2</ele>
        <time>2022-10-09T07:29:07Z</time>
      </trkpt>
      <trkpt lat="45.04639" lon="0.43326">
        <ele>144.3</ele>
        <time>2022-10-09T07:29:08Z</time>
      </trkpt>
      <trkpt lat="45.04639" lon="0.43337">
        <ele>144.5</ele>
        <time>2022-10-09T07:29:10Z</time>
      </trkpt>
      <trkpt lat="45.04639" lon="0.43353">
        <ele>144.7</ele>
        <time>2022-10-09T07:29:14Z</time>
      </trkpt>
      <trkpt lat="45.04639" lon="0.43353">
        <ele>144.7</ele>
        <time>2022-10-09T07:29:15Z</time>
      </trkpt>
      <trkpt lat="45.04644" lon="0.43366">
        <ele>145</ele>
        <time>2022-10-09T07:29:18Z</time>
      </trkpt>
      <trkpt lat="45.04651" lon="0.43386">
        <ele>145.5</ele>
        <time>2022-10-09T07:29:22Z</time>
      </trkpt>
      <trkpt lat="45.04662" lon="0.43414">
        <ele>145.8</ele>
        <time>2022-10-09T07:29:27Z</time>
      </trkpt>
      <trkpt lat="45.04665" lon="0.43418">
        <ele>145.9</ele>
        <time>2022-10-09T07:29:28Z</time>
      </trkpt>
      <trkpt lat="45.04676" lon="0.43433">
        <ele>146.3</ele>
        <time>2022-10-09T07:29:32Z</time>
      </trkpt>
      <trkpt lat="45.04685" lon="0.43445">
        <ele>147</ele>
        <time>2022-10-09T07:29:36Z</time>
      </trkpt>
      <trkpt lat="45.04703" lon="0.43471">
        <ele>148.7</ele>
        <time>2022-10-09T07:29:44Z</time>
      </trkpt>
      <trkpt lat="45.04715" lon="0.43486">
        <ele>149</ele>
        <time>2022-10-09T07:29:48Z</time>
      </trkpt>
      <trkpt lat="45.04728" lon="0.435">
        <ele>148.8</ele>
        <time>2022-10-09T07:29:52Z</time>
      </trkpt>
      <trkpt lat="45.04743" lon="0.43517">
        <ele>149.2</ele>
        <time>2022-10-09T07:29:57Z</time>
      </trkpt>
      <trkpt lat="45.04748" lon="0.43522">
        <ele>149.6</ele>
        <time>2022-10-09T07:29:59Z</time>
      </trkpt>
      <trkpt lat="45.04753" lon="0.43528">
        <ele>150.1</ele>
        <time>2022-10-09T07:30:01Z</time>
      </trkpt>
      <trkpt lat="45.0476" lon="0.43535">
        <ele>150.8</ele>
        <time>2022-10-09T07:30:04Z</time>
      </trkpt>
      <trkpt lat="45.04762" lon="0.43537">
        <ele>151</ele>
        <time>2022-10-09T07:30:05Z</time>
      </trkpt>
      <trkpt lat="45.04766" lon="0.43542">
        <ele>151.5</ele>
        <time>2022-10-09T07:30:07Z</time>
      </trkpt>
      <trkpt lat="45.04768" lon="0.43545">
        <ele>151.8</ele>
        <time>2022-10-09T07:30:08Z</time>
      </trkpt>
      <trkpt lat="45.04777" lon="0.43555">
        <ele>152.6</ele>
        <time>2022-10-09T07:30:12Z</time>
      </trkpt>
      <trkpt lat="45.04786" lon="0.43564">
        <ele>153</ele>
        <time>2022-10-09T07:30:16Z</time>
      </trkpt>
      <trkpt lat="45.048" lon="0.43578">
        <ele>153.1</ele>
        <time>2022-10-09T07:30:21Z</time>
      </trkpt>
      <trkpt lat="45.04821" lon="0.436">
        <ele>152.6</ele>
        <time>2022-10-09T07:30:27Z</time>
      </trkpt>
      <trkpt lat="45.04838" lon="0.43618">
        <ele>151.7</ele>
        <time>2022-10-09T07:30:31Z</time>
      </trkpt>
      <trkpt lat="45.04843" lon="0.43623">
        <ele>151.5</ele>
        <time>2022-10-09T07:30:32Z</time>
      </trkpt>
      <trkpt lat="45.04847" lon="0.4363">
        <ele>151.3</ele>
        <time>2022-10-09T07:30:33Z</time>
      </trkpt>
      <trkpt lat="45.04861" lon="0.43654">
        <ele>151</ele>
        <time>2022-10-09T07:30:37Z</time>
      </trkpt>
      <trkpt lat="45.04878" lon="0.43678">
        <ele>151.1</ele>
        <time>2022-10-09T07:30:42Z</time>
      </trkpt>
      <trkpt lat="45.04873" lon="0.43677">
        <ele>151.2</ele>
        <time>2022-10-09T07:30:43Z</time>
      </trkpt>
      <trkpt lat="45.04873" lon="0.43677">
        <ele>151.2</ele>
        <time>2022-10-09T07:30:45Z</time>
      </trkpt>
      <trkpt lat="45.04867" lon="0.43678">
        <ele>151.4</ele>
        <time>2022-10-09T07:30:49Z</time>
      </trkpt>
      <trkpt lat="45.04854" lon="0.43679">
        <ele>151.9</ele>
        <time>2022-10-09T07:30:54Z</time>
      </trkpt>
      <trkpt lat="45.04843" lon="0.43678">
        <ele>152.5</ele>
        <time>2022-10-09T07:30:58Z</time>
      </trkpt>
      <trkpt lat="45.0483" lon="0.43672">
        <ele>153.2</ele>
        <time>2022-10-09T07:31:03Z</time>
      </trkpt>
      <trkpt lat="45.04815" lon="0.43665">
        <ele>154.1</ele>
        <time>2022-10-09T07:31:09Z</time>
      </trkpt>
      <trkpt lat="45.04802" lon="0.43664">
        <ele>154.9</ele>
        <time>2022-10-09T07:31:14Z</time>
      </trkpt>
      <trkpt lat="45.04788" lon="0.43674">
        <ele>155.9</ele>
        <time>2022-10-09T07:31:20Z</time>
      </trkpt>
      <trkpt lat="45.04773" lon="0.43691">
        <ele>156.9</ele>
        <time>2022-10-09T07:31:26Z</time>
      </trkpt>
      <trkpt lat="45.04766" lon="0.43695">
        <ele>157.4</ele>
        <time>2022-10-09T07:31:29Z</time>
      </trkpt>
      <trkpt lat="45.04757" lon="0.43701">
        <ele>157.9</ele>
        <time>2022-10-09T07:31:32Z</time>
      </trkpt>
      <trkpt lat="45.04734" lon="0.43715">
        <ele>158.6</ele>
        <time>2022-10-09T07:31:38Z</time>
      </trkpt>
      <trkpt lat="45.04716" lon="0.43725">
        <ele>158.8</ele>
        <time>2022-10-09T07:31:43Z</time>
      </trkpt>
      <trkpt lat="45.04714" lon="0.43726">
        <ele>158.8</ele>
        <time>2022-10-09T07:31:44Z</time>
      </trkpt>
      <trkpt lat="45.04712" lon="0.43741">
        <ele>158.9</ele>
        <time>2022-10-09T07:31:46Z</time>
      </trkpt>
      <trkpt lat="45.04725" lon="0.43753">
        <ele>159.1</ele>
        <time>2022-10-09T07:31:52Z</time>
      </trkpt>
      <trkpt lat="45.04737" lon="0.43763">
        <ele>159.2</ele>
        <time>2022-10-09T07:31:57Z</time>
      </trkpt>
      <trkpt lat="45.04751" lon="0.43775">
        <ele>159.3</ele>
        <time>2022-10-09T07:32:02Z</time>
      </trkpt>
      <trkpt lat="45.0476" lon="0.43783">
        <ele>159.4</ele>
        <time>2022-10-09T07:32:06Z</time>
      </trkpt>
      <trkpt lat="45.04773" lon="0.43794">
        <ele>159.6</ele>
        <time>2022-10-09T07:32:11Z</time>
      </trkpt>
      <trkpt lat="45.04784" lon="0.43804">
        <ele>159.8</ele>
        <time>2022-10-09T07:32:17Z</time>
      </trkpt>
      <trkpt lat="45.04795" lon="0.43813">
        <ele>160</ele>
        <time>2022-10-09T07:32:23Z</time>
      </trkpt>
      <trkpt lat="45.04808" lon="0.43824">
        <ele>160.2</ele>
        <time>2022-10-09T07:32:31Z</time>
      </trkpt>
      <trkpt lat="45.04812" lon="0.43828">
        <ele>160.3</ele>
        <time>2022-10-09T07:32:34Z</time>
      </trkpt>
      <trkpt lat="45.04816" lon="0.43832">
        <ele>160.3</ele>
        <time>2022-10-09T07:32:36Z</time>
      </trkpt>
      <trkpt lat="45.04827" lon="0.43842">
        <ele>160.4</ele>
        <time>2022-10-09T07:32:42Z</time>
      </trkpt>
      <trkpt lat="45.04838" lon="0.43854">
        <ele>160.4</ele>
        <time>2022-10-09T07:32:47Z</time>
      </trkpt>
      <trkpt lat="45.04851" lon="0.43869">
        <ele>160.3</ele>
        <time>2022-10-09T07:32:53Z</time>
      </trkpt>
      <trkpt lat="45.04867" lon="0.43885">
        <ele>160.1</ele>
        <time>2022-10-09T07:33:00Z</time>
      </trkpt>
      <trkpt lat="45.04882" lon="0.43901">
        <ele>160</ele>
        <time>2022-10-09T07:33:07Z</time>
      </trkpt>
      <trkpt lat="45.04896" lon="0.43912">
        <ele>160</ele>
        <time>2022-10-09T07:33:13Z</time>
      </trkpt>
      <trkpt lat="45.04909" lon="0.43921">
        <ele>160.1</ele>
        <time>2022-10-09T07:33:19Z</time>
      </trkpt>
      <trkpt lat="45.04923" lon="0.43931">
        <ele>160.4</ele>
        <time>2022-10-09T07:33:25Z</time>
      </trkpt>
      <trkpt lat="45.04935" lon="0.4394">
        <ele>160.5</ele>
        <time>2022-10-09T07:33:31Z</time>
      </trkpt>
      <trkpt lat="45.0495" lon="0.43951">
        <ele>160.5</ele>
        <time>2022-10-09T07:33:37Z</time>
      </trkpt>
      <trkpt lat="45.04961" lon="0.43959">
        <ele>160.4</ele>
        <time>2022-10-09T07:33:41Z</time>
      </trkpt>
      <trkpt lat="45.04975" lon="0.43969">
        <ele>160.3</ele>
        <time>2022-10-09T07:33:46Z</time>
      </trkpt>
      <trkpt lat="45.04992" lon="0.43981">
        <ele>160</ele>
        <time>2022-10-09T07:33:52Z</time>
      </trkpt>
      <trkpt lat="45.05004" lon="0.4399">
        <ele>159.8</ele>
        <time>2022-10-09T07:33:56Z</time>
      </trkpt>
      <trkpt lat="45.05018" lon="0.44">
        <ele>159.7</ele>
        <time>2022-10-09T07:34:00Z</time>
      </trkpt>
      <trkpt lat="45.05021" lon="0.44001">
        <ele>159.7</ele>
        <time>2022-10-09T07:34:03Z</time>
      </trkpt>
      <trkpt lat="45.0503" lon="0.44007">
        <ele>159.7</ele>
        <time>2022-10-09T07:34:05Z</time>
      </trkpt>
      <trkpt lat="45.05036" lon="0.44012">
        <ele>159.7</ele>
        <time>2022-10-09T07:34:07Z</time>
      </trkpt>
      <trkpt lat="45.05048" lon="0.44023">
        <ele>159.8</ele>
        <time>2022-10-09T07:34:12Z</time>
      </trkpt>
      <trkpt lat="45.05059" lon="0.44034">
        <ele>159.9</ele>
        <time>2022-10-09T07:34:16Z</time>
      </trkpt>
      <trkpt lat="45.05066" lon="0.44055">
        <ele>160.1</ele>
        <time>2022-10-09T07:34:21Z</time>
      </trkpt>
      <trkpt lat="45.05075" lon="0.44071">
        <ele>160.3</ele>
        <time>2022-10-09T07:34:25Z</time>
      </trkpt>
      <trkpt lat="45.05086" lon="0.44085">
        <ele>160.5</ele>
        <time>2022-10-09T07:34:29Z</time>
      </trkpt>
      <trkpt lat="45.05095" lon="0.44111">
        <ele>160.7</ele>
        <time>2022-10-09T07:34:34Z</time>
      </trkpt>
      <trkpt lat="45.05103" lon="0.4413">
        <ele>160.8</ele>
        <time>2022-10-09T07:34:38Z</time>
      </trkpt>
      <trkpt lat="45.05108" lon="0.44145">
        <ele>160.7</ele>
        <time>2022-10-09T07:34:41Z</time>
      </trkpt>
      <trkpt lat="45.05112" lon="0.44157">
        <ele>160.5</ele>
        <time>2022-10-09T07:34:43Z</time>
      </trkpt>
      <trkpt lat="45.05114" lon="0.44163">
        <ele>160.4</ele>
        <time>2022-10-09T07:34:44Z</time>
      </trkpt>
      <trkpt lat="45.05121" lon="0.44188">
        <ele>159.9</ele>
        <time>2022-10-09T07:34:48Z</time>
      </trkpt>
      <trkpt lat="45.05124" lon="0.44202">
        <ele>159.6</ele>
        <time>2022-10-09T07:34:50Z</time>
      </trkpt>
      <trkpt lat="45.05128" lon="0.44222">
        <ele>159.4</ele>
        <time>2022-10-09T07:34:53Z</time>
      </trkpt>
      <trkpt lat="45.05136" lon="0.44256">
        <ele>159.1</ele>
        <time>2022-10-09T07:34:58Z</time>
      </trkpt>
      <trkpt lat="45.05143" lon="0.44284">
        <ele>158.8</ele>
        <time>2022-10-09T07:35:02Z</time>
      </trkpt>
      <trkpt lat="45.05145" lon="0.44291">
        <ele>158.7</ele>
        <time>2022-10-09T07:35:03Z</time>
      </trkpt>
      <trkpt lat="45.05149" lon="0.44305">
        <ele>158.6</ele>
        <time>2022-10-09T07:35:05Z</time>
      </trkpt>
      <trkpt lat="45.05153" lon="0.44319">
        <ele>158.5</ele>
        <time>2022-10-09T07:35:07Z</time>
      </trkpt>
      <trkpt lat="45.05156" lon="0.44326">
        <ele>158.5</ele>
        <time>2022-10-09T07:35:08Z</time>
      </trkpt>
      <trkpt lat="45.05161" lon="0.4434">
        <ele>158.5</ele>
        <time>2022-10-09T07:35:10Z</time>
      </trkpt>
      <trkpt lat="45.05169" lon="0.44358">
        <ele>158.6</ele>
        <time>2022-10-09T07:35:13Z</time>
      </trkpt>
      <trkpt lat="45.05176" lon="0.44371">
        <ele>158.8</ele>
        <time>2022-10-09T07:35:15Z</time>
      </trkpt>
      <trkpt lat="45.05182" lon="0.44381">
        <ele>159</ele>
        <time>2022-10-09T07:35:17Z</time>
      </trkpt>
      <trkpt lat="45.05196" lon="0.44401">
        <ele>159.4</ele>
        <time>2022-10-09T07:35:21Z</time>
      </trkpt>
      <trkpt lat="45.05199" lon="0.44406">
        <ele>159.5</ele>
        <time>2022-10-09T07:35:22Z</time>
      </trkpt>
      <trkpt lat="45.05202" lon="0.44412">
        <ele>159.5</ele>
        <time>2022-10-09T07:35:23Z</time>
      </trkpt>
      <trkpt lat="45.0521" lon="0.44423">
        <ele>159.5</ele>
        <time>2022-10-09T07:35:25Z</time>
      </trkpt>
      <trkpt lat="45.05214" lon="0.44429">
        <ele>159.4</ele>
        <time>2022-10-09T07:35:26Z</time>
      </trkpt>
      <trkpt lat="45.05218" lon="0.44436">
        <ele>159.3</ele>
        <time>2022-10-09T07:35:27Z</time>
      </trkpt>
      <trkpt lat="45.0523" lon="0.44454">
        <ele>159.1</ele>
        <time>2022-10-09T07:35:30Z</time>
      </trkpt>
      <trkpt lat="45.05233" lon="0.4446">
        <ele>159</ele>
        <time>2022-10-09T07:35:31Z</time>
      </trkpt>
      <trkpt lat="45.05247" lon="0.44474">
        <ele>158.9</ele>
        <time>2022-10-09T07:35:34Z</time>
      </trkpt>
      <trkpt lat="45.05262" lon="0.44489">
        <ele>158.9</ele>
        <time>2022-10-09T07:35:38Z</time>
      </trkpt>
      <trkpt lat="45.05264" lon="0.44491">
        <ele>158.9</ele>
        <time>2022-10-09T07:35:39Z</time>
      </trkpt>
      <trkpt lat="45.05266" lon="0.44493">
        <ele>158.9</ele>
        <time>2022-10-09T07:35:40Z</time>
      </trkpt>
      <trkpt lat="45.05271" lon="0.44499">
        <ele>159</ele>
        <time>2022-10-09T07:35:42Z</time>
      </trkpt>
      <trkpt lat="45.0528" lon="0.4451">
        <ele>159.1</ele>
        <time>2022-10-09T07:35:45Z</time>
      </trkpt>
      <trkpt lat="45.05283" lon="0.44513">
        <ele>159.1</ele>
        <time>2022-10-09T07:35:46Z</time>
      </trkpt>
      <trkpt lat="45.05291" lon="0.44525">
        <ele>159.2</ele>
        <time>2022-10-09T07:35:49Z</time>
      </trkpt>
      <trkpt lat="45.05294" lon="0.44529">
        <ele>159.3</ele>
        <time>2022-10-09T07:35:50Z</time>
      </trkpt>
      <trkpt lat="45.053" lon="0.44537">
        <ele>159.4</ele>
        <time>2022-10-09T07:35:52Z</time>
      </trkpt>
      <trkpt lat="45.05303" lon="0.44542">
        <ele>159.4</ele>
        <time>2022-10-09T07:35:53Z</time>
      </trkpt>
      <trkpt lat="45.05306" lon="0.44547">
        <ele>159.5</ele>
        <time>2022-10-09T07:35:54Z</time>
      </trkpt>
      <trkpt lat="45.05312" lon="0.44557">
        <ele>159.6</ele>
        <time>2022-10-09T07:35:56Z</time>
      </trkpt>
      <trkpt lat="45.05321" lon="0.44577">
        <ele>159.9</ele>
        <time>2022-10-09T07:36:00Z</time>
      </trkpt>
      <trkpt lat="45.05318" lon="0.44591">
        <ele>160</ele>
        <time>2022-10-09T07:36:03Z</time>
      </trkpt>
      <trkpt lat="45.05317" lon="0.44597">
        <ele>160</ele>
        <time>2022-10-09T07:36:04Z</time>
      </trkpt>
      <trkpt lat="45.05315" lon="0.44602">
        <ele>160</ele>
        <time>2022-10-09T07:36:05Z</time>
      </trkpt>
      <trkpt lat="45.05311" lon="0.44612">
        <ele>160</ele>
        <time>2022-10-09T07:36:07Z</time>
      </trkpt>
      <trkpt lat="45.05307" lon="0.44623">
        <ele>160.1</ele>
        <time>2022-10-09T07:36:09Z</time>
      </trkpt>
      <trkpt lat="45.05302" lon="0.44635">
        <ele>160.2</ele>
        <time>2022-10-09T07:36:11Z</time>
      </trkpt>
      <trkpt lat="45.05298" lon="0.44645">
        <ele>160.2</ele>
        <time>2022-10-09T07:36:13Z</time>
      </trkpt>
      <trkpt lat="45.05294" lon="0.44656">
        <ele>160.3</ele>
        <time>2022-10-09T07:36:15Z</time>
      </trkpt>
      <trkpt lat="45.05291" lon="0.44666">
        <ele>160.3</ele>
        <time>2022-10-09T07:36:17Z</time>
      </trkpt>
      <trkpt lat="45.05289" lon="0.44671">
        <ele>160.4</ele>
        <time>2022-10-09T07:36:18Z</time>
      </trkpt>
      <trkpt lat="45.05287" lon="0.44677">
        <ele>160.4</ele>
        <time>2022-10-09T07:36:19Z</time>
      </trkpt>
      <trkpt lat="45.05286" lon="0.4469">
        <ele>160.4</ele>
        <time>2022-10-09T07:36:21Z</time>
      </trkpt>
      <trkpt lat="45.05285" lon="0.44695">
        <ele>160.4</ele>
        <time>2022-10-09T07:36:22Z</time>
      </trkpt>
      <trkpt lat="45.05284" lon="0.44701">
        <ele>160.4</ele>
        <time>2022-10-09T07:36:23Z</time>
      </trkpt>
      <trkpt lat="45.05283" lon="0.44714">
        <ele>160.6</ele>
        <time>2022-10-09T07:36:25Z</time>
      </trkpt>
      <trkpt lat="45.05286" lon="0.44733">
        <ele>160.8</ele>
        <time>2022-10-09T07:36:28Z</time>
      </trkpt>
      <trkpt lat="45.05289" lon="0.44751">
        <ele>161</ele>
        <time>2022-10-09T07:36:31Z</time>
      </trkpt>
      <trkpt lat="45.0529" lon="0.44757">
        <ele>161</ele>
        <time>2022-10-09T07:36:32Z</time>
      </trkpt>
      <trkpt lat="45.05292" lon="0.44768">
        <ele>160.9</ele>
        <time>2022-10-09T07:36:34Z</time>
      </trkpt>
      <trkpt lat="45.05294" lon="0.44783">
        <ele>160.6</ele>
        <time>2022-10-09T07:36:36Z</time>
      </trkpt>
      <trkpt lat="45.05296" lon="0.44798">
        <ele>160.2</ele>
        <time>2022-10-09T07:36:38Z</time>
      </trkpt>
      <trkpt lat="45.05298" lon="0.44822">
        <ele>160</ele>
        <time>2022-10-09T07:36:41Z</time>
      </trkpt>
      <trkpt lat="45.05297" lon="0.44829">
        <ele>160</ele>
        <time>2022-10-09T07:36:42Z</time>
      </trkpt>
      <trkpt lat="45.05295" lon="0.44843">
        <ele>160.1</ele>
        <time>2022-10-09T07:36:44Z</time>
      </trkpt>
      <trkpt lat="45.05293" lon="0.44861">
        <ele>160.4</ele>
        <time>2022-10-09T07:36:47Z</time>
      </trkpt>
      <trkpt lat="45.05289" lon="0.44893">
        <ele>160.8</ele>
        <time>2022-10-09T07:36:53Z</time>
      </trkpt>
      <trkpt lat="45.05285" lon="0.44919">
        <ele>161.3</ele>
        <time>2022-10-09T07:36:58Z</time>
      </trkpt>
      <trkpt lat="45.05285" lon="0.44925">
        <ele>161.5</ele>
        <time>2022-10-09T07:36:59Z</time>
      </trkpt>
      <trkpt lat="45.05283" lon="0.44935">
        <ele>161.8</ele>
        <time>2022-10-09T07:37:01Z</time>
      </trkpt>
      <trkpt lat="45.05277" lon="0.44954">
        <ele>162.7</ele>
        <time>2022-10-09T07:37:05Z</time>
      </trkpt>
      <trkpt lat="45.05276" lon="0.44958">
        <ele>162.9</ele>
        <time>2022-10-09T07:37:06Z</time>
      </trkpt>
      <trkpt lat="45.05268" lon="0.44979">
        <ele>164.1</ele>
        <time>2022-10-09T07:37:11Z</time>
      </trkpt>
      <trkpt lat="45.05263" lon="0.44993">
        <ele>164.7</ele>
        <time>2022-10-09T07:37:15Z</time>
      </trkpt>
      <trkpt lat="45.05258" lon="0.45005">
        <ele>165</ele>
        <time>2022-10-09T07:37:18Z</time>
      </trkpt>
      <trkpt lat="45.05255" lon="0.45016">
        <ele>165</ele>
        <time>2022-10-09T07:37:20Z</time>
      </trkpt>
      <trkpt lat="45.05254" lon="0.45022">
        <ele>164.9</ele>
        <time>2022-10-09T07:37:21Z</time>
      </trkpt>
      <trkpt lat="45.05253" lon="0.45028">
        <ele>164.8</ele>
        <time>2022-10-09T07:37:22Z</time>
      </trkpt>
      <trkpt lat="45.05249" lon="0.45046">
        <ele>164.7</ele>
        <time>2022-10-09T07:37:25Z</time>
      </trkpt>
      <trkpt lat="45.05246" lon="0.45069">
        <ele>164.9</ele>
        <time>2022-10-09T07:37:29Z</time>
      </trkpt>
      <trkpt lat="45.05244" lon="0.45082">
        <ele>165.1</ele>
        <time>2022-10-09T07:37:32Z</time>
      </trkpt>
      <trkpt lat="45.05242" lon="0.45091">
        <ele>165.3</ele>
        <time>2022-10-09T07:37:34Z</time>
      </trkpt>
      <trkpt lat="45.05242" lon="0.45097">
        <ele>165.4</ele>
        <time>2022-10-09T07:37:35Z</time>
      </trkpt>
      <trkpt lat="45.05242" lon="0.45112">
        <ele>165.8</ele>
        <time>2022-10-09T07:37:38Z</time>
      </trkpt>
      <trkpt lat="45.05242" lon="0.45117">
        <ele>166</ele>
        <time>2022-10-09T07:37:39Z</time>
      </trkpt>
      <trkpt lat="45.05246" lon="0.45141">
        <ele>166.5</ele>
        <time>2022-10-09T07:37:44Z</time>
      </trkpt>
      <trkpt lat="45.05242" lon="0.4516">
        <ele>166.7</ele>
        <time>2022-10-09T07:37:48Z</time>
      </trkpt>
      <trkpt lat="45.05241" lon="0.45166">
        <ele>166.7</ele>
        <time>2022-10-09T07:37:49Z</time>
      </trkpt>
      <trkpt lat="45.05237" lon="0.45183">
        <ele>166.4</ele>
        <time>2022-10-09T07:37:52Z</time>
      </trkpt>
      <trkpt lat="45.05236" lon="0.45189">
        <ele>166.2</ele>
        <time>2022-10-09T07:37:53Z</time>
      </trkpt>
      <trkpt lat="45.05232" lon="0.45205">
        <ele>165.7</ele>
        <time>2022-10-09T07:37:55Z</time>
      </trkpt>
      <trkpt lat="45.05228" lon="0.45228">
        <ele>164.6</ele>
        <time>2022-10-09T07:37:58Z</time>
      </trkpt>
      <trkpt lat="45.05225" lon="0.45245">
        <ele>163.7</ele>
        <time>2022-10-09T07:38:00Z</time>
      </trkpt>
      <trkpt lat="45.0522" lon="0.45258">
        <ele>162.5</ele>
        <time>2022-10-09T07:38:01Z</time>
      </trkpt>
      <trkpt lat="45.05218" lon="0.4526">
        <ele>162.3</ele>
        <time>2022-10-09T07:38:02Z</time>
      </trkpt>
      <trkpt lat="45.05223" lon="0.45254">
        <ele>162.2</ele>
        <time>2022-10-09T07:38:03Z</time>
      </trkpt>
      <trkpt lat="45.05223" lon="0.45254">
        <ele>162.2</ele>
        <time>2022-10-09T07:38:06Z</time>
      </trkpt>
      <trkpt lat="45.05237" lon="0.4525">
        <ele>161.4</ele>
        <time>2022-10-09T07:38:10Z</time>
      </trkpt>
      <trkpt lat="45.05267" lon="0.45245">
        <ele>159.7</ele>
        <time>2022-10-09T07:38:15Z</time>
      </trkpt>
      <trkpt lat="45.05285" lon="0.45245">
        <ele>159.3</ele>
        <time>2022-10-09T07:38:18Z</time>
      </trkpt>
      <trkpt lat="45.05291" lon="0.45245">
        <ele>159.3</ele>
        <time>2022-10-09T07:38:19Z</time>
      </trkpt>
      <trkpt lat="45.05313" lon="0.45231">
        <ele>159.7</ele>
        <time>2022-10-09T07:38:24Z</time>
      </trkpt>
      <trkpt lat="45.05334" lon="0.45216">
        <ele>160</ele>
        <time>2022-10-09T07:38:29Z</time>
      </trkpt>
      <trkpt lat="45.05338" lon="0.45212">
        <ele>160</ele>
        <time>2022-10-09T07:38:30Z</time>
      </trkpt>
      <trkpt lat="45.05347" lon="0.45205">
        <ele>160</ele>
        <time>2022-10-09T07:38:32Z</time>
      </trkpt>
      <trkpt lat="45.05351" lon="0.45202">
        <ele>160</ele>
        <time>2022-10-09T07:38:33Z</time>
      </trkpt>
      <trkpt lat="45.05364" lon="0.45191">
        <ele>159.9</ele>
        <time>2022-10-09T07:38:36Z</time>
      </trkpt>
      <trkpt lat="45.05373" lon="0.45183">
        <ele>159.9</ele>
        <time>2022-10-09T07:38:38Z</time>
      </trkpt>
      <trkpt lat="45.05385" lon="0.45173">
        <ele>160.1</ele>
        <time>2022-10-09T07:38:41Z</time>
      </trkpt>
      <trkpt lat="45.05389" lon="0.4517">
        <ele>160.2</ele>
        <time>2022-10-09T07:38:42Z</time>
      </trkpt>
      <trkpt lat="45.05403" lon="0.45159">
        <ele>161.1</ele>
        <time>2022-10-09T07:38:46Z</time>
      </trkpt>
      <trkpt lat="45.05414" lon="0.45153">
        <ele>162.1</ele>
        <time>2022-10-09T07:38:49Z</time>
      </trkpt>
      <trkpt lat="45.05425" lon="0.45146">
        <ele>163.2</ele>
        <time>2022-10-09T07:38:53Z</time>
      </trkpt>
      <trkpt lat="45.05437" lon="0.45131">
        <ele>164.2</ele>
        <time>2022-10-09T07:38:59Z</time>
      </trkpt>
      <trkpt lat="45.05447" lon="0.45117">
        <ele>165.1</ele>
        <time>2022-10-09T07:39:04Z</time>
      </trkpt>
      <trkpt lat="45.05455" lon="0.45109">
        <ele>165.8</ele>
        <time>2022-10-09T07:39:08Z</time>
      </trkpt>
      <trkpt lat="45.05463" lon="0.45103">
        <ele>166.3</ele>
        <time>2022-10-09T07:39:12Z</time>
      </trkpt>
      <trkpt lat="45.05469" lon="0.45098">
        <ele>166.8</ele>
        <time>2022-10-09T07:39:15Z</time>
      </trkpt>
      <trkpt lat="45.05471" lon="0.45096">
        <ele>166.9</ele>
        <time>2022-10-09T07:39:16Z</time>
      </trkpt>
      <trkpt lat="45.05484" lon="0.45086">
        <ele>167.3</ele>
        <time>2022-10-09T07:39:21Z</time>
      </trkpt>
      <trkpt lat="45.05491" lon="0.45081">
        <ele>167.3</ele>
        <time>2022-10-09T07:39:23Z</time>
      </trkpt>
      <trkpt lat="45.05495" lon="0.45077">
        <ele>167.2</ele>
        <time>2022-10-09T07:39:24Z</time>
      </trkpt>
      <trkpt lat="45.05499" lon="0.45074">
        <ele>167.2</ele>
        <time>2022-10-09T07:39:25Z</time>
      </trkpt>
      <trkpt lat="45.05511" lon="0.45064">
        <ele>167</ele>
        <time>2022-10-09T07:39:28Z</time>
      </trkpt>
      <trkpt lat="45.05527" lon="0.45063">
        <ele>166.6</ele>
        <time>2022-10-09T07:39:30Z</time>
      </trkpt>
      <trkpt lat="45.05528" lon="0.45068">
        <ele>166.5</ele>
        <time>2022-10-09T07:39:31Z</time>
      </trkpt>
      <trkpt lat="45.05528" lon="0.45072">
        <ele>166.4</ele>
        <time>2022-10-09T07:39:32Z</time>
      </trkpt>
      <trkpt lat="45.0553" lon="0.45084">
        <ele>166.3</ele>
        <time>2022-10-09T07:39:34Z</time>
      </trkpt>
      <trkpt lat="45.05531" lon="0.4509">
        <ele>166.2</ele>
        <time>2022-10-09T07:39:35Z</time>
      </trkpt>
      <trkpt lat="45.05532" lon="0.45102">
        <ele>166.1</ele>
        <time>2022-10-09T07:39:37Z</time>
      </trkpt>
      <trkpt lat="45.05533" lon="0.45109">
        <ele>166.1</ele>
        <time>2022-10-09T07:39:38Z</time>
      </trkpt>
      <trkpt lat="45.05538" lon="0.45139">
        <ele>166.1</ele>
        <time>2022-10-09T07:39:43Z</time>
      </trkpt>
      <trkpt lat="45.05539" lon="0.45152">
        <ele>166.1</ele>
        <time>2022-10-09T07:39:45Z</time>
      </trkpt>
      <trkpt lat="45.0554" lon="0.45158">
        <ele>166.1</ele>
        <time>2022-10-09T07:39:46Z</time>
      </trkpt>
      <trkpt lat="45.05541" lon="0.45172">
        <ele>166.2</ele>
        <time>2022-10-09T07:39:48Z</time>
      </trkpt>
      <trkpt lat="45.05543" lon="0.45192">
        <ele>166.4</ele>
        <time>2022-10-09T07:39:51Z</time>
      </trkpt>
      <trkpt lat="45.05543" lon="0.45198">
        <ele>166.6</ele>
        <time>2022-10-09T07:39:52Z</time>
      </trkpt>
      <trkpt lat="45.05545" lon="0.45223">
        <ele>167.4</ele>
        <time>2022-10-09T07:39:56Z</time>
      </trkpt>
      <trkpt lat="45.05548" lon="0.45251">
        <ele>168.9</ele>
        <time>2022-10-09T07:40:01Z</time>
      </trkpt>
      <trkpt lat="45.05551" lon="0.45274">
        <ele>170.8</ele>
        <time>2022-10-09T07:40:06Z</time>
      </trkpt>
      <trkpt lat="45.05554" lon="0.4529">
        <ele>172.2</ele>
        <time>2022-10-09T07:40:10Z</time>
      </trkpt>
      <trkpt lat="45.05558" lon="0.4531">
        <ele>173.3</ele>
        <time>2022-10-09T07:40:15Z</time>
      </trkpt>
      <trkpt lat="45.05564" lon="0.45337">
        <ele>173.4</ele>
        <time>2022-10-09T07:40:20Z</time>
      </trkpt>
      <trkpt lat="45.05566" lon="0.45348">
        <ele>173.1</ele>
        <time>2022-10-09T07:40:22Z</time>
      </trkpt>
      <trkpt lat="45.05571" lon="0.45362">
        <ele>172.5</ele>
        <time>2022-10-09T07:40:24Z</time>
      </trkpt>
      <trkpt lat="45.05575" lon="0.45368">
        <ele>172.1</ele>
        <time>2022-10-09T07:40:25Z</time>
      </trkpt>
      <trkpt lat="45.05579" lon="0.45375">
        <ele>171.7</ele>
        <time>2022-10-09T07:40:26Z</time>
      </trkpt>
      <trkpt lat="45.05593" lon="0.45397">
        <ele>170.7</ele>
        <time>2022-10-09T07:40:29Z</time>
      </trkpt>
      <trkpt lat="45.05598" lon="0.45404">
        <ele>170.5</ele>
        <time>2022-10-09T07:40:30Z</time>
      </trkpt>
      <trkpt lat="45.05606" lon="0.45416">
        <ele>170.3</ele>
        <time>2022-10-09T07:40:32Z</time>
      </trkpt>
      <trkpt lat="45.05618" lon="0.45433">
        <ele>170.3</ele>
        <time>2022-10-09T07:40:35Z</time>
      </trkpt>
      <trkpt lat="45.05621" lon="0.45439">
        <ele>170.3</ele>
        <time>2022-10-09T07:40:36Z</time>
      </trkpt>
      <trkpt lat="45.05625" lon="0.45445">
        <ele>170.2</ele>
        <time>2022-10-09T07:40:37Z</time>
      </trkpt>
      <trkpt lat="45.05638" lon="0.45471">
        <ele>169.9</ele>
        <time>2022-10-09T07:40:41Z</time>
      </trkpt>
      <trkpt lat="45.0565" lon="0.45493">
        <ele>169.2</ele>
        <time>2022-10-09T07:40:44Z</time>
      </trkpt>
      <trkpt lat="45.05654" lon="0.45501">
        <ele>168.9</ele>
        <time>2022-10-09T07:40:45Z</time>
      </trkpt>
      <trkpt lat="45.05672" lon="0.45541">
        <ele>166.9</ele>
        <time>2022-10-09T07:40:50Z</time>
      </trkpt>
      <trkpt lat="45.05682" lon="0.45558">
        <ele>166.1</ele>
        <time>2022-10-09T07:40:52Z</time>
      </trkpt>
      <trkpt lat="45.05686" lon="0.45578">
        <ele>165.4</ele>
        <time>2022-10-09T07:40:54Z</time>
      </trkpt>
      <trkpt lat="45.0571" lon="0.45617">
        <ele>163.9</ele>
        <time>2022-10-09T07:40:59Z</time>
      </trkpt>
      <trkpt lat="45.05731" lon="0.45658">
        <ele>163</ele>
        <time>2022-10-09T07:41:04Z</time>
      </trkpt>
      <trkpt lat="45.05742" lon="0.45684">
        <ele>162.7</ele>
        <time>2022-10-09T07:41:07Z</time>
      </trkpt>
      <trkpt lat="45.05749" lon="0.457">
        <ele>162.6</ele>
        <time>2022-10-09T07:41:09Z</time>
      </trkpt>
      <trkpt lat="45.05762" lon="0.45733">
        <ele>162.6</ele>
        <time>2022-10-09T07:41:13Z</time>
      </trkpt>
      <trkpt lat="45.0577" lon="0.45747">
        <ele>162.6</ele>
        <time>2022-10-09T07:41:15Z</time>
      </trkpt>
      <trkpt lat="45.05778" lon="0.45762">
        <ele>162.6</ele>
        <time>2022-10-09T07:41:17Z</time>
      </trkpt>
      <trkpt lat="45.05785" lon="0.45777">
        <ele>162.3</ele>
        <time>2022-10-09T07:41:19Z</time>
      </trkpt>
      <trkpt lat="45.05789" lon="0.45785">
        <ele>162.1</ele>
        <time>2022-10-09T07:41:20Z</time>
      </trkpt>
      <trkpt lat="45.05797" lon="0.45799">
        <ele>161.8</ele>
        <time>2022-10-09T07:41:22Z</time>
      </trkpt>
      <trkpt lat="45.05808" lon="0.4581">
        <ele>161.4</ele>
        <time>2022-10-09T07:41:24Z</time>
      </trkpt>
      <trkpt lat="45.05821" lon="0.45817">
        <ele>160.9</ele>
        <time>2022-10-09T07:41:26Z</time>
      </trkpt>
      <trkpt lat="45.05845" lon="0.4583">
        <ele>159.9</ele>
        <time>2022-10-09T07:41:30Z</time>
      </trkpt>
      <trkpt lat="45.05851" lon="0.45821">
        <ele>159.8</ele>
        <time>2022-10-09T07:41:33Z</time>
      </trkpt>
      <trkpt lat="45.05856" lon="0.4581">
        <ele>159.5</ele>
        <time>2022-10-09T07:41:35Z</time>
      </trkpt>
      <trkpt lat="45.05864" lon="0.45792">
        <ele>159</ele>
        <time>2022-10-09T07:41:38Z</time>
      </trkpt>
      <trkpt lat="45.0588" lon="0.4576">
        <ele>158.3</ele>
        <time>2022-10-09T07:41:43Z</time>
      </trkpt>
      <trkpt lat="45.05884" lon="0.45753">
        <ele>158.2</ele>
        <time>2022-10-09T07:41:44Z</time>
      </trkpt>
      <trkpt lat="45.05897" lon="0.45728">
        <ele>158.1</ele>
        <time>2022-10-09T07:41:48Z</time>
      </trkpt>
      <trkpt lat="45.059" lon="0.45722">
        <ele>158.1</ele>
        <time>2022-10-09T07:41:49Z</time>
      </trkpt>
      <trkpt lat="45.05906" lon="0.45709">
        <ele>158</ele>
        <time>2022-10-09T07:41:51Z</time>
      </trkpt>
      <trkpt lat="45.05911" lon="0.45696">
        <ele>157.7</ele>
        <time>2022-10-09T07:41:53Z</time>
      </trkpt>
      <trkpt lat="45.05925" lon="0.45664">
        <ele>155.8</ele>
        <time>2022-10-09T07:41:57Z</time>
      </trkpt>
      <trkpt lat="45.05935" lon="0.45646">
        <ele>154.8</ele>
        <time>2022-10-09T07:41:59Z</time>
      </trkpt>
      <trkpt lat="45.05946" lon="0.45629">
        <ele>154.2</ele>
        <time>2022-10-09T07:42:01Z</time>
      </trkpt>
      <trkpt lat="45.05963" lon="0.45607">
        <ele>153.6</ele>
        <time>2022-10-09T07:42:04Z</time>
      </trkpt>
      <trkpt lat="45.05977" lon="0.45596">
        <ele>153.5</ele>
        <time>2022-10-09T07:42:06Z</time>
      </trkpt>
      <trkpt lat="45.06007" lon="0.45573">
        <ele>154.3</ele>
        <time>2022-10-09T07:42:11Z</time>
      </trkpt>
      <trkpt lat="45.06037" lon="0.45552">
        <ele>155.7</ele>
        <time>2022-10-09T07:42:17Z</time>
      </trkpt>
      <trkpt lat="45.06042" lon="0.45549">
        <ele>155.9</ele>
        <time>2022-10-09T07:42:18Z</time>
      </trkpt>
      <trkpt lat="45.06054" lon="0.4554">
        <ele>156.6</ele>
        <time>2022-10-09T07:42:21Z</time>
      </trkpt>
      <trkpt lat="45.06062" lon="0.45534">
        <ele>157</ele>
        <time>2022-10-09T07:42:23Z</time>
      </trkpt>
      <trkpt lat="45.06074" lon="0.45525">
        <ele>157.5</ele>
        <time>2022-10-09T07:42:26Z</time>
      </trkpt>
      <trkpt lat="45.06086" lon="0.45505">
        <ele>158.2</ele>
        <time>2022-10-09T07:42:31Z</time>
      </trkpt>
      <trkpt lat="45.06096" lon="0.45488">
        <ele>158.4</ele>
        <time>2022-10-09T07:42:35Z</time>
      </trkpt>
      <trkpt lat="45.0611" lon="0.45461">
        <ele>158</ele>
        <time>2022-10-09T07:42:40Z</time>
      </trkpt>
      <trkpt lat="45.06113" lon="0.45455">
        <ele>157.9</ele>
        <time>2022-10-09T07:42:41Z</time>
      </trkpt>
      <trkpt lat="45.06123" lon="0.45436">
        <ele>157.5</ele>
        <time>2022-10-09T07:42:44Z</time>
      </trkpt>
      <trkpt lat="45.06145" lon="0.45402">
        <ele>157.6</ele>
        <time>2022-10-09T07:42:50Z</time>
      </trkpt>
      <trkpt lat="45.06152" lon="0.45391">
        <ele>157.7</ele>
        <time>2022-10-09T07:42:52Z</time>
      </trkpt>
      <trkpt lat="45.06159" lon="0.4538">
        <ele>157.8</ele>
        <time>2022-10-09T07:42:54Z</time>
      </trkpt>
      <trkpt lat="45.0618" lon="0.45367">
        <ele>156.8</ele>
        <time>2022-10-09T07:42:58Z</time>
      </trkpt>
      <trkpt lat="45.06185" lon="0.45363">
        <ele>156.5</ele>
        <time>2022-10-09T07:42:59Z</time>
      </trkpt>
      <trkpt lat="45.06212" lon="0.45347">
        <ele>155</ele>
        <time>2022-10-09T07:43:04Z</time>
      </trkpt>
      <trkpt lat="45.06222" lon="0.4534">
        <ele>154.4</ele>
        <time>2022-10-09T07:43:06Z</time>
      </trkpt>
      <trkpt lat="45.06237" lon="0.45331">
        <ele>153.6</ele>
        <time>2022-10-09T07:43:09Z</time>
      </trkpt>
      <trkpt lat="45.0624" lon="0.45329">
        <ele>153.4</ele>
        <time>2022-10-09T07:43:10Z</time>
      </trkpt>
      <trkpt lat="45.06246" lon="0.45323">
        <ele>153.1</ele>
        <time>2022-10-09T07:43:12Z</time>
      </trkpt>
      <trkpt lat="45.06254" lon="0.45317">
        <ele>152.7</ele>
        <time>2022-10-09T07:43:14Z</time>
      </trkpt>
      <trkpt lat="45.06258" lon="0.45313">
        <ele>152.4</ele>
        <time>2022-10-09T07:43:15Z</time>
      </trkpt>
      <trkpt lat="45.06272" lon="0.453">
        <ele>151.6</ele>
        <time>2022-10-09T07:43:18Z</time>
      </trkpt>
      <trkpt lat="45.0628" lon="0.45289">
        <ele>151</ele>
        <time>2022-10-09T07:43:20Z</time>
      </trkpt>
      <trkpt lat="45.06284" lon="0.45283">
        <ele>150.7</ele>
        <time>2022-10-09T07:43:21Z</time>
      </trkpt>
      <trkpt lat="45.06293" lon="0.45272">
        <ele>150.1</ele>
        <time>2022-10-09T07:43:23Z</time>
      </trkpt>
      <trkpt lat="45.06303" lon="0.45258">
        <ele>149.4</ele>
        <time>2022-10-09T07:43:25Z</time>
      </trkpt>
      <trkpt lat="45.06313" lon="0.45245">
        <ele>148.7</ele>
        <time>2022-10-09T07:43:27Z</time>
      </trkpt>
      <trkpt lat="45.06328" lon="0.45225">
        <ele>147.7</ele>
        <time>2022-10-09T07:43:30Z</time>
      </trkpt>
      <trkpt lat="45.06333" lon="0.45219">
        <ele>147.4</ele>
        <time>2022-10-09T07:43:31Z</time>
      </trkpt>
      <trkpt lat="45.06341" lon="0.45207">
        <ele>146.8</ele>
        <time>2022-10-09T07:43:33Z</time>
      </trkpt>
      <trkpt lat="45.0635" lon="0.45196">
        <ele>146.2</ele>
        <time>2022-10-09T07:43:35Z</time>
      </trkpt>
      <trkpt lat="45.06372" lon="0.45157">
        <ele>144.4</ele>
        <time>2022-10-09T07:43:40Z</time>
      </trkpt>
      <trkpt lat="45.06377" lon="0.45148">
        <ele>144</ele>
        <time>2022-10-09T07:43:41Z</time>
      </trkpt>
      <trkpt lat="45.06393" lon="0.45133">
        <ele>143</ele>
        <time>2022-10-09T07:43:43Z</time>
      </trkpt>
      <trkpt lat="45.06414" lon="0.45116">
        <ele>141.8</ele>
        <time>2022-10-09T07:43:46Z</time>
      </trkpt>
      <trkpt lat="45.0642" lon="0.4511">
        <ele>141.5</ele>
        <time>2022-10-09T07:43:47Z</time>
      </trkpt>
      <trkpt lat="45.06425" lon="0.45104">
        <ele>141.1</ele>
        <time>2022-10-09T07:43:48Z</time>
      </trkpt>
      <trkpt lat="45.06434" lon="0.45094">
        <ele>140.5</ele>
        <time>2022-10-09T07:43:50Z</time>
      </trkpt>
      <trkpt lat="45.06452" lon="0.45071">
        <ele>139.3</ele>
        <time>2022-10-09T07:43:54Z</time>
      </trkpt>
      <trkpt lat="45.06469" lon="0.45057">
        <ele>138.3</ele>
        <time>2022-10-09T07:43:57Z</time>
      </trkpt>
      <trkpt lat="45.0648" lon="0.45049">
        <ele>137.7</ele>
        <time>2022-10-09T07:43:59Z</time>
      </trkpt>
      <trkpt lat="45.06497" lon="0.4504">
        <ele>136.8</ele>
        <time>2022-10-09T07:44:02Z</time>
      </trkpt>
      <trkpt lat="45.06504" lon="0.45038">
        <ele>136.5</ele>
        <time>2022-10-09T07:44:03Z</time>
      </trkpt>
      <trkpt lat="45.06517" lon="0.45036">
        <ele>135.8</ele>
        <time>2022-10-09T07:44:05Z</time>
      </trkpt>
      <trkpt lat="45.06545" lon="0.45039">
        <ele>134.4</ele>
        <time>2022-10-09T07:44:09Z</time>
      </trkpt>
      <trkpt lat="45.06552" lon="0.45039">
        <ele>134.1</ele>
        <time>2022-10-09T07:44:10Z</time>
      </trkpt>
      <trkpt lat="45.06593" lon="0.45035">
        <ele>132</ele>
        <time>2022-10-09T07:44:15Z</time>
      </trkpt>
      <trkpt lat="45.06601" lon="0.45034">
        <ele>131.6</ele>
        <time>2022-10-09T07:44:16Z</time>
      </trkpt>
      <trkpt lat="45.06617" lon="0.45034">
        <ele>130.8</ele>
        <time>2022-10-09T07:44:18Z</time>
      </trkpt>
      <trkpt lat="45.06661" lon="0.45038">
        <ele>128.5</ele>
        <time>2022-10-09T07:44:23Z</time>
      </trkpt>
      <trkpt lat="45.06677" lon="0.4504">
        <ele>127.7</ele>
        <time>2022-10-09T07:44:25Z</time>
      </trkpt>
      <trkpt lat="45.06694" lon="0.45043">
        <ele>126.9</ele>
        <time>2022-10-09T07:44:27Z</time>
      </trkpt>
      <trkpt lat="45.06744" lon="0.45039">
        <ele>122.7</ele>
        <time>2022-10-09T07:44:33Z</time>
      </trkpt>
      <trkpt lat="45.06774" lon="0.45022">
        <ele>118.2</ele>
        <time>2022-10-09T07:44:37Z</time>
      </trkpt>
      <trkpt lat="45.06781" lon="0.45018">
        <ele>117.1</ele>
        <time>2022-10-09T07:44:38Z</time>
      </trkpt>
      <trkpt lat="45.06794" lon="0.45013">
        <ele>115.2</ele>
        <time>2022-10-09T07:44:40Z</time>
      </trkpt>
      <trkpt lat="45.06809" lon="0.45014">
        <ele>113</ele>
        <time>2022-10-09T07:44:42Z</time>
      </trkpt>
      <trkpt lat="45.06832" lon="0.45037">
        <ele>109.2</ele>
        <time>2022-10-09T07:44:45Z</time>
      </trkpt>
      <trkpt lat="45.06847" lon="0.45056">
        <ele>106.3</ele>
        <time>2022-10-09T07:44:48Z</time>
      </trkpt>
      <trkpt lat="45.0685" lon="0.4506">
        <ele>105.7</ele>
        <time>2022-10-09T07:44:49Z</time>
      </trkpt>
      <trkpt lat="45.06852" lon="0.45063">
        <ele>105.4</ele>
        <time>2022-10-09T07:44:50Z</time>
      </trkpt>
      <trkpt lat="45.06858" lon="0.45064">
        <ele>104.2</ele>
        <time>2022-10-09T07:44:52Z</time>
      </trkpt>
      <trkpt lat="45.06865" lon="0.4505">
        <ele>102.9</ele>
        <time>2022-10-09T07:44:56Z</time>
      </trkpt>
      <trkpt lat="45.06888" lon="0.45013">
        <ele>99</ele>
        <time>2022-10-09T07:45:02Z</time>
      </trkpt>
      <trkpt lat="45.06907" lon="0.44985">
        <ele>94.9</ele>
        <time>2022-10-09T07:45:07Z</time>
      </trkpt>
      <trkpt lat="45.06914" lon="0.44975">
        <ele>93.1</ele>
        <time>2022-10-09T07:45:09Z</time>
      </trkpt>
      <trkpt lat="45.06921" lon="0.44965">
        <ele>91.2</ele>
        <time>2022-10-09T07:45:11Z</time>
      </trkpt>
      <trkpt lat="45.06937" lon="0.44954">
        <ele>88.2</ele>
        <time>2022-10-09T07:45:14Z</time>
      </trkpt>
      <trkpt lat="45.06947" lon="0.44938">
        <ele>87.8</ele>
        <time>2022-10-09T07:45:16Z</time>
      </trkpt>
      <trkpt lat="45.0695" lon="0.44929">
        <ele>88.1</ele>
        <time>2022-10-09T07:45:17Z</time>
      </trkpt>
      <trkpt lat="45.06952" lon="0.4492">
        <ele>88.5</ele>
        <time>2022-10-09T07:45:18Z</time>
      </trkpt>
      <trkpt lat="45.06958" lon="0.44883">
        <ele>90.7</ele>
        <time>2022-10-09T07:45:22Z</time>
      </trkpt>
      <trkpt lat="45.0696" lon="0.44865">
        <ele>92.1</ele>
        <time>2022-10-09T07:45:24Z</time>
      </trkpt>
      <trkpt lat="45.06961" lon="0.44848">
        <ele>92.9</ele>
        <time>2022-10-09T07:45:26Z</time>
      </trkpt>
      <trkpt lat="45.06964" lon="0.448">
        <ele>92.4</ele>
        <time>2022-10-09T07:45:31Z</time>
      </trkpt>
      <trkpt lat="45.06972" lon="0.44759">
        <ele>89.5</ele>
        <time>2022-10-09T07:45:35Z</time>
      </trkpt>
      <trkpt lat="45.0697" lon="0.44747">
        <ele>89.7</ele>
        <time>2022-10-09T07:45:37Z</time>
      </trkpt>
      <trkpt lat="45.06968" lon="0.44747">
        <ele>89.8</ele>
        <time>2022-10-09T07:45:38Z</time>
      </trkpt>
      <trkpt lat="45.06954" lon="0.44744">
        <ele>91</ele>
        <time>2022-10-09T07:45:43Z</time>
      </trkpt>
      <trkpt lat="45.06936" lon="0.44742">
        <ele>92.1</ele>
        <time>2022-10-09T07:45:48Z</time>
      </trkpt>
      <trkpt lat="45.06909" lon="0.44739">
        <ele>92.9</ele>
        <time>2022-10-09T07:45:55Z</time>
      </trkpt>
      <trkpt lat="45.06891" lon="0.44739">
        <ele>93.6</ele>
        <time>2022-10-09T07:46:00Z</time>
      </trkpt>
      <trkpt lat="45.06887" lon="0.44739">
        <ele>93.8</ele>
        <time>2022-10-09T07:46:01Z</time>
      </trkpt>
      <trkpt lat="45.06864" lon="0.44741">
        <ele>94.5</ele>
        <time>2022-10-09T07:46:08Z</time>
      </trkpt>
      <trkpt lat="45.0684" lon="0.44744">
        <ele>95.4</ele>
        <time>2022-10-09T07:46:15Z</time>
      </trkpt>
      <trkpt lat="45.06806" lon="0.44745">
        <ele>97.3</ele>
        <time>2022-10-09T07:46:25Z</time>
      </trkpt>
      <trkpt lat="45.06786" lon="0.44743">
        <ele>99.1</ele>
        <time>2022-10-09T07:46:31Z</time>
      </trkpt>
      <trkpt lat="45.06769" lon="0.44741">
        <ele>100.3</ele>
        <time>2022-10-09T07:46:37Z</time>
      </trkpt>
      <trkpt lat="45.06752" lon="0.4474">
        <ele>101.6</ele>
        <time>2022-10-09T07:46:44Z</time>
      </trkpt>
      <trkpt lat="45.06739" lon="0.44739">
        <ele>102.4</ele>
        <time>2022-10-09T07:46:50Z</time>
      </trkpt>
      <trkpt lat="45.06724" lon="0.44738">
        <ele>102.9</ele>
        <time>2022-10-09T07:46:57Z</time>
      </trkpt>
      <trkpt lat="45.06706" lon="0.44737">
        <ele>104.2</ele>
        <time>2022-10-09T07:47:05Z</time>
      </trkpt>
      <trkpt lat="45.06683" lon="0.44735">
        <ele>105.4</ele>
        <time>2022-10-09T07:47:14Z</time>
      </trkpt>
      <trkpt lat="45.06672" lon="0.44732">
        <ele>105.7</ele>
        <time>2022-10-09T07:47:19Z</time>
      </trkpt>
      <trkpt lat="45.06655" lon="0.44728">
        <ele>107.5</ele>
        <time>2022-10-09T07:47:26Z</time>
      </trkpt>
      <trkpt lat="45.06643" lon="0.44725">
        <ele>108.2</ele>
        <time>2022-10-09T07:47:31Z</time>
      </trkpt>
      <trkpt lat="45.06626" lon="0.44721">
        <ele>109.1</ele>
        <time>2022-10-09T07:47:38Z</time>
      </trkpt>
      <trkpt lat="45.06611" lon="0.44716">
        <ele>110.9</ele>
        <time>2022-10-09T07:47:44Z</time>
      </trkpt>
      <trkpt lat="45.06592" lon="0.44712">
        <ele>112.3</ele>
        <time>2022-10-09T07:47:51Z</time>
      </trkpt>
      <trkpt lat="45.06574" lon="0.44707">
        <ele>113.3</ele>
        <time>2022-10-09T07:47:59Z</time>
      </trkpt>
      <trkpt lat="45.0656" lon="0.44703">
        <ele>114.1</ele>
        <time>2022-10-09T07:48:05Z</time>
      </trkpt>
      <trkpt lat="45.06549" lon="0.447">
        <ele>114.8</ele>
        <time>2022-10-09T07:48:10Z</time>
      </trkpt>
      <trkpt lat="45.06535" lon="0.44697">
        <ele>115.3</ele>
        <time>2022-10-09T07:48:16Z</time>
      </trkpt>
      <trkpt lat="45.06523" lon="0.44694">
        <ele>115.7</ele>
        <time>2022-10-09T07:48:21Z</time>
      </trkpt>
      <trkpt lat="45.06506" lon="0.44693">
        <ele>116.3</ele>
        <time>2022-10-09T07:48:28Z</time>
      </trkpt>
      <trkpt lat="45.06495" lon="0.44692">
        <ele>117</ele>
        <time>2022-10-09T07:48:33Z</time>
      </trkpt>
      <trkpt lat="45.06483" lon="0.44692">
        <ele>117.8</ele>
        <time>2022-10-09T07:48:38Z</time>
      </trkpt>
      <trkpt lat="45.06468" lon="0.44691">
        <ele>119.3</ele>
        <time>2022-10-09T07:48:44Z</time>
      </trkpt>
      <trkpt lat="45.06454" lon="0.4469">
        <ele>120.9</ele>
        <time>2022-10-09T07:48:50Z</time>
      </trkpt>
      <trkpt lat="45.06441" lon="0.4469">
        <ele>122.1</ele>
        <time>2022-10-09T07:48:55Z</time>
      </trkpt>
      <trkpt lat="45.06428" lon="0.44686">
        <ele>123.8</ele>
        <time>2022-10-09T07:49:01Z</time>
      </trkpt>
      <trkpt lat="45.06418" lon="0.44679">
        <ele>125.2</ele>
        <time>2022-10-09T07:49:07Z</time>
      </trkpt>
      <trkpt lat="45.06412" lon="0.44675">
        <ele>126.2</ele>
        <time>2022-10-09T07:49:11Z</time>
      </trkpt>
      <trkpt lat="45.06405" lon="0.4467">
        <ele>127.3</ele>
        <time>2022-10-09T07:49:16Z</time>
      </trkpt>
      <trkpt lat="45.06403" lon="0.44669">
        <ele>127.5</ele>
        <time>2022-10-09T07:49:17Z</time>
      </trkpt>
      <trkpt lat="45.06395" lon="0.44664">
        <ele>128.7</ele>
        <time>2022-10-09T07:49:23Z</time>
      </trkpt>
      <trkpt lat="45.06387" lon="0.44661">
        <ele>129.6</ele>
        <time>2022-10-09T07:49:29Z</time>
      </trkpt>
      <trkpt lat="45.06382" lon="0.44659">
        <ele>130.2</ele>
        <time>2022-10-09T07:49:32Z</time>
      </trkpt>
      <trkpt lat="45.06378" lon="0.44657">
        <ele>130.7</ele>
        <time>2022-10-09T07:49:35Z</time>
      </trkpt>
      <trkpt lat="45.06369" lon="0.44653">
        <ele>132</ele>
        <time>2022-10-09T07:49:41Z</time>
      </trkpt>
      <trkpt lat="45.06359" lon="0.44649">
        <ele>133.6</ele>
        <time>2022-10-09T07:49:47Z</time>
      </trkpt>
      <trkpt lat="45.0635" lon="0.44645">
        <ele>134.7</ele>
        <time>2022-10-09T07:49:52Z</time>
      </trkpt>
      <trkpt lat="45.06342" lon="0.44641">
        <ele>135.1</ele>
        <time>2022-10-09T07:49:57Z</time>
      </trkpt>
      <trkpt lat="45.0634" lon="0.4464">
        <ele>135.2</ele>
        <time>2022-10-09T07:49:58Z</time>
      </trkpt>
      <trkpt lat="45.06333" lon="0.44638">
        <ele>135.6</ele>
        <time>2022-10-09T07:50:02Z</time>
      </trkpt>
      <trkpt lat="45.06323" lon="0.44633">
        <ele>136</ele>
        <time>2022-10-09T07:50:09Z</time>
      </trkpt>
      <trkpt lat="45.06318" lon="0.44631">
        <ele>138.3</ele>
        <time>2022-10-09T07:50:12Z</time>
      </trkpt>
      <trkpt lat="45.06315" lon="0.4463">
        <ele>138.4</ele>
        <time>2022-10-09T07:50:14Z</time>
      </trkpt>
      <trkpt lat="45.06315" lon="0.4463">
        <ele>138.6</ele>
        <time>2022-10-09T07:50:19Z</time>
      </trkpt>
      <trkpt lat="45.06336" lon="0.44596">
        <ele>138.3</ele>
        <time>2022-10-09T07:50:24Z</time>
      </trkpt>
      <trkpt lat="45.06344" lon="0.44589">
        <ele>138.5</ele>
        <time>2022-10-09T07:50:28Z</time>
      </trkpt>
      <trkpt lat="45.06356" lon="0.44579">
        <ele>139.7</ele>
        <time>2022-10-09T07:50:33Z</time>
      </trkpt>
      <trkpt lat="45.06368" lon="0.44573">
        <ele>139</ele>
        <time>2022-10-09T07:50:38Z</time>
      </trkpt>
      <trkpt lat="45.06374" lon="0.44569">
        <ele>138.3</ele>
        <time>2022-10-09T07:50:41Z</time>
      </trkpt>
      <trkpt lat="45.06381" lon="0.44566">
        <ele>138.5</ele>
        <time>2022-10-09T07:50:43Z</time>
      </trkpt>
      <trkpt lat="45.06395" lon="0.44562">
        <ele>139.2</ele>
        <time>2022-10-09T07:50:49Z</time>
      </trkpt>
      <trkpt lat="45.06409" lon="0.44556">
        <ele>138.8</ele>
        <time>2022-10-09T07:50:55Z</time>
      </trkpt>
      <trkpt lat="45.06426" lon="0.44546">
        <ele>140.9</ele>
        <time>2022-10-09T07:51:03Z</time>
      </trkpt>
      <trkpt lat="45.06439" lon="0.44538">
        <ele>140.5</ele>
        <time>2022-10-09T07:51:09Z</time>
      </trkpt>
      <trkpt lat="45.0645" lon="0.44528">
        <ele>143.2</ele>
        <time>2022-10-09T07:51:14Z</time>
      </trkpt>
      <trkpt lat="45.06462" lon="0.4452">
        <ele>143</ele>
        <time>2022-10-09T07:51:19Z</time>
      </trkpt>
      <trkpt lat="45.06473" lon="0.44513">
        <ele>142.7</ele>
        <time>2022-10-09T07:51:23Z</time>
      </trkpt>
      <trkpt lat="45.06489" lon="0.44503">
        <ele>144.8</ele>
        <time>2022-10-09T07:51:29Z</time>
      </trkpt>
      <trkpt lat="45.06506" lon="0.44492">
        <ele>146</ele>
        <time>2022-10-09T07:51:35Z</time>
      </trkpt>
      <trkpt lat="45.06529" lon="0.44474">
        <ele>144.7</ele>
        <time>2022-10-09T07:51:42Z</time>
      </trkpt>
      <trkpt lat="45.06542" lon="0.44462">
        <ele>143.9</ele>
        <time>2022-10-09T07:51:46Z</time>
      </trkpt>
      <trkpt lat="45.06558" lon="0.44449">
        <ele>143</ele>
        <time>2022-10-09T07:51:51Z</time>
      </trkpt>
      <trkpt lat="45.06577" lon="0.44436">
        <ele>141.7</ele>
        <time>2022-10-09T07:51:56Z</time>
      </trkpt>
      <trkpt lat="45.0658" lon="0.44419">
        <ele>140.9</ele>
        <time>2022-10-09T07:51:58Z</time>
      </trkpt>
      <trkpt lat="45.06588" lon="0.44418">
        <ele>140.4</ele>
        <time>2022-10-09T07:52:00Z</time>
      </trkpt>
      <trkpt lat="45.06593" lon="0.44417">
        <ele>140.2</ele>
        <time>2022-10-09T07:52:01Z</time>
      </trkpt>
      <trkpt lat="45.06611" lon="0.44416">
        <ele>139.6</ele>
        <time>2022-10-09T07:52:04Z</time>
      </trkpt>
      <trkpt lat="45.06638" lon="0.44421">
        <ele>138.8</ele>
        <time>2022-10-09T07:52:08Z</time>
      </trkpt>
      <trkpt lat="45.06644" lon="0.44423">
        <ele>138.7</ele>
        <time>2022-10-09T07:52:09Z</time>
      </trkpt>
      <trkpt lat="45.06674" lon="0.44437">
        <ele>138</ele>
        <time>2022-10-09T07:52:14Z</time>
      </trkpt>
      <trkpt lat="45.06699" lon="0.44452">
        <ele>137.6</ele>
        <time>2022-10-09T07:52:18Z</time>
      </trkpt>
      <trkpt lat="45.06724" lon="0.44453">
        <ele>137.2</ele>
        <time>2022-10-09T07:52:22Z</time>
      </trkpt>
      <trkpt lat="45.0673" lon="0.44451">
        <ele>137.1</ele>
        <time>2022-10-09T07:52:23Z</time>
      </trkpt>
      <trkpt lat="45.06735" lon="0.4445">
        <ele>136.9</ele>
        <time>2022-10-09T07:52:24Z</time>
      </trkpt>
      <trkpt lat="45.06754" lon="0.44444">
        <ele>136.3</ele>
        <time>2022-10-09T07:52:27Z</time>
      </trkpt>
      <trkpt lat="45.06794" lon="0.44433">
        <ele>134.3</ele>
        <time>2022-10-09T07:52:33Z</time>
      </trkpt>
      <trkpt lat="45.06802" lon="0.4443">
        <ele>133.8</ele>
        <time>2022-10-09T07:52:34Z</time>
      </trkpt>
      <trkpt lat="45.06817" lon="0.44423">
        <ele>132.9</ele>
        <time>2022-10-09T07:52:36Z</time>
      </trkpt>
      <trkpt lat="45.06831" lon="0.44417">
        <ele>132.1</ele>
        <time>2022-10-09T07:52:37Z</time>
      </trkpt>
      <trkpt lat="45.06842" lon="0.44411">
        <ele>131.7</ele>
        <time>2022-10-09T07:52:40Z</time>
      </trkpt>
      <trkpt lat="45.06845" lon="0.4441">
        <ele>131.6</ele>
        <time>2022-10-09T07:52:42Z</time>
      </trkpt>
      <trkpt lat="45.06845" lon="0.4441">
        <ele>131.6</ele>
        <time>2022-10-09T07:52:43Z</time>
      </trkpt>
      <trkpt lat="45.06843" lon="0.44405">
        <ele>131.3</ele>
        <time>2022-10-09T07:52:45Z</time>
      </trkpt>
      <trkpt lat="45.0684" lon="0.44405">
        <ele>131.3</ele>
        <time>2022-10-09T07:52:47Z</time>
      </trkpt>
      <trkpt lat="45.06836" lon="0.44404">
        <ele>131.4</ele>
        <time>2022-10-09T07:52:50Z</time>
      </trkpt>
      <trkpt lat="45.06823" lon="0.44402">
        <ele>131.9</ele>
        <time>2022-10-09T07:52:55Z</time>
      </trkpt>
      <trkpt lat="45.06816" lon="0.44401">
        <ele>132.3</ele>
        <time>2022-10-09T07:52:59Z</time>
      </trkpt>
      <trkpt lat="45.06803" lon="0.44399">
        <ele>133</ele>
        <time>2022-10-09T07:53:04Z</time>
      </trkpt>
      <trkpt lat="45.06791" lon="0.44397">
        <ele>133.7</ele>
        <time>2022-10-09T07:53:08Z</time>
      </trkpt>
      <trkpt lat="45.06789" lon="0.44397">
        <ele>133.8</ele>
        <time>2022-10-09T07:53:10Z</time>
      </trkpt>
      <trkpt lat="45.06785" lon="0.44396">
        <ele>134</ele>
        <time>2022-10-09T07:53:11Z</time>
      </trkpt>
      <trkpt lat="45.0677" lon="0.4439">
        <ele>134.5</ele>
        <time>2022-10-09T07:53:16Z</time>
      </trkpt>
      <trkpt lat="45.06756" lon="0.4438">
        <ele>134.4</ele>
        <time>2022-10-09T07:53:20Z</time>
      </trkpt>
      <trkpt lat="45.06754" lon="0.44379">
        <ele>134.4</ele>
        <time>2022-10-09T07:53:21Z</time>
      </trkpt>
      <trkpt lat="45.06748" lon="0.44374">
        <ele>134.2</ele>
        <time>2022-10-09T07:53:24Z</time>
      </trkpt>
      <trkpt lat="45.06741" lon="0.44366">
        <ele>133.8</ele>
        <time>2022-10-09T07:53:26Z</time>
      </trkpt>
      <trkpt lat="45.06736" lon="0.4436">
        <ele>133.6</ele>
        <time>2022-10-09T07:53:27Z</time>
      </trkpt>
      <trkpt lat="45.06732" lon="0.44355">
        <ele>133.3</ele>
        <time>2022-10-09T07:53:28Z</time>
      </trkpt>
      <trkpt lat="45.06725" lon="0.44342">
        <ele>132.9</ele>
        <time>2022-10-09T07:53:30Z</time>
      </trkpt>
      <trkpt lat="45.06717" lon="0.44329">
        <ele>132.7</ele>
        <time>2022-10-09T07:53:32Z</time>
      </trkpt>
      <trkpt lat="45.06712" lon="0.44316">
        <ele>132.7</ele>
        <time>2022-10-09T07:53:34Z</time>
      </trkpt>
      <trkpt lat="45.06707" lon="0.44302">
        <ele>132.9</ele>
        <time>2022-10-09T07:53:36Z</time>
      </trkpt>
      <trkpt lat="45.06705" lon="0.44291">
        <ele>133.2</ele>
        <time>2022-10-09T07:53:38Z</time>
      </trkpt>
      <trkpt lat="45.06705" lon="0.44284">
        <ele>133.5</ele>
        <time>2022-10-09T07:53:39Z</time>
      </trkpt>
      <trkpt lat="45.06704" lon="0.44273">
        <ele>134</ele>
        <time>2022-10-09T07:53:41Z</time>
      </trkpt>
      <trkpt lat="45.0669" lon="0.44258">
        <ele>135.7</ele>
        <time>2022-10-09T07:53:45Z</time>
      </trkpt>
      <trkpt lat="45.06681" lon="0.44257">
        <ele>136.8</ele>
        <time>2022-10-09T07:53:50Z</time>
      </trkpt>
      <trkpt lat="45.06669" lon="0.44259">
        <ele>138.3</ele>
        <time>2022-10-09T07:53:57Z</time>
      </trkpt>
      <trkpt lat="45.06669" lon="0.44259">
        <ele>138.3</ele>
        <time>2022-10-09T07:53:58Z</time>
      </trkpt>
      <trkpt lat="45.06655" lon="0.44264">
        <ele>140</ele>
        <time>2022-10-09T07:54:07Z</time>
      </trkpt>
      <trkpt lat="45.0665" lon="0.44266">
        <ele>140.6</ele>
        <time>2022-10-09T07:54:09Z</time>
      </trkpt>
      <trkpt lat="45.06639" lon="0.44269">
        <ele>141.8</ele>
        <time>2022-10-09T07:54:14Z</time>
      </trkpt>
      <trkpt lat="45.06633" lon="0.44269">
        <ele>142.4</ele>
        <time>2022-10-09T07:54:18Z</time>
      </trkpt>
      <trkpt lat="45.06623" lon="0.44269">
        <ele>143.4</ele>
        <time>2022-10-09T07:54:23Z</time>
      </trkpt>
      <trkpt lat="45.06617" lon="0.44268">
        <ele>143.9</ele>
        <time>2022-10-09T07:54:27Z</time>
      </trkpt>
      <trkpt lat="45.06609" lon="0.44263">
        <ele>144.5</ele>
        <time>2022-10-09T07:54:32Z</time>
      </trkpt>
      <trkpt lat="45.06598" lon="0.44257">
        <ele>145</ele>
        <time>2022-10-09T07:54:37Z</time>
      </trkpt>
      <trkpt lat="45.06592" lon="0.44253">
        <ele>145.2</ele>
        <time>2022-10-09T07:54:41Z</time>
      </trkpt>
      <trkpt lat="45.06576" lon="0.44245">
        <ele>145.3</ele>
        <time>2022-10-09T07:54:46Z</time>
      </trkpt>
      <trkpt lat="45.06557" lon="0.44241">
        <ele>145.5</ele>
        <time>2022-10-09T07:54:51Z</time>
      </trkpt>
      <trkpt lat="45.06555" lon="0.44241">
        <ele>145.6</ele>
        <time>2022-10-09T07:54:52Z</time>
      </trkpt>
      <trkpt lat="45.06544" lon="0.44241">
        <ele>145.8</ele>
        <time>2022-10-09T07:54:56Z</time>
      </trkpt>
      <trkpt lat="45.0654" lon="0.44241">
        <ele>145.8</ele>
        <time>2022-10-09T07:54:57Z</time>
      </trkpt>
      <trkpt lat="45.06536" lon="0.44241">
        <ele>145.8</ele>
        <time>2022-10-09T07:54:58Z</time>
      </trkpt>
      <trkpt lat="45.06528" lon="0.44241">
        <ele>145.8</ele>
        <time>2022-10-09T07:55:00Z</time>
      </trkpt>
      <trkpt lat="45.06523" lon="0.44241">
        <ele>145.7</ele>
        <time>2022-10-09T07:55:01Z</time>
      </trkpt>
      <trkpt lat="45.06502" lon="0.44241">
        <ele>145.5</ele>
        <time>2022-10-09T07:55:05Z</time>
      </trkpt>
      <trkpt lat="45.06487" lon="0.44241">
        <ele>145.3</ele>
        <time>2022-10-09T07:55:08Z</time>
      </trkpt>
      <trkpt lat="45.06461" lon="0.44247">
        <ele>145</ele>
        <time>2022-10-09T07:55:12Z</time>
      </trkpt>
      <trkpt lat="45.0644" lon="0.44259">
        <ele>145.4</ele>
        <time>2022-10-09T07:55:17Z</time>
      </trkpt>
      <trkpt lat="45.06431" lon="0.44264">
        <ele>145.7</ele>
        <time>2022-10-09T07:55:19Z</time>
      </trkpt>
      <trkpt lat="45.06424" lon="0.44269">
        <ele>145.9</ele>
        <time>2022-10-09T07:55:21Z</time>
      </trkpt>
      <trkpt lat="45.06409" lon="0.4428">
        <ele>146.3</ele>
        <time>2022-10-09T07:55:25Z</time>
      </trkpt>
      <trkpt lat="45.06402" lon="0.44285">
        <ele>146.4</ele>
        <time>2022-10-09T07:55:27Z</time>
      </trkpt>
      <trkpt lat="45.064" lon="0.44286">
        <ele>146.5</ele>
        <time>2022-10-09T07:55:28Z</time>
      </trkpt>
      <trkpt lat="45.06397" lon="0.44289">
        <ele>146.6</ele>
        <time>2022-10-09T07:55:29Z</time>
      </trkpt>
      <trkpt lat="45.06392" lon="0.44292">
        <ele>146.7</ele>
        <time>2022-10-09T07:55:30Z</time>
      </trkpt>
      <trkpt lat="45.06367" lon="0.4431">
        <ele>147.4</ele>
        <time>2022-10-09T07:55:37Z</time>
      </trkpt>
      <trkpt lat="45.06365" lon="0.44319">
        <ele>147.6</ele>
        <time>2022-10-09T07:55:39Z</time>
      </trkpt>
      <trkpt lat="45.06366" lon="0.44324">
        <ele>147.7</ele>
        <time>2022-10-09T07:55:40Z</time>
      </trkpt>
      <trkpt lat="45.06366" lon="0.44333">
        <ele>147.8</ele>
        <time>2022-10-09T07:55:42Z</time>
      </trkpt>
      <trkpt lat="45.06367" lon="0.44342">
        <ele>147.9</ele>
        <time>2022-10-09T07:55:44Z</time>
      </trkpt>
      <trkpt lat="45.06369" lon="0.44366">
        <ele>147.9</ele>
        <time>2022-10-09T07:55:49Z</time>
      </trkpt>
      <trkpt lat="45.06371" lon="0.44387">
        <ele>147.8</ele>
        <time>2022-10-09T07:55:53Z</time>
      </trkpt>
      <trkpt lat="45.06373" lon="0.44402">
        <ele>147.7</ele>
        <time>2022-10-09T07:55:56Z</time>
      </trkpt>
      <trkpt lat="45.06374" lon="0.44407">
        <ele>147.6</ele>
        <time>2022-10-09T07:55:57Z</time>
      </trkpt>
      <trkpt lat="45.06378" lon="0.4443">
        <ele>147.3</ele>
        <time>2022-10-09T07:56:01Z</time>
      </trkpt>
      <trkpt lat="45.06382" lon="0.44443">
        <ele>147.1</ele>
        <time>2022-10-09T07:56:04Z</time>
      </trkpt>
      <trkpt lat="45.06381" lon="0.44443">
        <ele>147</ele>
        <time>2022-10-09T07:56:06Z</time>
      </trkpt>
      <trkpt lat="45.06375" lon="0.44447">
        <ele>146.9</ele>
        <time>2022-10-09T07:56:08Z</time>
      </trkpt>
      <trkpt lat="45.06373" lon="0.44449">
        <ele>146.8</ele>
        <time>2022-10-09T07:56:09Z</time>
      </trkpt>
      <trkpt lat="45.06357" lon="0.44457">
        <ele>146.5</ele>
        <time>2022-10-09T07:56:13Z</time>
      </trkpt>
      <trkpt lat="45.06337" lon="0.44462">
        <ele>146.5</ele>
        <time>2022-10-09T07:56:18Z</time>
      </trkpt>
      <trkpt lat="45.0632" lon="0.44464">
        <ele>146.7</ele>
        <time>2022-10-09T07:56:23Z</time>
      </trkpt>
      <trkpt lat="45.06314" lon="0.44465">
        <ele>146.8</ele>
        <time>2022-10-09T07:56:25Z</time>
      </trkpt>
      <trkpt lat="45.0631" lon="0.44466">
        <ele>146.8</ele>
        <time>2022-10-09T07:56:26Z</time>
      </trkpt>
      <trkpt lat="45.06299" lon="0.44468">
        <ele>147</ele>
        <time>2022-10-09T07:56:29Z</time>
      </trkpt>
      <trkpt lat="45.06282" lon="0.44473">
        <ele>147.5</ele>
        <time>2022-10-09T07:56:34Z</time>
      </trkpt>
      <trkpt lat="45.06261" lon="0.44481">
        <ele>148.2</ele>
        <time>2022-10-09T07:56:40Z</time>
      </trkpt>
      <trkpt lat="45.06247" lon="0.44485">
        <ele>148.7</ele>
        <time>2022-10-09T07:56:44Z</time>
      </trkpt>
      <trkpt lat="45.06232" lon="0.4449">
        <ele>149.6</ele>
        <time>2022-10-09T07:56:49Z</time>
      </trkpt>
      <trkpt lat="45.06224" lon="0.44493">
        <ele>150.1</ele>
        <time>2022-10-09T07:56:53Z</time>
      </trkpt>
      <trkpt lat="45.06211" lon="0.44502">
        <ele>150.9</ele>
        <time>2022-10-09T07:56:58Z</time>
      </trkpt>
      <trkpt lat="45.06198" lon="0.4451">
        <ele>151.6</ele>
        <time>2022-10-09T07:57:03Z</time>
      </trkpt>
      <trkpt lat="45.06184" lon="0.4452">
        <ele>152.1</ele>
        <time>2022-10-09T07:57:08Z</time>
      </trkpt>
      <trkpt lat="45.06167" lon="0.44529">
        <ele>152.2</ele>
        <time>2022-10-09T07:57:14Z</time>
      </trkpt>
      <trkpt lat="45.06152" lon="0.44538">
        <ele>152.3</ele>
        <time>2022-10-09T07:57:17Z</time>
      </trkpt>
      <trkpt lat="45.0614" lon="0.44537">
        <ele>152.5</ele>
        <time>2022-10-09T07:57:21Z</time>
      </trkpt>
      <trkpt lat="45.06124" lon="0.44536">
        <ele>152.7</ele>
        <time>2022-10-09T07:57:26Z</time>
      </trkpt>
      <trkpt lat="45.06121" lon="0.44536">
        <ele>152.7</ele>
        <time>2022-10-09T07:57:27Z</time>
      </trkpt>
      <trkpt lat="45.06117" lon="0.44537">
        <ele>152.7</ele>
        <time>2022-10-09T07:57:28Z</time>
      </trkpt>
      <trkpt lat="45.06095" lon="0.44539">
        <ele>152.6</ele>
        <time>2022-10-09T07:57:33Z</time>
      </trkpt>
      <trkpt lat="45.06081" lon="0.44541">
        <ele>152.6</ele>
        <time>2022-10-09T07:57:37Z</time>
      </trkpt>
      <trkpt lat="45.06065" lon="0.44544">
        <ele>152.7</ele>
        <time>2022-10-09T07:57:41Z</time>
      </trkpt>
      <trkpt lat="45.06043" lon="0.44548">
        <ele>152.8</ele>
        <time>2022-10-09T07:57:46Z</time>
      </trkpt>
      <trkpt lat="45.06039" lon="0.44549">
        <ele>152.8</ele>
        <time>2022-10-09T07:57:47Z</time>
      </trkpt>
      <trkpt lat="45.06031" lon="0.44551">
        <ele>152.8</ele>
        <time>2022-10-09T07:57:49Z</time>
      </trkpt>
      <trkpt lat="45.06027" lon="0.44552">
        <ele>152.7</ele>
        <time>2022-10-09T07:57:50Z</time>
      </trkpt>
      <trkpt lat="45.06012" lon="0.44556">
        <ele>152.6</ele>
        <time>2022-10-09T07:57:54Z</time>
      </trkpt>
      <trkpt lat="45.05997" lon="0.4456">
        <ele>152.5</ele>
        <time>2022-10-09T07:57:57Z</time>
      </trkpt>
      <trkpt lat="45.05992" lon="0.44561">
        <ele>152.4</ele>
        <time>2022-10-09T07:57:58Z</time>
      </trkpt>
      <trkpt lat="45.05977" lon="0.44565">
        <ele>152.1</ele>
        <time>2022-10-09T07:58:01Z</time>
      </trkpt>
      <trkpt lat="45.05972" lon="0.44566">
        <ele>152</ele>
        <time>2022-10-09T07:58:03Z</time>
      </trkpt>
      <trkpt lat="45.05965" lon="0.4457">
        <ele>151.8</ele>
        <time>2022-10-09T07:58:04Z</time>
      </trkpt>
      <trkpt lat="45.05951" lon="0.44585">
        <ele>151</ele>
        <time>2022-10-09T07:58:06Z</time>
      </trkpt>
      <trkpt lat="45.05932" lon="0.44609">
        <ele>150</ele>
        <time>2022-10-09T07:58:10Z</time>
      </trkpt>
      <trkpt lat="45.05918" lon="0.44628">
        <ele>149.5</ele>
        <time>2022-10-09T07:58:13Z</time>
      </trkpt>
      <trkpt lat="45.059" lon="0.44644">
        <ele>149.5</ele>
        <time>2022-10-09T07:58:17Z</time>
      </trkpt>
      <trkpt lat="45.05895" lon="0.44648">
        <ele>149.5</ele>
        <time>2022-10-09T07:58:18Z</time>
      </trkpt>
      <trkpt lat="45.05885" lon="0.44651">
        <ele>149.6</ele>
        <time>2022-10-09T07:58:20Z</time>
      </trkpt>
      <trkpt lat="45.0587" lon="0.44656">
        <ele>149.9</ele>
        <time>2022-10-09T07:58:24Z</time>
      </trkpt>
      <trkpt lat="45.05856" lon="0.44661">
        <ele>150.5</ele>
        <time>2022-10-09T07:58:28Z</time>
      </trkpt>
      <trkpt lat="45.05844" lon="0.44666">
        <ele>150.9</ele>
        <time>2022-10-09T07:58:31Z</time>
      </trkpt>
      <trkpt lat="45.05836" lon="0.44668">
        <ele>150.9</ele>
        <time>2022-10-09T07:58:33Z</time>
      </trkpt>
      <trkpt lat="45.05824" lon="0.44673">
        <ele>150.7</ele>
        <time>2022-10-09T07:58:35Z</time>
      </trkpt>
      <trkpt lat="45.05809" lon="0.44678">
        <ele>150.7</ele>
        <time>2022-10-09T07:58:38Z</time>
      </trkpt>
      <trkpt lat="45.05802" lon="0.44683">
        <ele>150.8</ele>
        <time>2022-10-09T07:58:40Z</time>
      </trkpt>
      <trkpt lat="45.0579" lon="0.44695">
        <ele>151.2</ele>
        <time>2022-10-09T07:58:44Z</time>
      </trkpt>
      <trkpt lat="45.0578" lon="0.44706">
        <ele>151.7</ele>
        <time>2022-10-09T07:58:48Z</time>
      </trkpt>
      <trkpt lat="45.05771" lon="0.44722">
        <ele>152.1</ele>
        <time>2022-10-09T07:58:52Z</time>
      </trkpt>
      <trkpt lat="45.05765" lon="0.44733">
        <ele>152.4</ele>
        <time>2022-10-09T07:58:56Z</time>
      </trkpt>
      <trkpt lat="45.05764" lon="0.44736">
        <ele>152.5</ele>
        <time>2022-10-09T07:58:57Z</time>
      </trkpt>
      <trkpt lat="45.05759" lon="0.44748">
        <ele>152.8</ele>
        <time>2022-10-09T07:59:01Z</time>
      </trkpt>
      <trkpt lat="45.05752" lon="0.44771">
        <ele>153.4</ele>
        <time>2022-10-09T07:59:06Z</time>
      </trkpt>
      <trkpt lat="45.05748" lon="0.44782">
        <ele>153.6</ele>
        <time>2022-10-09T07:59:09Z</time>
      </trkpt>
      <trkpt lat="45.05747" lon="0.44786">
        <ele>153.7</ele>
        <time>2022-10-09T07:59:10Z</time>
      </trkpt>
      <trkpt lat="45.0574" lon="0.44804">
        <ele>154.1</ele>
        <time>2022-10-09T07:59:15Z</time>
      </trkpt>
      <trkpt lat="45.05736" lon="0.44811">
        <ele>154.2</ele>
        <time>2022-10-09T07:59:17Z</time>
      </trkpt>
      <trkpt lat="45.05731" lon="0.44819">
        <ele>154.4</ele>
        <time>2022-10-09T07:59:19Z</time>
      </trkpt>
      <trkpt lat="45.05722" lon="0.44834">
        <ele>154.6</ele>
        <time>2022-10-09T07:59:24Z</time>
      </trkpt>
      <trkpt lat="45.05708" lon="0.44855">
        <ele>155.1</ele>
        <time>2022-10-09T07:59:30Z</time>
      </trkpt>
      <trkpt lat="45.05694" lon="0.44879">
        <ele>155.7</ele>
        <time>2022-10-09T07:59:36Z</time>
      </trkpt>
      <trkpt lat="45.05687" lon="0.44892">
        <ele>156.1</ele>
        <time>2022-10-09T07:59:40Z</time>
      </trkpt>
      <trkpt lat="45.05686" lon="0.44896">
        <ele>156.2</ele>
        <time>2022-10-09T07:59:41Z</time>
      </trkpt>
      <trkpt lat="45.05682" lon="0.44904">
        <ele>156.5</ele>
        <time>2022-10-09T07:59:43Z</time>
      </trkpt>
      <trkpt lat="45.05677" lon="0.44914">
        <ele>156.9</ele>
        <time>2022-10-09T07:59:47Z</time>
      </trkpt>
      <trkpt lat="45.05674" lon="0.44921">
        <ele>157.3</ele>
        <time>2022-10-09T07:59:51Z</time>
      </trkpt>
      <trkpt lat="45.05673" lon="0.44923">
        <ele>157.4</ele>
        <time>2022-10-09T07:59:52Z</time>
      </trkpt>
      <trkpt lat="45.05672" lon="0.44925">
        <ele>157.5</ele>
        <time>2022-10-09T07:59:53Z</time>
      </trkpt>
      <trkpt lat="45.05671" lon="0.4493">
        <ele>157.8</ele>
        <time>2022-10-09T07:59:55Z</time>
      </trkpt>
      <trkpt lat="45.0567" lon="0.44932">
        <ele>157.9</ele>
        <time>2022-10-09T07:59:57Z</time>
      </trkpt>
      <trkpt lat="45.05669" lon="0.44934">
        <ele>158</ele>
        <time>2022-10-09T07:59:59Z</time>
      </trkpt>
      <trkpt lat="45.05671" lon="0.44946">
        <ele>158.8</ele>
        <time>2022-10-09T08:00:01Z</time>
      </trkpt>
      <trkpt lat="45.05662" lon="0.4495">
        <ele>159.5</ele>
        <time>2022-10-09T08:00:03Z</time>
      </trkpt>
      <trkpt lat="45.0566" lon="0.44953">
        <ele>159.9</ele>
        <time>2022-10-09T08:00:04Z</time>
      </trkpt>
      <trkpt lat="45.05653" lon="0.44962">
        <ele>160.6</ele>
        <time>2022-10-09T08:00:07Z</time>
      </trkpt>
      <trkpt lat="45.05644" lon="0.44974">
        <ele>161.4</ele>
        <time>2022-10-09T08:00:12Z</time>
      </trkpt>
      <trkpt lat="45.05631" lon="0.44992">
        <ele>161.8</ele>
        <time>2022-10-09T08:00:18Z</time>
      </trkpt>
      <trkpt lat="45.05629" lon="0.44995">
        <ele>161.8</ele>
        <time>2022-10-09T08:00:19Z</time>
      </trkpt>
      <trkpt lat="45.05624" lon="0.45001">
        <ele>161.9</ele>
        <time>2022-10-09T08:00:21Z</time>
      </trkpt>
      <trkpt lat="45.05616" lon="0.45011">
        <ele>162.1</ele>
        <time>2022-10-09T08:00:25Z</time>
      </trkpt>
      <trkpt lat="45.05613" lon="0.45013">
        <ele>162.1</ele>
        <time>2022-10-09T08:00:26Z</time>
      </trkpt>
      <trkpt lat="45.056" lon="0.45018">
        <ele>162.3</ele>
        <time>2022-10-09T08:00:30Z</time>
      </trkpt>
      <trkpt lat="45.05588" lon="0.45022">
        <ele>162.6</ele>
        <time>2022-10-09T08:00:34Z</time>
      </trkpt>
      <trkpt lat="45.05578" lon="0.45026">
        <ele>162.9</ele>
        <time>2022-10-09T08:00:38Z</time>
      </trkpt>
      <trkpt lat="45.05572" lon="0.45029">
        <ele>163.1</ele>
        <time>2022-10-09T08:00:40Z</time>
      </trkpt>
      <trkpt lat="45.05569" lon="0.4503">
        <ele>163.2</ele>
        <time>2022-10-09T08:00:41Z</time>
      </trkpt>
      <trkpt lat="45.05558" lon="0.45034">
        <ele>163.9</ele>
        <time>2022-10-09T08:00:46Z</time>
      </trkpt>
      <trkpt lat="45.05547" lon="0.45039">
        <ele>164.6</ele>
        <time>2022-10-09T08:00:50Z</time>
      </trkpt>
      <trkpt lat="45.05542" lon="0.45041">
        <ele>165</ele>
        <time>2022-10-09T08:00:54Z</time>
      </trkpt>
      <trkpt lat="45.05537" lon="0.45045">
        <ele>165.5</ele>
        <time>2022-10-09T08:00:58Z</time>
      </trkpt>
      <trkpt lat="45.05522" lon="0.45043">
        <ele>166.8</ele>
        <time>2022-10-09T08:01:01Z</time>
      </trkpt>
      <trkpt lat="45.05528" lon="0.45037">
        <ele>166.7</ele>
        <time>2022-10-09T08:01:03Z</time>
      </trkpt>
      <trkpt lat="45.05528" lon="0.45037">
        <ele>166.7</ele>
        <time>2022-10-09T08:01:04Z</time>
      </trkpt>
      <trkpt lat="45.05529" lon="0.45033">
        <ele>166.7</ele>
        <time>2022-10-09T08:04:36Z</time>
      </trkpt>
      <trkpt lat="45.05529" lon="0.45028">
        <ele>166.7</ele>
        <time>2022-10-09T08:04:38Z</time>
      </trkpt>
      <trkpt lat="45.05533" lon="0.45008">
        <ele>166.7</ele>
        <time>2022-10-09T08:04:43Z</time>
      </trkpt>
      <trkpt lat="45.05538" lon="0.4499">
        <ele>166.8</ele>
        <time>2022-10-09T08:04:47Z</time>
      </trkpt>
      <trkpt lat="45.05546" lon="0.4496">
        <ele>166.4</ele>
        <time>2022-10-09T08:04:53Z</time>
      </trkpt>
      <trkpt lat="45.0555" lon="0.44943">
        <ele>165.9</ele>
        <time>2022-10-09T08:04:56Z</time>
      </trkpt>
      <trkpt lat="45.05556" lon="0.44931">
        <ele>165.3</ele>
        <time>2022-10-09T08:04:58Z</time>
      </trkpt>
      <trkpt lat="45.05574" lon="0.44899">
        <ele>164.2</ele>
        <time>2022-10-09T08:05:03Z</time>
      </trkpt>
      <trkpt lat="45.05593" lon="0.44866">
        <ele>163.5</ele>
        <time>2022-10-09T08:05:08Z</time>
      </trkpt>
      <trkpt lat="45.05609" lon="0.44841">
        <ele>162.9</ele>
        <time>2022-10-09T08:05:12Z</time>
      </trkpt>
      <trkpt lat="45.05619" lon="0.44826">
        <ele>162.3</ele>
        <time>2022-10-09T08:05:14Z</time>
      </trkpt>
      <trkpt lat="45.05628" lon="0.44813">
        <ele>161.6</ele>
        <time>2022-10-09T08:05:16Z</time>
      </trkpt>
      <trkpt lat="45.05638" lon="0.44797">
        <ele>160.5</ele>
        <time>2022-10-09T08:05:18Z</time>
      </trkpt>
      <trkpt lat="45.05643" lon="0.44789">
        <ele>159.9</ele>
        <time>2022-10-09T08:05:19Z</time>
      </trkpt>
      <trkpt lat="45.05652" lon="0.44771">
        <ele>158.5</ele>
        <time>2022-10-09T08:05:21Z</time>
      </trkpt>
      <trkpt lat="45.05652" lon="0.44751">
        <ele>157.1</ele>
        <time>2022-10-09T08:05:23Z</time>
      </trkpt>
      <trkpt lat="45.05656" lon="0.44725">
        <ele>155.2</ele>
        <time>2022-10-09T08:05:25Z</time>
      </trkpt>
      <trkpt lat="45.05663" lon="0.44701">
        <ele>153.2</ele>
        <time>2022-10-09T08:05:27Z</time>
      </trkpt>
      <trkpt lat="45.0567" lon="0.44677">
        <ele>151.1</ele>
        <time>2022-10-09T08:05:29Z</time>
      </trkpt>
      <trkpt lat="45.05683" lon="0.44648">
        <ele>148.4</ele>
        <time>2022-10-09T08:05:32Z</time>
      </trkpt>
      <trkpt lat="45.05688" lon="0.44642">
        <ele>147.7</ele>
        <time>2022-10-09T08:05:33Z</time>
      </trkpt>
      <trkpt lat="45.05694" lon="0.44636">
        <ele>147</ele>
        <time>2022-10-09T08:05:34Z</time>
      </trkpt>
      <trkpt lat="45.05695" lon="0.44618">
        <ele>146.7</ele>
        <time>2022-10-09T08:05:36Z</time>
      </trkpt>
      <trkpt lat="45.05696" lon="0.44602">
        <ele>146.7</ele>
        <time>2022-10-09T08:05:38Z</time>
      </trkpt>
      <trkpt lat="45.05696" lon="0.44594">
        <ele>146.7</ele>
        <time>2022-10-09T08:05:39Z</time>
      </trkpt>
      <trkpt lat="45.05697" lon="0.44581">
        <ele>146.6</ele>
        <time>2022-10-09T08:05:41Z</time>
      </trkpt>
      <trkpt lat="45.05705" lon="0.44563">
        <ele>146.5</ele>
        <time>2022-10-09T08:05:43Z</time>
      </trkpt>
      <trkpt lat="45.05712" lon="0.44548">
        <ele>146.6</ele>
        <time>2022-10-09T08:05:46Z</time>
      </trkpt>
      <trkpt lat="45.05716" lon="0.44538">
        <ele>146.9</ele>
        <time>2022-10-09T08:05:48Z</time>
      </trkpt>
      <trkpt lat="45.05721" lon="0.44519">
        <ele>147.6</ele>
        <time>2022-10-09T08:05:51Z</time>
      </trkpt>
      <trkpt lat="45.05725" lon="0.44494">
        <ele>148.6</ele>
        <time>2022-10-09T08:05:56Z</time>
      </trkpt>
      <trkpt lat="45.05729" lon="0.44479">
        <ele>149</ele>
        <time>2022-10-09T08:05:59Z</time>
      </trkpt>
      <trkpt lat="45.05733" lon="0.4446">
        <ele>149.1</ele>
        <time>2022-10-09T08:06:02Z</time>
      </trkpt>
      <trkpt lat="45.05736" lon="0.44449">
        <ele>148.9</ele>
        <time>2022-10-09T08:06:04Z</time>
      </trkpt>
      <trkpt lat="45.0574" lon="0.44436">
        <ele>148.5</ele>
        <time>2022-10-09T08:06:06Z</time>
      </trkpt>
      <trkpt lat="45.0575" lon="0.44406">
        <ele>147.2</ele>
        <time>2022-10-09T08:06:10Z</time>
      </trkpt>
      <trkpt lat="45.05762" lon="0.44374">
        <ele>145.8</ele>
        <time>2022-10-09T08:06:14Z</time>
      </trkpt>
      <trkpt lat="45.05766" lon="0.44365">
        <ele>145.5</ele>
        <time>2022-10-09T08:06:15Z</time>
      </trkpt>
      <trkpt lat="45.05769" lon="0.44357">
        <ele>145.2</ele>
        <time>2022-10-09T08:06:16Z</time>
      </trkpt>
      <trkpt lat="45.0578" lon="0.44332">
        <ele>144.6</ele>
        <time>2022-10-09T08:06:19Z</time>
      </trkpt>
      <trkpt lat="45.05784" lon="0.44325">
        <ele>144.4</ele>
        <time>2022-10-09T08:06:20Z</time>
      </trkpt>
      <trkpt lat="45.05795" lon="0.44303">
        <ele>143.8</ele>
        <time>2022-10-09T08:06:23Z</time>
      </trkpt>
      <trkpt lat="45.058" lon="0.44295">
        <ele>143.6</ele>
        <time>2022-10-09T08:06:24Z</time>
      </trkpt>
      <trkpt lat="45.05808" lon="0.44279">
        <ele>142.9</ele>
        <time>2022-10-09T08:06:26Z</time>
      </trkpt>
      <trkpt lat="45.05821" lon="0.44255">
        <ele>141.7</ele>
        <time>2022-10-09T08:06:29Z</time>
      </trkpt>
      <trkpt lat="45.05828" lon="0.44247">
        <ele>141.3</ele>
        <time>2022-10-09T08:06:31Z</time>
      </trkpt>
      <trkpt lat="45.05828" lon="0.44247">
        <ele>140.9</ele>
        <time>2022-10-09T08:06:32Z</time>
      </trkpt>
      <trkpt lat="45.05836" lon="0.44258">
        <ele>139.6</ele>
        <time>2022-10-09T08:06:34Z</time>
      </trkpt>
      <trkpt lat="45.0584" lon="0.44263">
        <ele>139.1</ele>
        <time>2022-10-09T08:06:35Z</time>
      </trkpt>
      <trkpt lat="45.0585" lon="0.44277">
        <ele>137.9</ele>
        <time>2022-10-09T08:06:37Z</time>
      </trkpt>
      <trkpt lat="45.0586" lon="0.44291">
        <ele>136.7</ele>
        <time>2022-10-09T08:06:39Z</time>
      </trkpt>
      <trkpt lat="45.05868" lon="0.44315">
        <ele>135.1</ele>
        <time>2022-10-09T08:06:41Z</time>
      </trkpt>
      <trkpt lat="45.0587" lon="0.44324">
        <ele>134.4</ele>
        <time>2022-10-09T08:06:42Z</time>
      </trkpt>
      <trkpt lat="45.05871" lon="0.44332">
        <ele>133.7</ele>
        <time>2022-10-09T08:06:43Z</time>
      </trkpt>
      <trkpt lat="45.05873" lon="0.44339">
        <ele>133</ele>
        <time>2022-10-09T08:06:44Z</time>
      </trkpt>
      <trkpt lat="45.05887" lon="0.44347">
        <ele>131</ele>
        <time>2022-10-09T08:06:46Z</time>
      </trkpt>
      <trkpt lat="45.05896" lon="0.44364">
        <ele>129.2</ele>
        <time>2022-10-09T08:06:48Z</time>
      </trkpt>
      <trkpt lat="45.059" lon="0.44376">
        <ele>128.2</ele>
        <time>2022-10-09T08:06:49Z</time>
      </trkpt>
      <trkpt lat="45.05904" lon="0.44398">
        <ele>126.8</ele>
        <time>2022-10-09T08:06:51Z</time>
      </trkpt>
      <trkpt lat="45.0591" lon="0.44415">
        <ele>125.9</ele>
        <time>2022-10-09T08:06:53Z</time>
      </trkpt>
      <trkpt lat="45.05923" lon="0.44424">
        <ele>125</ele>
        <time>2022-10-09T08:06:55Z</time>
      </trkpt>
      <trkpt lat="45.05931" lon="0.44422">
        <ele>124.5</ele>
        <time>2022-10-09T08:06:56Z</time>
      </trkpt>
      <trkpt lat="45.05935" lon="0.44418">
        <ele>124.3</ele>
        <time>2022-10-09T08:06:57Z</time>
      </trkpt>
      <trkpt lat="45.05944" lon="0.44409">
        <ele>124.1</ele>
        <time>2022-10-09T08:06:59Z</time>
      </trkpt>
      <trkpt lat="45.05955" lon="0.44394">
        <ele>124.6</ele>
        <time>2022-10-09T08:07:03Z</time>
      </trkpt>
      <trkpt lat="45.0596" lon="0.44387">
        <ele>124.9</ele>
        <time>2022-10-09T08:07:05Z</time>
      </trkpt>
      <trkpt lat="45.05962" lon="0.44384">
        <ele>125.1</ele>
        <time>2022-10-09T08:07:06Z</time>
      </trkpt>
      <trkpt lat="45.05964" lon="0.44381">
        <ele>125.3</ele>
        <time>2022-10-09T08:07:07Z</time>
      </trkpt>
      <trkpt lat="45.05968" lon="0.44376">
        <ele>125.6</ele>
        <time>2022-10-09T08:07:09Z</time>
      </trkpt>
      <trkpt lat="45.0597" lon="0.44372">
        <ele>125.8</ele>
        <time>2022-10-09T08:07:10Z</time>
      </trkpt>
      <trkpt lat="45.05973" lon="0.44369">
        <ele>126</ele>
        <time>2022-10-09T08:07:11Z</time>
      </trkpt>
      <trkpt lat="45.05978" lon="0.44361">
        <ele>126.5</ele>
        <time>2022-10-09T08:07:13Z</time>
      </trkpt>
      <trkpt lat="45.05995" lon="0.44344">
        <ele>127.6</ele>
        <time>2022-10-09T08:07:18Z</time>
      </trkpt>
      <trkpt lat="45.0602" lon="0.44329">
        <ele>129</ele>
        <time>2022-10-09T08:07:23Z</time>
      </trkpt>
      <trkpt lat="45.0603" lon="0.44327">
        <ele>129.7</ele>
        <time>2022-10-09T08:07:25Z</time>
      </trkpt>
      <trkpt lat="45.06037" lon="0.44326">
        <ele>130.2</ele>
        <time>2022-10-09T08:07:27Z</time>
      </trkpt>
      <trkpt lat="45.06047" lon="0.44324">
        <ele>131</ele>
        <time>2022-10-09T08:07:31Z</time>
      </trkpt>
      <trkpt lat="45.06052" lon="0.44323">
        <ele>131.5</ele>
        <time>2022-10-09T08:07:33Z</time>
      </trkpt>
      <trkpt lat="45.06057" lon="0.44322">
        <ele>131.9</ele>
        <time>2022-10-09T08:07:35Z</time>
      </trkpt>
      <trkpt lat="45.06067" lon="0.44321">
        <ele>132.8</ele>
        <time>2022-10-09T08:07:39Z</time>
      </trkpt>
      <trkpt lat="45.06079" lon="0.44318">
        <ele>133.9</ele>
        <time>2022-10-09T08:07:44Z</time>
      </trkpt>
      <trkpt lat="45.06087" lon="0.44317">
        <ele>134.7</ele>
        <time>2022-10-09T08:07:48Z</time>
      </trkpt>
      <trkpt lat="45.06101" lon="0.44314">
        <ele>136</ele>
        <time>2022-10-09T08:07:53Z</time>
      </trkpt>
      <trkpt lat="45.0611" lon="0.44314">
        <ele>136.8</ele>
        <time>2022-10-09T08:07:57Z</time>
      </trkpt>
      <trkpt lat="45.0611" lon="0.44314">
        <ele>136.8</ele>
        <time>2022-10-09T08:07:59Z</time>
      </trkpt>
      <trkpt lat="45.06124" lon="0.44314">
        <ele>137.7</ele>
        <time>2022-10-09T08:08:04Z</time>
      </trkpt>
      <trkpt lat="45.06125" lon="0.44314">
        <ele>137.8</ele>
        <time>2022-10-09T08:08:05Z</time>
      </trkpt>
      <trkpt lat="45.06133" lon="0.44314">
        <ele>138.2</ele>
        <time>2022-10-09T08:08:08Z</time>
      </trkpt>
      <trkpt lat="45.06148" lon="0.44313">
        <ele>138.7</ele>
        <time>2022-10-09T08:08:13Z</time>
      </trkpt>
      <trkpt lat="45.0617" lon="0.44311">
        <ele>139.8</ele>
        <time>2022-10-09T08:08:21Z</time>
      </trkpt>
      <trkpt lat="45.06182" lon="0.44307">
        <ele>140.4</ele>
        <time>2022-10-09T08:08:26Z</time>
      </trkpt>
      <trkpt lat="45.06194" lon="0.44301">
        <ele>140.8</ele>
        <time>2022-10-09T08:08:31Z</time>
      </trkpt>
      <trkpt lat="45.06206" lon="0.4429">
        <ele>141.1</ele>
        <time>2022-10-09T08:08:36Z</time>
      </trkpt>
      <trkpt lat="45.06217" lon="0.44283">
        <ele>141.3</ele>
        <time>2022-10-09T08:08:40Z</time>
      </trkpt>
      <trkpt lat="45.0623" lon="0.44286">
        <ele>141.9</ele>
        <time>2022-10-09T08:08:44Z</time>
      </trkpt>
      <trkpt lat="45.06238" lon="0.44296">
        <ele>142.7</ele>
        <time>2022-10-09T08:08:48Z</time>
      </trkpt>
      <trkpt lat="45.0625" lon="0.44302">
        <ele>143.6</ele>
        <time>2022-10-09T08:08:53Z</time>
      </trkpt>
      <trkpt lat="45.06256" lon="0.44296">
        <ele>144</ele>
        <time>2022-10-09T08:08:57Z</time>
      </trkpt>
      <trkpt lat="45.0626" lon="0.44292">
        <ele>144.2</ele>
        <time>2022-10-09T08:08:59Z</time>
      </trkpt>
      <trkpt lat="45.06265" lon="0.44288">
        <ele>144.3</ele>
        <time>2022-10-09T08:09:01Z</time>
      </trkpt>
      <trkpt lat="45.06267" lon="0.44285">
        <ele>144.4</ele>
        <time>2022-10-09T08:09:02Z</time>
      </trkpt>
      <trkpt lat="45.06271" lon="0.44278">
        <ele>144.3</ele>
        <time>2022-10-09T08:09:04Z</time>
      </trkpt>
      <trkpt lat="45.06277" lon="0.44269">
        <ele>143.2</ele>
        <time>2022-10-09T08:09:06Z</time>
      </trkpt>
      <trkpt lat="45.06281" lon="0.44263">
        <ele>142.4</ele>
        <time>2022-10-09T08:09:07Z</time>
      </trkpt>
      <trkpt lat="45.06297" lon="0.4424">
        <ele>139.3</ele>
        <time>2022-10-09T08:09:10Z</time>
      </trkpt>
      <trkpt lat="45.06303" lon="0.44231">
        <ele>138.1</ele>
        <time>2022-10-09T08:09:11Z</time>
      </trkpt>
      <trkpt lat="45.06316" lon="0.44213">
        <ele>135.5</ele>
        <time>2022-10-09T08:09:13Z</time>
      </trkpt>
      <trkpt lat="45.06347" lon="0.44173">
        <ele>129.2</ele>
        <time>2022-10-09T08:09:17Z</time>
      </trkpt>
      <trkpt lat="45.0638" lon="0.4413">
        <ele>122</ele>
        <time>2022-10-09T08:09:21Z</time>
      </trkpt>
      <trkpt lat="45.06388" lon="0.44114">
        <ele>119.6</ele>
        <time>2022-10-09T08:09:23Z</time>
      </trkpt>
      <trkpt lat="45.0639" lon="0.44105">
        <ele>118.5</ele>
        <time>2022-10-09T08:09:24Z</time>
      </trkpt>
      <trkpt lat="45.06391" lon="0.44096">
        <ele>117.4</ele>
        <time>2022-10-09T08:09:25Z</time>
      </trkpt>
      <trkpt lat="45.0639" lon="0.44078">
        <ele>114.6</ele>
        <time>2022-10-09T08:09:27Z</time>
      </trkpt>
      <trkpt lat="45.06379" lon="0.4403">
        <ele>107.2</ele>
        <time>2022-10-09T08:09:31Z</time>
      </trkpt>
      <trkpt lat="45.0636" lon="0.43956">
        <ele>99.4</ele>
        <time>2022-10-09T08:09:37Z</time>
      </trkpt>
      <trkpt lat="45.06355" lon="0.43936">
        <ele>99.2</ele>
        <time>2022-10-09T08:09:39Z</time>
      </trkpt>
      <trkpt lat="45.06354" lon="0.4393">
        <ele>99.2</ele>
        <time>2022-10-09T08:09:40Z</time>
      </trkpt>
      <trkpt lat="45.06352" lon="0.43924">
        <ele>99.4</ele>
        <time>2022-10-09T08:09:41Z</time>
      </trkpt>
      <trkpt lat="45.06352" lon="0.43924">
        <ele>99.4</ele>
        <time>2022-10-09T08:09:42Z</time>
      </trkpt>
      <trkpt lat="45.06338" lon="0.43929">
        <ele>100.1</ele>
        <time>2022-10-09T08:09:47Z</time>
      </trkpt>
      <trkpt lat="45.06328" lon="0.43933">
        <ele>100.5</ele>
        <time>2022-10-09T08:09:51Z</time>
      </trkpt>
      <trkpt lat="45.06328" lon="0.43933">
        <ele>100.5</ele>
        <time>2022-10-09T08:09:52Z</time>
      </trkpt>
      <trkpt lat="45.06317" lon="0.43931">
        <ele>101.4</ele>
        <time>2022-10-09T08:09:54Z</time>
      </trkpt>
      <trkpt lat="45.06315" lon="0.4393">
        <ele>101.5</ele>
        <time>2022-10-09T08:09:55Z</time>
      </trkpt>
      <trkpt lat="45.0631" lon="0.43929">
        <ele>101.9</ele>
        <time>2022-10-09T08:09:57Z</time>
      </trkpt>
      <trkpt lat="45.06307" lon="0.43929">
        <ele>102.3</ele>
        <time>2022-10-09T08:10:01Z</time>
      </trkpt>
      <trkpt lat="45.06298" lon="0.43928">
        <ele>103.2</ele>
        <time>2022-10-09T08:10:05Z</time>
      </trkpt>
      <trkpt lat="45.06295" lon="0.43928">
        <ele>103.6</ele>
        <time>2022-10-09T08:10:07Z</time>
      </trkpt>
      <trkpt lat="45.06293" lon="0.43928">
        <ele>103.8</ele>
        <time>2022-10-09T08:10:08Z</time>
      </trkpt>
      <trkpt lat="45.06285" lon="0.43928">
        <ele>105</ele>
        <time>2022-10-09T08:10:13Z</time>
      </trkpt>
      <trkpt lat="45.06276" lon="0.43929">
        <ele>106.3</ele>
        <time>2022-10-09T08:10:19Z</time>
      </trkpt>
      <trkpt lat="45.06275" lon="0.43929">
        <ele>106.5</ele>
        <time>2022-10-09T08:10:20Z</time>
      </trkpt>
      <trkpt lat="45.06271" lon="0.43929">
        <ele>107.2</ele>
        <time>2022-10-09T08:10:23Z</time>
      </trkpt>
      <trkpt lat="45.06268" lon="0.43929">
        <ele>107.8</ele>
        <time>2022-10-09T08:10:25Z</time>
      </trkpt>
      <trkpt lat="45.06261" lon="0.4393">
        <ele>108.9</ele>
        <time>2022-10-09T08:10:30Z</time>
      </trkpt>
      <trkpt lat="45.06256" lon="0.4393">
        <ele>110</ele>
        <time>2022-10-09T08:10:35Z</time>
      </trkpt>
      <trkpt lat="45.06247" lon="0.43932">
        <ele>111.6</ele>
        <time>2022-10-09T08:10:41Z</time>
      </trkpt>
      <trkpt lat="45.06244" lon="0.43932">
        <ele>112.2</ele>
        <time>2022-10-09T08:10:43Z</time>
      </trkpt>
      <trkpt lat="45.06241" lon="0.43933">
        <ele>112.5</ele>
        <time>2022-10-09T08:10:44Z</time>
      </trkpt>
      <trkpt lat="45.06232" lon="0.43935">
        <ele>113.9</ele>
        <time>2022-10-09T08:10:50Z</time>
      </trkpt>
      <trkpt lat="45.0623" lon="0.43935">
        <ele>114.1</ele>
        <time>2022-10-09T08:10:53Z</time>
      </trkpt>
      <trkpt lat="45.06226" lon="0.43936">
        <ele>114.7</ele>
        <time>2022-10-09T08:10:55Z</time>
      </trkpt>
      <trkpt lat="45.06218" lon="0.43938">
        <ele>115.6</ele>
        <time>2022-10-09T08:10:58Z</time>
      </trkpt>
      <trkpt lat="45.0621" lon="0.43939">
        <ele>116.3</ele>
        <time>2022-10-09T08:11:03Z</time>
      </trkpt>
      <trkpt lat="45.06206" lon="0.4394">
        <ele>116.6</ele>
        <time>2022-10-09T08:11:06Z</time>
      </trkpt>
      <trkpt lat="45.06204" lon="0.4394">
        <ele>116.8</ele>
        <time>2022-10-09T08:11:07Z</time>
      </trkpt>
      <trkpt lat="45.06193" lon="0.43943">
        <ele>117.8</ele>
        <time>2022-10-09T08:11:13Z</time>
      </trkpt>
      <trkpt lat="45.06189" lon="0.43943">
        <ele>118.2</ele>
        <time>2022-10-09T08:11:15Z</time>
      </trkpt>
      <trkpt lat="45.06185" lon="0.43944">
        <ele>118.6</ele>
        <time>2022-10-09T08:11:17Z</time>
      </trkpt>
      <trkpt lat="45.06182" lon="0.43945">
        <ele>118.9</ele>
        <time>2022-10-09T08:11:20Z</time>
      </trkpt>
      <trkpt lat="45.06176" lon="0.43946">
        <ele>119.7</ele>
        <time>2022-10-09T08:11:24Z</time>
      </trkpt>
      <trkpt lat="45.06167" lon="0.43948">
        <ele>120.9</ele>
        <time>2022-10-09T08:11:29Z</time>
      </trkpt>
      <trkpt lat="45.06158" lon="0.4395">
        <ele>122.4</ele>
        <time>2022-10-09T08:11:35Z</time>
      </trkpt>
      <trkpt lat="45.06153" lon="0.43952">
        <ele>123.3</ele>
        <time>2022-10-09T08:11:40Z</time>
      </trkpt>
      <trkpt lat="45.06153" lon="0.43952">
        <ele>123.3</ele>
        <time>2022-10-09T08:11:41Z</time>
      </trkpt>
      <trkpt lat="45.06118" lon="0.43971">
        <ele>128.7</ele>
        <time>2022-10-09T08:12:05Z</time>
      </trkpt>
      <trkpt lat="45.06113" lon="0.43973">
        <ele>129.4</ele>
        <time>2022-10-09T08:12:07Z</time>
      </trkpt>
      <trkpt lat="45.06104" lon="0.43976">
        <ele>130.7</ele>
        <time>2022-10-09T08:12:12Z</time>
      </trkpt>
      <trkpt lat="45.06102" lon="0.43977">
        <ele>130.9</ele>
        <time>2022-10-09T08:12:13Z</time>
      </trkpt>
      <trkpt lat="45.06102" lon="0.43977">
        <ele>130.9</ele>
        <time>2022-10-09T08:12:15Z</time>
      </trkpt>
      <trkpt lat="45.06097" lon="0.43979">
        <ele>131.6</ele>
        <time>2022-10-09T08:12:18Z</time>
      </trkpt>
      <trkpt lat="45.06095" lon="0.4398">
        <ele>131.8</ele>
        <time>2022-10-09T08:12:19Z</time>
      </trkpt>
      <trkpt lat="45.06087" lon="0.43983">
        <ele>132.8</ele>
        <time>2022-10-09T08:12:25Z</time>
      </trkpt>
      <trkpt lat="45.06087" lon="0.43983">
        <ele>132.8</ele>
        <time>2022-10-09T08:12:27Z</time>
      </trkpt>
      <trkpt lat="45.06076" lon="0.43987">
        <ele>134.2</ele>
        <time>2022-10-09T08:12:33Z</time>
      </trkpt>
      <trkpt lat="45.06069" lon="0.4399">
        <ele>135.3</ele>
        <time>2022-10-09T08:12:39Z</time>
      </trkpt>
      <trkpt lat="45.06066" lon="0.43991">
        <ele>135.7</ele>
        <time>2022-10-09T08:12:41Z</time>
      </trkpt>
      <trkpt lat="45.06062" lon="0.43993">
        <ele>136.2</ele>
        <time>2022-10-09T08:12:44Z</time>
      </trkpt>
      <trkpt lat="45.06052" lon="0.43997">
        <ele>137.7</ele>
        <time>2022-10-09T08:12:49Z</time>
      </trkpt>
      <trkpt lat="45.06044" lon="0.44">
        <ele>138.7</ele>
        <time>2022-10-09T08:12:54Z</time>
      </trkpt>
      <trkpt lat="45.0604" lon="0.44001">
        <ele>139.3</ele>
        <time>2022-10-09T08:12:59Z</time>
      </trkpt>
      <trkpt lat="45.06035" lon="0.44003">
        <ele>140.1</ele>
        <time>2022-10-09T08:13:01Z</time>
      </trkpt>
      <trkpt lat="45.0603" lon="0.44005">
        <ele>140.8</ele>
        <time>2022-10-09T08:13:04Z</time>
      </trkpt>
      <trkpt lat="45.06026" lon="0.4401">
        <ele>141.1</ele>
        <time>2022-10-09T08:13:08Z</time>
      </trkpt>
      <trkpt lat="45.06019" lon="0.44018">
        <ele>141.6</ele>
        <time>2022-10-09T08:13:14Z</time>
      </trkpt>
      <trkpt lat="45.06013" lon="0.44024">
        <ele>141.9</ele>
        <time>2022-10-09T08:13:17Z</time>
      </trkpt>
      <trkpt lat="45.06008" lon="0.4403">
        <ele>142.1</ele>
        <time>2022-10-09T08:13:21Z</time>
      </trkpt>
      <trkpt lat="45.06001" lon="0.44038">
        <ele>142.5</ele>
        <time>2022-10-09T08:13:26Z</time>
      </trkpt>
      <trkpt lat="45.06" lon="0.4404">
        <ele>142.5</ele>
        <time>2022-10-09T08:13:27Z</time>
      </trkpt>
      <trkpt lat="45.05995" lon="0.44044">
        <ele>142.7</ele>
        <time>2022-10-09T08:13:30Z</time>
      </trkpt>
      <trkpt lat="45.05987" lon="0.44051">
        <ele>143</ele>
        <time>2022-10-09T08:13:34Z</time>
      </trkpt>
      <trkpt lat="45.05974" lon="0.44062">
        <ele>143.5</ele>
        <time>2022-10-09T08:13:40Z</time>
      </trkpt>
      <trkpt lat="45.0597" lon="0.44065">
        <ele>143.7</ele>
        <time>2022-10-09T08:13:42Z</time>
      </trkpt>
      <trkpt lat="45.05966" lon="0.44068">
        <ele>143.8</ele>
        <time>2022-10-09T08:13:44Z</time>
      </trkpt>
      <trkpt lat="45.05956" lon="0.44076">
        <ele>144.2</ele>
        <time>2022-10-09T08:13:48Z</time>
      </trkpt>
      <trkpt lat="45.05946" lon="0.44083">
        <ele>144.5</ele>
        <time>2022-10-09T08:13:52Z</time>
      </trkpt>
      <trkpt lat="45.05944" lon="0.44084">
        <ele>144.6</ele>
        <time>2022-10-09T08:13:53Z</time>
      </trkpt>
      <trkpt lat="45.0594" lon="0.44088">
        <ele>144.7</ele>
        <time>2022-10-09T08:13:55Z</time>
      </trkpt>
      <trkpt lat="45.05927" lon="0.44097">
        <ele>145</ele>
        <time>2022-10-09T08:14:00Z</time>
      </trkpt>
      <trkpt lat="45.05913" lon="0.44109">
        <ele>145.4</ele>
        <time>2022-10-09T08:14:05Z</time>
      </trkpt>
      <trkpt lat="45.05904" lon="0.44117">
        <ele>145.7</ele>
        <time>2022-10-09T08:14:09Z</time>
      </trkpt>
      <trkpt lat="45.05898" lon="0.44122">
        <ele>145.9</ele>
        <time>2022-10-09T08:14:11Z</time>
      </trkpt>
      <trkpt lat="45.05892" lon="0.44126">
        <ele>146</ele>
        <time>2022-10-09T08:14:13Z</time>
      </trkpt>
      <trkpt lat="45.05881" lon="0.44136">
        <ele>146.1</ele>
        <time>2022-10-09T08:14:17Z</time>
      </trkpt>
      <trkpt lat="45.05879" lon="0.44138">
        <ele>146.1</ele>
        <time>2022-10-09T08:14:18Z</time>
      </trkpt>
      <trkpt lat="45.05872" lon="0.44144">
        <ele>146.1</ele>
        <time>2022-10-09T08:14:20Z</time>
      </trkpt>
      <trkpt lat="45.05857" lon="0.44152">
        <ele>146</ele>
        <time>2022-10-09T08:14:24Z</time>
      </trkpt>
      <trkpt lat="45.05853" lon="0.44154">
        <ele>145.9</ele>
        <time>2022-10-09T08:14:25Z</time>
      </trkpt>
      <trkpt lat="45.05844" lon="0.44159">
        <ele>145.7</ele>
        <time>2022-10-09T08:14:27Z</time>
      </trkpt>
      <trkpt lat="45.05832" lon="0.44164">
        <ele>145.3</ele>
        <time>2022-10-09T08:14:31Z</time>
      </trkpt>
      <trkpt lat="45.05816" lon="0.44173">
        <ele>145.3</ele>
        <time>2022-10-09T08:14:35Z</time>
      </trkpt>
      <trkpt lat="45.05806" lon="0.44175">
        <ele>145.4</ele>
        <time>2022-10-09T08:14:39Z</time>
      </trkpt>
      <trkpt lat="45.05801" lon="0.44177">
        <ele>145.5</ele>
        <time>2022-10-09T08:14:42Z</time>
      </trkpt>
      <trkpt lat="45.05796" lon="0.44173">
        <ele>145.7</ele>
        <time>2022-10-09T08:14:43Z</time>
      </trkpt>
      <trkpt lat="45.05783" lon="0.44158">
        <ele>146.1</ele>
        <time>2022-10-09T08:14:48Z</time>
      </trkpt>
      <trkpt lat="45.05775" lon="0.44146">
        <ele>146.7</ele>
        <time>2022-10-09T08:14:52Z</time>
      </trkpt>
      <trkpt lat="45.05774" lon="0.44144">
        <ele>146.9</ele>
        <time>2022-10-09T08:14:53Z</time>
      </trkpt>
      <trkpt lat="45.0577" lon="0.44132">
        <ele>147.6</ele>
        <time>2022-10-09T08:14:56Z</time>
      </trkpt>
      <trkpt lat="45.05771" lon="0.4412">
        <ele>148.3</ele>
        <time>2022-10-09T08:15:00Z</time>
      </trkpt>
      <trkpt lat="45.05772" lon="0.44117">
        <ele>148.5</ele>
        <time>2022-10-09T08:15:01Z</time>
      </trkpt>
      <trkpt lat="45.05765" lon="0.44102">
        <ele>149.6</ele>
        <time>2022-10-09T08:15:06Z</time>
      </trkpt>
      <trkpt lat="45.05762" lon="0.44098">
        <ele>149.9</ele>
        <time>2022-10-09T08:15:08Z</time>
      </trkpt>
      <trkpt lat="45.05758" lon="0.44094">
        <ele>150.3</ele>
        <time>2022-10-09T08:15:10Z</time>
      </trkpt>
      <trkpt lat="45.0576" lon="0.44089">
        <ele>150.6</ele>
        <time>2022-10-09T08:15:12Z</time>
      </trkpt>
      <trkpt lat="45.05763" lon="0.44088">
        <ele>150.8</ele>
        <time>2022-10-09T08:15:14Z</time>
      </trkpt>
      <trkpt lat="45.05759" lon="0.44084">
        <ele>151.1</ele>
        <time>2022-10-09T08:15:15Z</time>
      </trkpt>
      <trkpt lat="45.05749" lon="0.44076">
        <ele>151.7</ele>
        <time>2022-10-09T08:15:18Z</time>
      </trkpt>
      <trkpt lat="45.05742" lon="0.44065">
        <ele>152.2</ele>
        <time>2022-10-09T08:15:22Z</time>
      </trkpt>
      <trkpt lat="45.05741" lon="0.44062">
        <ele>152.3</ele>
        <time>2022-10-09T08:15:23Z</time>
      </trkpt>
      <trkpt lat="45.05735" lon="0.44058">
        <ele>152.5</ele>
        <time>2022-10-09T08:15:25Z</time>
      </trkpt>
      <trkpt lat="45.05721" lon="0.44053">
        <ele>152.9</ele>
        <time>2022-10-09T08:15:29Z</time>
      </trkpt>
      <trkpt lat="45.05709" lon="0.44051">
        <ele>153</ele>
        <time>2022-10-09T08:15:32Z</time>
      </trkpt>
      <trkpt lat="45.05702" lon="0.44049">
        <ele>153.1</ele>
        <time>2022-10-09T08:15:34Z</time>
      </trkpt>
      <trkpt lat="45.05696" lon="0.44038">
        <ele>152.8</ele>
        <time>2022-10-09T08:15:36Z</time>
      </trkpt>
      <trkpt lat="45.05702" lon="0.44031">
        <ele>152.5</ele>
        <time>2022-10-09T08:15:39Z</time>
      </trkpt>
      <trkpt lat="45.05705" lon="0.44028">
        <ele>152.4</ele>
        <time>2022-10-09T08:15:40Z</time>
      </trkpt>
      <trkpt lat="45.0571" lon="0.44022">
        <ele>152.2</ele>
        <time>2022-10-09T08:15:42Z</time>
      </trkpt>
      <trkpt lat="45.05713" lon="0.44017">
        <ele>152</ele>
        <time>2022-10-09T08:15:43Z</time>
      </trkpt>
      <trkpt lat="45.05719" lon="0.44008">
        <ele>151.6</ele>
        <time>2022-10-09T08:15:45Z</time>
      </trkpt>
      <trkpt lat="45.05736" lon="0.43993">
        <ele>150.5</ele>
        <time>2022-10-09T08:15:50Z</time>
      </trkpt>
      <trkpt lat="45.0575" lon="0.43981">
        <ele>149.6</ele>
        <time>2022-10-09T08:15:53Z</time>
      </trkpt>
      <trkpt lat="45.05755" lon="0.43977">
        <ele>149.3</ele>
        <time>2022-10-09T08:15:54Z</time>
      </trkpt>
      <trkpt lat="45.0576" lon="0.43973">
        <ele>149.1</ele>
        <time>2022-10-09T08:15:55Z</time>
      </trkpt>
      <trkpt lat="45.05775" lon="0.43961">
        <ele>148.4</ele>
        <time>2022-10-09T08:15:58Z</time>
      </trkpt>
      <trkpt lat="45.05806" lon="0.43938">
        <ele>147.6</ele>
        <time>2022-10-09T08:16:03Z</time>
      </trkpt>
      <trkpt lat="45.05833" lon="0.43919">
        <ele>147.1</ele>
        <time>2022-10-09T08:16:07Z</time>
      </trkpt>
      <trkpt lat="45.0584" lon="0.43914">
        <ele>146.9</ele>
        <time>2022-10-09T08:16:08Z</time>
      </trkpt>
      <trkpt lat="45.05861" lon="0.43899">
        <ele>146.9</ele>
        <time>2022-10-09T08:16:11Z</time>
      </trkpt>
      <trkpt lat="45.05868" lon="0.43895">
        <ele>147</ele>
        <time>2022-10-09T08:16:12Z</time>
      </trkpt>
      <trkpt lat="45.05885" lon="0.43885">
        <ele>146.8</ele>
        <time>2022-10-09T08:16:15Z</time>
      </trkpt>
      <trkpt lat="45.05897" lon="0.43877">
        <ele>146.5</ele>
        <time>2022-10-09T08:16:17Z</time>
      </trkpt>
      <trkpt lat="45.05917" lon="0.43864">
        <ele>145.8</ele>
        <time>2022-10-09T08:16:20Z</time>
      </trkpt>
      <trkpt lat="45.05952" lon="0.43837">
        <ele>143.2</ele>
        <time>2022-10-09T08:16:25Z</time>
      </trkpt>
      <trkpt lat="45.05984" lon="0.43814">
        <ele>140.8</ele>
        <time>2022-10-09T08:16:29Z</time>
      </trkpt>
      <trkpt lat="45.05993" lon="0.43808">
        <ele>140.1</ele>
        <time>2022-10-09T08:16:31Z</time>
      </trkpt>
      <trkpt lat="45.05996" lon="0.43806">
        <ele>140</ele>
        <time>2022-10-09T08:16:32Z</time>
      </trkpt>
      <trkpt lat="45.06001" lon="0.43807">
        <ele>139.7</ele>
        <time>2022-10-09T08:16:34Z</time>
      </trkpt>
      <trkpt lat="45.06004" lon="0.43817">
        <ele>139.9</ele>
        <time>2022-10-09T08:16:37Z</time>
      </trkpt>
      <trkpt lat="45.0601" lon="0.43836">
        <ele>140.1</ele>
        <time>2022-10-09T08:16:41Z</time>
      </trkpt>
      <trkpt lat="45.06013" lon="0.43843">
        <ele>140.2</ele>
        <time>2022-10-09T08:16:42Z</time>
      </trkpt>
      <trkpt lat="45.06022" lon="0.4387">
        <ele>141.3</ele>
        <time>2022-10-09T08:16:47Z</time>
      </trkpt>
      <trkpt lat="45.06028" lon="0.43889">
        <ele>142.3</ele>
        <time>2022-10-09T08:16:51Z</time>
      </trkpt>
      <trkpt lat="45.06037" lon="0.43916">
        <ele>143.2</ele>
        <time>2022-10-09T08:16:56Z</time>
      </trkpt>
      <trkpt lat="45.06039" lon="0.43921">
        <ele>143.3</ele>
        <time>2022-10-09T08:16:57Z</time>
      </trkpt>
      <trkpt lat="45.06041" lon="0.43927">
        <ele>143.3</ele>
        <time>2022-10-09T08:16:58Z</time>
      </trkpt>
      <trkpt lat="45.06048" lon="0.43944">
        <ele>142.9</ele>
        <time>2022-10-09T08:17:01Z</time>
      </trkpt>
      <trkpt lat="45.06052" lon="0.43953">
        <ele>142.4</ele>
        <time>2022-10-09T08:17:05Z</time>
      </trkpt>
      <trkpt lat="45.06062" lon="0.43949">
        <ele>142</ele>
        <time>2022-10-09T08:17:08Z</time>
      </trkpt>
      <trkpt lat="45.06071" lon="0.43931">
        <ele>142</ele>
        <time>2022-10-09T08:17:12Z</time>
      </trkpt>
      <trkpt lat="45.06087" lon="0.43905">
        <ele>141.9</ele>
        <time>2022-10-09T08:17:18Z</time>
      </trkpt>
      <trkpt lat="45.0609" lon="0.43901">
        <ele>141.9</ele>
        <time>2022-10-09T08:17:19Z</time>
      </trkpt>
      <trkpt lat="45.06095" lon="0.4389">
        <ele>141.7</ele>
        <time>2022-10-09T08:17:21Z</time>
      </trkpt>
      <trkpt lat="45.06098" lon="0.43881">
        <ele>141.6</ele>
        <time>2022-10-09T08:17:23Z</time>
      </trkpt>
      <trkpt lat="45.06097" lon="0.43874">
        <ele>141.5</ele>
        <time>2022-10-09T08:17:24Z</time>
      </trkpt>
      <trkpt lat="45.06095" lon="0.4387">
        <ele>141.5</ele>
        <time>2022-10-09T08:17:25Z</time>
      </trkpt>
      <trkpt lat="45.06093" lon="0.43865">
        <ele>141.4</ele>
        <time>2022-10-09T08:17:26Z</time>
      </trkpt>
      <trkpt lat="45.06089" lon="0.43854">
        <ele>141.4</ele>
        <time>2022-10-09T08:17:30Z</time>
      </trkpt>
      <trkpt lat="45.06087" lon="0.43848">
        <ele>141.3</ele>
        <time>2022-10-09T08:17:33Z</time>
      </trkpt>
      <trkpt lat="45.06086" lon="0.43844">
        <ele>141.3</ele>
        <time>2022-10-09T08:17:34Z</time>
      </trkpt>
      <trkpt lat="45.06084" lon="0.43839">
        <ele>141.2</ele>
        <time>2022-10-09T08:17:35Z</time>
      </trkpt>
      <trkpt lat="45.06081" lon="0.43826">
        <ele>140.7</ele>
        <time>2022-10-09T08:17:37Z</time>
      </trkpt>
      <trkpt lat="45.06079" lon="0.43811">
        <ele>140</ele>
        <time>2022-10-09T08:17:40Z</time>
      </trkpt>
      <trkpt lat="45.06079" lon="0.43802">
        <ele>139.4</ele>
        <time>2022-10-09T08:17:42Z</time>
      </trkpt>
      <trkpt lat="45.06079" lon="0.43801">
        <ele>139.3</ele>
        <time>2022-10-09T08:17:43Z</time>
      </trkpt>
      <trkpt lat="45.06078" lon="0.43799">
        <ele>139.1</ele>
        <time>2022-10-09T08:17:45Z</time>
      </trkpt>
      <trkpt lat="45.06078" lon="0.43797">
        <ele>139</ele>
        <time>2022-10-09T08:17:55Z</time>
      </trkpt>
      <trkpt lat="45.06077" lon="0.43795">
        <ele>138.8</ele>
        <time>2022-10-09T08:17:57Z</time>
      </trkpt>
      <trkpt lat="45.06077" lon="0.43793">
        <ele>138.6</ele>
        <time>2022-10-09T08:17:58Z</time>
      </trkpt>
      <trkpt lat="45.06077" lon="0.43785">
        <ele>137.9</ele>
        <time>2022-10-09T08:17:59Z</time>
      </trkpt>
      <trkpt lat="45.06077" lon="0.43785">
        <ele>137.8</ele>
        <time>2022-10-09T08:18:00Z</time>
      </trkpt>
      <trkpt lat="45.06077" lon="0.43786">
        <ele>137.8</ele>
        <time>2022-10-09T08:18:02Z</time>
      </trkpt>
      <trkpt lat="45.06077" lon="0.43782">
        <ele>137.4</ele>
        <time>2022-10-09T08:18:03Z</time>
      </trkpt>
      <trkpt lat="45.06077" lon="0.43782">
        <ele>137.4</ele>
        <time>2022-10-09T08:18:04Z</time>
      </trkpt>
      <trkpt lat="45.06077" lon="0.43781">
        <ele>137.3</ele>
        <time>2022-10-09T08:18:05Z</time>
      </trkpt>
      <trkpt lat="45.06077" lon="0.43781">
        <ele>137.3</ele>
        <time>2022-10-09T08:18:07Z</time>
      </trkpt>
      <trkpt lat="45.06079" lon="0.43775">
        <ele>136.7</ele>
        <time>2022-10-09T08:18:13Z</time>
      </trkpt>
      <trkpt lat="45.06079" lon="0.43774">
        <ele>136.5</ele>
        <time>2022-10-09T08:18:14Z</time>
      </trkpt>
      <trkpt lat="45.06083" lon="0.4377">
        <ele>135.9</ele>
        <time>2022-10-09T08:18:17Z</time>
      </trkpt>
      <trkpt lat="45.06085" lon="0.43768">
        <ele>135.6</ele>
        <time>2022-10-09T08:18:18Z</time>
      </trkpt>
      <trkpt lat="45.06079" lon="0.43774">
        <ele>134.7</ele>
        <time>2022-10-09T08:18:20Z</time>
      </trkpt>
      <trkpt lat="45.06087" lon="0.43752">
        <ele>133.1</ele>
        <time>2022-10-09T08:18:24Z</time>
      </trkpt>
      <trkpt lat="45.06089" lon="0.43751">
        <ele>133</ele>
        <time>2022-10-09T08:18:25Z</time>
      </trkpt>
      <trkpt lat="45.06095" lon="0.43752">
        <ele>132.4</ele>
        <time>2022-10-09T08:18:27Z</time>
      </trkpt>
      <trkpt lat="45.061" lon="0.4376">
        <ele>131.8</ele>
        <time>2022-10-09T08:18:29Z</time>
      </trkpt>
      <trkpt lat="45.06105" lon="0.43758">
        <ele>131.5</ele>
        <time>2022-10-09T08:18:30Z</time>
      </trkpt>
      <trkpt lat="45.06108" lon="0.43757">
        <ele>131.3</ele>
        <time>2022-10-09T08:18:31Z</time>
      </trkpt>
      <trkpt lat="45.06114" lon="0.43753">
        <ele>130.8</ele>
        <time>2022-10-09T08:18:32Z</time>
      </trkpt>
      <trkpt lat="45.0612" lon="0.43749">
        <ele>130.3</ele>
        <time>2022-10-09T08:18:33Z</time>
      </trkpt>
      <trkpt lat="45.06124" lon="0.43744">
        <ele>129.9</ele>
        <time>2022-10-09T08:18:34Z</time>
      </trkpt>
      <trkpt lat="45.06128" lon="0.43735">
        <ele>129</ele>
        <time>2022-10-09T08:18:37Z</time>
      </trkpt>
      <trkpt lat="45.06132" lon="0.4373">
        <ele>128.3</ele>
        <time>2022-10-09T08:18:40Z</time>
      </trkpt>
      <trkpt lat="45.06141" lon="0.4372">
        <ele>126.6</ele>
        <time>2022-10-09T08:18:44Z</time>
      </trkpt>
      <trkpt lat="45.06141" lon="0.4372">
        <ele>126.6</ele>
        <time>2022-10-09T08:18:45Z</time>
      </trkpt>
      <trkpt lat="45.06142" lon="0.437">
        <ele>124.4</ele>
        <time>2022-10-09T08:18:47Z</time>
      </trkpt>
      <trkpt lat="45.0615" lon="0.43691">
        <ele>122.6</ele>
        <time>2022-10-09T08:18:51Z</time>
      </trkpt>
      <trkpt lat="45.06153" lon="0.43686">
        <ele>121.9</ele>
        <time>2022-10-09T08:18:53Z</time>
      </trkpt>
      <trkpt lat="45.06156" lon="0.43682">
        <ele>121.2</ele>
        <time>2022-10-09T08:18:54Z</time>
      </trkpt>
      <trkpt lat="45.0616" lon="0.43678">
        <ele>120.5</ele>
        <time>2022-10-09T08:18:56Z</time>
      </trkpt>
      <trkpt lat="45.06164" lon="0.4368">
        <ele>119.8</ele>
        <time>2022-10-09T08:18:57Z</time>
      </trkpt>
      <trkpt lat="45.06175" lon="0.43686">
        <ele>118</ele>
        <time>2022-10-09T08:19:00Z</time>
      </trkpt>
      <trkpt lat="45.06197" lon="0.43677">
        <ele>116.5</ele>
        <time>2022-10-09T08:19:03Z</time>
      </trkpt>
      <trkpt lat="45.06213" lon="0.43685">
        <ele>117.2</ele>
        <time>2022-10-09T08:19:08Z</time>
      </trkpt>
      <trkpt lat="45.06222" lon="0.43688">
        <ele>117.7</ele>
        <time>2022-10-09T08:19:12Z</time>
      </trkpt>
      <trkpt lat="45.06224" lon="0.43688">
        <ele>117.7</ele>
        <time>2022-10-09T08:19:14Z</time>
      </trkpt>
      <trkpt lat="45.06234" lon="0.43683">
        <ele>118.1</ele>
        <time>2022-10-09T08:19:17Z</time>
      </trkpt>
      <trkpt lat="45.06235" lon="0.43681">
        <ele>118.1</ele>
        <time>2022-10-09T08:19:18Z</time>
      </trkpt>
      <trkpt lat="45.06241" lon="0.43677">
        <ele>118.3</ele>
        <time>2022-10-09T08:19:20Z</time>
      </trkpt>
      <trkpt lat="45.06244" lon="0.43675">
        <ele>118.4</ele>
        <time>2022-10-09T08:19:21Z</time>
      </trkpt>
      <trkpt lat="45.06253" lon="0.43671">
        <ele>118.8</ele>
        <time>2022-10-09T08:19:25Z</time>
      </trkpt>
      <trkpt lat="45.06255" lon="0.4367">
        <ele>118.9</ele>
        <time>2022-10-09T08:19:26Z</time>
      </trkpt>
      <trkpt lat="45.06257" lon="0.43669">
        <ele>118.9</ele>
        <time>2022-10-09T08:19:27Z</time>
      </trkpt>
      <trkpt lat="45.06263" lon="0.43667">
        <ele>119.1</ele>
        <time>2022-10-09T08:19:29Z</time>
      </trkpt>
      <trkpt lat="45.06266" lon="0.43665">
        <ele>119.2</ele>
        <time>2022-10-09T08:19:30Z</time>
      </trkpt>
      <trkpt lat="45.06271" lon="0.43663">
        <ele>119.5</ele>
        <time>2022-10-09T08:19:32Z</time>
      </trkpt>
      <trkpt lat="45.06272" lon="0.43662">
        <ele>119.5</ele>
        <time>2022-10-09T08:19:33Z</time>
      </trkpt>
      <trkpt lat="45.0628" lon="0.43658">
        <ele>119.8</ele>
        <time>2022-10-09T08:19:38Z</time>
      </trkpt>
      <trkpt lat="45.06291" lon="0.43653">
        <ele>120.3</ele>
        <time>2022-10-09T08:19:41Z</time>
      </trkpt>
      <trkpt lat="45.06301" lon="0.43646">
        <ele>120.9</ele>
        <time>2022-10-09T08:19:45Z</time>
      </trkpt>
      <trkpt lat="45.06306" lon="0.43643">
        <ele>121.2</ele>
        <time>2022-10-09T08:19:48Z</time>
      </trkpt>
      <trkpt lat="45.06314" lon="0.43637">
        <ele>121.7</ele>
        <time>2022-10-09T08:19:53Z</time>
      </trkpt>
      <trkpt lat="45.06317" lon="0.43635">
        <ele>121.9</ele>
        <time>2022-10-09T08:19:56Z</time>
      </trkpt>
      <trkpt lat="45.06343" lon="0.43616">
        <ele>124.1</ele>
        <time>2022-10-09T08:20:22Z</time>
      </trkpt>
      <trkpt lat="45.06343" lon="0.43616">
        <ele>124.1</ele>
        <time>2022-10-09T08:20:24Z</time>
      </trkpt>
      <trkpt lat="45.06361" lon="0.4361">
        <ele>126.3</ele>
        <time>2022-10-09T08:20:50Z</time>
      </trkpt>
      <trkpt lat="45.06361" lon="0.43612">
        <ele>126.5</ele>
        <time>2022-10-09T08:20:51Z</time>
      </trkpt>
      <trkpt lat="45.06362" lon="0.43615">
        <ele>126.8</ele>
        <time>2022-10-09T08:20:53Z</time>
      </trkpt>
      <trkpt lat="45.06369" lon="0.43617">
        <ele>127.8</ele>
        <time>2022-10-09T08:20:55Z</time>
      </trkpt>
      <trkpt lat="45.06361" lon="0.43619">
        <ele>128.5</ele>
        <time>2022-10-09T08:20:59Z</time>
      </trkpt>
      <trkpt lat="45.06358" lon="0.43624">
        <ele>128.8</ele>
        <time>2022-10-09T08:21:00Z</time>
      </trkpt>
      <trkpt lat="45.06353" lon="0.43631">
        <ele>129.1</ele>
        <time>2022-10-09T08:21:03Z</time>
      </trkpt>
      <trkpt lat="45.06349" lon="0.43636">
        <ele>129.1</ele>
        <time>2022-10-09T08:21:05Z</time>
      </trkpt>
      <trkpt lat="45.06344" lon="0.43641">
        <ele>128.9</ele>
        <time>2022-10-09T08:21:07Z</time>
      </trkpt>
      <trkpt lat="45.0634" lon="0.43645">
        <ele>128.7</ele>
        <time>2022-10-09T08:21:09Z</time>
      </trkpt>
      <trkpt lat="45.06332" lon="0.43649">
        <ele>128.2</ele>
        <time>2022-10-09T08:21:12Z</time>
      </trkpt>
      <trkpt lat="45.06328" lon="0.43651">
        <ele>127.9</ele>
        <time>2022-10-09T08:21:13Z</time>
      </trkpt>
      <trkpt lat="45.06319" lon="0.43655">
        <ele>127.1</ele>
        <time>2022-10-09T08:21:15Z</time>
      </trkpt>
      <trkpt lat="45.06316" lon="0.43655">
        <ele>126.8</ele>
        <time>2022-10-09T08:21:16Z</time>
      </trkpt>
      <trkpt lat="45.06311" lon="0.43658">
        <ele>126.4</ele>
        <time>2022-10-09T08:21:18Z</time>
      </trkpt>
      <trkpt lat="45.06306" lon="0.43662">
        <ele>126</ele>
        <time>2022-10-09T08:21:21Z</time>
      </trkpt>
      <trkpt lat="45.06302" lon="0.43664">
        <ele>125.6</ele>
        <time>2022-10-09T08:21:23Z</time>
      </trkpt>
      <trkpt lat="45.06299" lon="0.43666">
        <ele>125.3</ele>
        <time>2022-10-09T08:21:24Z</time>
      </trkpt>
      <trkpt lat="45.06291" lon="0.4367">
        <ele>124.7</ele>
        <time>2022-10-09T08:21:26Z</time>
      </trkpt>
      <trkpt lat="45.06288" lon="0.43671">
        <ele>124.5</ele>
        <time>2022-10-09T08:21:27Z</time>
      </trkpt>
      <trkpt lat="45.06285" lon="0.43673">
        <ele>124.4</ele>
        <time>2022-10-09T08:21:28Z</time>
      </trkpt>
      <trkpt lat="45.0628" lon="0.43674">
        <ele>124.2</ele>
        <time>2022-10-09T08:21:30Z</time>
      </trkpt>
      <trkpt lat="45.06274" lon="0.43675">
        <ele>124.3</ele>
        <time>2022-10-09T08:21:33Z</time>
      </trkpt>
      <trkpt lat="45.06272" lon="0.43679">
        <ele>124.4</ele>
        <time>2022-10-09T08:21:35Z</time>
      </trkpt>
      <trkpt lat="45.06272" lon="0.43679">
        <ele>124.4</ele>
        <time>2022-10-09T08:21:36Z</time>
      </trkpt>
      <trkpt lat="45.06272" lon="0.43679">
        <ele>124.4</ele>
        <time>2022-10-09T08:21:37Z</time>
      </trkpt>
      <trkpt lat="45.06274" lon="0.4368">
        <ele>124.5</ele>
        <time>2022-10-09T08:21:39Z</time>
      </trkpt>
      <trkpt lat="45.06274" lon="0.4368">
        <ele>124.5</ele>
        <time>2022-10-09T08:21:40Z</time>
      </trkpt>
      <trkpt lat="45.06277" lon="0.43681">
        <ele>124.7</ele>
        <time>2022-10-09T08:21:44Z</time>
      </trkpt>
      <trkpt lat="45.06278" lon="0.43692">
        <ele>125.4</ele>
        <time>2022-10-09T08:21:45Z</time>
      </trkpt>
      <trkpt lat="45.0628" lon="0.43692">
        <ele>125.7</ele>
        <time>2022-10-09T08:21:47Z</time>
      </trkpt>
      <trkpt lat="45.06282" lon="0.43691">
        <ele>125.8</ele>
        <time>2022-10-09T08:21:49Z</time>
      </trkpt>
      <trkpt lat="45.06283" lon="0.43682">
        <ele>126.3</ele>
        <time>2022-10-09T08:21:51Z</time>
      </trkpt>
      <trkpt lat="45.06278" lon="0.43693">
        <ele>126.5</ele>
        <time>2022-10-09T08:22:18Z</time>
      </trkpt>
      <trkpt lat="45.06266" lon="0.43697">
        <ele>126.3</ele>
        <time>2022-10-09T08:22:21Z</time>
      </trkpt>
      <trkpt lat="45.06259" lon="0.437">
        <ele>126.2</ele>
        <time>2022-10-09T08:22:25Z</time>
      </trkpt>
      <trkpt lat="45.06258" lon="0.43701">
        <ele>126.2</ele>
        <time>2022-10-09T08:22:26Z</time>
      </trkpt>
      <trkpt lat="45.06252" lon="0.43703">
        <ele>126</ele>
        <time>2022-10-09T08:22:28Z</time>
      </trkpt>
      <trkpt lat="45.06245" lon="0.43706">
        <ele>125.8</ele>
        <time>2022-10-09T08:22:30Z</time>
      </trkpt>
      <trkpt lat="45.06242" lon="0.43707">
        <ele>125.7</ele>
        <time>2022-10-09T08:22:31Z</time>
      </trkpt>
      <trkpt lat="45.06236" lon="0.4371">
        <ele>125.6</ele>
        <time>2022-10-09T08:22:34Z</time>
      </trkpt>
      <trkpt lat="45.06234" lon="0.43711">
        <ele>125.6</ele>
        <time>2022-10-09T08:22:35Z</time>
      </trkpt>
      <trkpt lat="45.06223" lon="0.43714">
        <ele>125.5</ele>
        <time>2022-10-09T08:22:39Z</time>
      </trkpt>
      <trkpt lat="45.06221" lon="0.43714">
        <ele>125.5</ele>
        <time>2022-10-09T08:22:42Z</time>
      </trkpt>
      <trkpt lat="45.06206" lon="0.43733">
        <ele>126.6</ele>
        <time>2022-10-09T08:23:08Z</time>
      </trkpt>
      <trkpt lat="45.06209" lon="0.43735">
        <ele>127.1</ele>
        <time>2022-10-09T08:23:11Z</time>
      </trkpt>
      <trkpt lat="45.06212" lon="0.4374">
        <ele>127.9</ele>
        <time>2022-10-09T08:23:12Z</time>
      </trkpt>
      <trkpt lat="45.06211" lon="0.43744">
        <ele>128.4</ele>
        <time>2022-10-09T08:23:15Z</time>
      </trkpt>
      <trkpt lat="45.06211" lon="0.43744">
        <ele>128.4</ele>
        <time>2022-10-09T08:23:17Z</time>
      </trkpt>
      <trkpt lat="45.0621" lon="0.43755">
        <ele>129.8</ele>
        <time>2022-10-09T08:23:23Z</time>
      </trkpt>
      <trkpt lat="45.0621" lon="0.43757">
        <ele>130.1</ele>
        <time>2022-10-09T08:23:24Z</time>
      </trkpt>
      <trkpt lat="45.0621" lon="0.43759">
        <ele>130.4</ele>
        <time>2022-10-09T08:23:25Z</time>
      </trkpt>
      <trkpt lat="45.0621" lon="0.43764">
        <ele>131</ele>
        <time>2022-10-09T08:23:28Z</time>
      </trkpt>
      <trkpt lat="45.0621" lon="0.4377">
        <ele>131.8</ele>
        <time>2022-10-09T08:23:33Z</time>
      </trkpt>
      <trkpt lat="45.06209" lon="0.43778">
        <ele>132.9</ele>
        <time>2022-10-09T08:23:38Z</time>
      </trkpt>
      <trkpt lat="45.06208" lon="0.43784">
        <ele>133.7</ele>
        <time>2022-10-09T08:23:44Z</time>
      </trkpt>
      <trkpt lat="45.06208" lon="0.43784">
        <ele>133.7</ele>
        <time>2022-10-09T08:23:48Z</time>
      </trkpt>
      <trkpt lat="45.0621" lon="0.43772">
        <ele>135.3</ele>
        <time>2022-10-09T08:23:51Z</time>
      </trkpt>
      <trkpt lat="45.06218" lon="0.43784">
        <ele>137.4</ele>
        <time>2022-10-09T08:23:55Z</time>
      </trkpt>
      <trkpt lat="45.06223" lon="0.43782">
        <ele>137.6</ele>
        <time>2022-10-09T08:23:59Z</time>
      </trkpt>
      <trkpt lat="45.06223" lon="0.43782">
        <ele>137.6</ele>
        <time>2022-10-09T08:24:00Z</time>
      </trkpt>
      <trkpt lat="45.06224" lon="0.43777">
        <ele>137.7</ele>
        <time>2022-10-09T08:24:02Z</time>
      </trkpt>
      <trkpt lat="45.06225" lon="0.43776">
        <ele>137.7</ele>
        <time>2022-10-09T08:24:04Z</time>
      </trkpt>
      <trkpt lat="45.06225" lon="0.43776">
        <ele>137.7</ele>
        <time>2022-10-09T08:24:06Z</time>
      </trkpt>
      <trkpt lat="45.06225" lon="0.43766">
        <ele>137.6</ele>
        <time>2022-10-09T08:24:08Z</time>
      </trkpt>
      <trkpt lat="45.06225" lon="0.43763">
        <ele>137.5</ele>
        <time>2022-10-09T08:24:10Z</time>
      </trkpt>
      <trkpt lat="45.06225" lon="0.4376">
        <ele>137.4</ele>
        <time>2022-10-09T08:24:13Z</time>
      </trkpt>
      <trkpt lat="45.06224" lon="0.43757">
        <ele>137.3</ele>
        <time>2022-10-09T08:24:15Z</time>
      </trkpt>
      <trkpt lat="45.06224" lon="0.43755">
        <ele>137.2</ele>
        <time>2022-10-09T08:24:16Z</time>
      </trkpt>
      <trkpt lat="45.06223" lon="0.43745">
        <ele>136.6</ele>
        <time>2022-10-09T08:24:19Z</time>
      </trkpt>
      <trkpt lat="45.06225" lon="0.43742">
        <ele>136.3</ele>
        <time>2022-10-09T08:24:21Z</time>
      </trkpt>
      <trkpt lat="45.06226" lon="0.43741">
        <ele>136.1</ele>
        <time>2022-10-09T08:24:22Z</time>
      </trkpt>
      <trkpt lat="45.06226" lon="0.43741">
        <ele>136.1</ele>
        <time>2022-10-09T08:24:24Z</time>
      </trkpt>
      <trkpt lat="45.06231" lon="0.43738">
        <ele>135.5</ele>
        <time>2022-10-09T08:24:27Z</time>
      </trkpt>
      <trkpt lat="45.06233" lon="0.43737">
        <ele>135.3</ele>
        <time>2022-10-09T08:24:28Z</time>
      </trkpt>
      <trkpt lat="45.06233" lon="0.43737">
        <ele>135.3</ele>
        <time>2022-10-09T08:24:30Z</time>
      </trkpt>
      <trkpt lat="45.06244" lon="0.43732">
        <ele>133.8</ele>
        <time>2022-10-09T08:24:37Z</time>
      </trkpt>
      <trkpt lat="45.06251" lon="0.43724">
        <ele>133</ele>
        <time>2022-10-09T08:24:40Z</time>
      </trkpt>
      <trkpt lat="45.06253" lon="0.4372">
        <ele>132.8</ele>
        <time>2022-10-09T08:24:41Z</time>
      </trkpt>
      <trkpt lat="45.06265" lon="0.43709">
        <ele>132.2</ele>
        <time>2022-10-09T08:24:45Z</time>
      </trkpt>
      <trkpt lat="45.06272" lon="0.43705">
        <ele>131.9</ele>
        <time>2022-10-09T08:24:48Z</time>
      </trkpt>
      <trkpt lat="45.06272" lon="0.43705">
        <ele>131.9</ele>
        <time>2022-10-09T08:24:50Z</time>
      </trkpt>
      <trkpt lat="45.06281" lon="0.43701">
        <ele>131.3</ele>
        <time>2022-10-09T08:24:53Z</time>
      </trkpt>
      <trkpt lat="45.06287" lon="0.4369">
        <ele>130.8</ele>
        <time>2022-10-09T08:24:57Z</time>
      </trkpt>
      <trkpt lat="45.06294" lon="0.43692">
        <ele>130.7</ele>
        <time>2022-10-09T08:25:00Z</time>
      </trkpt>
      <trkpt lat="45.06297" lon="0.43694">
        <ele>130.6</ele>
        <time>2022-10-09T08:25:04Z</time>
      </trkpt>
      <trkpt lat="45.063" lon="0.43695">
        <ele>130.7</ele>
        <time>2022-10-09T08:25:05Z</time>
      </trkpt>
      <trkpt lat="45.06302" lon="0.43696">
        <ele>130.7</ele>
        <time>2022-10-09T08:25:07Z</time>
      </trkpt>
      <trkpt lat="45.06302" lon="0.43696">
        <ele>130.7</ele>
        <time>2022-10-09T08:25:08Z</time>
      </trkpt>
      <trkpt lat="45.06302" lon="0.43697">
        <ele>130.7</ele>
        <time>2022-10-09T08:25:10Z</time>
      </trkpt>
      <trkpt lat="45.06302" lon="0.437">
        <ele>130.7</ele>
        <time>2022-10-09T08:25:12Z</time>
      </trkpt>
      <trkpt lat="45.06302" lon="0.43703">
        <ele>130.8</ele>
        <time>2022-10-09T08:25:15Z</time>
      </trkpt>
      <trkpt lat="45.06302" lon="0.43703">
        <ele>130.8</ele>
        <time>2022-10-09T08:25:16Z</time>
      </trkpt>
      <trkpt lat="45.06302" lon="0.43703">
        <ele>130.8</ele>
        <time>2022-10-09T08:25:18Z</time>
      </trkpt>
      <trkpt lat="45.06304" lon="0.43707">
        <ele>130.9</ele>
        <time>2022-10-09T08:25:20Z</time>
      </trkpt>
      <trkpt lat="45.06307" lon="0.43707">
        <ele>131</ele>
        <time>2022-10-09T08:25:23Z</time>
      </trkpt>
      <trkpt lat="45.0631" lon="0.43707">
        <ele>131.2</ele>
        <time>2022-10-09T08:25:25Z</time>
      </trkpt>
      <trkpt lat="45.06312" lon="0.43706">
        <ele>131.3</ele>
        <time>2022-10-09T08:25:26Z</time>
      </trkpt>
      <trkpt lat="45.06319" lon="0.43699">
        <ele>131.9</ele>
        <time>2022-10-09T08:25:30Z</time>
      </trkpt>
      <trkpt lat="45.06324" lon="0.43692">
        <ele>132.4</ele>
        <time>2022-10-09T08:25:33Z</time>
      </trkpt>
      <trkpt lat="45.06326" lon="0.43689">
        <ele>132.6</ele>
        <time>2022-10-09T08:25:34Z</time>
      </trkpt>
      <trkpt lat="45.06327" lon="0.43687">
        <ele>132.8</ele>
        <time>2022-10-09T08:25:36Z</time>
      </trkpt>
      <trkpt lat="45.0633" lon="0.43682">
        <ele>133.1</ele>
        <time>2022-10-09T08:25:38Z</time>
      </trkpt>
      <trkpt lat="45.06333" lon="0.43677">
        <ele>133.3</ele>
        <time>2022-10-09T08:25:40Z</time>
      </trkpt>
      <trkpt lat="45.06335" lon="0.43672">
        <ele>133.4</ele>
        <time>2022-10-09T08:25:42Z</time>
      </trkpt>
      <trkpt lat="45.06338" lon="0.43668">
        <ele>133.5</ele>
        <time>2022-10-09T08:25:43Z</time>
      </trkpt>
      <trkpt lat="45.06341" lon="0.43664">
        <ele>133.5</ele>
        <time>2022-10-09T08:25:45Z</time>
      </trkpt>
      <trkpt lat="45.06345" lon="0.43661">
        <ele>133.4</ele>
        <time>2022-10-09T08:25:47Z</time>
      </trkpt>
      <trkpt lat="45.0635" lon="0.43657">
        <ele>133.4</ele>
        <time>2022-10-09T08:25:49Z</time>
      </trkpt>
      <trkpt lat="45.06352" lon="0.43656">
        <ele>133.3</ele>
        <time>2022-10-09T08:25:50Z</time>
      </trkpt>
      <trkpt lat="45.06355" lon="0.43654">
        <ele>133.3</ele>
        <time>2022-10-09T08:25:52Z</time>
      </trkpt>
      <trkpt lat="45.06356" lon="0.43654">
        <ele>133.3</ele>
        <time>2022-10-09T08:25:55Z</time>
      </trkpt>
      <trkpt lat="45.06363" lon="0.43649">
        <ele>133.2</ele>
        <time>2022-10-09T08:25:57Z</time>
      </trkpt>
      <trkpt lat="45.06369" lon="0.43645">
        <ele>133</ele>
        <time>2022-10-09T08:25:59Z</time>
      </trkpt>
      <trkpt lat="45.0638" lon="0.43637">
        <ele>132.8</ele>
        <time>2022-10-09T08:26:03Z</time>
      </trkpt>
      <trkpt lat="45.06382" lon="0.43635">
        <ele>132.8</ele>
        <time>2022-10-09T08:26:04Z</time>
      </trkpt>
      <trkpt lat="45.06385" lon="0.43633">
        <ele>132.7</ele>
        <time>2022-10-09T08:26:05Z</time>
      </trkpt>
      <trkpt lat="45.06389" lon="0.43628">
        <ele>132.7</ele>
        <time>2022-10-09T08:26:07Z</time>
      </trkpt>
      <trkpt lat="45.06391" lon="0.43613">
        <ele>132.7</ele>
        <time>2022-10-09T08:26:11Z</time>
      </trkpt>
      <trkpt lat="45.06392" lon="0.43607">
        <ele>132.7</ele>
        <time>2022-10-09T08:26:12Z</time>
      </trkpt>
      <trkpt lat="45.06392" lon="0.43596">
        <ele>132.8</ele>
        <time>2022-10-09T08:26:14Z</time>
      </trkpt>
      <trkpt lat="45.06392" lon="0.43598">
        <ele>132.8</ele>
        <time>2022-10-09T08:26:15Z</time>
      </trkpt>
      <trkpt lat="45.06392" lon="0.43598">
        <ele>132.8</ele>
        <time>2022-10-09T08:26:18Z</time>
      </trkpt>
      <trkpt lat="45.06392" lon="0.43598">
        <ele>132.8</ele>
        <time>2022-10-09T08:26:23Z</time>
      </trkpt>
      <trkpt lat="45.0639" lon="0.43591">
        <ele>132.9</ele>
        <time>2022-10-09T08:26:24Z</time>
      </trkpt>
      <trkpt lat="45.06384" lon="0.43591">
        <ele>132.9</ele>
        <time>2022-10-09T08:26:28Z</time>
      </trkpt>
      <trkpt lat="45.06379" lon="0.43593">
        <ele>132.7</ele>
        <time>2022-10-09T08:26:32Z</time>
      </trkpt>
      <trkpt lat="45.06378" lon="0.43594">
        <ele>132.6</ele>
        <time>2022-10-09T08:26:33Z</time>
      </trkpt>
      <trkpt lat="45.06375" lon="0.43596">
        <ele>132.4</ele>
        <time>2022-10-09T08:26:35Z</time>
      </trkpt>
      <trkpt lat="45.06372" lon="0.43594">
        <ele>132.1</ele>
        <time>2022-10-09T08:26:36Z</time>
      </trkpt>
      <trkpt lat="45.06369" lon="0.43591">
        <ele>131.7</ele>
        <time>2022-10-09T08:26:39Z</time>
      </trkpt>
      <trkpt lat="45.06369" lon="0.43591">
        <ele>131.7</ele>
        <time>2022-10-09T08:26:41Z</time>
      </trkpt>
      <trkpt lat="45.0637" lon="0.4359">
        <ele>131.5</ele>
        <time>2022-10-09T08:26:43Z</time>
      </trkpt>
      <trkpt lat="45.06371" lon="0.43588">
        <ele>131.2</ele>
        <time>2022-10-09T08:26:46Z</time>
      </trkpt>
      <trkpt lat="45.06374" lon="0.43585">
        <ele>130.9</ele>
        <time>2022-10-09T08:26:48Z</time>
      </trkpt>
      <trkpt lat="45.06381" lon="0.43579">
        <ele>129.8</ele>
        <time>2022-10-09T08:26:52Z</time>
      </trkpt>
      <trkpt lat="45.06386" lon="0.43576">
        <ele>129.3</ele>
        <time>2022-10-09T08:26:56Z</time>
      </trkpt>
      <trkpt lat="45.06387" lon="0.43574">
        <ele>129.1</ele>
        <time>2022-10-09T08:26:59Z</time>
      </trkpt>
      <trkpt lat="45.06388" lon="0.43571">
        <ele>128.9</ele>
        <time>2022-10-09T08:27:02Z</time>
      </trkpt>
      <trkpt lat="45.06388" lon="0.43571">
        <ele>128.9</ele>
        <time>2022-10-09T08:27:03Z</time>
      </trkpt>
      <trkpt lat="45.06388" lon="0.4357">
        <ele>128.8</ele>
        <time>2022-10-09T08:27:04Z</time>
      </trkpt>
      <trkpt lat="45.06386" lon="0.43567">
        <ele>128.5</ele>
        <time>2022-10-09T08:27:06Z</time>
      </trkpt>
      <trkpt lat="45.06385" lon="0.43565">
        <ele>128.3</ele>
        <time>2022-10-09T08:27:07Z</time>
      </trkpt>
      <trkpt lat="45.06382" lon="0.4356">
        <ele>127.9</ele>
        <time>2022-10-09T08:27:09Z</time>
      </trkpt>
      <trkpt lat="45.0638" lon="0.43558">
        <ele>127.7</ele>
        <time>2022-10-09T08:27:13Z</time>
      </trkpt>
      <trkpt lat="45.06375" lon="0.43556">
        <ele>127.2</ele>
        <time>2022-10-09T08:27:18Z</time>
      </trkpt>
      <trkpt lat="45.06364" lon="0.43564">
        <ele>126.1</ele>
        <time>2022-10-09T08:27:24Z</time>
      </trkpt>
      <trkpt lat="45.06363" lon="0.43565">
        <ele>126</ele>
        <time>2022-10-09T08:27:27Z</time>
      </trkpt>
      <trkpt lat="45.06359" lon="0.43572">
        <ele>125.5</ele>
        <time>2022-10-09T08:27:48Z</time>
      </trkpt>
      <trkpt lat="45.06357" lon="0.43574">
        <ele>125.4</ele>
        <time>2022-10-09T08:27:49Z</time>
      </trkpt>
      <trkpt lat="45.06355" lon="0.43578">
        <ele>125</ele>
        <time>2022-10-09T08:27:51Z</time>
      </trkpt>
      <trkpt lat="45.06352" lon="0.43582">
        <ele>124.7</ele>
        <time>2022-10-09T08:27:53Z</time>
      </trkpt>
      <trkpt lat="45.06349" lon="0.43585">
        <ele>124.4</ele>
        <time>2022-10-09T08:27:54Z</time>
      </trkpt>
      <trkpt lat="45.06347" lon="0.43589">
        <ele>124.1</ele>
        <time>2022-10-09T08:27:56Z</time>
      </trkpt>
      <trkpt lat="45.06345" lon="0.4359">
        <ele>124</ele>
        <time>2022-10-09T08:27:57Z</time>
      </trkpt>
      <trkpt lat="45.06337" lon="0.43599">
        <ele>123.2</ele>
        <time>2022-10-09T08:27:59Z</time>
      </trkpt>
      <trkpt lat="45.06326" lon="0.43613">
        <ele>121.9</ele>
        <time>2022-10-09T08:28:03Z</time>
      </trkpt>
      <trkpt lat="45.06326" lon="0.43613">
        <ele>121.9</ele>
        <time>2022-10-09T08:28:05Z</time>
      </trkpt>
      <trkpt lat="45.06315" lon="0.43625">
        <ele>121.1</ele>
        <time>2022-10-09T08:28:11Z</time>
      </trkpt>
      <trkpt lat="45.06314" lon="0.43627">
        <ele>121</ele>
        <time>2022-10-09T08:28:12Z</time>
      </trkpt>
      <trkpt lat="45.06306" lon="0.43632">
        <ele>120.9</ele>
        <time>2022-10-09T08:28:15Z</time>
      </trkpt>
      <trkpt lat="45.06304" lon="0.43633">
        <ele>120.9</ele>
        <time>2022-10-09T08:28:16Z</time>
      </trkpt>
      <trkpt lat="45.06299" lon="0.43636">
        <ele>120.9</ele>
        <time>2022-10-09T08:28:18Z</time>
      </trkpt>
      <trkpt lat="45.06296" lon="0.43638">
        <ele>120.8</ele>
        <time>2022-10-09T08:28:20Z</time>
      </trkpt>
      <trkpt lat="45.06292" lon="0.43641">
        <ele>120.7</ele>
        <time>2022-10-09T08:28:22Z</time>
      </trkpt>
      <trkpt lat="45.06286" lon="0.43641">
        <ele>120.6</ele>
        <time>2022-10-09T08:28:24Z</time>
      </trkpt>
      <trkpt lat="45.06284" lon="0.43656">
        <ele>120.5</ele>
        <time>2022-10-09T08:28:26Z</time>
      </trkpt>
      <trkpt lat="45.0628" lon="0.43658">
        <ele>120.5</ele>
        <time>2022-10-09T08:28:28Z</time>
      </trkpt>
      <trkpt lat="45.0628" lon="0.43658">
        <ele>120.5</ele>
        <time>2022-10-09T08:28:30Z</time>
      </trkpt>
      <trkpt lat="45.06277" lon="0.4366">
        <ele>120.5</ele>
        <time>2022-10-09T08:28:33Z</time>
      </trkpt>
      <trkpt lat="45.06272" lon="0.43643">
        <ele>120.5</ele>
        <time>2022-10-09T08:28:34Z</time>
      </trkpt>
      <trkpt lat="45.06266" lon="0.43645">
        <ele>120.3</ele>
        <time>2022-10-09T08:28:36Z</time>
      </trkpt>
      <trkpt lat="45.06261" lon="0.43648">
        <ele>120.1</ele>
        <time>2022-10-09T08:28:39Z</time>
      </trkpt>
      <trkpt lat="45.0625" lon="0.43654">
        <ele>119.7</ele>
        <time>2022-10-09T08:28:43Z</time>
      </trkpt>
      <trkpt lat="45.06236" lon="0.43662">
        <ele>119</ele>
        <time>2022-10-09T08:28:47Z</time>
      </trkpt>
      <trkpt lat="45.06236" lon="0.43651">
        <ele>118.7</ele>
        <time>2022-10-09T08:28:50Z</time>
      </trkpt>
      <trkpt lat="45.06236" lon="0.43651">
        <ele>118.7</ele>
        <time>2022-10-09T08:28:51Z</time>
      </trkpt>
      <trkpt lat="45.06223" lon="0.43663">
        <ele>118.3</ele>
        <time>2022-10-09T08:28:54Z</time>
      </trkpt>
      <trkpt lat="45.06218" lon="0.43658">
        <ele>118.1</ele>
        <time>2022-10-09T08:28:57Z</time>
      </trkpt>
      <trkpt lat="45.06218" lon="0.43652">
        <ele>118.1</ele>
        <time>2022-10-09T08:28:59Z</time>
      </trkpt>
      <trkpt lat="45.06218" lon="0.43646">
        <ele>118</ele>
        <time>2022-10-09T08:29:00Z</time>
      </trkpt>
      <trkpt lat="45.06222" lon="0.43643">
        <ele>117.8</ele>
        <time>2022-10-09T08:29:04Z</time>
      </trkpt>
      <trkpt lat="45.06224" lon="0.43641">
        <ele>117.8</ele>
        <time>2022-10-09T08:29:05Z</time>
      </trkpt>
      <trkpt lat="45.06225" lon="0.43641">
        <ele>117.7</ele>
        <time>2022-10-09T08:29:07Z</time>
      </trkpt>
      <trkpt lat="45.06225" lon="0.43641">
        <ele>117.7</ele>
        <time>2022-10-09T08:29:08Z</time>
      </trkpt>
      <trkpt lat="45.06218" lon="0.43647">
        <ele>117.4</ele>
        <time>2022-10-09T08:29:13Z</time>
      </trkpt>
      <trkpt lat="45.06218" lon="0.43647">
        <ele>117.4</ele>
        <time>2022-10-09T08:29:14Z</time>
      </trkpt>
      <trkpt lat="45.06229" lon="0.43647">
        <ele>116.8</ele>
        <time>2022-10-09T08:29:16Z</time>
      </trkpt>
      <trkpt lat="45.06232" lon="0.43649">
        <ele>116.5</ele>
        <time>2022-10-09T08:29:18Z</time>
      </trkpt>
      <trkpt lat="45.06235" lon="0.43651">
        <ele>116.3</ele>
        <time>2022-10-09T08:29:21Z</time>
      </trkpt>
      <trkpt lat="45.06236" lon="0.43651">
        <ele>116.3</ele>
        <time>2022-10-09T08:29:22Z</time>
      </trkpt>
      <trkpt lat="45.06246" lon="0.43656">
        <ele>115.1</ele>
        <time>2022-10-09T08:29:26Z</time>
      </trkpt>
      <trkpt lat="45.06254" lon="0.43652">
        <ele>115</ele>
        <time>2022-10-09T08:29:29Z</time>
      </trkpt>
      <trkpt lat="45.06253" lon="0.43651">
        <ele>114.9</ele>
        <time>2022-10-09T08:29:30Z</time>
      </trkpt>
      <trkpt lat="45.06251" lon="0.43652">
        <ele>114.9</ele>
        <time>2022-10-09T08:29:31Z</time>
      </trkpt>
      <trkpt lat="45.06249" lon="0.43652">
        <ele>114.8</ele>
        <time>2022-10-09T08:29:35Z</time>
      </trkpt>
      <trkpt lat="45.06247" lon="0.43652">
        <ele>114.7</ele>
        <time>2022-10-09T08:29:36Z</time>
      </trkpt>
      <trkpt lat="45.06245" lon="0.43653">
        <ele>114.6</ele>
        <time>2022-10-09T08:29:38Z</time>
      </trkpt>
      <trkpt lat="45.06243" lon="0.43653">
        <ele>114.6</ele>
        <time>2022-10-09T08:29:43Z</time>
      </trkpt>
      <trkpt lat="45.06241" lon="0.43653">
        <ele>114.5</ele>
        <time>2022-10-09T08:29:44Z</time>
      </trkpt>
      <trkpt lat="45.06236" lon="0.43651">
        <ele>114.1</ele>
        <time>2022-10-09T08:29:45Z</time>
      </trkpt>
      <trkpt lat="45.06245" lon="0.43644">
        <ele>113.4</ele>
        <time>2022-10-09T08:29:47Z</time>
      </trkpt>
      <trkpt lat="45.06238" lon="0.43641">
        <ele>112.9</ele>
        <time>2022-10-09T08:29:50Z</time>
      </trkpt>
      <trkpt lat="45.06237" lon="0.43638">
        <ele>112.8</ele>
        <time>2022-10-09T08:29:51Z</time>
      </trkpt>
      <trkpt lat="45.06237" lon="0.4363">
        <ele>112.4</ele>
        <time>2022-10-09T08:29:54Z</time>
      </trkpt>
      <trkpt lat="45.06236" lon="0.43628">
        <ele>112.3</ele>
        <time>2022-10-09T08:29:57Z</time>
      </trkpt>
      <trkpt lat="45.0624" lon="0.43623">
        <ele>112</ele>
        <time>2022-10-09T08:29:59Z</time>
      </trkpt>
      <trkpt lat="45.06244" lon="0.43622">
        <ele>111.8</ele>
        <time>2022-10-09T08:30:02Z</time>
      </trkpt>
      <trkpt lat="45.06247" lon="0.43622">
        <ele>111.7</ele>
        <time>2022-10-09T08:30:03Z</time>
      </trkpt>
      <trkpt lat="45.06249" lon="0.43621">
        <ele>111.6</ele>
        <time>2022-10-09T08:30:04Z</time>
      </trkpt>
      <trkpt lat="45.06255" lon="0.43613">
        <ele>111.3</ele>
        <time>2022-10-09T08:30:07Z</time>
      </trkpt>
      <trkpt lat="45.06258" lon="0.43611">
        <ele>111.3</ele>
        <time>2022-10-09T08:30:08Z</time>
      </trkpt>
      <trkpt lat="45.06272" lon="0.43617">
        <ele>111.3</ele>
        <time>2022-10-09T08:30:10Z</time>
      </trkpt>
      <trkpt lat="45.06261" lon="0.43606">
        <ele>111.6</ele>
        <time>2022-10-09T08:30:13Z</time>
      </trkpt>
      <trkpt lat="45.06268" lon="0.43602">
        <ele>111.9</ele>
        <time>2022-10-09T08:30:17Z</time>
      </trkpt>
      <trkpt lat="45.06274" lon="0.4361">
        <ele>112.4</ele>
        <time>2022-10-09T08:30:19Z</time>
      </trkpt>
      <trkpt lat="45.06274" lon="0.43611">
        <ele>112.4</ele>
        <time>2022-10-09T08:30:21Z</time>
      </trkpt>
      <trkpt lat="45.06274" lon="0.43611">
        <ele>112.4</ele>
        <time>2022-10-09T08:30:23Z</time>
      </trkpt>
      <trkpt lat="45.06273" lon="0.43616">
        <ele>112.6</ele>
        <time>2022-10-09T08:30:25Z</time>
      </trkpt>
      <trkpt lat="45.06271" lon="0.43622">
        <ele>112.8</ele>
        <time>2022-10-09T08:30:29Z</time>
      </trkpt>
      <trkpt lat="45.0627" lon="0.43625">
        <ele>112.9</ele>
        <time>2022-10-09T08:30:31Z</time>
      </trkpt>
      <trkpt lat="45.0627" lon="0.43626">
        <ele>112.9</ele>
        <time>2022-10-09T08:30:33Z</time>
      </trkpt>
      <trkpt lat="45.0627" lon="0.43626">
        <ele>112.9</ele>
        <time>2022-10-09T08:30:35Z</time>
      </trkpt>
      <trkpt lat="45.06274" lon="0.43627">
        <ele>113.1</ele>
        <time>2022-10-09T08:30:39Z</time>
      </trkpt>
      <trkpt lat="45.06282" lon="0.4363">
        <ele>113.3</ele>
        <time>2022-10-09T08:30:43Z</time>
      </trkpt>
      <trkpt lat="45.06283" lon="0.4363">
        <ele>113.3</ele>
        <time>2022-10-09T08:30:45Z</time>
      </trkpt>
      <trkpt lat="45.06292" lon="0.4363">
        <ele>113.4</ele>
        <time>2022-10-09T08:30:49Z</time>
      </trkpt>
      <trkpt lat="45.06294" lon="0.43629">
        <ele>113.4</ele>
        <time>2022-10-09T08:30:50Z</time>
      </trkpt>
      <trkpt lat="45.06304" lon="0.43617">
        <ele>113.3</ele>
        <time>2022-10-09T08:30:54Z</time>
      </trkpt>
      <trkpt lat="45.06312" lon="0.43608">
        <ele>113</ele>
        <time>2022-10-09T08:30:57Z</time>
      </trkpt>
      <trkpt lat="45.06315" lon="0.43605">
        <ele>112.7</ele>
        <time>2022-10-09T08:30:58Z</time>
      </trkpt>
      <trkpt lat="45.06315" lon="0.43604">
        <ele>112.7</ele>
        <time>2022-10-09T08:31:00Z</time>
      </trkpt>
      <trkpt lat="45.06315" lon="0.43604">
        <ele>112.7</ele>
        <time>2022-10-09T08:31:03Z</time>
      </trkpt>
      <trkpt lat="45.06315" lon="0.43604">
        <ele>112.7</ele>
        <time>2022-10-09T08:31:36Z</time>
      </trkpt>
      <trkpt lat="45.06306" lon="0.43597">
        <ele>111.8</ele>
        <time>2022-10-09T08:31:38Z</time>
      </trkpt>
      <trkpt lat="45.06301" lon="0.43597">
        <ele>111.2</ele>
        <time>2022-10-09T08:31:40Z</time>
      </trkpt>
      <trkpt lat="45.06296" lon="0.43596">
        <ele>110.5</ele>
        <time>2022-10-09T08:31:42Z</time>
      </trkpt>
      <trkpt lat="45.06294" lon="0.43596">
        <ele>110.3</ele>
        <time>2022-10-09T08:31:43Z</time>
      </trkpt>
      <trkpt lat="45.06289" lon="0.43596">
        <ele>109.6</ele>
        <time>2022-10-09T08:31:46Z</time>
      </trkpt>
      <trkpt lat="45.06287" lon="0.43596">
        <ele>109.3</ele>
        <time>2022-10-09T08:31:48Z</time>
      </trkpt>
      <trkpt lat="45.06282" lon="0.43592">
        <ele>108.4</ele>
        <time>2022-10-09T08:31:50Z</time>
      </trkpt>
      <trkpt lat="45.06277" lon="0.43588">
        <ele>107.6</ele>
        <time>2022-10-09T08:31:53Z</time>
      </trkpt>
      <trkpt lat="45.06275" lon="0.43586">
        <ele>107.2</ele>
        <time>2022-10-09T08:31:54Z</time>
      </trkpt>
      <trkpt lat="45.06271" lon="0.43583">
        <ele>106.6</ele>
        <time>2022-10-09T08:31:57Z</time>
      </trkpt>
      <trkpt lat="45.06256" lon="0.4359">
        <ele>105.9</ele>
        <time>2022-10-09T08:32:02Z</time>
      </trkpt>
      <trkpt lat="45.06248" lon="0.43597">
        <ele>106.3</ele>
        <time>2022-10-09T08:32:06Z</time>
      </trkpt>
      <trkpt lat="45.06236" lon="0.43607">
        <ele>106.8</ele>
        <time>2022-10-09T08:32:11Z</time>
      </trkpt>
      <trkpt lat="45.0622" lon="0.43619">
        <ele>107.8</ele>
        <time>2022-10-09T08:32:17Z</time>
      </trkpt>
      <trkpt lat="45.06211" lon="0.43627">
        <ele>108.5</ele>
        <time>2022-10-09T08:32:21Z</time>
      </trkpt>
      <trkpt lat="45.06207" lon="0.43629">
        <ele>108.9</ele>
        <time>2022-10-09T08:32:25Z</time>
      </trkpt>
      <trkpt lat="45.06184" lon="0.4365">
        <ele>112</ele>
        <time>2022-10-09T08:40:28Z</time>
      </trkpt>
      <trkpt lat="45.0618" lon="0.43654">
        <ele>112.7</ele>
        <time>2022-10-09T08:40:31Z</time>
      </trkpt>
      <trkpt lat="45.06176" lon="0.43657">
        <ele>113.4</ele>
        <time>2022-10-09T08:40:34Z</time>
      </trkpt>
      <trkpt lat="45.06173" lon="0.4366">
        <ele>114</ele>
        <time>2022-10-09T08:40:36Z</time>
      </trkpt>
      <trkpt lat="45.06168" lon="0.43666">
        <ele>115.1</ele>
        <time>2022-10-09T08:40:40Z</time>
      </trkpt>
      <trkpt lat="45.06167" lon="0.43668">
        <ele>115.4</ele>
        <time>2022-10-09T08:40:41Z</time>
      </trkpt>
      <trkpt lat="45.06166" lon="0.4367">
        <ele>115.7</ele>
        <time>2022-10-09T08:40:42Z</time>
      </trkpt>
      <trkpt lat="45.06162" lon="0.43674">
        <ele>116.4</ele>
        <time>2022-10-09T08:40:45Z</time>
      </trkpt>
      <trkpt lat="45.0616" lon="0.43677">
        <ele>116.8</ele>
        <time>2022-10-09T08:40:47Z</time>
      </trkpt>
      <trkpt lat="45.06158" lon="0.4368">
        <ele>117.4</ele>
        <time>2022-10-09T08:40:49Z</time>
      </trkpt>
      <trkpt lat="45.06154" lon="0.43685">
        <ele>118.1</ele>
        <time>2022-10-09T08:40:53Z</time>
      </trkpt>
      <trkpt lat="45.06153" lon="0.43686">
        <ele>118.3</ele>
        <time>2022-10-09T08:40:54Z</time>
      </trkpt>
      <trkpt lat="45.06149" lon="0.43691">
        <ele>119.2</ele>
        <time>2022-10-09T08:40:59Z</time>
      </trkpt>
      <trkpt lat="45.06141" lon="0.43701">
        <ele>120.7</ele>
        <time>2022-10-09T08:41:06Z</time>
      </trkpt>
      <trkpt lat="45.06137" lon="0.43704">
        <ele>120.8</ele>
        <time>2022-10-09T08:41:09Z</time>
      </trkpt>
      <trkpt lat="45.06141" lon="0.43701">
        <ele>120.9</ele>
        <time>2022-10-09T08:41:11Z</time>
      </trkpt>
      <trkpt lat="45.0614" lon="0.43696">
        <ele>120.9</ele>
        <time>2022-10-09T08:41:15Z</time>
      </trkpt>
      <trkpt lat="45.06137" lon="0.43688">
        <ele>120.8</ele>
        <time>2022-10-09T08:41:19Z</time>
      </trkpt>
      <trkpt lat="45.0613" lon="0.43668">
        <ele>120.4</ele>
        <time>2022-10-09T08:41:26Z</time>
      </trkpt>
      <trkpt lat="45.06129" lon="0.43667">
        <ele>120.4</ele>
        <time>2022-10-09T08:41:27Z</time>
      </trkpt>
      <trkpt lat="45.06129" lon="0.43666">
        <ele>120.4</ele>
        <time>2022-10-09T08:41:28Z</time>
      </trkpt>
      <trkpt lat="45.06125" lon="0.43658">
        <ele>120.5</ele>
        <time>2022-10-09T08:41:32Z</time>
      </trkpt>
      <trkpt lat="45.06123" lon="0.43655">
        <ele>120.7</ele>
        <time>2022-10-09T08:41:34Z</time>
      </trkpt>
      <trkpt lat="45.06118" lon="0.43647">
        <ele>121.3</ele>
        <time>2022-10-09T08:41:36Z</time>
      </trkpt>
      <trkpt lat="45.06118" lon="0.43647">
        <ele>121.3</ele>
        <time>2022-10-09T08:41:37Z</time>
      </trkpt>
      <trkpt lat="45.06115" lon="0.43648">
        <ele>121.6</ele>
        <time>2022-10-09T08:41:39Z</time>
      </trkpt>
      <trkpt lat="45.06109" lon="0.43648">
        <ele>122</ele>
        <time>2022-10-09T08:41:42Z</time>
      </trkpt>
      <trkpt lat="45.06104" lon="0.43649">
        <ele>122.4</ele>
        <time>2022-10-09T08:41:45Z</time>
      </trkpt>
      <trkpt lat="45.06101" lon="0.4365">
        <ele>122.6</ele>
        <time>2022-10-09T08:41:48Z</time>
      </trkpt>
      <trkpt lat="45.06097" lon="0.4365">
        <ele>122.8</ele>
        <time>2022-10-09T08:41:51Z</time>
      </trkpt>
      <trkpt lat="45.06096" lon="0.4365">
        <ele>122.8</ele>
        <time>2022-10-09T08:41:52Z</time>
      </trkpt>
      <trkpt lat="45.06092" lon="0.43651">
        <ele>123</ele>
        <time>2022-10-09T08:41:54Z</time>
      </trkpt>
      <trkpt lat="45.06086" lon="0.4365">
        <ele>123.1</ele>
        <time>2022-10-09T08:41:57Z</time>
      </trkpt>
      <trkpt lat="45.06073" lon="0.43647">
        <ele>122.7</ele>
        <time>2022-10-09T08:42:04Z</time>
      </trkpt>
      <trkpt lat="45.06066" lon="0.43645">
        <ele>122.4</ele>
        <time>2022-10-09T08:42:07Z</time>
      </trkpt>
      <trkpt lat="45.06062" lon="0.43644">
        <ele>122.2</ele>
        <time>2022-10-09T08:42:09Z</time>
      </trkpt>
      <trkpt lat="45.06061" lon="0.43644">
        <ele>122.1</ele>
        <time>2022-10-09T08:42:10Z</time>
      </trkpt>
      <trkpt lat="45.06049" lon="0.43633">
        <ele>120.7</ele>
        <time>2022-10-09T08:42:14Z</time>
      </trkpt>
      <trkpt lat="45.06043" lon="0.43626">
        <ele>119.8</ele>
        <time>2022-10-09T08:42:17Z</time>
      </trkpt>
      <trkpt lat="45.06042" lon="0.43625">
        <ele>119.6</ele>
        <time>2022-10-09T08:42:18Z</time>
      </trkpt>
      <trkpt lat="45.0604" lon="0.43623">
        <ele>119.4</ele>
        <time>2022-10-09T08:42:19Z</time>
      </trkpt>
      <trkpt lat="45.06038" lon="0.43621">
        <ele>119.3</ele>
        <time>2022-10-09T08:42:20Z</time>
      </trkpt>
      <trkpt lat="45.06038" lon="0.43618">
        <ele>119.2</ele>
        <time>2022-10-09T08:42:21Z</time>
      </trkpt>
      <trkpt lat="45.0604" lon="0.43613">
        <ele>119.1</ele>
        <time>2022-10-09T08:42:23Z</time>
      </trkpt>
      <trkpt lat="45.06042" lon="0.43614">
        <ele>119.1</ele>
        <time>2022-10-09T08:42:25Z</time>
      </trkpt>
      <trkpt lat="45.06044" lon="0.43614">
        <ele>119.1</ele>
        <time>2022-10-09T08:42:27Z</time>
      </trkpt>
      <trkpt lat="45.06043" lon="0.43614">
        <ele>119.1</ele>
        <time>2022-10-09T08:42:31Z</time>
      </trkpt>
      <trkpt lat="45.06044" lon="0.43614">
        <ele>119.1</ele>
        <time>2022-10-09T08:42:33Z</time>
      </trkpt>
      <trkpt lat="45.06049" lon="0.43615">
        <ele>119.1</ele>
        <time>2022-10-09T08:42:35Z</time>
      </trkpt>
      <trkpt lat="45.06056" lon="0.43617">
        <ele>119.1</ele>
        <time>2022-10-09T08:42:39Z</time>
      </trkpt>
      <trkpt lat="45.06063" lon="0.43618">
        <ele>118.9</ele>
        <time>2022-10-09T08:42:44Z</time>
      </trkpt>
      <trkpt lat="45.06065" lon="0.43619">
        <ele>118.9</ele>
        <time>2022-10-09T08:42:46Z</time>
      </trkpt>
      <trkpt lat="45.06068" lon="0.4362">
        <ele>118.7</ele>
        <time>2022-10-09T08:42:48Z</time>
      </trkpt>
      <trkpt lat="45.06076" lon="0.43622">
        <ele>118.4</ele>
        <time>2022-10-09T08:42:50Z</time>
      </trkpt>
      <trkpt lat="45.06079" lon="0.43622">
        <ele>118.3</ele>
        <time>2022-10-09T08:42:51Z</time>
      </trkpt>
      <trkpt lat="45.06084" lon="0.43623">
        <ele>118</ele>
        <time>2022-10-09T08:42:53Z</time>
      </trkpt>
      <trkpt lat="45.06087" lon="0.43623">
        <ele>117.9</ele>
        <time>2022-10-09T08:42:54Z</time>
      </trkpt>
      <trkpt lat="45.06091" lon="0.43623">
        <ele>117.7</ele>
        <time>2022-10-09T08:42:56Z</time>
      </trkpt>
      <trkpt lat="45.06092" lon="0.43623">
        <ele>117.6</ele>
        <time>2022-10-09T08:42:57Z</time>
      </trkpt>
      <trkpt lat="45.06093" lon="0.43623">
        <ele>117.6</ele>
        <time>2022-10-09T08:42:58Z</time>
      </trkpt>
      <trkpt lat="45.06097" lon="0.43623">
        <ele>117.4</ele>
        <time>2022-10-09T08:43:00Z</time>
      </trkpt>
      <trkpt lat="45.06112" lon="0.43627">
        <ele>117.3</ele>
        <time>2022-10-09T08:43:04Z</time>
      </trkpt>
      <trkpt lat="45.06121" lon="0.43634">
        <ele>117.4</ele>
        <time>2022-10-09T08:43:08Z</time>
      </trkpt>
      <trkpt lat="45.0613" lon="0.43642">
        <ele>117.1</ele>
        <time>2022-10-09T08:43:13Z</time>
      </trkpt>
      <trkpt lat="45.06131" lon="0.43643">
        <ele>117.1</ele>
        <time>2022-10-09T08:43:14Z</time>
      </trkpt>
      <trkpt lat="45.06134" lon="0.43641">
        <ele>116.7</ele>
        <time>2022-10-09T08:43:16Z</time>
      </trkpt>
      <trkpt lat="45.06136" lon="0.43641">
        <ele>116.5</ele>
        <time>2022-10-09T08:43:17Z</time>
      </trkpt>
      <trkpt lat="45.06138" lon="0.4364">
        <ele>116.2</ele>
        <time>2022-10-09T08:43:18Z</time>
      </trkpt>
      <trkpt lat="45.06141" lon="0.43639">
        <ele>115.8</ele>
        <time>2022-10-09T08:43:20Z</time>
      </trkpt>
      <trkpt lat="45.06142" lon="0.43635">
        <ele>115.3</ele>
        <time>2022-10-09T08:43:21Z</time>
      </trkpt>
      <trkpt lat="45.06147" lon="0.43622">
        <ele>113.6</ele>
        <time>2022-10-09T08:43:23Z</time>
      </trkpt>
      <trkpt lat="45.0615" lon="0.43613">
        <ele>112.2</ele>
        <time>2022-10-09T08:43:26Z</time>
      </trkpt>
      <trkpt lat="45.06149" lon="0.43613">
        <ele>112.1</ele>
        <time>2022-10-09T08:43:29Z</time>
      </trkpt>
      <trkpt lat="45.06139" lon="0.43611">
        <ele>112.7</ele>
        <time>2022-10-09T08:43:35Z</time>
      </trkpt>
      <trkpt lat="45.0613" lon="0.43611">
        <ele>113.4</ele>
        <time>2022-10-09T08:43:40Z</time>
      </trkpt>
      <trkpt lat="45.06118" lon="0.43611">
        <ele>114.4</ele>
        <time>2022-10-09T08:43:47Z</time>
      </trkpt>
      <trkpt lat="45.06113" lon="0.43611">
        <ele>114.9</ele>
        <time>2022-10-09T08:43:50Z</time>
      </trkpt>
      <trkpt lat="45.0611" lon="0.43611">
        <ele>115.1</ele>
        <time>2022-10-09T08:43:52Z</time>
      </trkpt>
      <trkpt lat="45.061" lon="0.4361">
        <ele>115.8</ele>
        <time>2022-10-09T08:43:57Z</time>
      </trkpt>
      <trkpt lat="45.06089" lon="0.43609">
        <ele>116.4</ele>
        <time>2022-10-09T08:44:01Z</time>
      </trkpt>
      <trkpt lat="45.06077" lon="0.43608">
        <ele>116.9</ele>
        <time>2022-10-09T08:44:05Z</time>
      </trkpt>
      <trkpt lat="45.06062" lon="0.43606">
        <ele>117.2</ele>
        <time>2022-10-09T08:44:10Z</time>
      </trkpt>
      <trkpt lat="45.06046" lon="0.43605">
        <ele>117.4</ele>
        <time>2022-10-09T08:44:15Z</time>
      </trkpt>
      <trkpt lat="45.0604" lon="0.43604">
        <ele>117.4</ele>
        <time>2022-10-09T08:44:17Z</time>
      </trkpt>
      <trkpt lat="45.06037" lon="0.43605">
        <ele>117.4</ele>
        <time>2022-10-09T08:44:19Z</time>
      </trkpt>
      <trkpt lat="45.06033" lon="0.43594">
        <ele>116.3</ele>
        <time>2022-10-09T08:44:21Z</time>
      </trkpt>
      <trkpt lat="45.06034" lon="0.43592">
        <ele>116</ele>
        <time>2022-10-09T08:44:22Z</time>
      </trkpt>
      <trkpt lat="45.06038" lon="0.43584">
        <ele>115.2</ele>
        <time>2022-10-09T08:44:26Z</time>
      </trkpt>
      <trkpt lat="45.06043" lon="0.43574">
        <ele>113.9</ele>
        <time>2022-10-09T08:44:28Z</time>
      </trkpt>
      <trkpt lat="45.06047" lon="0.43569">
        <ele>113</ele>
        <time>2022-10-09T08:44:29Z</time>
      </trkpt>
      <trkpt lat="45.0605" lon="0.43564">
        <ele>112.2</ele>
        <time>2022-10-09T08:44:30Z</time>
      </trkpt>
      <trkpt lat="45.06056" lon="0.43556">
        <ele>110.8</ele>
        <time>2022-10-09T08:44:32Z</time>
      </trkpt>
      <trkpt lat="45.06061" lon="0.43544">
        <ele>109.2</ele>
        <time>2022-10-09T08:44:35Z</time>
      </trkpt>
      <trkpt lat="45.06057" lon="0.43526">
        <ele>107.7</ele>
        <time>2022-10-09T08:44:38Z</time>
      </trkpt>
      <trkpt lat="45.06051" lon="0.43519">
        <ele>107.3</ele>
        <time>2022-10-09T08:44:41Z</time>
      </trkpt>
      <trkpt lat="45.0605" lon="0.43518">
        <ele>107.3</ele>
        <time>2022-10-09T08:44:42Z</time>
      </trkpt>
      <trkpt lat="45.06045" lon="0.43514">
        <ele>107.4</ele>
        <time>2022-10-09T08:44:46Z</time>
      </trkpt>
      <trkpt lat="45.06043" lon="0.43513">
        <ele>107.4</ele>
        <time>2022-10-09T08:44:47Z</time>
      </trkpt>
      <trkpt lat="45.06041" lon="0.43512">
        <ele>107.5</ele>
        <time>2022-10-09T08:44:48Z</time>
      </trkpt>
      <trkpt lat="45.06035" lon="0.43511">
        <ele>108</ele>
        <time>2022-10-09T08:44:51Z</time>
      </trkpt>
      <trkpt lat="45.06031" lon="0.43515">
        <ele>108.4</ele>
        <time>2022-10-09T08:44:55Z</time>
      </trkpt>
      <trkpt lat="45.06028" lon="0.43517">
        <ele>108.7</ele>
        <time>2022-10-09T08:44:57Z</time>
      </trkpt>
      <trkpt lat="45.06025" lon="0.43521">
        <ele>109.2</ele>
        <time>2022-10-09T08:44:59Z</time>
      </trkpt>
      <trkpt lat="45.0602" lon="0.43529">
        <ele>110</ele>
        <time>2022-10-09T08:45:03Z</time>
      </trkpt>
      <trkpt lat="45.06017" lon="0.43537">
        <ele>110.7</ele>
        <time>2022-10-09T08:45:07Z</time>
      </trkpt>
      <trkpt lat="45.06011" lon="0.43547">
        <ele>111.9</ele>
        <time>2022-10-09T08:45:11Z</time>
      </trkpt>
      <trkpt lat="45.06006" lon="0.43552">
        <ele>112.6</ele>
        <time>2022-10-09T08:45:14Z</time>
      </trkpt>
      <trkpt lat="45.06005" lon="0.43553">
        <ele>112.7</ele>
        <time>2022-10-09T08:45:15Z</time>
      </trkpt>
      <trkpt lat="45.06004" lon="0.43554">
        <ele>112.9</ele>
        <time>2022-10-09T08:45:16Z</time>
      </trkpt>
      <trkpt lat="45.06001" lon="0.43556">
        <ele>113.3</ele>
        <time>2022-10-09T08:45:18Z</time>
      </trkpt>
      <trkpt lat="45.05999" lon="0.43558">
        <ele>113.6</ele>
        <time>2022-10-09T08:45:20Z</time>
      </trkpt>
      <trkpt lat="45.05998" lon="0.43559">
        <ele>113.7</ele>
        <time>2022-10-09T08:45:22Z</time>
      </trkpt>
      <trkpt lat="45.05992" lon="0.43563">
        <ele>114.6</ele>
        <time>2022-10-09T08:45:26Z</time>
      </trkpt>
      <trkpt lat="45.05988" lon="0.43563">
        <ele>114.7</ele>
        <time>2022-10-09T08:45:31Z</time>
      </trkpt>
      <trkpt lat="45.05993" lon="0.43563">
        <ele>114.8</ele>
        <time>2022-10-09T08:45:32Z</time>
      </trkpt>
      <trkpt lat="45.05994" lon="0.43581">
        <ele>116.2</ele>
        <time>2022-10-09T08:45:36Z</time>
      </trkpt>
      <trkpt lat="45.05997" lon="0.43587">
        <ele>118.1</ele>
        <time>2022-10-09T08:45:41Z</time>
      </trkpt>
      <trkpt lat="45.05997" lon="0.43589">
        <ele>118.2</ele>
        <time>2022-10-09T08:45:43Z</time>
      </trkpt>
      <trkpt lat="45.05995" lon="0.43592">
        <ele>118.3</ele>
        <time>2022-10-09T08:45:46Z</time>
      </trkpt>
      <trkpt lat="45.05994" lon="0.43593">
        <ele>118.7</ele>
        <time>2022-10-09T08:45:47Z</time>
      </trkpt>
      <trkpt lat="45.05992" lon="0.43597">
        <ele>118.7</ele>
        <time>2022-10-09T08:45:51Z</time>
      </trkpt>
      <trkpt lat="45.05992" lon="0.43612">
        <ele>120.8</ele>
        <time>2022-10-09T08:45:55Z</time>
      </trkpt>
      <trkpt lat="45.05995" lon="0.43611">
        <ele>120.7</ele>
        <time>2022-10-09T08:45:57Z</time>
      </trkpt>
      <trkpt lat="45.05988" lon="0.43615">
        <ele>121</ele>
        <time>2022-10-09T08:46:00Z</time>
      </trkpt>
      <trkpt lat="45.05986" lon="0.43616">
        <ele>121.1</ele>
        <time>2022-10-09T08:46:01Z</time>
      </trkpt>
      <trkpt lat="45.05982" lon="0.43618">
        <ele>121.3</ele>
        <time>2022-10-09T08:46:04Z</time>
      </trkpt>
      <trkpt lat="45.05976" lon="0.43621">
        <ele>123.3</ele>
        <time>2022-10-09T08:46:07Z</time>
      </trkpt>
      <trkpt lat="45.05974" lon="0.43622">
        <ele>123.4</ele>
        <time>2022-10-09T08:46:08Z</time>
      </trkpt>
      <trkpt lat="45.05973" lon="0.43623">
        <ele>123.4</ele>
        <time>2022-10-09T08:46:09Z</time>
      </trkpt>
      <trkpt lat="45.05969" lon="0.43625">
        <ele>123.9</ele>
        <time>2022-10-09T08:46:11Z</time>
      </trkpt>
      <trkpt lat="45.05968" lon="0.43626">
        <ele>124</ele>
        <time>2022-10-09T08:46:12Z</time>
      </trkpt>
      <trkpt lat="45.05966" lon="0.43627">
        <ele>124</ele>
        <time>2022-10-09T08:46:14Z</time>
      </trkpt>
      <trkpt lat="45.05959" lon="0.43605">
        <ele>122.2</ele>
        <time>2022-10-09T08:46:15Z</time>
      </trkpt>
      <trkpt lat="45.0596" lon="0.43601">
        <ele>120.5</ele>
        <time>2022-10-09T08:46:18Z</time>
      </trkpt>
      <trkpt lat="45.0596" lon="0.43601">
        <ele>120.6</ele>
        <time>2022-10-09T08:46:19Z</time>
      </trkpt>
      <trkpt lat="45.05964" lon="0.43602">
        <ele>120.7</ele>
        <time>2022-10-09T08:46:22Z</time>
      </trkpt>
      <trkpt lat="45.05966" lon="0.43599">
        <ele>120.7</ele>
        <time>2022-10-09T08:46:24Z</time>
      </trkpt>
      <trkpt lat="45.05964" lon="0.43592">
        <ele>120.8</ele>
        <time>2022-10-09T08:46:27Z</time>
      </trkpt>
      <trkpt lat="45.05964" lon="0.43589">
        <ele>120.9</ele>
        <time>2022-10-09T08:46:28Z</time>
      </trkpt>
      <trkpt lat="45.05966" lon="0.43582">
        <ele>119.3</ele>
        <time>2022-10-09T08:46:30Z</time>
      </trkpt>
      <trkpt lat="45.05968" lon="0.43577">
        <ele>119.4</ele>
        <time>2022-10-09T08:46:31Z</time>
      </trkpt>
      <trkpt lat="45.05972" lon="0.43571">
        <ele>118.6</ele>
        <time>2022-10-09T08:46:33Z</time>
      </trkpt>
      <trkpt lat="45.05974" lon="0.43569">
        <ele>118.6</ele>
        <time>2022-10-09T08:46:34Z</time>
      </trkpt>
      <trkpt lat="45.05978" lon="0.43566">
        <ele>117.6</ele>
        <time>2022-10-09T08:46:36Z</time>
      </trkpt>
      <trkpt lat="45.05979" lon="0.43558">
        <ele>117.6</ele>
        <time>2022-10-09T08:46:38Z</time>
      </trkpt>
      <trkpt lat="45.05983" lon="0.43549">
        <ele>116.4</ele>
        <time>2022-10-09T08:46:40Z</time>
      </trkpt>
      <trkpt lat="45.05982" lon="0.43543">
        <ele>116.7</ele>
        <time>2022-10-09T08:46:41Z</time>
      </trkpt>
      <trkpt lat="45.05984" lon="0.43541">
        <ele>116.8</ele>
        <time>2022-10-09T08:46:42Z</time>
      </trkpt>
      <trkpt lat="45.05986" lon="0.43539">
        <ele>116.9</ele>
        <time>2022-10-09T08:46:44Z</time>
      </trkpt>
      <trkpt lat="45.05989" lon="0.43541">
        <ele>117</ele>
        <time>2022-10-09T08:46:46Z</time>
      </trkpt>
      <trkpt lat="45.05991" lon="0.43542">
        <ele>117</ele>
        <time>2022-10-09T08:46:47Z</time>
      </trkpt>
      <trkpt lat="45.05995" lon="0.43538">
        <ele>117</ele>
        <time>2022-10-09T08:46:50Z</time>
      </trkpt>
      <trkpt lat="45.05999" lon="0.43536">
        <ele>117</ele>
        <time>2022-10-09T08:46:53Z</time>
      </trkpt>
      <trkpt lat="45.06005" lon="0.43516">
        <ele>115.8</ele>
        <time>2022-10-09T08:46:58Z</time>
      </trkpt>
      <trkpt lat="45.06006" lon="0.43514">
        <ele>115.7</ele>
        <time>2022-10-09T08:46:59Z</time>
      </trkpt>
      <trkpt lat="45.06001" lon="0.43511">
        <ele>115.2</ele>
        <time>2022-10-09T08:47:01Z</time>
      </trkpt>
      <trkpt lat="45.05999" lon="0.4351">
        <ele>115</ele>
        <time>2022-10-09T08:47:03Z</time>
      </trkpt>
      <trkpt lat="45.05996" lon="0.4351">
        <ele>114.6</ele>
        <time>2022-10-09T08:47:06Z</time>
      </trkpt>
      <trkpt lat="45.05994" lon="0.43511">
        <ele>114.5</ele>
        <time>2022-10-09T08:47:08Z</time>
      </trkpt>
      <trkpt lat="45.05992" lon="0.43511">
        <ele>114.3</ele>
        <time>2022-10-09T08:47:10Z</time>
      </trkpt>
      <trkpt lat="45.05989" lon="0.43512">
        <ele>114</ele>
        <time>2022-10-09T08:47:11Z</time>
      </trkpt>
      <trkpt lat="45.05989" lon="0.4351">
        <ele>113.9</ele>
        <time>2022-10-09T08:47:13Z</time>
      </trkpt>
      <trkpt lat="45.05989" lon="0.43506">
        <ele>113.6</ele>
        <time>2022-10-09T08:47:15Z</time>
      </trkpt>
      <trkpt lat="45.0599" lon="0.43502">
        <ele>113.3</ele>
        <time>2022-10-09T08:47:16Z</time>
      </trkpt>
      <trkpt lat="45.05989" lon="0.43503">
        <ele>113.1</ele>
        <time>2022-10-09T08:47:17Z</time>
      </trkpt>
      <trkpt lat="45.05992" lon="0.435">
        <ele>112.8</ele>
        <time>2022-10-09T08:47:19Z</time>
      </trkpt>
      <trkpt lat="45.05992" lon="0.43499">
        <ele>112.7</ele>
        <time>2022-10-09T08:47:20Z</time>
      </trkpt>
      <trkpt lat="45.05996" lon="0.43494">
        <ele>112.3</ele>
        <time>2022-10-09T08:47:23Z</time>
      </trkpt>
      <trkpt lat="45.05998" lon="0.43492">
        <ele>112.1</ele>
        <time>2022-10-09T08:47:24Z</time>
      </trkpt>
      <trkpt lat="45.06003" lon="0.43488">
        <ele>111.5</ele>
        <time>2022-10-09T08:47:26Z</time>
      </trkpt>
      <trkpt lat="45.06005" lon="0.43486">
        <ele>111.3</ele>
        <time>2022-10-09T08:47:27Z</time>
      </trkpt>
      <trkpt lat="45.06011" lon="0.4348">
        <ele>110.8</ele>
        <time>2022-10-09T08:47:30Z</time>
      </trkpt>
      <trkpt lat="45.06013" lon="0.43478">
        <ele>110.6</ele>
        <time>2022-10-09T08:47:31Z</time>
      </trkpt>
      <trkpt lat="45.06018" lon="0.43474">
        <ele>110.4</ele>
        <time>2022-10-09T08:47:33Z</time>
      </trkpt>
      <trkpt lat="45.06022" lon="0.4347">
        <ele>110.3</ele>
        <time>2022-10-09T08:47:35Z</time>
      </trkpt>
      <trkpt lat="45.06023" lon="0.43468">
        <ele>110.2</ele>
        <time>2022-10-09T08:47:36Z</time>
      </trkpt>
      <trkpt lat="45.06031" lon="0.43461">
        <ele>110.3</ele>
        <time>2022-10-09T08:47:39Z</time>
      </trkpt>
      <trkpt lat="45.06039" lon="0.43459">
        <ele>110.8</ele>
        <time>2022-10-09T08:47:43Z</time>
      </trkpt>
      <trkpt lat="45.06039" lon="0.43459">
        <ele>110.8</ele>
        <time>2022-10-09T08:47:44Z</time>
      </trkpt>
      <trkpt lat="45.06039" lon="0.43459">
        <ele>110.8</ele>
        <time>2022-10-09T08:47:45Z</time>
      </trkpt>
      <trkpt lat="45.06049" lon="0.43467">
        <ele>112</ele>
        <time>2022-10-09T08:47:50Z</time>
      </trkpt>
      <trkpt lat="45.06049" lon="0.43468">
        <ele>112.1</ele>
        <time>2022-10-09T08:47:51Z</time>
      </trkpt>
      <trkpt lat="45.06046" lon="0.43484">
        <ele>113.3</ele>
        <time>2022-10-09T08:47:55Z</time>
      </trkpt>
      <trkpt lat="45.06045" lon="0.4349">
        <ele>113.6</ele>
        <time>2022-10-09T08:47:58Z</time>
      </trkpt>
      <trkpt lat="45.06047" lon="0.43494">
        <ele>113.8</ele>
        <time>2022-10-09T08:48:01Z</time>
      </trkpt>
      <trkpt lat="45.06048" lon="0.43495">
        <ele>113.8</ele>
        <time>2022-10-09T08:48:02Z</time>
      </trkpt>
      <trkpt lat="45.06051" lon="0.43497">
        <ele>113.9</ele>
        <time>2022-10-09T08:48:05Z</time>
      </trkpt>
      <trkpt lat="45.06054" lon="0.43498">
        <ele>113.9</ele>
        <time>2022-10-09T08:48:06Z</time>
      </trkpt>
      <trkpt lat="45.06056" lon="0.43499">
        <ele>113.9</ele>
        <time>2022-10-09T08:48:07Z</time>
      </trkpt>
      <trkpt lat="45.06061" lon="0.43497">
        <ele>114</ele>
        <time>2022-10-09T08:48:09Z</time>
      </trkpt>
      <trkpt lat="45.06067" lon="0.43494">
        <ele>114</ele>
        <time>2022-10-09T08:48:11Z</time>
      </trkpt>
      <trkpt lat="45.06074" lon="0.43489">
        <ele>114</ele>
        <time>2022-10-09T08:48:13Z</time>
      </trkpt>
      <trkpt lat="45.06075" lon="0.43485">
        <ele>114</ele>
        <time>2022-10-09T08:48:14Z</time>
      </trkpt>
      <trkpt lat="45.06075" lon="0.43481">
        <ele>113.9</ele>
        <time>2022-10-09T08:48:15Z</time>
      </trkpt>
      <trkpt lat="45.06075" lon="0.4348">
        <ele>113.9</ele>
        <time>2022-10-09T08:48:18Z</time>
      </trkpt>
      <trkpt lat="45.06074" lon="0.43478">
        <ele>113.8</ele>
        <time>2022-10-09T08:48:19Z</time>
      </trkpt>
      <trkpt lat="45.06073" lon="0.4347">
        <ele>113.5</ele>
        <time>2022-10-09T08:48:22Z</time>
      </trkpt>
      <trkpt lat="45.06073" lon="0.43469">
        <ele>113.5</ele>
        <time>2022-10-09T08:48:23Z</time>
      </trkpt>
      <trkpt lat="45.06073" lon="0.43467">
        <ele>113.4</ele>
        <time>2022-10-09T08:48:26Z</time>
      </trkpt>
      <trkpt lat="45.06075" lon="0.43461">
        <ele>112.9</ele>
        <time>2022-10-09T08:48:28Z</time>
      </trkpt>
      <trkpt lat="45.06081" lon="0.43453">
        <ele>111.9</ele>
        <time>2022-10-09T08:48:33Z</time>
      </trkpt>
      <trkpt lat="45.06085" lon="0.43452">
        <ele>111.3</ele>
        <time>2022-10-09T08:48:36Z</time>
      </trkpt>
      <trkpt lat="45.0609" lon="0.4345">
        <ele>110.5</ele>
        <time>2022-10-09T08:48:39Z</time>
      </trkpt>
      <trkpt lat="45.06099" lon="0.43451">
        <ele>109.1</ele>
        <time>2022-10-09T08:48:43Z</time>
      </trkpt>
      <trkpt lat="45.06104" lon="0.43443">
        <ele>108.4</ele>
        <time>2022-10-09T08:48:46Z</time>
      </trkpt>
      <trkpt lat="45.06107" lon="0.43435">
        <ele>108</ele>
        <time>2022-10-09T08:48:51Z</time>
      </trkpt>
      <trkpt lat="45.06113" lon="0.43422">
        <ele>107.3</ele>
        <time>2022-10-09T08:48:57Z</time>
      </trkpt>
      <trkpt lat="45.06113" lon="0.43422">
        <ele>107.3</ele>
        <time>2022-10-09T08:48:59Z</time>
      </trkpt>
      <trkpt lat="45.06121" lon="0.4342">
        <ele>107.1</ele>
        <time>2022-10-09T08:49:01Z</time>
      </trkpt>
      <trkpt lat="45.06124" lon="0.4342">
        <ele>107.1</ele>
        <time>2022-10-09T08:49:02Z</time>
      </trkpt>
      <trkpt lat="45.06133" lon="0.43422">
        <ele>107.6</ele>
        <time>2022-10-09T08:49:04Z</time>
      </trkpt>
      <trkpt lat="45.06154" lon="0.43424">
        <ele>109.7</ele>
        <time>2022-10-09T08:49:08Z</time>
      </trkpt>
      <trkpt lat="45.06157" lon="0.43426">
        <ele>109.9</ele>
        <time>2022-10-09T08:49:09Z</time>
      </trkpt>
      <trkpt lat="45.06165" lon="0.43431">
        <ele>109.9</ele>
        <time>2022-10-09T08:49:11Z</time>
      </trkpt>
      <trkpt lat="45.0617" lon="0.43431">
        <ele>109.8</ele>
        <time>2022-10-09T08:49:13Z</time>
      </trkpt>
      <trkpt lat="45.06171" lon="0.4343">
        <ele>109.7</ele>
        <time>2022-10-09T08:49:14Z</time>
      </trkpt>
      <trkpt lat="45.06171" lon="0.43426">
        <ele>109.7</ele>
        <time>2022-10-09T08:49:17Z</time>
      </trkpt>
      <trkpt lat="45.06171" lon="0.43422">
        <ele>109.7</ele>
        <time>2022-10-09T08:49:19Z</time>
      </trkpt>
      <trkpt lat="45.06171" lon="0.43415">
        <ele>109.8</ele>
        <time>2022-10-09T08:49:22Z</time>
      </trkpt>
      <trkpt lat="45.0617" lon="0.43408">
        <ele>110</ele>
        <time>2022-10-09T08:49:25Z</time>
      </trkpt>
      <trkpt lat="45.06171" lon="0.43403">
        <ele>110.2</ele>
        <time>2022-10-09T08:49:27Z</time>
      </trkpt>
      <trkpt lat="45.06175" lon="0.43388">
        <ele>110.1</ele>
        <time>2022-10-09T08:49:33Z</time>
      </trkpt>
      <trkpt lat="45.06173" lon="0.43377">
        <ele>110.8</ele>
        <time>2022-10-09T08:49:40Z</time>
      </trkpt>
      <trkpt lat="45.06173" lon="0.43377">
        <ele>110</ele>
        <time>2022-10-09T08:49:42Z</time>
      </trkpt>
      <trkpt lat="45.06168" lon="0.43372">
        <ele>109.2</ele>
        <time>2022-10-09T08:49:45Z</time>
      </trkpt>
      <trkpt lat="45.0616" lon="0.43373">
        <ele>110.7</ele>
        <time>2022-10-09T08:49:51Z</time>
      </trkpt>
      <trkpt lat="45.06158" lon="0.43375">
        <ele>109.9</ele>
        <time>2022-10-09T08:49:55Z</time>
      </trkpt>
      <trkpt lat="45.06158" lon="0.4338">
        <ele>110.3</ele>
        <time>2022-10-09T08:49:57Z</time>
      </trkpt>
      <trkpt lat="45.06157" lon="0.43387">
        <ele>110.7</ele>
        <time>2022-10-09T08:50:00Z</time>
      </trkpt>
      <trkpt lat="45.06156" lon="0.43389">
        <ele>110.9</ele>
        <time>2022-10-09T08:50:02Z</time>
      </trkpt>
      <trkpt lat="45.06154" lon="0.43392">
        <ele>111.1</ele>
        <time>2022-10-09T08:50:04Z</time>
      </trkpt>
      <trkpt lat="45.06151" lon="0.43393">
        <ele>111.4</ele>
        <time>2022-10-09T08:50:06Z</time>
      </trkpt>
      <trkpt lat="45.06149" lon="0.43394">
        <ele>111.6</ele>
        <time>2022-10-09T08:50:07Z</time>
      </trkpt>
      <trkpt lat="45.0614" lon="0.43396">
        <ele>112.7</ele>
        <time>2022-10-09T08:50:14Z</time>
      </trkpt>
      <trkpt lat="45.06137" lon="0.43397">
        <ele>113.1</ele>
        <time>2022-10-09T08:50:17Z</time>
      </trkpt>
      <trkpt lat="45.06134" lon="0.43397">
        <ele>113.5</ele>
        <time>2022-10-09T08:50:19Z</time>
      </trkpt>
      <trkpt lat="45.06133" lon="0.43397">
        <ele>113.7</ele>
        <time>2022-10-09T08:50:20Z</time>
      </trkpt>
      <trkpt lat="45.06127" lon="0.43398">
        <ele>114.6</ele>
        <time>2022-10-09T08:50:25Z</time>
      </trkpt>
      <trkpt lat="45.06124" lon="0.43398">
        <ele>115.3</ele>
        <time>2022-10-09T08:50:29Z</time>
      </trkpt>
      <trkpt lat="45.06118" lon="0.43398">
        <ele>116.3</ele>
        <time>2022-10-09T08:50:35Z</time>
      </trkpt>
      <trkpt lat="45.06072" lon="0.43412">
        <ele>123.8</ele>
        <time>2022-10-09T08:52:07Z</time>
      </trkpt>
      <trkpt lat="45.06058" lon="0.43421">
        <ele>124.9</ele>
        <time>2022-10-09T08:52:13Z</time>
      </trkpt>
      <trkpt lat="45.06053" lon="0.43424">
        <ele>125.2</ele>
        <time>2022-10-09T08:52:16Z</time>
      </trkpt>
      <trkpt lat="45.06052" lon="0.43425">
        <ele>125.3</ele>
        <time>2022-10-09T08:52:17Z</time>
      </trkpt>
      <trkpt lat="45.06047" lon="0.43426">
        <ele>125.6</ele>
        <time>2022-10-09T08:52:20Z</time>
      </trkpt>
      <trkpt lat="45.06045" lon="0.43427">
        <ele>125.7</ele>
        <time>2022-10-09T08:52:22Z</time>
      </trkpt>
      <trkpt lat="45.06041" lon="0.43428">
        <ele>126.1</ele>
        <time>2022-10-09T08:52:25Z</time>
      </trkpt>
      <trkpt lat="45.06036" lon="0.4343">
        <ele>126.4</ele>
        <time>2022-10-09T08:52:28Z</time>
      </trkpt>
      <trkpt lat="45.06033" lon="0.43431">
        <ele>126.6</ele>
        <time>2022-10-09T08:52:30Z</time>
      </trkpt>
      <trkpt lat="45.06028" lon="0.43432">
        <ele>126.8</ele>
        <time>2022-10-09T08:52:33Z</time>
      </trkpt>
      <trkpt lat="45.06028" lon="0.43432">
        <ele>126.8</ele>
        <time>2022-10-09T08:52:34Z</time>
      </trkpt>
      <trkpt lat="45.06021" lon="0.43435">
        <ele>127</ele>
        <time>2022-10-09T08:52:38Z</time>
      </trkpt>
      <trkpt lat="45.06018" lon="0.43436">
        <ele>127</ele>
        <time>2022-10-09T08:52:40Z</time>
      </trkpt>
      <trkpt lat="45.06014" lon="0.43438">
        <ele>127</ele>
        <time>2022-10-09T08:52:42Z</time>
      </trkpt>
      <trkpt lat="45.06012" lon="0.4344">
        <ele>127</ele>
        <time>2022-10-09T08:52:43Z</time>
      </trkpt>
      <trkpt lat="45.06006" lon="0.43448">
        <ele>126.8</ele>
        <time>2022-10-09T08:52:45Z</time>
      </trkpt>
      <trkpt lat="45.06002" lon="0.43454">
        <ele>126.6</ele>
        <time>2022-10-09T08:52:47Z</time>
      </trkpt>
      <trkpt lat="45.05994" lon="0.43468">
        <ele>125.7</ele>
        <time>2022-10-09T08:52:50Z</time>
      </trkpt>
      <trkpt lat="45.05991" lon="0.43473">
        <ele>125.3</ele>
        <time>2022-10-09T08:52:51Z</time>
      </trkpt>
      <trkpt lat="45.05982" lon="0.43489">
        <ele>124</ele>
        <time>2022-10-09T08:52:55Z</time>
      </trkpt>
      <trkpt lat="45.0598" lon="0.43493">
        <ele>123.6</ele>
        <time>2022-10-09T08:52:56Z</time>
      </trkpt>
      <trkpt lat="45.05974" lon="0.43503">
        <ele>122.6</ele>
        <time>2022-10-09T08:52:58Z</time>
      </trkpt>
      <trkpt lat="45.05971" lon="0.43517">
        <ele>121.8</ele>
        <time>2022-10-09T08:53:00Z</time>
      </trkpt>
      <trkpt lat="45.05968" lon="0.43531">
        <ele>121.6</ele>
        <time>2022-10-09T08:53:02Z</time>
      </trkpt>
      <trkpt lat="45.05963" lon="0.43545">
        <ele>121.7</ele>
        <time>2022-10-09T08:53:05Z</time>
      </trkpt>
      <trkpt lat="45.05957" lon="0.43561">
        <ele>122.4</ele>
        <time>2022-10-09T08:53:11Z</time>
      </trkpt>
      <trkpt lat="45.05954" lon="0.43564">
        <ele>122.6</ele>
        <time>2022-10-09T08:53:13Z</time>
      </trkpt>
      <trkpt lat="45.05949" lon="0.43569">
        <ele>123</ele>
        <time>2022-10-09T08:53:16Z</time>
      </trkpt>
      <trkpt lat="45.05947" lon="0.4357">
        <ele>122.9</ele>
        <time>2022-10-09T08:53:18Z</time>
      </trkpt>
      <trkpt lat="45.05943" lon="0.43573">
        <ele>122.7</ele>
        <time>2022-10-09T08:53:21Z</time>
      </trkpt>
      <trkpt lat="45.05939" lon="0.43577">
        <ele>122.4</ele>
        <time>2022-10-09T08:53:23Z</time>
      </trkpt>
      <trkpt lat="45.05934" lon="0.43584">
        <ele>122.2</ele>
        <time>2022-10-09T08:53:27Z</time>
      </trkpt>
      <trkpt lat="45.05931" lon="0.4359">
        <ele>122</ele>
        <time>2022-10-09T08:53:30Z</time>
      </trkpt>
      <trkpt lat="45.0593" lon="0.43594">
        <ele>121.9</ele>
        <time>2022-10-09T08:53:32Z</time>
      </trkpt>
      <trkpt lat="45.05929" lon="0.43597">
        <ele>121.8</ele>
        <time>2022-10-09T08:53:33Z</time>
      </trkpt>
      <trkpt lat="45.05927" lon="0.43604">
        <ele>121.6</ele>
        <time>2022-10-09T08:53:37Z</time>
      </trkpt>
      <trkpt lat="45.05926" lon="0.43608">
        <ele>121.5</ele>
        <time>2022-10-09T08:53:39Z</time>
      </trkpt>
      <trkpt lat="45.05923" lon="0.43614">
        <ele>121.4</ele>
        <time>2022-10-09T08:53:43Z</time>
      </trkpt>
      <trkpt lat="45.05922" lon="0.43615">
        <ele>121.4</ele>
        <time>2022-10-09T08:53:44Z</time>
      </trkpt>
      <trkpt lat="45.05917" lon="0.4362">
        <ele>121.4</ele>
        <time>2022-10-09T08:53:47Z</time>
      </trkpt>
      <trkpt lat="45.05912" lon="0.43626">
        <ele>121.5</ele>
        <time>2022-10-09T08:53:52Z</time>
      </trkpt>
      <trkpt lat="45.05911" lon="0.43626">
        <ele>121.5</ele>
        <time>2022-10-09T08:53:53Z</time>
      </trkpt>
      <trkpt lat="45.05905" lon="0.43628">
        <ele>121.5</ele>
        <time>2022-10-09T08:53:57Z</time>
      </trkpt>
      <trkpt lat="45.05901" lon="0.4363">
        <ele>121.6</ele>
        <time>2022-10-09T08:53:58Z</time>
      </trkpt>
      <trkpt lat="45.05901" lon="0.4363">
        <ele>121.6</ele>
        <time>2022-10-09T08:54:00Z</time>
      </trkpt>
      <trkpt lat="45.05899" lon="0.43626">
        <ele>121.8</ele>
        <time>2022-10-09T08:54:02Z</time>
      </trkpt>
      <trkpt lat="45.05895" lon="0.43618">
        <ele>122.3</ele>
        <time>2022-10-09T08:54:07Z</time>
      </trkpt>
      <trkpt lat="45.05894" lon="0.43616">
        <ele>122.4</ele>
        <time>2022-10-09T08:54:08Z</time>
      </trkpt>
      <trkpt lat="45.05889" lon="0.43604">
        <ele>123.3</ele>
        <time>2022-10-09T08:54:14Z</time>
      </trkpt>
      <trkpt lat="45.05886" lon="0.43598">
        <ele>123.8</ele>
        <time>2022-10-09T08:54:17Z</time>
      </trkpt>
      <trkpt lat="45.05881" lon="0.43591">
        <ele>124.6</ele>
        <time>2022-10-09T08:54:21Z</time>
      </trkpt>
      <trkpt lat="45.05875" lon="0.43588">
        <ele>125.3</ele>
        <time>2022-10-09T08:54:25Z</time>
      </trkpt>
      <trkpt lat="45.05871" lon="0.43586">
        <ele>125.7</ele>
        <time>2022-10-09T08:54:28Z</time>
      </trkpt>
      <trkpt lat="45.0586" lon="0.43583">
        <ele>126.8</ele>
        <time>2022-10-09T08:54:35Z</time>
      </trkpt>
      <trkpt lat="45.0585" lon="0.43582">
        <ele>127.9</ele>
        <time>2022-10-09T08:54:43Z</time>
      </trkpt>
      <trkpt lat="45.05838" lon="0.4358">
        <ele>129</ele>
        <time>2022-10-09T08:54:51Z</time>
      </trkpt>
      <trkpt lat="45.05828" lon="0.43579">
        <ele>130</ele>
        <time>2022-10-09T08:54:58Z</time>
      </trkpt>
      <trkpt lat="45.05816" lon="0.43578">
        <ele>131.2</ele>
        <time>2022-10-09T08:55:06Z</time>
      </trkpt>
      <trkpt lat="45.05803" lon="0.43576">
        <ele>132.4</ele>
        <time>2022-10-09T08:55:15Z</time>
      </trkpt>
      <trkpt lat="45.0579" lon="0.43574">
        <ele>133.7</ele>
        <time>2022-10-09T08:55:23Z</time>
      </trkpt>
      <trkpt lat="45.05785" lon="0.43573">
        <ele>134.3</ele>
        <time>2022-10-09T08:55:27Z</time>
      </trkpt>
      <trkpt lat="45.0578" lon="0.43572">
        <ele>134.9</ele>
        <time>2022-10-09T08:55:31Z</time>
      </trkpt>
      <trkpt lat="45.05771" lon="0.43566">
        <ele>136</ele>
        <time>2022-10-09T08:55:38Z</time>
      </trkpt>
      <trkpt lat="45.05769" lon="0.43564">
        <ele>136.3</ele>
        <time>2022-10-09T08:55:40Z</time>
      </trkpt>
      <trkpt lat="45.05766" lon="0.4356">
        <ele>136.8</ele>
        <time>2022-10-09T08:55:43Z</time>
      </trkpt>
      <trkpt lat="45.05764" lon="0.43557">
        <ele>137.2</ele>
        <time>2022-10-09T08:55:46Z</time>
      </trkpt>
      <trkpt lat="45.05761" lon="0.43554">
        <ele>137.7</ele>
        <time>2022-10-09T08:55:49Z</time>
      </trkpt>
      <trkpt lat="45.05754" lon="0.43546">
        <ele>138.9</ele>
        <time>2022-10-09T08:55:57Z</time>
      </trkpt>
      <trkpt lat="45.05747" lon="0.43538">
        <ele>140.2</ele>
        <time>2022-10-09T08:56:04Z</time>
      </trkpt>
      <trkpt lat="45.05745" lon="0.43535">
        <ele>140.5</ele>
        <time>2022-10-09T08:56:07Z</time>
      </trkpt>
      <trkpt lat="45.05741" lon="0.43531">
        <ele>141.2</ele>
        <time>2022-10-09T08:56:11Z</time>
      </trkpt>
      <trkpt lat="45.0574" lon="0.43529">
        <ele>141.3</ele>
        <time>2022-10-09T08:56:12Z</time>
      </trkpt>
      <trkpt lat="45.05734" lon="0.43522">
        <ele>142.3</ele>
        <time>2022-10-09T08:56:18Z</time>
      </trkpt>
      <trkpt lat="45.0573" lon="0.4351">
        <ele>143.4</ele>
        <time>2022-10-09T08:56:26Z</time>
      </trkpt>
      <trkpt lat="45.05727" lon="0.435">
        <ele>144.1</ele>
        <time>2022-10-09T08:56:31Z</time>
      </trkpt>
      <trkpt lat="45.05726" lon="0.43488">
        <ele>144.8</ele>
        <time>2022-10-09T08:56:37Z</time>
      </trkpt>
      <trkpt lat="45.05725" lon="0.43477">
        <ele>145.4</ele>
        <time>2022-10-09T08:56:42Z</time>
      </trkpt>
      <trkpt lat="45.05723" lon="0.43466">
        <ele>145.8</ele>
        <time>2022-10-09T08:56:47Z</time>
      </trkpt>
      <trkpt lat="45.05722" lon="0.43463">
        <ele>146</ele>
        <time>2022-10-09T08:56:49Z</time>
      </trkpt>
      <trkpt lat="45.0572" lon="0.4346">
        <ele>146.1</ele>
        <time>2022-10-09T08:56:51Z</time>
      </trkpt>
      <trkpt lat="45.05715" lon="0.43466">
        <ele>146.3</ele>
        <time>2022-10-09T08:56:54Z</time>
      </trkpt>
      <trkpt lat="45.05713" lon="0.43471">
        <ele>146.4</ele>
        <time>2022-10-09T08:56:56Z</time>
      </trkpt>
      <trkpt lat="45.05709" lon="0.4348">
        <ele>146.4</ele>
        <time>2022-10-09T08:57:00Z</time>
      </trkpt>
      <trkpt lat="45.05704" lon="0.43493">
        <ele>146.5</ele>
        <time>2022-10-09T08:57:06Z</time>
      </trkpt>
      <trkpt lat="45.05697" lon="0.43508">
        <ele>146.6</ele>
        <time>2022-10-09T08:57:13Z</time>
      </trkpt>
      <trkpt lat="45.05696" lon="0.4351">
        <ele>146.6</ele>
        <time>2022-10-09T08:57:14Z</time>
      </trkpt>
      <trkpt lat="45.05695" lon="0.43514">
        <ele>146.6</ele>
        <time>2022-10-09T08:57:16Z</time>
      </trkpt>
      <trkpt lat="45.05694" lon="0.43515">
        <ele>146.7</ele>
        <time>2022-10-09T08:57:17Z</time>
      </trkpt>
      <trkpt lat="45.05689" lon="0.43527">
        <ele>146.8</ele>
        <time>2022-10-09T08:57:22Z</time>
      </trkpt>
      <trkpt lat="45.05684" lon="0.43539">
        <ele>146.9</ele>
        <time>2022-10-09T08:57:28Z</time>
      </trkpt>
      <trkpt lat="45.05682" lon="0.43543">
        <ele>147</ele>
        <time>2022-10-09T08:57:31Z</time>
      </trkpt>
      <trkpt lat="45.05681" lon="0.43545">
        <ele>147</ele>
        <time>2022-10-09T08:57:32Z</time>
      </trkpt>
      <trkpt lat="45.05674" lon="0.43563">
        <ele>147.3</ele>
        <time>2022-10-09T08:57:38Z</time>
      </trkpt>
      <trkpt lat="45.05669" lon="0.43574">
        <ele>147.5</ele>
        <time>2022-10-09T08:57:42Z</time>
      </trkpt>
      <trkpt lat="45.05668" lon="0.43576">
        <ele>147.5</ele>
        <time>2022-10-09T08:57:43Z</time>
      </trkpt>
      <trkpt lat="45.05665" lon="0.43584">
        <ele>147.6</ele>
        <time>2022-10-09T08:57:47Z</time>
      </trkpt>
      <trkpt lat="45.05663" lon="0.43587">
        <ele>147.7</ele>
        <time>2022-10-09T08:57:48Z</time>
      </trkpt>
      <trkpt lat="45.05662" lon="0.4359">
        <ele>147.7</ele>
        <time>2022-10-09T08:57:49Z</time>
      </trkpt>
      <trkpt lat="45.05659" lon="0.43597">
        <ele>147.8</ele>
        <time>2022-10-09T08:57:52Z</time>
      </trkpt>
      <trkpt lat="45.05658" lon="0.43599">
        <ele>147.9</ele>
        <time>2022-10-09T08:57:53Z</time>
      </trkpt>
      <trkpt lat="45.05653" lon="0.4361">
        <ele>148.1</ele>
        <time>2022-10-09T08:57:58Z</time>
      </trkpt>
      <trkpt lat="45.05653" lon="0.43612">
        <ele>148.1</ele>
        <time>2022-10-09T08:57:59Z</time>
      </trkpt>
      <trkpt lat="45.05649" lon="0.4362">
        <ele>148.3</ele>
        <time>2022-10-09T08:58:02Z</time>
      </trkpt>
      <trkpt lat="45.05647" lon="0.43625">
        <ele>148.4</ele>
        <time>2022-10-09T08:58:04Z</time>
      </trkpt>
      <trkpt lat="45.05643" lon="0.43634">
        <ele>148.8</ele>
        <time>2022-10-09T08:58:08Z</time>
      </trkpt>
      <trkpt lat="45.05642" lon="0.43637">
        <ele>148.9</ele>
        <time>2022-10-09T08:58:09Z</time>
      </trkpt>
      <trkpt lat="45.05639" lon="0.43643">
        <ele>149.1</ele>
        <time>2022-10-09T08:58:12Z</time>
      </trkpt>
      <trkpt lat="45.05638" lon="0.43647">
        <ele>149.3</ele>
        <time>2022-10-09T08:58:14Z</time>
      </trkpt>
      <trkpt lat="45.05634" lon="0.43664">
        <ele>150</ele>
        <time>2022-10-09T08:58:20Z</time>
      </trkpt>
      <trkpt lat="45.05632" lon="0.43679">
        <ele>150.7</ele>
        <time>2022-10-09T08:58:26Z</time>
      </trkpt>
      <trkpt lat="45.05629" lon="0.43691">
        <ele>151.2</ele>
        <time>2022-10-09T08:58:31Z</time>
      </trkpt>
      <trkpt lat="45.05628" lon="0.43694">
        <ele>151.3</ele>
        <time>2022-10-09T08:58:33Z</time>
      </trkpt>
      <trkpt lat="45.05626" lon="0.43693">
        <ele>151.3</ele>
        <time>2022-10-09T08:58:35Z</time>
      </trkpt>
      <trkpt lat="45.05622" lon="0.4369">
        <ele>151.3</ele>
        <time>2022-10-09T08:58:40Z</time>
      </trkpt>
      <trkpt lat="45.05621" lon="0.43689">
        <ele>151.3</ele>
        <time>2022-10-09T08:58:41Z</time>
      </trkpt>
      <trkpt lat="45.05614" lon="0.43691">
        <ele>151.4</ele>
        <time>2022-10-09T08:58:43Z</time>
      </trkpt>
      <trkpt lat="45.05613" lon="0.43695">
        <ele>151.4</ele>
        <time>2022-10-09T08:58:46Z</time>
      </trkpt>
      <trkpt lat="45.05613" lon="0.43696">
        <ele>151.4</ele>
        <time>2022-10-09T08:58:47Z</time>
      </trkpt>
      <trkpt lat="45.05612" lon="0.437">
        <ele>151.5</ele>
        <time>2022-10-09T08:58:49Z</time>
      </trkpt>
      <trkpt lat="45.05611" lon="0.43703">
        <ele>151.5</ele>
        <time>2022-10-09T08:58:50Z</time>
      </trkpt>
      <trkpt lat="45.05611" lon="0.43706">
        <ele>151.5</ele>
        <time>2022-10-09T08:58:52Z</time>
      </trkpt>
      <trkpt lat="45.05611" lon="0.43714">
        <ele>151.7</ele>
        <time>2022-10-09T08:58:55Z</time>
      </trkpt>
      <trkpt lat="45.05611" lon="0.4372">
        <ele>151.8</ele>
        <time>2022-10-09T08:58:58Z</time>
      </trkpt>
      <trkpt lat="45.05611" lon="0.43723">
        <ele>151.8</ele>
        <time>2022-10-09T08:58:59Z</time>
      </trkpt>
      <trkpt lat="45.05609" lon="0.43733">
        <ele>151.9</ele>
        <time>2022-10-09T08:59:04Z</time>
      </trkpt>
      <trkpt lat="45.05609" lon="0.43734">
        <ele>151.9</ele>
        <time>2022-10-09T08:59:06Z</time>
      </trkpt>
      <trkpt lat="45.05607" lon="0.43738">
        <ele>151.9</ele>
        <time>2022-10-09T08:59:07Z</time>
      </trkpt>
      <trkpt lat="45.05605" lon="0.43742">
        <ele>151.8</ele>
        <time>2022-10-09T08:59:11Z</time>
      </trkpt>
      <trkpt lat="45.05605" lon="0.43744">
        <ele>151.7</ele>
        <time>2022-10-09T08:59:13Z</time>
      </trkpt>
      <trkpt lat="45.05606" lon="0.43751">
        <ele>151.6</ele>
        <time>2022-10-09T08:59:15Z</time>
      </trkpt>
      <trkpt lat="45.05607" lon="0.43768">
        <ele>151.2</ele>
        <time>2022-10-09T08:59:19Z</time>
      </trkpt>
      <trkpt lat="45.05604" lon="0.43786">
        <ele>150.8</ele>
        <time>2022-10-09T08:59:23Z</time>
      </trkpt>
      <trkpt lat="45.05601" lon="0.43794">
        <ele>150.7</ele>
        <time>2022-10-09T08:59:25Z</time>
      </trkpt>
      <trkpt lat="45.05598" lon="0.43802">
        <ele>150.5</ele>
        <time>2022-10-09T08:59:27Z</time>
      </trkpt>
      <trkpt lat="45.05594" lon="0.43806">
        <ele>150.4</ele>
        <time>2022-10-09T08:59:29Z</time>
      </trkpt>
      <trkpt lat="45.05592" lon="0.43808">
        <ele>150.3</ele>
        <time>2022-10-09T08:59:31Z</time>
      </trkpt>
      <trkpt lat="45.05589" lon="0.4381">
        <ele>150.3</ele>
        <time>2022-10-09T08:59:33Z</time>
      </trkpt>
      <trkpt lat="45.05588" lon="0.43812">
        <ele>150.2</ele>
        <time>2022-10-09T08:59:34Z</time>
      </trkpt>
      <trkpt lat="45.05578" lon="0.43814">
        <ele>149.7</ele>
        <time>2022-10-09T08:59:38Z</time>
      </trkpt>
      <trkpt lat="45.05569" lon="0.43813">
        <ele>149.3</ele>
        <time>2022-10-09T08:59:42Z</time>
      </trkpt>
      <trkpt lat="45.05567" lon="0.43813">
        <ele>149.2</ele>
        <time>2022-10-09T08:59:43Z</time>
      </trkpt>
      <trkpt lat="45.05557" lon="0.43811">
        <ele>148.8</ele>
        <time>2022-10-09T08:59:47Z</time>
      </trkpt>
      <trkpt lat="45.05553" lon="0.4381">
        <ele>148.6</ele>
        <time>2022-10-09T08:59:49Z</time>
      </trkpt>
      <trkpt lat="45.0555" lon="0.43811">
        <ele>148.4</ele>
        <time>2022-10-09T08:59:51Z</time>
      </trkpt>
      <trkpt lat="45.05548" lon="0.43812">
        <ele>148.3</ele>
        <time>2022-10-09T08:59:52Z</time>
      </trkpt>
      <trkpt lat="45.05542" lon="0.43816">
        <ele>148</ele>
        <time>2022-10-09T08:59:55Z</time>
      </trkpt>
      <trkpt lat="45.05537" lon="0.43826">
        <ele>147.6</ele>
        <time>2022-10-09T09:00:00Z</time>
      </trkpt>
      <trkpt lat="45.05535" lon="0.4383">
        <ele>147.5</ele>
        <time>2022-10-09T09:00:01Z</time>
      </trkpt>
      <trkpt lat="45.05531" lon="0.43841">
        <ele>147.2</ele>
        <time>2022-10-09T09:00:04Z</time>
      </trkpt>
      <trkpt lat="45.0553" lon="0.43847">
        <ele>147</ele>
        <time>2022-10-09T09:00:06Z</time>
      </trkpt>
      <trkpt lat="45.05529" lon="0.4385">
        <ele>146.9</ele>
        <time>2022-10-09T09:00:07Z</time>
      </trkpt>
      <trkpt lat="45.05518" lon="0.43868">
        <ele>146.3</ele>
        <time>2022-10-09T09:00:12Z</time>
      </trkpt>
      <trkpt lat="45.05498" lon="0.43872">
        <ele>145.9</ele>
        <time>2022-10-09T09:00:19Z</time>
      </trkpt>
      <trkpt lat="45.05492" lon="0.43873">
        <ele>145.8</ele>
        <time>2022-10-09T09:00:21Z</time>
      </trkpt>
      <trkpt lat="45.0549" lon="0.43874">
        <ele>145.8</ele>
        <time>2022-10-09T09:00:22Z</time>
      </trkpt>
      <trkpt lat="45.05486" lon="0.43879">
        <ele>145.6</ele>
        <time>2022-10-09T09:00:24Z</time>
      </trkpt>
      <trkpt lat="45.05484" lon="0.43883">
        <ele>145.4</ele>
        <time>2022-10-09T09:00:25Z</time>
      </trkpt>
      <trkpt lat="45.05478" lon="0.43897">
        <ele>144.6</ele>
        <time>2022-10-09T09:00:28Z</time>
      </trkpt>
      <trkpt lat="45.05476" lon="0.43901">
        <ele>144.2</ele>
        <time>2022-10-09T09:00:29Z</time>
      </trkpt>
      <trkpt lat="45.05473" lon="0.43905">
        <ele>143.9</ele>
        <time>2022-10-09T09:00:30Z</time>
      </trkpt>
      <trkpt lat="45.05467" lon="0.43913">
        <ele>143</ele>
        <time>2022-10-09T09:00:32Z</time>
      </trkpt>
      <trkpt lat="45.05459" lon="0.43922">
        <ele>141.7</ele>
        <time>2022-10-09T09:00:34Z</time>
      </trkpt>
      <trkpt lat="45.05451" lon="0.43932">
        <ele>140.4</ele>
        <time>2022-10-09T09:00:36Z</time>
      </trkpt>
      <trkpt lat="45.05445" lon="0.43936">
        <ele>139.3</ele>
        <time>2022-10-09T09:00:38Z</time>
      </trkpt>
      <trkpt lat="45.05442" lon="0.43938">
        <ele>138.9</ele>
        <time>2022-10-09T09:00:39Z</time>
      </trkpt>
      <trkpt lat="45.05433" lon="0.43941">
        <ele>137.4</ele>
        <time>2022-10-09T09:00:41Z</time>
      </trkpt>
      <trkpt lat="45.05424" lon="0.43939">
        <ele>135.8</ele>
        <time>2022-10-09T09:00:43Z</time>
      </trkpt>
      <trkpt lat="45.05415" lon="0.43929">
        <ele>133.7</ele>
        <time>2022-10-09T09:00:47Z</time>
      </trkpt>
      <trkpt lat="45.0541" lon="0.43921">
        <ele>132.6</ele>
        <time>2022-10-09T09:00:50Z</time>
      </trkpt>
      <trkpt lat="45.05409" lon="0.43916">
        <ele>132.2</ele>
        <time>2022-10-09T09:00:51Z</time>
      </trkpt>
      <trkpt lat="45.05404" lon="0.43908">
        <ele>131.2</ele>
        <time>2022-10-09T09:00:53Z</time>
      </trkpt>
      <trkpt lat="45.05394" lon="0.43898">
        <ele>129.7</ele>
        <time>2022-10-09T09:00:56Z</time>
      </trkpt>
      <trkpt lat="45.05391" lon="0.43894">
        <ele>129</ele>
        <time>2022-10-09T09:00:57Z</time>
      </trkpt>
      <trkpt lat="45.05388" lon="0.43888">
        <ele>128.5</ele>
        <time>2022-10-09T09:00:58Z</time>
      </trkpt>
      <trkpt lat="45.0538" lon="0.43877">
        <ele>127.3</ele>
        <time>2022-10-09T09:01:00Z</time>
      </trkpt>
      <trkpt lat="45.05376" lon="0.43872">
        <ele>126.9</ele>
        <time>2022-10-09T09:01:01Z</time>
      </trkpt>
      <trkpt lat="45.05366" lon="0.43859">
        <ele>126.2</ele>
        <time>2022-10-09T09:01:04Z</time>
      </trkpt>
      <trkpt lat="45.05364" lon="0.43855">
        <ele>126.1</ele>
        <time>2022-10-09T09:01:05Z</time>
      </trkpt>
      <trkpt lat="45.05358" lon="0.43841">
        <ele>125.9</ele>
        <time>2022-10-09T09:01:09Z</time>
      </trkpt>
      <trkpt lat="45.05351" lon="0.43819">
        <ele>125.8</ele>
        <time>2022-10-09T09:01:14Z</time>
      </trkpt>
      <trkpt lat="45.05346" lon="0.43803">
        <ele>126.1</ele>
        <time>2022-10-09T09:01:18Z</time>
      </trkpt>
      <trkpt lat="45.05338" lon="0.43778">
        <ele>127.2</ele>
        <time>2022-10-09T09:01:25Z</time>
      </trkpt>
      <trkpt lat="45.05334" lon="0.43768">
        <ele>128.1</ele>
        <time>2022-10-09T09:01:29Z</time>
      </trkpt>
      <trkpt lat="45.05333" lon="0.43762">
        <ele>128.6</ele>
        <time>2022-10-09T09:01:31Z</time>
      </trkpt>
      <trkpt lat="45.05326" lon="0.43745">
        <ele>130.7</ele>
        <time>2022-10-09T09:01:37Z</time>
      </trkpt>
      <trkpt lat="45.0532" lon="0.43731">
        <ele>132.6</ele>
        <time>2022-10-09T09:01:44Z</time>
      </trkpt>
      <trkpt lat="45.05317" lon="0.43725">
        <ele>133.4</ele>
        <time>2022-10-09T09:01:48Z</time>
      </trkpt>
      <trkpt lat="45.05314" lon="0.43721">
        <ele>133.9</ele>
        <time>2022-10-09T09:01:51Z</time>
      </trkpt>
      <trkpt lat="45.05308" lon="0.43709">
        <ele>134.8</ele>
        <time>2022-10-09T09:01:57Z</time>
      </trkpt>
      <trkpt lat="45.053" lon="0.43692">
        <ele>135.1</ele>
        <time>2022-10-09T09:02:03Z</time>
      </trkpt>
      <trkpt lat="45.05293" lon="0.43677">
        <ele>134.8</ele>
        <time>2022-10-09T09:02:07Z</time>
      </trkpt>
      <trkpt lat="45.05291" lon="0.43672">
        <ele>134.6</ele>
        <time>2022-10-09T09:02:08Z</time>
      </trkpt>
      <trkpt lat="45.05285" lon="0.43662">
        <ele>134.1</ele>
        <time>2022-10-09T09:02:10Z</time>
      </trkpt>
      <trkpt lat="45.05278" lon="0.43651">
        <ele>133.4</ele>
        <time>2022-10-09T09:02:12Z</time>
      </trkpt>
      <trkpt lat="45.05271" lon="0.43639">
        <ele>133</ele>
        <time>2022-10-09T09:02:14Z</time>
      </trkpt>
      <trkpt lat="45.05267" lon="0.43634">
        <ele>132.9</ele>
        <time>2022-10-09T09:02:15Z</time>
      </trkpt>
      <trkpt lat="45.05256" lon="0.43621">
        <ele>133.2</ele>
        <time>2022-10-09T09:02:20Z</time>
      </trkpt>
      <trkpt lat="45.05246" lon="0.4361">
        <ele>134.4</ele>
        <time>2022-10-09T09:02:26Z</time>
      </trkpt>
      <trkpt lat="45.05238" lon="0.43603">
        <ele>135.6</ele>
        <time>2022-10-09T09:02:31Z</time>
      </trkpt>
      <trkpt lat="45.05237" lon="0.43601">
        <ele>135.8</ele>
        <time>2022-10-09T09:02:32Z</time>
      </trkpt>
      <trkpt lat="45.0523" lon="0.43594">
        <ele>136.9</ele>
        <time>2022-10-09T09:02:37Z</time>
      </trkpt>
      <trkpt lat="45.05226" lon="0.4359">
        <ele>137.4</ele>
        <time>2022-10-09T09:02:39Z</time>
      </trkpt>
      <trkpt lat="45.05217" lon="0.43584">
        <ele>137.9</ele>
        <time>2022-10-09T09:02:43Z</time>
      </trkpt>
      <trkpt lat="45.05207" lon="0.43579">
        <ele>138</ele>
        <time>2022-10-09T09:02:47Z</time>
      </trkpt>
      <trkpt lat="45.05191" lon="0.43572">
        <ele>137.5</ele>
        <time>2022-10-09T09:02:52Z</time>
      </trkpt>
      <trkpt lat="45.05184" lon="0.43569">
        <ele>137.2</ele>
        <time>2022-10-09T09:02:54Z</time>
      </trkpt>
      <trkpt lat="45.05181" lon="0.43565">
        <ele>136.9</ele>
        <time>2022-10-09T09:02:55Z</time>
      </trkpt>
      <trkpt lat="45.05172" lon="0.43545">
        <ele>136</ele>
        <time>2022-10-09T09:02:59Z</time>
      </trkpt>
      <trkpt lat="45.05169" lon="0.4354">
        <ele>135.7</ele>
        <time>2022-10-09T09:03:00Z</time>
      </trkpt>
      <trkpt lat="45.05162" lon="0.43518">
        <ele>135.2</ele>
        <time>2022-10-09T09:03:04Z</time>
      </trkpt>
      <trkpt lat="45.0516" lon="0.4351">
        <ele>135.1</ele>
        <time>2022-10-09T09:03:06Z</time>
      </trkpt>
      <trkpt lat="45.05157" lon="0.43504">
        <ele>135.4</ele>
        <time>2022-10-09T09:03:08Z</time>
      </trkpt>
      <trkpt lat="45.05151" lon="0.4349">
        <ele>136</ele>
        <time>2022-10-09T09:03:13Z</time>
      </trkpt>
      <trkpt lat="45.05141" lon="0.43473">
        <ele>137.1</ele>
        <time>2022-10-09T09:03:19Z</time>
      </trkpt>
      <trkpt lat="45.05133" lon="0.4346">
        <ele>138</ele>
        <time>2022-10-09T09:03:24Z</time>
      </trkpt>
      <trkpt lat="45.05122" lon="0.43442">
        <ele>139.1</ele>
        <time>2022-10-09T09:03:32Z</time>
      </trkpt>
      <trkpt lat="45.05114" lon="0.43428">
        <ele>139.9</ele>
        <time>2022-10-09T09:03:38Z</time>
      </trkpt>
      <trkpt lat="45.05109" lon="0.43412">
        <ele>140.5</ele>
        <time>2022-10-09T09:03:43Z</time>
      </trkpt>
      <trkpt lat="45.05113" lon="0.43397">
        <ele>140.6</ele>
        <time>2022-10-09T09:03:49Z</time>
      </trkpt>
      <trkpt lat="45.05125" lon="0.43381">
        <ele>140.5</ele>
        <time>2022-10-09T09:03:54Z</time>
      </trkpt>
      <trkpt lat="45.05135" lon="0.43372">
        <ele>140.2</ele>
        <time>2022-10-09T09:03:57Z</time>
      </trkpt>
      <trkpt lat="45.05142" lon="0.43367">
        <ele>139.9</ele>
        <time>2022-10-09T09:03:59Z</time>
      </trkpt>
      <trkpt lat="45.05159" lon="0.43355">
        <ele>138.9</ele>
        <time>2022-10-09T09:04:03Z</time>
      </trkpt>
      <trkpt lat="45.05164" lon="0.43352">
        <ele>138.6</ele>
        <time>2022-10-09T09:04:04Z</time>
      </trkpt>
      <trkpt lat="45.05178" lon="0.43349">
        <ele>137.5</ele>
        <time>2022-10-09T09:04:07Z</time>
      </trkpt>
      <trkpt lat="45.05187" lon="0.43355">
        <ele>135</ele>
        <time>2022-10-09T09:04:10Z</time>
      </trkpt>
      <trkpt lat="45.05188" lon="0.43377">
        <ele>133.1</ele>
        <time>2022-10-09T09:04:15Z</time>
      </trkpt>
      <trkpt lat="45.05188" lon="0.43402">
        <ele>131.5</ele>
        <time>2022-10-09T09:04:21Z</time>
      </trkpt>
      <trkpt lat="45.05189" lon="0.43415">
        <ele>131.3</ele>
        <time>2022-10-09T09:04:25Z</time>
      </trkpt>
      <trkpt lat="45.05191" lon="0.43427">
        <ele>130.6</ele>
        <time>2022-10-09T09:04:26Z</time>
      </trkpt>
      <trkpt lat="45.05193" lon="0.43439">
        <ele>130.9</ele>
        <time>2022-10-09T09:04:28Z</time>
      </trkpt>
      <trkpt lat="45.05207" lon="0.43476">
        <ele>129.9</ele>
        <time>2022-10-09T09:04:32Z</time>
      </trkpt>
      <trkpt lat="45.05211" lon="0.43484">
        <ele>130.9</ele>
        <time>2022-10-09T09:04:33Z</time>
      </trkpt>
      <trkpt lat="45.05217" lon="0.43485">
        <ele>130.2</ele>
        <time>2022-10-09T09:04:35Z</time>
      </trkpt>
      <trkpt lat="45.05222" lon="0.4348">
        <ele>129.5</ele>
        <time>2022-10-09T09:04:37Z</time>
      </trkpt>
      <trkpt lat="45.05228" lon="0.43476">
        <ele>128.7</ele>
        <time>2022-10-09T09:04:38Z</time>
      </trkpt>
      <trkpt lat="45.05234" lon="0.43471">
        <ele>127.8</ele>
        <time>2022-10-09T09:04:39Z</time>
      </trkpt>
      <trkpt lat="45.05248" lon="0.43461">
        <ele>125.5</ele>
        <time>2022-10-09T09:04:41Z</time>
      </trkpt>
      <trkpt lat="45.05249" lon="0.4346">
        <ele>125.5</ele>
        <time>2022-10-09T09:04:42Z</time>
      </trkpt>
      <trkpt lat="45.05254" lon="0.43449">
        <ele>124</ele>
        <time>2022-10-09T09:04:44Z</time>
      </trkpt>
      <trkpt lat="45.05259" lon="0.43438">
        <ele>122.5</ele>
        <time>2022-10-09T09:04:46Z</time>
      </trkpt>
      <trkpt lat="45.05262" lon="0.43432">
        <ele>121.5</ele>
        <time>2022-10-09T09:04:47Z</time>
      </trkpt>
      <trkpt lat="45.05265" lon="0.43425">
        <ele>120.5</ele>
        <time>2022-10-09T09:04:48Z</time>
      </trkpt>
      <trkpt lat="45.05271" lon="0.43418">
        <ele>119.2</ele>
        <time>2022-10-09T09:04:49Z</time>
      </trkpt>
      <trkpt lat="45.05297" lon="0.43404">
        <ele>114.3</ele>
        <time>2022-10-09T09:04:52Z</time>
      </trkpt>
      <trkpt lat="45.05318" lon="0.43401">
        <ele>111.6</ele>
        <time>2022-10-09T09:04:54Z</time>
      </trkpt>
      <trkpt lat="45.05337" lon="0.43398">
        <ele>110</ele>
        <time>2022-10-09T09:04:56Z</time>
      </trkpt>
      <trkpt lat="45.0535" lon="0.43404">
        <ele>109.1</ele>
        <time>2022-10-09T09:04:58Z</time>
      </trkpt>
      <trkpt lat="45.05355" lon="0.43409">
        <ele>108.9</ele>
        <time>2022-10-09T09:04:59Z</time>
      </trkpt>
      <trkpt lat="45.05363" lon="0.43418">
        <ele>109</ele>
        <time>2022-10-09T09:05:01Z</time>
      </trkpt>
      <trkpt lat="45.05366" lon="0.43418">
        <ele>109.1</ele>
        <time>2022-10-09T09:05:02Z</time>
      </trkpt>
      <trkpt lat="45.05369" lon="0.43413">
        <ele>109.3</ele>
        <time>2022-10-09T09:05:04Z</time>
      </trkpt>
      <trkpt lat="45.05367" lon="0.43409">
        <ele>109.4</ele>
        <time>2022-10-09T09:05:06Z</time>
      </trkpt>
      <trkpt lat="45.05364" lon="0.43397">
        <ele>109.7</ele>
        <time>2022-10-09T09:05:10Z</time>
      </trkpt>
      <trkpt lat="45.0536" lon="0.43381">
        <ele>109.9</ele>
        <time>2022-10-09T09:05:14Z</time>
      </trkpt>
      <trkpt lat="45.05366" lon="0.43383">
        <ele>110.3</ele>
        <time>2022-10-09T09:05:15Z</time>
      </trkpt>
      <trkpt lat="45.05374" lon="0.43379">
        <ele>111.1</ele>
        <time>2022-10-09T09:05:20Z</time>
      </trkpt>
      <trkpt lat="45.05378" lon="0.43377">
        <ele>111.5</ele>
        <time>2022-10-09T09:05:23Z</time>
      </trkpt>
      <trkpt lat="45.05379" lon="0.43377">
        <ele>111.7</ele>
        <time>2022-10-09T09:05:25Z</time>
      </trkpt>
      <trkpt lat="45.05386" lon="0.43365">
        <ele>112.9</ele>
        <time>2022-10-09T09:05:31Z</time>
      </trkpt>
      <trkpt lat="45.05391" lon="0.43354">
        <ele>114</ele>
        <time>2022-10-09T09:05:38Z</time>
      </trkpt>
      <trkpt lat="45.05394" lon="0.43348">
        <ele>114.8</ele>
        <time>2022-10-09T09:05:42Z</time>
      </trkpt>
      <trkpt lat="45.05396" lon="0.43344">
        <ele>115.1</ele>
        <time>2022-10-09T09:05:44Z</time>
      </trkpt>
      <trkpt lat="45.054" lon="0.43335">
        <ele>116.1</ele>
        <time>2022-10-09T09:05:50Z</time>
      </trkpt>
      <trkpt lat="45.054" lon="0.43334">
        <ele>116.3</ele>
        <time>2022-10-09T09:05:51Z</time>
      </trkpt>
      <trkpt lat="45.05405" lon="0.43324">
        <ele>117.4</ele>
        <time>2022-10-09T09:05:57Z</time>
      </trkpt>
      <trkpt lat="45.05411" lon="0.43311">
        <ele>118.6</ele>
        <time>2022-10-09T09:06:04Z</time>
      </trkpt>
      <trkpt lat="45.05415" lon="0.43302">
        <ele>119.4</ele>
        <time>2022-10-09T09:06:10Z</time>
      </trkpt>
      <trkpt lat="45.05416" lon="0.43299">
        <ele>119.6</ele>
        <time>2022-10-09T09:06:12Z</time>
      </trkpt>
      <trkpt lat="45.05417" lon="0.43297">
        <ele>119.8</ele>
        <time>2022-10-09T09:06:14Z</time>
      </trkpt>
      <trkpt lat="45.05422" lon="0.43284">
        <ele>120.7</ele>
        <time>2022-10-09T09:06:22Z</time>
      </trkpt>
      <trkpt lat="45.05426" lon="0.43276">
        <ele>121.4</ele>
        <time>2022-10-09T09:06:28Z</time>
      </trkpt>
      <trkpt lat="45.0543" lon="0.43266">
        <ele>122.3</ele>
        <time>2022-10-09T09:06:34Z</time>
      </trkpt>
      <trkpt lat="45.05436" lon="0.43255">
        <ele>123.6</ele>
        <time>2022-10-09T09:06:41Z</time>
      </trkpt>
      <trkpt lat="45.05441" lon="0.43243">
        <ele>125</ele>
        <time>2022-10-09T09:06:48Z</time>
      </trkpt>
      <trkpt lat="45.05445" lon="0.43234">
        <ele>126</ele>
        <time>2022-10-09T09:06:54Z</time>
      </trkpt>
      <trkpt lat="45.05449" lon="0.43225">
        <ele>126.9</ele>
        <time>2022-10-09T09:06:58Z</time>
      </trkpt>
      <trkpt lat="45.05451" lon="0.4322">
        <ele>127.3</ele>
        <time>2022-10-09T09:07:00Z</time>
      </trkpt>
      <trkpt lat="45.05458" lon="0.43206">
        <ele>128.8</ele>
        <time>2022-10-09T09:07:08Z</time>
      </trkpt>
      <trkpt lat="45.05464" lon="0.43197">
        <ele>129.9</ele>
        <time>2022-10-09T09:07:15Z</time>
      </trkpt>
      <trkpt lat="45.05472" lon="0.43188">
        <ele>131.5</ele>
        <time>2022-10-09T09:07:22Z</time>
      </trkpt>
      <trkpt lat="45.05481" lon="0.43182">
        <ele>133</ele>
        <time>2022-10-09T09:07:29Z</time>
      </trkpt>
      <trkpt lat="45.05491" lon="0.43186">
        <ele>134.8</ele>
        <time>2022-10-09T09:07:35Z</time>
      </trkpt>
      <trkpt lat="45.05495" lon="0.43186">
        <ele>135.3</ele>
        <time>2022-10-09T09:07:40Z</time>
      </trkpt>
      <trkpt lat="45.05503" lon="0.43188">
        <ele>136.6</ele>
        <time>2022-10-09T09:07:47Z</time>
      </trkpt>
      <trkpt lat="45.05511" lon="0.43187">
        <ele>137.4</ele>
        <time>2022-10-09T09:07:53Z</time>
      </trkpt>
      <trkpt lat="45.05513" lon="0.43187">
        <ele>137.5</ele>
        <time>2022-10-09T09:07:54Z</time>
      </trkpt>
      <trkpt lat="45.05517" lon="0.43186">
        <ele>137.9</ele>
        <time>2022-10-09T09:07:57Z</time>
      </trkpt>
      <trkpt lat="45.05518" lon="0.43186">
        <ele>138</ele>
        <time>2022-10-09T09:07:58Z</time>
      </trkpt>
      <trkpt lat="45.05527" lon="0.43179">
        <ele>138.4</ele>
        <time>2022-10-09T09:08:04Z</time>
      </trkpt>
      <trkpt lat="45.05529" lon="0.43178">
        <ele>138.5</ele>
        <time>2022-10-09T09:08:06Z</time>
      </trkpt>
      <trkpt lat="45.05533" lon="0.43172">
        <ele>138.6</ele>
        <time>2022-10-09T09:08:09Z</time>
      </trkpt>
      <trkpt lat="45.05541" lon="0.43163">
        <ele>138.5</ele>
        <time>2022-10-09T09:08:14Z</time>
      </trkpt>
      <trkpt lat="45.05542" lon="0.43162">
        <ele>138.5</ele>
        <time>2022-10-09T09:08:15Z</time>
      </trkpt>
      <trkpt lat="45.05551" lon="0.43156">
        <ele>138.2</ele>
        <time>2022-10-09T09:08:20Z</time>
      </trkpt>
      <trkpt lat="45.0556" lon="0.43152">
        <ele>137.8</ele>
        <time>2022-10-09T09:08:23Z</time>
      </trkpt>
      <trkpt lat="45.05562" lon="0.43151">
        <ele>137.6</ele>
        <time>2022-10-09T09:08:24Z</time>
      </trkpt>
      <trkpt lat="45.05574" lon="0.43131">
        <ele>136.7</ele>
        <time>2022-10-09T09:08:29Z</time>
      </trkpt>
      <trkpt lat="45.05577" lon="0.43109">
        <ele>136</ele>
        <time>2022-10-09T09:08:34Z</time>
      </trkpt>
      <trkpt lat="45.05577" lon="0.4309">
        <ele>135.9</ele>
        <time>2022-10-09T09:08:39Z</time>
      </trkpt>
      <trkpt lat="45.05577" lon="0.43066">
        <ele>136.2</ele>
        <time>2022-10-09T09:08:45Z</time>
      </trkpt>
      <trkpt lat="45.05577" lon="0.43043">
        <ele>136.7</ele>
        <time>2022-10-09T09:08:51Z</time>
      </trkpt>
      <trkpt lat="45.05575" lon="0.43026">
        <ele>137.3</ele>
        <time>2022-10-09T09:08:56Z</time>
      </trkpt>
      <trkpt lat="45.05573" lon="0.43005">
        <ele>138.3</ele>
        <time>2022-10-09T09:09:02Z</time>
      </trkpt>
      <trkpt lat="45.05572" lon="0.42994">
        <ele>139</ele>
        <time>2022-10-09T09:09:06Z</time>
      </trkpt>
      <trkpt lat="45.05572" lon="0.42991">
        <ele>139.2</ele>
        <time>2022-10-09T09:09:07Z</time>
      </trkpt>
      <trkpt lat="45.05569" lon="0.42971">
        <ele>140.1</ele>
        <time>2022-10-09T09:09:13Z</time>
      </trkpt>
      <trkpt lat="45.05567" lon="0.42949">
        <ele>140.9</ele>
        <time>2022-10-09T09:09:20Z</time>
      </trkpt>
      <trkpt lat="45.05556" lon="0.42928">
        <ele>141.3</ele>
        <time>2022-10-09T09:09:26Z</time>
      </trkpt>
      <trkpt lat="45.05542" lon="0.42923">
        <ele>141.4</ele>
        <time>2022-10-09T09:09:31Z</time>
      </trkpt>
      <trkpt lat="45.05528" lon="0.42922">
        <ele>141.4</ele>
        <time>2022-10-09T09:09:36Z</time>
      </trkpt>
      <trkpt lat="45.05516" lon="0.4292">
        <ele>141.4</ele>
        <time>2022-10-09T09:09:41Z</time>
      </trkpt>
      <trkpt lat="45.05502" lon="0.42919">
        <ele>141.4</ele>
        <time>2022-10-09T09:09:46Z</time>
      </trkpt>
      <trkpt lat="45.05495" lon="0.42918">
        <ele>141.5</ele>
        <time>2022-10-09T09:09:48Z</time>
      </trkpt>
      <trkpt lat="45.05491" lon="0.42917">
        <ele>141.5</ele>
        <time>2022-10-09T09:09:49Z</time>
      </trkpt>
      <trkpt lat="45.05493" lon="0.42901">
        <ele>141</ele>
        <time>2022-10-09T09:09:53Z</time>
      </trkpt>
      <trkpt lat="45.05493" lon="0.42891">
        <ele>140.7</ele>
        <time>2022-10-09T09:09:55Z</time>
      </trkpt>
      <trkpt lat="45.05494" lon="0.42887">
        <ele>140.5</ele>
        <time>2022-10-09T09:09:56Z</time>
      </trkpt>
      <trkpt lat="45.05495" lon="0.42869">
        <ele>139.7</ele>
        <time>2022-10-09T09:09:59Z</time>
      </trkpt>
      <trkpt lat="45.05496" lon="0.42864">
        <ele>139.4</ele>
        <time>2022-10-09T09:10:00Z</time>
      </trkpt>
      <trkpt lat="45.05496" lon="0.42857">
        <ele>139.1</ele>
        <time>2022-10-09T09:10:01Z</time>
      </trkpt>
      <trkpt lat="45.05498" lon="0.42843">
        <ele>138.4</ele>
        <time>2022-10-09T09:10:03Z</time>
      </trkpt>
      <trkpt lat="45.055" lon="0.42826">
        <ele>137.5</ele>
        <time>2022-10-09T09:10:05Z</time>
      </trkpt>
      <trkpt lat="45.05501" lon="0.42809">
        <ele>136.6</ele>
        <time>2022-10-09T09:10:07Z</time>
      </trkpt>
      <trkpt lat="45.05506" lon="0.4278">
        <ele>134.9</ele>
        <time>2022-10-09T09:10:10Z</time>
      </trkpt>
      <trkpt lat="45.0551" lon="0.42768">
        <ele>134.1</ele>
        <time>2022-10-09T09:10:11Z</time>
      </trkpt>
      <trkpt lat="45.05515" lon="0.42758">
        <ele>133.3</ele>
        <time>2022-10-09T09:10:12Z</time>
      </trkpt>
      <trkpt lat="45.05525" lon="0.42738">
        <ele>131.5</ele>
        <time>2022-10-09T09:10:14Z</time>
      </trkpt>
      <trkpt lat="45.05532" lon="0.42723">
        <ele>130</ele>
        <time>2022-10-09T09:10:16Z</time>
      </trkpt>
      <trkpt lat="45.05532" lon="0.42714">
        <ele>129.1</ele>
        <time>2022-10-09T09:10:17Z</time>
      </trkpt>
      <trkpt lat="45.05523" lon="0.42674">
        <ele>124.9</ele>
        <time>2022-10-09T09:10:21Z</time>
      </trkpt>
      <trkpt lat="45.05521" lon="0.42663">
        <ele>124.1</ele>
        <time>2022-10-09T09:10:22Z</time>
      </trkpt>
      <trkpt lat="45.05514" lon="0.4263">
        <ele>121.7</ele>
        <time>2022-10-09T09:10:25Z</time>
      </trkpt>
      <trkpt lat="45.05504" lon="0.42598">
        <ele>118.6</ele>
        <time>2022-10-09T09:10:28Z</time>
      </trkpt>
      <trkpt lat="45.05502" lon="0.42587">
        <ele>117.3</ele>
        <time>2022-10-09T09:10:29Z</time>
      </trkpt>
      <trkpt lat="45.05503" lon="0.42564">
        <ele>114.2</ele>
        <time>2022-10-09T09:10:31Z</time>
      </trkpt>
      <trkpt lat="45.05508" lon="0.42543">
        <ele>110.8</ele>
        <time>2022-10-09T09:10:33Z</time>
      </trkpt>
      <trkpt lat="45.05528" lon="0.42503">
        <ele>103.7</ele>
        <time>2022-10-09T09:10:37Z</time>
      </trkpt>
      <trkpt lat="45.05553" lon="0.4247">
        <ele>96.7</ele>
        <time>2022-10-09T09:10:41Z</time>
      </trkpt>
      <trkpt lat="45.05559" lon="0.4246">
        <ele>95.2</ele>
        <time>2022-10-09T09:10:42Z</time>
      </trkpt>
      <trkpt lat="45.0558" lon="0.42414">
        <ele>89.8</ele>
        <time>2022-10-09T09:10:46Z</time>
      </trkpt>
      <trkpt lat="45.05584" lon="0.42404">
        <ele>88.7</ele>
        <time>2022-10-09T09:10:47Z</time>
      </trkpt>
      <trkpt lat="45.05587" lon="0.42384">
        <ele>86.6</ele>
        <time>2022-10-09T09:10:49Z</time>
      </trkpt>
      <trkpt lat="45.05584" lon="0.42365">
        <ele>84.3</ele>
        <time>2022-10-09T09:10:51Z</time>
      </trkpt>
      <trkpt lat="45.05579" lon="0.42348">
        <ele>82.6</ele>
        <time>2022-10-09T09:10:53Z</time>
      </trkpt>
      <trkpt lat="45.05574" lon="0.42327">
        <ele>81</ele>
        <time>2022-10-09T09:10:56Z</time>
      </trkpt>
      <trkpt lat="45.05562" lon="0.42321">
        <ele>81</ele>
        <time>2022-10-09T09:11:00Z</time>
      </trkpt>
      <trkpt lat="45.05545" lon="0.42325">
        <ele>80.9</ele>
        <time>2022-10-09T09:11:07Z</time>
      </trkpt>
      <trkpt lat="45.05523" lon="0.42337">
        <ele>81</ele>
        <time>2022-10-09T09:11:15Z</time>
      </trkpt>
      <trkpt lat="45.05501" lon="0.42348">
        <ele>81.2</ele>
        <time>2022-10-09T09:11:23Z</time>
      </trkpt>
      <trkpt lat="45.05485" lon="0.42356">
        <ele>81.3</ele>
        <time>2022-10-09T09:11:29Z</time>
      </trkpt>
      <trkpt lat="45.05466" lon="0.42358">
        <ele>81.5</ele>
        <time>2022-10-09T09:11:35Z</time>
      </trkpt>
      <trkpt lat="45.05445" lon="0.42349">
        <ele>81.8</ele>
        <time>2022-10-09T09:11:42Z</time>
      </trkpt>
      <trkpt lat="45.0543" lon="0.42333">
        <ele>82</ele>
        <time>2022-10-09T09:11:48Z</time>
      </trkpt>
      <trkpt lat="45.05431" lon="0.4231">
        <ele>82.2</ele>
        <time>2022-10-09T09:11:52Z</time>
      </trkpt>
      <trkpt lat="45.05449" lon="0.42285">
        <ele>82.4</ele>
        <time>2022-10-09T09:12:00Z</time>
      </trkpt>
      <trkpt lat="45.05466" lon="0.42252">
        <ele>82.8</ele>
        <time>2022-10-09T09:12:10Z</time>
      </trkpt>
      <trkpt lat="45.05473" lon="0.42234">
        <ele>83.2</ele>
        <time>2022-10-09T09:12:15Z</time>
      </trkpt>
      <trkpt lat="45.05475" lon="0.4223">
        <ele>83.3</ele>
        <time>2022-10-09T09:12:16Z</time>
      </trkpt>
      <trkpt lat="45.05498" lon="0.42175">
        <ele>84.6</ele>
        <time>2022-10-09T09:12:30Z</time>
      </trkpt>
      <trkpt lat="45.05505" lon="0.42156">
        <ele>84.9</ele>
        <time>2022-10-09T09:12:36Z</time>
      </trkpt>
      <trkpt lat="45.05518" lon="0.42129">
        <ele>84.7</ele>
        <time>2022-10-09T09:12:43Z</time>
      </trkpt>
      <trkpt lat="45.05532" lon="0.42109">
        <ele>84</ele>
        <time>2022-10-09T09:12:48Z</time>
      </trkpt>
      <trkpt lat="45.05555" lon="0.42085">
        <ele>82.2</ele>
        <time>2022-10-09T09:12:55Z</time>
      </trkpt>
      <trkpt lat="45.05563" lon="0.4208">
        <ele>81.6</ele>
        <time>2022-10-09T09:12:57Z</time>
      </trkpt>
      <trkpt lat="45.0557" lon="0.42075">
        <ele>81</ele>
        <time>2022-10-09T09:12:59Z</time>
      </trkpt>
      <trkpt lat="45.05573" lon="0.42073">
        <ele>80.7</ele>
        <time>2022-10-09T09:13:00Z</time>
      </trkpt>
      <trkpt lat="45.05597" lon="0.42057">
        <ele>78.8</ele>
        <time>2022-10-09T09:13:07Z</time>
      </trkpt>
      <trkpt lat="45.05612" lon="0.42046">
        <ele>77.7</ele>
        <time>2022-10-09T09:13:12Z</time>
      </trkpt>
      <trkpt lat="45.05623" lon="0.42034">
        <ele>76.8</ele>
        <time>2022-10-09T09:13:16Z</time>
      </trkpt>
      <trkpt lat="45.05627" lon="0.42031">
        <ele>76.7</ele>
        <time>2022-10-09T09:13:17Z</time>
      </trkpt>
      <trkpt lat="45.05633" lon="0.42023">
        <ele>76.3</ele>
        <time>2022-10-09T09:13:19Z</time>
      </trkpt>
      <trkpt lat="45.0564" lon="0.42014">
        <ele>76</ele>
        <time>2022-10-09T09:13:21Z</time>
      </trkpt>
      <trkpt lat="45.05644" lon="0.42003">
        <ele>75.8</ele>
        <time>2022-10-09T09:13:23Z</time>
      </trkpt>
      <trkpt lat="45.05643" lon="0.41998">
        <ele>75.7</ele>
        <time>2022-10-09T09:13:24Z</time>
      </trkpt>
      <trkpt lat="45.05637" lon="0.41976">
        <ele>75.6</ele>
        <time>2022-10-09T09:13:29Z</time>
      </trkpt>
      <trkpt lat="45.05635" lon="0.41967">
        <ele>75.6</ele>
        <time>2022-10-09T09:13:33Z</time>
      </trkpt>
      <trkpt lat="45.05634" lon="0.41962">
        <ele>75.5</ele>
        <time>2022-10-09T09:13:35Z</time>
      </trkpt>
      <trkpt lat="45.05628" lon="0.41961">
        <ele>75.3</ele>
        <time>2022-10-09T09:13:37Z</time>
      </trkpt>
      <trkpt lat="45.05615" lon="0.41974">
        <ele>74.7</ele>
        <time>2022-10-09T09:13:44Z</time>
      </trkpt>
      <trkpt lat="45.05606" lon="0.41989">
        <ele>74.5</ele>
        <time>2022-10-09T09:13:50Z</time>
      </trkpt>
      <trkpt lat="45.05597" lon="0.42012">
        <ele>74.3</ele>
        <time>2022-10-09T09:13:58Z</time>
      </trkpt>
      <trkpt lat="45.05589" lon="0.42033">
        <ele>74.6</ele>
        <time>2022-10-09T09:14:06Z</time>
      </trkpt>
      <trkpt lat="45.05576" lon="0.42046">
        <ele>75.2</ele>
        <time>2022-10-09T09:14:13Z</time>
      </trkpt>
      <trkpt lat="45.05562" lon="0.42057">
        <ele>76.1</ele>
        <time>2022-10-09T09:14:22Z</time>
      </trkpt>
      <trkpt lat="45.0555" lon="0.42064">
        <ele>77</ele>
        <time>2022-10-09T09:14:30Z</time>
      </trkpt>
      <trkpt lat="45.05536" lon="0.4207">
        <ele>77.9</ele>
        <time>2022-10-09T09:14:39Z</time>
      </trkpt>
      <trkpt lat="45.05524" lon="0.42073">
        <ele>78.9</ele>
        <time>2022-10-09T09:14:47Z</time>
      </trkpt>
      <trkpt lat="45.05508" lon="0.42074">
        <ele>80.2</ele>
        <time>2022-10-09T09:14:58Z</time>
      </trkpt>
      <trkpt lat="45.05503" lon="0.42065">
        <ele>81.2</ele>
        <time>2022-10-09T09:15:04Z</time>
      </trkpt>
      <trkpt lat="45.05496" lon="0.42051">
        <ele>82.4</ele>
        <time>2022-10-09T09:15:13Z</time>
      </trkpt>
      <trkpt lat="45.05487" lon="0.42044">
        <ele>83.7</ele>
        <time>2022-10-09T09:15:21Z</time>
      </trkpt>
      <trkpt lat="45.05476" lon="0.42045">
        <ele>85.1</ele>
        <time>2022-10-09T09:15:28Z</time>
      </trkpt>
      <trkpt lat="45.05469" lon="0.42053">
        <ele>86.4</ele>
        <time>2022-10-09T09:15:35Z</time>
      </trkpt>
      <trkpt lat="45.05463" lon="0.4206">
        <ele>87.5</ele>
        <time>2022-10-09T09:15:41Z</time>
      </trkpt>
      <trkpt lat="45.05455" lon="0.42068">
        <ele>89.1</ele>
        <time>2022-10-09T09:15:49Z</time>
      </trkpt>
      <trkpt lat="45.05444" lon="0.42073">
        <ele>91</ele>
        <time>2022-10-09T09:15:57Z</time>
      </trkpt>
      <trkpt lat="45.05435" lon="0.42076">
        <ele>92.6</ele>
        <time>2022-10-09T09:16:04Z</time>
      </trkpt>
      <trkpt lat="45.05426" lon="0.42079">
        <ele>94.3</ele>
        <time>2022-10-09T09:16:11Z</time>
      </trkpt>
      <trkpt lat="45.05416" lon="0.42083">
        <ele>96.3</ele>
        <time>2022-10-09T09:16:19Z</time>
      </trkpt>
      <trkpt lat="45.05409" lon="0.42086">
        <ele>97.8</ele>
        <time>2022-10-09T09:16:26Z</time>
      </trkpt>
      <trkpt lat="45.05402" lon="0.42088">
        <ele>99.3</ele>
        <time>2022-10-09T09:16:33Z</time>
      </trkpt>
      <trkpt lat="45.05394" lon="0.4209">
        <ele>100.8</ele>
        <time>2022-10-09T09:16:40Z</time>
      </trkpt>
      <trkpt lat="45.05389" lon="0.42091">
        <ele>101.9</ele>
        <time>2022-10-09T09:16:45Z</time>
      </trkpt>
      <trkpt lat="45.05388" lon="0.42091">
        <ele>102.1</ele>
        <time>2022-10-09T09:16:46Z</time>
      </trkpt>
      <trkpt lat="45.05387" lon="0.42091">
        <ele>102.3</ele>
        <time>2022-10-09T09:16:47Z</time>
      </trkpt>
      <trkpt lat="45.05379" lon="0.42092">
        <ele>103.7</ele>
        <time>2022-10-09T09:16:53Z</time>
      </trkpt>
      <trkpt lat="45.05377" lon="0.42092">
        <ele>104.2</ele>
        <time>2022-10-09T09:16:55Z</time>
      </trkpt>
      <trkpt lat="45.05373" lon="0.42093">
        <ele>105.1</ele>
        <time>2022-10-09T09:16:59Z</time>
      </trkpt>
      <trkpt lat="45.0537" lon="0.42093">
        <ele>105.5</ele>
        <time>2022-10-09T09:17:01Z</time>
      </trkpt>
      <trkpt lat="45.05368" lon="0.42093">
        <ele>105.9</ele>
        <time>2022-10-09T09:17:03Z</time>
      </trkpt>
      <trkpt lat="45.05366" lon="0.42093">
        <ele>106.4</ele>
        <time>2022-10-09T09:17:05Z</time>
      </trkpt>
      <trkpt lat="45.05361" lon="0.42091">
        <ele>107.5</ele>
        <time>2022-10-09T09:17:11Z</time>
      </trkpt>
      <trkpt lat="45.05352" lon="0.42088">
        <ele>109.2</ele>
        <time>2022-10-09T09:17:19Z</time>
      </trkpt>
      <trkpt lat="45.0535" lon="0.42087">
        <ele>109.5</ele>
        <time>2022-10-09T09:17:20Z</time>
      </trkpt>
      <trkpt lat="45.05344" lon="0.42084">
        <ele>110.5</ele>
        <time>2022-10-09T09:17:25Z</time>
      </trkpt>
      <trkpt lat="45.05338" lon="0.42079">
        <ele>111.6</ele>
        <time>2022-10-09T09:17:33Z</time>
      </trkpt>
      <trkpt lat="45.05337" lon="0.42078">
        <ele>111.8</ele>
        <time>2022-10-09T09:17:34Z</time>
      </trkpt>
      <trkpt lat="45.05332" lon="0.42075">
        <ele>112.5</ele>
        <time>2022-10-09T09:17:39Z</time>
      </trkpt>
      <trkpt lat="45.05322" lon="0.42072">
        <ele>113.5</ele>
        <time>2022-10-09T09:17:47Z</time>
      </trkpt>
      <trkpt lat="45.05314" lon="0.42069">
        <ele>114</ele>
        <time>2022-10-09T09:17:54Z</time>
      </trkpt>
      <trkpt lat="45.05303" lon="0.42064">
        <ele>114.5</ele>
        <time>2022-10-09T09:18:02Z</time>
      </trkpt>
      <trkpt lat="45.05296" lon="0.42061">
        <ele>114.7</ele>
        <time>2022-10-09T09:18:07Z</time>
      </trkpt>
      <trkpt lat="45.05287" lon="0.42058">
        <ele>114.9</ele>
        <time>2022-10-09T09:18:13Z</time>
      </trkpt>
      <trkpt lat="45.05275" lon="0.42053">
        <ele>115.3</ele>
        <time>2022-10-09T09:18:21Z</time>
      </trkpt>
      <trkpt lat="45.05265" lon="0.42049">
        <ele>115.7</ele>
        <time>2022-10-09T09:18:28Z</time>
      </trkpt>
      <trkpt lat="45.05253" lon="0.42045">
        <ele>116.2</ele>
        <time>2022-10-09T09:18:36Z</time>
      </trkpt>
      <trkpt lat="45.05238" lon="0.42039">
        <ele>116.9</ele>
        <time>2022-10-09T09:18:44Z</time>
      </trkpt>
      <trkpt lat="45.05224" lon="0.42033">
        <ele>117.4</ele>
        <time>2022-10-09T09:18:52Z</time>
      </trkpt>
      <trkpt lat="45.05208" lon="0.42028">
        <ele>117.7</ele>
        <time>2022-10-09T09:18:58Z</time>
      </trkpt>
      <trkpt lat="45.05197" lon="0.42019">
        <ele>118</ele>
        <time>2022-10-09T09:19:03Z</time>
      </trkpt>
      <trkpt lat="45.05187" lon="0.42008">
        <ele>118.6</ele>
        <time>2022-10-09T09:19:09Z</time>
      </trkpt>
      <trkpt lat="45.05182" lon="0.42">
        <ele>119.1</ele>
        <time>2022-10-09T09:19:15Z</time>
      </trkpt>
      <trkpt lat="45.0518" lon="0.41998">
        <ele>119.3</ele>
        <time>2022-10-09T09:19:16Z</time>
      </trkpt>
      <trkpt lat="45.0518" lon="0.41996">
        <ele>119.4</ele>
        <time>2022-10-09T09:19:17Z</time>
      </trkpt>
      <trkpt lat="45.05177" lon="0.41987">
        <ele>119.9</ele>
        <time>2022-10-09T09:19:21Z</time>
      </trkpt>
      <trkpt lat="45.05176" lon="0.41981">
        <ele>120.3</ele>
        <time>2022-10-09T09:19:25Z</time>
      </trkpt>
      <trkpt lat="45.05175" lon="0.41977">
        <ele>120.6</ele>
        <time>2022-10-09T09:19:27Z</time>
      </trkpt>
      <trkpt lat="45.05171" lon="0.41963">
        <ele>120.9</ele>
        <time>2022-10-09T09:19:32Z</time>
      </trkpt>
      <trkpt lat="45.05168" lon="0.4195">
        <ele>121.1</ele>
        <time>2022-10-09T09:19:37Z</time>
      </trkpt>
      <trkpt lat="45.05163" lon="0.41928">
        <ele>121</ele>
        <time>2022-10-09T09:19:44Z</time>
      </trkpt>
      <trkpt lat="45.05162" lon="0.41925">
        <ele>121</ele>
        <time>2022-10-09T09:19:45Z</time>
      </trkpt>
      <trkpt lat="45.05159" lon="0.41917">
        <ele>120.8</ele>
        <time>2022-10-09T09:19:48Z</time>
      </trkpt>
      <trkpt lat="45.05152" lon="0.41895">
        <ele>120</ele>
        <time>2022-10-09T09:19:54Z</time>
      </trkpt>
      <trkpt lat="45.05145" lon="0.41884">
        <ele>119.4</ele>
        <time>2022-10-09T09:19:56Z</time>
      </trkpt>
      <trkpt lat="45.05142" lon="0.41886">
        <ele>119.3</ele>
        <time>2022-10-09T09:19:57Z</time>
      </trkpt>
      <trkpt lat="45.05126" lon="0.4189">
        <ele>119.1</ele>
        <time>2022-10-09T09:20:02Z</time>
      </trkpt>
      <trkpt lat="45.05104" lon="0.41896">
        <ele>119.6</ele>
        <time>2022-10-09T09:20:09Z</time>
      </trkpt>
      <trkpt lat="45.05085" lon="0.41895">
        <ele>120.6</ele>
        <time>2022-10-09T09:20:17Z</time>
      </trkpt>
      <trkpt lat="45.05071" lon="0.41896">
        <ele>121.7</ele>
        <time>2022-10-09T09:20:24Z</time>
      </trkpt>
      <trkpt lat="45.05059" lon="0.41894">
        <ele>122.6</ele>
        <time>2022-10-09T09:20:30Z</time>
      </trkpt>
      <trkpt lat="45.05052" lon="0.41897">
        <ele>123.3</ele>
        <time>2022-10-09T09:20:34Z</time>
      </trkpt>
      <trkpt lat="45.0505" lon="0.41898">
        <ele>123.5</ele>
        <time>2022-10-09T09:20:35Z</time>
      </trkpt>
      <trkpt lat="45.05041" lon="0.41903">
        <ele>124.6</ele>
        <time>2022-10-09T09:20:41Z</time>
      </trkpt>
      <trkpt lat="45.05034" lon="0.41905">
        <ele>125.5</ele>
        <time>2022-10-09T09:20:46Z</time>
      </trkpt>
      <trkpt lat="45.05026" lon="0.41901">
        <ele>126.4</ele>
        <time>2022-10-09T09:20:51Z</time>
      </trkpt>
      <trkpt lat="45.05015" lon="0.41893">
        <ele>127.3</ele>
        <time>2022-10-09T09:20:57Z</time>
      </trkpt>
      <trkpt lat="45.05001" lon="0.41883">
        <ele>127.7</ele>
        <time>2022-10-09T09:21:03Z</time>
      </trkpt>
      <trkpt lat="45.04981" lon="0.41868">
        <ele>127.9</ele>
        <time>2022-10-09T09:21:11Z</time>
      </trkpt>
      <trkpt lat="45.04965" lon="0.41856">
        <ele>128.1</ele>
        <time>2022-10-09T09:21:17Z</time>
      </trkpt>
      <trkpt lat="45.04949" lon="0.41845">
        <ele>128.3</ele>
        <time>2022-10-09T09:21:23Z</time>
      </trkpt>
      <trkpt lat="45.04934" lon="0.41834">
        <ele>129</ele>
        <time>2022-10-09T09:21:29Z</time>
      </trkpt>
      <trkpt lat="45.04916" lon="0.4182">
        <ele>130</ele>
        <time>2022-10-09T09:21:37Z</time>
      </trkpt>
      <trkpt lat="45.04902" lon="0.41808">
        <ele>130.9</ele>
        <time>2022-10-09T09:21:43Z</time>
      </trkpt>
      <trkpt lat="45.04897" lon="0.41791">
        <ele>131.2</ele>
        <time>2022-10-09T09:21:47Z</time>
      </trkpt>
      <trkpt lat="45.04895" lon="0.41767">
        <ele>131</ele>
        <time>2022-10-09T09:21:52Z</time>
      </trkpt>
      <trkpt lat="45.04895" lon="0.4174">
        <ele>130.6</ele>
        <time>2022-10-09T09:21:57Z</time>
      </trkpt>
      <trkpt lat="45.04895" lon="0.41719">
        <ele>130.2</ele>
        <time>2022-10-09T09:22:01Z</time>
      </trkpt>
      <trkpt lat="45.04895" lon="0.41693">
        <ele>130.1</ele>
        <time>2022-10-09T09:22:06Z</time>
      </trkpt>
      <trkpt lat="45.04891" lon="0.41674">
        <ele>129.8</ele>
        <time>2022-10-09T09:22:10Z</time>
      </trkpt>
      <trkpt lat="45.04874" lon="0.41659">
        <ele>128.9</ele>
        <time>2022-10-09T09:22:15Z</time>
      </trkpt>
      <trkpt lat="45.04852" lon="0.41645">
        <ele>127.4</ele>
        <time>2022-10-09T09:22:20Z</time>
      </trkpt>
      <trkpt lat="45.04847" lon="0.41642">
        <ele>127.1</ele>
        <time>2022-10-09T09:22:21Z</time>
      </trkpt>
      <trkpt lat="45.04836" lon="0.41637">
        <ele>125.9</ele>
        <time>2022-10-09T09:22:23Z</time>
      </trkpt>
      <trkpt lat="45.04817" lon="0.41642">
        <ele>123.4</ele>
        <time>2022-10-09T09:22:26Z</time>
      </trkpt>
      <trkpt lat="45.04774" lon="0.41657">
        <ele>119.4</ele>
        <time>2022-10-09T09:22:31Z</time>
      </trkpt>
      <trkpt lat="45.0475" lon="0.41666">
        <ele>118.9</ele>
        <time>2022-10-09T09:22:34Z</time>
      </trkpt>
      <trkpt lat="45.04731" lon="0.41673">
        <ele>119.2</ele>
        <time>2022-10-09T09:22:37Z</time>
      </trkpt>
      <trkpt lat="45.04726" lon="0.41675">
        <ele>119.3</ele>
        <time>2022-10-09T09:22:38Z</time>
      </trkpt>
      <trkpt lat="45.04722" lon="0.41677">
        <ele>119.2</ele>
        <time>2022-10-09T09:22:39Z</time>
      </trkpt>
      <trkpt lat="45.04711" lon="0.41672">
        <ele>118.7</ele>
        <time>2022-10-09T09:22:41Z</time>
      </trkpt>
      <trkpt lat="45.04695" lon="0.41651">
        <ele>116.7</ele>
        <time>2022-10-09T09:22:44Z</time>
      </trkpt>
      <trkpt lat="45.0469" lon="0.41643">
        <ele>115.9</ele>
        <time>2022-10-09T09:22:45Z</time>
      </trkpt>
      <trkpt lat="45.04661" lon="0.41592">
        <ele>111.3</ele>
        <time>2022-10-09T09:22:50Z</time>
      </trkpt>
      <trkpt lat="45.04646" lon="0.41567">
        <ele>109.5</ele>
        <time>2022-10-09T09:22:53Z</time>
      </trkpt>
      <trkpt lat="45.04642" lon="0.41562">
        <ele>109</ele>
        <time>2022-10-09T09:22:54Z</time>
      </trkpt>
      <trkpt lat="45.04636" lon="0.41554">
        <ele>108.2</ele>
        <time>2022-10-09T09:22:56Z</time>
      </trkpt>
      <trkpt lat="45.0464" lon="0.41541">
        <ele>106.8</ele>
        <time>2022-10-09T09:22:58Z</time>
      </trkpt>
      <trkpt lat="45.04644" lon="0.41537">
        <ele>106.3</ele>
        <time>2022-10-09T09:22:59Z</time>
      </trkpt>
      <trkpt lat="45.04647" lon="0.41533">
        <ele>106</ele>
        <time>2022-10-09T09:23:00Z</time>
      </trkpt>
      <trkpt lat="45.04658" lon="0.41516">
        <ele>105</ele>
        <time>2022-10-09T09:23:03Z</time>
      </trkpt>
      <trkpt lat="45.04659" lon="0.41508">
        <ele>104.6</ele>
        <time>2022-10-09T09:23:04Z</time>
      </trkpt>
      <trkpt lat="45.0466" lon="0.41499">
        <ele>104.3</ele>
        <time>2022-10-09T09:23:05Z</time>
      </trkpt>
      <trkpt lat="45.04662" lon="0.41483">
        <ele>103.7</ele>
        <time>2022-10-09T09:23:07Z</time>
      </trkpt>
      <trkpt lat="45.04663" lon="0.41466">
        <ele>103.2</ele>
        <time>2022-10-09T09:23:09Z</time>
      </trkpt>
      <trkpt lat="45.04661" lon="0.41448">
        <ele>102.8</ele>
        <time>2022-10-09T09:23:11Z</time>
      </trkpt>
      <trkpt lat="45.0466" lon="0.4144">
        <ele>102.6</ele>
        <time>2022-10-09T09:23:12Z</time>
      </trkpt>
      <trkpt lat="45.04657" lon="0.41423">
        <ele>102.2</ele>
        <time>2022-10-09T09:23:14Z</time>
      </trkpt>
      <trkpt lat="45.04657" lon="0.41414">
        <ele>101.9</ele>
        <time>2022-10-09T09:23:15Z</time>
      </trkpt>
      <trkpt lat="45.04668" lon="0.4134">
        <ele>99.9</ele>
        <time>2022-10-09T09:23:23Z</time>
      </trkpt>
      <trkpt lat="45.04671" lon="0.41279">
        <ele>97.9</ele>
        <time>2022-10-09T09:23:29Z</time>
      </trkpt>
      <trkpt lat="45.04671" lon="0.41236">
        <ele>96.4</ele>
        <time>2022-10-09T09:23:33Z</time>
      </trkpt>
      <trkpt lat="45.04672" lon="0.41225">
        <ele>95.9</ele>
        <time>2022-10-09T09:23:34Z</time>
      </trkpt>
      <trkpt lat="45.04698" lon="0.4117">
        <ele>93</ele>
        <time>2022-10-09T09:23:40Z</time>
      </trkpt>
      <trkpt lat="45.04722" lon="0.41122">
        <ele>90.5</ele>
        <time>2022-10-09T09:23:45Z</time>
      </trkpt>
      <trkpt lat="45.04726" lon="0.41112">
        <ele>90</ele>
        <time>2022-10-09T09:23:46Z</time>
      </trkpt>
      <trkpt lat="45.04731" lon="0.41103">
        <ele>89.5</ele>
        <time>2022-10-09T09:23:47Z</time>
      </trkpt>
      <trkpt lat="45.04748" lon="0.41077">
        <ele>88.1</ele>
        <time>2022-10-09T09:23:50Z</time>
      </trkpt>
      <trkpt lat="45.04768" lon="0.41049">
        <ele>86.4</ele>
        <time>2022-10-09T09:23:53Z</time>
      </trkpt>
      <trkpt lat="45.04776" lon="0.4104">
        <ele>85.8</ele>
        <time>2022-10-09T09:23:54Z</time>
      </trkpt>
      <trkpt lat="45.04807" lon="0.41018">
        <ele>84.1</ele>
        <time>2022-10-09T09:23:58Z</time>
      </trkpt>
      <trkpt lat="45.04814" lon="0.41013">
        <ele>83.7</ele>
        <time>2022-10-09T09:23:59Z</time>
      </trkpt>
      <trkpt lat="45.04831" lon="0.41004">
        <ele>82.8</ele>
        <time>2022-10-09T09:24:01Z</time>
      </trkpt>
      <trkpt lat="45.0486" lon="0.40995">
        <ele>81.2</ele>
        <time>2022-10-09T09:24:05Z</time>
      </trkpt>
      <trkpt lat="45.04876" lon="0.40989">
        <ele>80.2</ele>
        <time>2022-10-09T09:24:07Z</time>
      </trkpt>
      <trkpt lat="45.04901" lon="0.40981">
        <ele>79.2</ele>
        <time>2022-10-09T09:24:10Z</time>
      </trkpt>
      <trkpt lat="45.04926" lon="0.40973">
        <ele>78.1</ele>
        <time>2022-10-09T09:24:13Z</time>
      </trkpt>
      <trkpt lat="45.04934" lon="0.40969">
        <ele>77.8</ele>
        <time>2022-10-09T09:24:14Z</time>
      </trkpt>
      <trkpt lat="45.04943" lon="0.40965">
        <ele>77.4</ele>
        <time>2022-10-09T09:24:15Z</time>
      </trkpt>
      <trkpt lat="45.04957" lon="0.40949">
        <ele>76.8</ele>
        <time>2022-10-09T09:24:17Z</time>
      </trkpt>
      <trkpt lat="45.04964" lon="0.40941">
        <ele>76.5</ele>
        <time>2022-10-09T09:24:18Z</time>
      </trkpt>
      <trkpt lat="45.05005" lon="0.40919">
        <ele>75</ele>
        <time>2022-10-09T09:24:23Z</time>
      </trkpt>
      <trkpt lat="45.05036" lon="0.40907">
        <ele>74.2</ele>
        <time>2022-10-09T09:24:27Z</time>
      </trkpt>
      <trkpt lat="45.05044" lon="0.40906">
        <ele>74.2</ele>
        <time>2022-10-09T09:24:28Z</time>
      </trkpt>
      <trkpt lat="45.05066" lon="0.40902">
        <ele>74.3</ele>
        <time>2022-10-09T09:24:31Z</time>
      </trkpt>
      <trkpt lat="45.05077" lon="0.40898">
        <ele>74.5</ele>
        <time>2022-10-09T09:24:34Z</time>
      </trkpt>
      <trkpt lat="45.05079" lon="0.40897">
        <ele>74.6</ele>
        <time>2022-10-09T09:24:35Z</time>
      </trkpt>
      <trkpt lat="45.05077" lon="0.40887">
        <ele>75.8</ele>
        <time>2022-10-09T09:24:39Z</time>
      </trkpt>
      <trkpt lat="45.05069" lon="0.40884">
        <ele>76.5</ele>
        <time>2022-10-09T09:24:45Z</time>
      </trkpt>
      <trkpt lat="45.0506" lon="0.40882">
        <ele>77.5</ele>
        <time>2022-10-09T09:24:51Z</time>
      </trkpt>
      <trkpt lat="45.05049" lon="0.4088">
        <ele>79</ele>
        <time>2022-10-09T09:24:59Z</time>
      </trkpt>
      <trkpt lat="45.05042" lon="0.40878">
        <ele>79.8</ele>
        <time>2022-10-09T09:25:04Z</time>
      </trkpt>
      <trkpt lat="45.05031" lon="0.40873">
        <ele>81.2</ele>
        <time>2022-10-09T09:25:11Z</time>
      </trkpt>
      <trkpt lat="45.05019" lon="0.40871">
        <ele>82.7</ele>
        <time>2022-10-09T09:25:18Z</time>
      </trkpt>
      <trkpt lat="45.0501" lon="0.4087">
        <ele>84.2</ele>
        <time>2022-10-09T09:25:25Z</time>
      </trkpt>
      <trkpt lat="45.05006" lon="0.4087">
        <ele>84.7</ele>
        <time>2022-10-09T09:25:28Z</time>
      </trkpt>
      <trkpt lat="45.05003" lon="0.4087">
        <ele>85.1</ele>
        <time>2022-10-09T09:25:30Z</time>
      </trkpt>
      <trkpt lat="45.04998" lon="0.4087">
        <ele>85.9</ele>
        <time>2022-10-09T09:25:35Z</time>
      </trkpt>
      <trkpt lat="45.04992" lon="0.4087">
        <ele>86.9</ele>
        <time>2022-10-09T09:25:41Z</time>
      </trkpt>
      <trkpt lat="45.04985" lon="0.4087">
        <ele>87.7</ele>
        <time>2022-10-09T09:25:45Z</time>
      </trkpt>
      <trkpt lat="45.04984" lon="0.4087">
        <ele>87.9</ele>
        <time>2022-10-09T09:25:46Z</time>
      </trkpt>
      <trkpt lat="45.04975" lon="0.40869">
        <ele>89.1</ele>
        <time>2022-10-09T09:25:52Z</time>
      </trkpt>
      <trkpt lat="45.04974" lon="0.40868">
        <ele>89.2</ele>
        <time>2022-10-09T09:25:58Z</time>
      </trkpt>
      <trkpt lat="45.04974" lon="0.40868">
        <ele>89.2</ele>
        <time>2022-10-09T09:26:05Z</time>
      </trkpt>
      <trkpt lat="45.04974" lon="0.40868">
        <ele>89.2</ele>
        <time>2022-10-09T09:26:06Z</time>
      </trkpt>
      <trkpt lat="45.04974" lon="0.40868">
        <ele>89.2</ele>
        <time>2022-10-09T09:26:12Z</time>
      </trkpt>
      <trkpt lat="45.0493" lon="0.40885">
        <ele>93.9</ele>
        <time>2022-10-09T09:26:18Z</time>
      </trkpt>
      <trkpt lat="45.0492" lon="0.40887">
        <ele>94.5</ele>
        <time>2022-10-09T09:26:24Z</time>
      </trkpt>
      <trkpt lat="45.04915" lon="0.40887">
        <ele>94.8</ele>
        <time>2022-10-09T09:26:28Z</time>
      </trkpt>
      <trkpt lat="45.04912" lon="0.40886">
        <ele>95</ele>
        <time>2022-10-09T09:26:30Z</time>
      </trkpt>
      <trkpt lat="45.04899" lon="0.40886">
        <ele>95.8</ele>
        <time>2022-10-09T09:26:37Z</time>
      </trkpt>
      <trkpt lat="45.04893" lon="0.40885">
        <ele>96.2</ele>
        <time>2022-10-09T09:26:40Z</time>
      </trkpt>
      <trkpt lat="45.04888" lon="0.40867">
        <ele>97.2</ele>
        <time>2022-10-09T09:26:42Z</time>
      </trkpt>
      <trkpt lat="45.04881" lon="0.4087">
        <ele>97.8</ele>
        <time>2022-10-09T09:26:47Z</time>
      </trkpt>
      <trkpt lat="45.04874" lon="0.40874">
        <ele>98.5</ele>
        <time>2022-10-09T09:26:52Z</time>
      </trkpt>
      <trkpt lat="45.04866" lon="0.40877">
        <ele>99.3</ele>
        <time>2022-10-09T09:26:58Z</time>
      </trkpt>
      <trkpt lat="45.04858" lon="0.4088">
        <ele>100.1</ele>
        <time>2022-10-09T09:27:04Z</time>
      </trkpt>
      <trkpt lat="45.04852" lon="0.40881">
        <ele>100.7</ele>
        <time>2022-10-09T09:27:10Z</time>
      </trkpt>
      <trkpt lat="45.0484" lon="0.40881">
        <ele>102.1</ele>
        <time>2022-10-09T09:27:18Z</time>
      </trkpt>
      <trkpt lat="45.04829" lon="0.4088">
        <ele>103.3</ele>
        <time>2022-10-09T09:27:25Z</time>
      </trkpt>
      <trkpt lat="45.04819" lon="0.40879">
        <ele>104.3</ele>
        <time>2022-10-09T09:27:33Z</time>
      </trkpt>
      <trkpt lat="45.04811" lon="0.40878">
        <ele>105</ele>
        <time>2022-10-09T09:27:40Z</time>
      </trkpt>
      <trkpt lat="45.04798" lon="0.40877">
        <ele>105.9</ele>
        <time>2022-10-09T09:27:48Z</time>
      </trkpt>
      <trkpt lat="45.04788" lon="0.40877">
        <ele>106.3</ele>
        <time>2022-10-09T09:27:55Z</time>
      </trkpt>
      <trkpt lat="45.0478" lon="0.40877">
        <ele>106.4</ele>
        <time>2022-10-09T09:27:59Z</time>
      </trkpt>
      <trkpt lat="45.04779" lon="0.40877">
        <ele>106.4</ele>
        <time>2022-10-09T09:28:00Z</time>
      </trkpt>
      <trkpt lat="45.04767" lon="0.40882">
        <ele>106.3</ele>
        <time>2022-10-09T09:28:05Z</time>
      </trkpt>
      <trkpt lat="45.04756" lon="0.4089">
        <ele>106.2</ele>
        <time>2022-10-09T09:28:10Z</time>
      </trkpt>
      <trkpt lat="45.04745" lon="0.40896">
        <ele>106.4</ele>
        <time>2022-10-09T09:28:14Z</time>
      </trkpt>
      <trkpt lat="45.0473" lon="0.40904">
        <ele>106.8</ele>
        <time>2022-10-09T09:28:19Z</time>
      </trkpt>
      <trkpt lat="45.04721" lon="0.40907">
        <ele>107.3</ele>
        <time>2022-10-09T09:28:23Z</time>
      </trkpt>
      <trkpt lat="45.04709" lon="0.40912">
        <ele>108</ele>
        <time>2022-10-09T09:28:28Z</time>
      </trkpt>
      <trkpt lat="45.04695" lon="0.40916">
        <ele>108.9</ele>
        <time>2022-10-09T09:28:35Z</time>
      </trkpt>
      <trkpt lat="45.0468" lon="0.40916">
        <ele>109.7</ele>
        <time>2022-10-09T09:28:42Z</time>
      </trkpt>
      <trkpt lat="45.04669" lon="0.40916">
        <ele>110.3</ele>
        <time>2022-10-09T09:28:47Z</time>
      </trkpt>
      <trkpt lat="45.04655" lon="0.40917">
        <ele>110.7</ele>
        <time>2022-10-09T09:28:53Z</time>
      </trkpt>
      <trkpt lat="45.04645" lon="0.40917">
        <ele>110.8</ele>
        <time>2022-10-09T09:28:57Z</time>
      </trkpt>
      <trkpt lat="45.04626" lon="0.40918">
        <ele>110.6</ele>
        <time>2022-10-09T09:29:03Z</time>
      </trkpt>
      <trkpt lat="45.04607" lon="0.40923">
        <ele>110.7</ele>
        <time>2022-10-09T09:29:09Z</time>
      </trkpt>
      <trkpt lat="45.04589" lon="0.40931">
        <ele>111</ele>
        <time>2022-10-09T09:29:16Z</time>
      </trkpt>
      <trkpt lat="45.04573" lon="0.40938">
        <ele>111.1</ele>
        <time>2022-10-09T09:29:22Z</time>
      </trkpt>
      <trkpt lat="45.04567" lon="0.40942">
        <ele>111.2</ele>
        <time>2022-10-09T09:29:25Z</time>
      </trkpt>
      <trkpt lat="45.04557" lon="0.40949">
        <ele>111.3</ele>
        <time>2022-10-09T09:29:29Z</time>
      </trkpt>
      <trkpt lat="45.04543" lon="0.4096">
        <ele>111.6</ele>
        <time>2022-10-09T09:29:35Z</time>
      </trkpt>
      <trkpt lat="45.0453" lon="0.4097">
        <ele>111.8</ele>
        <time>2022-10-09T09:29:40Z</time>
      </trkpt>
      <trkpt lat="45.04519" lon="0.40978">
        <ele>111.8</ele>
        <time>2022-10-09T09:29:44Z</time>
      </trkpt>
      <trkpt lat="45.04503" lon="0.40992">
        <ele>112</ele>
        <time>2022-10-09T09:29:49Z</time>
      </trkpt>
      <trkpt lat="45.04489" lon="0.41008">
        <ele>112.6</ele>
        <time>2022-10-09T09:29:55Z</time>
      </trkpt>
      <trkpt lat="45.0448" lon="0.41021">
        <ele>113</ele>
        <time>2022-10-09T09:30:00Z</time>
      </trkpt>
      <trkpt lat="45.0447" lon="0.41033">
        <ele>113.5</ele>
        <time>2022-10-09T09:30:06Z</time>
      </trkpt>
      <trkpt lat="45.04463" lon="0.41039">
        <ele>113.6</ele>
        <time>2022-10-09T09:30:09Z</time>
      </trkpt>
      <trkpt lat="45.04451" lon="0.41047">
        <ele>113.9</ele>
        <time>2022-10-09T09:30:14Z</time>
      </trkpt>
      <trkpt lat="45.04439" lon="0.41056">
        <ele>114.2</ele>
        <time>2022-10-09T09:30:19Z</time>
      </trkpt>
      <trkpt lat="45.04427" lon="0.41063">
        <ele>114.5</ele>
        <time>2022-10-09T09:30:24Z</time>
      </trkpt>
      <trkpt lat="45.04418" lon="0.41068">
        <ele>114.7</ele>
        <time>2022-10-09T09:30:28Z</time>
      </trkpt>
      <trkpt lat="45.04405" lon="0.41068">
        <ele>114.5</ele>
        <time>2022-10-09T09:30:33Z</time>
      </trkpt>
      <trkpt lat="45.044" lon="0.41065">
        <ele>114.1</ele>
        <time>2022-10-09T09:30:35Z</time>
      </trkpt>
      <trkpt lat="45.04397" lon="0.41061">
        <ele>113.8</ele>
        <time>2022-10-09T09:30:36Z</time>
      </trkpt>
      <trkpt lat="45.04385" lon="0.41042">
        <ele>111</ele>
        <time>2022-10-09T09:30:39Z</time>
      </trkpt>
      <trkpt lat="45.04373" lon="0.41019">
        <ele>108.1</ele>
        <time>2022-10-09T09:30:43Z</time>
      </trkpt>
      <trkpt lat="45.0437" lon="0.41013">
        <ele>107.3</ele>
        <time>2022-10-09T09:30:44Z</time>
      </trkpt>
      <trkpt lat="45.04367" lon="0.41006">
        <ele>106.7</ele>
        <time>2022-10-09T09:30:45Z</time>
      </trkpt>
      <trkpt lat="45.04359" lon="0.40985">
        <ele>105.1</ele>
        <time>2022-10-09T09:30:48Z</time>
      </trkpt>
      <trkpt lat="45.04355" lon="0.40971">
        <ele>104.4</ele>
        <time>2022-10-09T09:30:50Z</time>
      </trkpt>
      <trkpt lat="45.04353" lon="0.40966">
        <ele>104.1</ele>
        <time>2022-10-09T09:30:51Z</time>
      </trkpt>
      <trkpt lat="45.04357" lon="0.40947">
        <ele>104</ele>
        <time>2022-10-09T09:30:55Z</time>
      </trkpt>
      <trkpt lat="45.04356" lon="0.40931">
        <ele>105.1</ele>
        <time>2022-10-09T09:31:00Z</time>
      </trkpt>
      <trkpt lat="45.04345" lon="0.40932">
        <ele>105.9</ele>
        <time>2022-10-09T09:31:07Z</time>
      </trkpt>
      <trkpt lat="45.04334" lon="0.40932">
        <ele>106.8</ele>
        <time>2022-10-09T09:31:14Z</time>
      </trkpt>
      <trkpt lat="45.04317" lon="0.40928">
        <ele>108.2</ele>
        <time>2022-10-09T09:31:25Z</time>
      </trkpt>
      <trkpt lat="45.04303" lon="0.40923">
        <ele>109.4</ele>
        <time>2022-10-09T09:31:34Z</time>
      </trkpt>
      <trkpt lat="45.04285" lon="0.40918">
        <ele>111</ele>
        <time>2022-10-09T09:31:46Z</time>
      </trkpt>
      <trkpt lat="45.0427" lon="0.40914">
        <ele>112.4</ele>
        <time>2022-10-09T09:31:56Z</time>
      </trkpt>
      <trkpt lat="45.04257" lon="0.4091">
        <ele>113.6</ele>
        <time>2022-10-09T09:32:04Z</time>
      </trkpt>
      <trkpt lat="45.04239" lon="0.40905">
        <ele>115.2</ele>
        <time>2022-10-09T09:32:14Z</time>
      </trkpt>
      <trkpt lat="45.04225" lon="0.409">
        <ele>116.3</ele>
        <time>2022-10-09T09:32:23Z</time>
      </trkpt>
      <trkpt lat="45.04213" lon="0.40898">
        <ele>117.1</ele>
        <time>2022-10-09T09:32:31Z</time>
      </trkpt>
      <trkpt lat="45.04201" lon="0.40896">
        <ele>117.8</ele>
        <time>2022-10-09T09:32:38Z</time>
      </trkpt>
      <trkpt lat="45.04189" lon="0.40898">
        <ele>118.5</ele>
        <time>2022-10-09T09:32:44Z</time>
      </trkpt>
      <trkpt lat="45.04174" lon="0.40894">
        <ele>119.4</ele>
        <time>2022-10-09T09:32:50Z</time>
      </trkpt>
      <trkpt lat="45.04171" lon="0.40873">
        <ele>120.1</ele>
        <time>2022-10-09T09:32:59Z</time>
      </trkpt>
      <trkpt lat="45.04169" lon="0.4085">
        <ele>121.2</ele>
        <time>2022-10-09T09:33:09Z</time>
      </trkpt>
      <trkpt lat="45.04172" lon="0.40826">
        <ele>122.8</ele>
        <time>2022-10-09T09:33:20Z</time>
      </trkpt>
      <trkpt lat="45.04173" lon="0.40824">
        <ele>122.9</ele>
        <time>2022-10-09T09:33:21Z</time>
      </trkpt>
      <trkpt lat="45.04175" lon="0.40814">
        <ele>123.7</ele>
        <time>2022-10-09T09:33:26Z</time>
      </trkpt>
      <trkpt lat="45.0418" lon="0.40795">
        <ele>125</ele>
        <time>2022-10-09T09:33:35Z</time>
      </trkpt>
      <trkpt lat="45.04183" lon="0.40778">
        <ele>126.1</ele>
        <time>2022-10-09T09:33:43Z</time>
      </trkpt>
      <trkpt lat="45.04184" lon="0.40762">
        <ele>127</ele>
        <time>2022-10-09T09:33:50Z</time>
      </trkpt>
      <trkpt lat="45.04192" lon="0.40747">
        <ele>128.2</ele>
        <time>2022-10-09T09:33:57Z</time>
      </trkpt>
      <trkpt lat="45.04201" lon="0.40738">
        <ele>129</ele>
        <time>2022-10-09T09:34:03Z</time>
      </trkpt>
      <trkpt lat="45.04202" lon="0.40736">
        <ele>129.1</ele>
        <time>2022-10-09T09:34:04Z</time>
      </trkpt>
      <trkpt lat="45.04208" lon="0.40729">
        <ele>129.4</ele>
        <time>2022-10-09T09:34:08Z</time>
      </trkpt>
      <trkpt lat="45.04218" lon="0.40713">
        <ele>129.6</ele>
        <time>2022-10-09T09:34:14Z</time>
      </trkpt>
      <trkpt lat="45.04227" lon="0.40706">
        <ele>129.5</ele>
        <time>2022-10-09T09:34:18Z</time>
      </trkpt>
      <trkpt lat="45.04239" lon="0.40695">
        <ele>129.5</ele>
        <time>2022-10-09T09:34:23Z</time>
      </trkpt>
      <trkpt lat="45.04261" lon="0.40669">
        <ele>129.2</ele>
        <time>2022-10-09T09:34:31Z</time>
      </trkpt>
      <trkpt lat="45.04276" lon="0.40652">
        <ele>128.7</ele>
        <time>2022-10-09T09:34:36Z</time>
      </trkpt>
      <trkpt lat="45.04283" lon="0.40643">
        <ele>128.4</ele>
        <time>2022-10-09T09:34:38Z</time>
      </trkpt>
      <trkpt lat="45.04291" lon="0.40634">
        <ele>127.8</ele>
        <time>2022-10-09T09:34:40Z</time>
      </trkpt>
      <trkpt lat="45.04303" lon="0.4062">
        <ele>127</ele>
        <time>2022-10-09T09:34:43Z</time>
      </trkpt>
      <trkpt lat="45.0431" lon="0.40611">
        <ele>126.5</ele>
        <time>2022-10-09T09:34:45Z</time>
      </trkpt>
      <trkpt lat="45.04322" lon="0.40596">
        <ele>125.7</ele>
        <time>2022-10-09T09:34:48Z</time>
      </trkpt>
      <trkpt lat="45.04331" lon="0.40586">
        <ele>125</ele>
        <time>2022-10-09T09:34:50Z</time>
      </trkpt>
      <trkpt lat="45.04344" lon="0.40575">
        <ele>124.1</ele>
        <time>2022-10-09T09:34:52Z</time>
      </trkpt>
      <trkpt lat="45.04349" lon="0.40575">
        <ele>123.7</ele>
        <time>2022-10-09T09:34:53Z</time>
      </trkpt>
      <trkpt lat="45.04375" lon="0.40574">
        <ele>122.4</ele>
        <time>2022-10-09T09:34:58Z</time>
      </trkpt>
      <trkpt lat="45.04397" lon="0.40572">
        <ele>121.7</ele>
        <time>2022-10-09T09:35:02Z</time>
      </trkpt>
      <trkpt lat="45.04417" lon="0.40568">
        <ele>121.3</ele>
        <time>2022-10-09T09:35:06Z</time>
      </trkpt>
      <trkpt lat="45.04426" lon="0.40566">
        <ele>121.1</ele>
        <time>2022-10-09T09:35:08Z</time>
      </trkpt>
      <trkpt lat="45.04444" lon="0.40564">
        <ele>120.8</ele>
        <time>2022-10-09T09:35:12Z</time>
      </trkpt>
      <trkpt lat="45.04458" lon="0.40563">
        <ele>120.5</ele>
        <time>2022-10-09T09:35:16Z</time>
      </trkpt>
      <trkpt lat="45.04477" lon="0.40556">
        <ele>120.3</ele>
        <time>2022-10-09T09:35:21Z</time>
      </trkpt>
      <trkpt lat="45.04495" lon="0.4055">
        <ele>120.2</ele>
        <time>2022-10-09T09:35:26Z</time>
      </trkpt>
      <trkpt lat="45.04506" lon="0.40546">
        <ele>120</ele>
        <time>2022-10-09T09:35:29Z</time>
      </trkpt>
      <trkpt lat="45.04527" lon="0.40533">
        <ele>119.3</ele>
        <time>2022-10-09T09:35:34Z</time>
      </trkpt>
      <trkpt lat="45.04534" lon="0.40528">
        <ele>119</ele>
        <time>2022-10-09T09:35:36Z</time>
      </trkpt>
      <trkpt lat="45.04539" lon="0.40525">
        <ele>118.7</ele>
        <time>2022-10-09T09:35:37Z</time>
      </trkpt>
      <trkpt lat="45.04561" lon="0.4051">
        <ele>117.1</ele>
        <time>2022-10-09T09:35:41Z</time>
      </trkpt>
      <trkpt lat="45.04567" lon="0.40506">
        <ele>116.7</ele>
        <time>2022-10-09T09:35:42Z</time>
      </trkpt>
      <trkpt lat="45.04605" lon="0.40486">
        <ele>114.5</ele>
        <time>2022-10-09T09:35:48Z</time>
      </trkpt>
      <trkpt lat="45.04638" lon="0.40464">
        <ele>113.6</ele>
        <time>2022-10-09T09:35:54Z</time>
      </trkpt>
      <trkpt lat="45.04668" lon="0.4044">
        <ele>112.8</ele>
        <time>2022-10-09T09:36:00Z</time>
      </trkpt>
      <trkpt lat="45.0469" lon="0.40421">
        <ele>112.4</ele>
        <time>2022-10-09T09:36:05Z</time>
      </trkpt>
      <trkpt lat="45.04706" lon="0.40407">
        <ele>112.2</ele>
        <time>2022-10-09T09:36:09Z</time>
      </trkpt>
      <trkpt lat="45.04712" lon="0.40397">
        <ele>112.1</ele>
        <time>2022-10-09T09:36:11Z</time>
      </trkpt>
      <trkpt lat="45.04713" lon="0.4039">
        <ele>111.7</ele>
        <time>2022-10-09T09:36:12Z</time>
      </trkpt>
      <trkpt lat="45.04701" lon="0.40378">
        <ele>110.8</ele>
        <time>2022-10-09T09:36:16Z</time>
      </trkpt>
      <trkpt lat="45.04676" lon="0.40353">
        <ele>109</ele>
        <time>2022-10-09T09:36:21Z</time>
      </trkpt>
      <trkpt lat="45.04633" lon="0.40306">
        <ele>106.6</ele>
        <time>2022-10-09T09:36:29Z</time>
      </trkpt>
      <trkpt lat="45.04627" lon="0.403">
        <ele>106.3</ele>
        <time>2022-10-09T09:36:30Z</time>
      </trkpt>
      <trkpt lat="45.04584" lon="0.40252">
        <ele>104</ele>
        <time>2022-10-09T09:36:38Z</time>
      </trkpt>
      <trkpt lat="45.04578" lon="0.40246">
        <ele>103.7</ele>
        <time>2022-10-09T09:36:39Z</time>
      </trkpt>
      <trkpt lat="45.04534" lon="0.40197">
        <ele>102</ele>
        <time>2022-10-09T09:36:47Z</time>
      </trkpt>
      <trkpt lat="45.04528" lon="0.40191">
        <ele>101.9</ele>
        <time>2022-10-09T09:36:48Z</time>
      </trkpt>
      <trkpt lat="45.04501" lon="0.4016">
        <ele>101.7</ele>
        <time>2022-10-09T09:36:54Z</time>
      </trkpt>
      <trkpt lat="45.04493" lon="0.40151">
        <ele>101.7</ele>
        <time>2022-10-09T09:36:56Z</time>
      </trkpt>
      <trkpt lat="45.04489" lon="0.40148">
        <ele>101.6</ele>
        <time>2022-10-09T09:36:57Z</time>
      </trkpt>
      <trkpt lat="45.04487" lon="0.40145">
        <ele>101.5</ele>
        <time>2022-10-09T09:36:58Z</time>
      </trkpt>
      <trkpt lat="45.04502" lon="0.40114">
        <ele>100.1</ele>
        <time>2022-10-09T09:37:01Z</time>
      </trkpt>
      <trkpt lat="45.04522" lon="0.40068">
        <ele>99</ele>
        <time>2022-10-09T09:37:08Z</time>
      </trkpt>
      <trkpt lat="45.04535" lon="0.40039">
        <ele>98.3</ele>
        <time>2022-10-09T09:37:12Z</time>
      </trkpt>
      <trkpt lat="45.04546" lon="0.40017">
        <ele>97.8</ele>
        <time>2022-10-09T09:37:15Z</time>
      </trkpt>
      <trkpt lat="45.04561" lon="0.39989">
        <ele>96.8</ele>
        <time>2022-10-09T09:37:19Z</time>
      </trkpt>
      <trkpt lat="45.04566" lon="0.39985">
        <ele>96.5</ele>
        <time>2022-10-09T09:37:20Z</time>
      </trkpt>
      <trkpt lat="45.04572" lon="0.39985">
        <ele>96.3</ele>
        <time>2022-10-09T09:37:21Z</time>
      </trkpt>
      <trkpt lat="45.04582" lon="0.39989">
        <ele>96</ele>
        <time>2022-10-09T09:37:23Z</time>
      </trkpt>
      <trkpt lat="45.04602" lon="0.39999">
        <ele>95.9</ele>
        <time>2022-10-09T09:37:27Z</time>
      </trkpt>
      <trkpt lat="45.04609" lon="0.39995">
        <ele>95.3</ele>
        <time>2022-10-09T09:37:29Z</time>
      </trkpt>
      <trkpt lat="45.0461" lon="0.39989">
        <ele>95.1</ele>
        <time>2022-10-09T09:37:30Z</time>
      </trkpt>
      <trkpt lat="45.04614" lon="0.39983">
        <ele>94.8</ele>
        <time>2022-10-09T09:37:32Z</time>
      </trkpt>
      <trkpt lat="45.04613" lon="0.39977">
        <ele>94.5</ele>
        <time>2022-10-09T09:37:33Z</time>
      </trkpt>
      <trkpt lat="45.04615" lon="0.39939">
        <ele>93.8</ele>
        <time>2022-10-09T09:37:38Z</time>
      </trkpt>
      <trkpt lat="45.0462" lon="0.39894">
        <ele>92.7</ele>
        <time>2022-10-09T09:37:43Z</time>
      </trkpt>
      <trkpt lat="45.04632" lon="0.3985">
        <ele>91.2</ele>
        <time>2022-10-09T09:37:48Z</time>
      </trkpt>
      <trkpt lat="45.04637" lon="0.39832">
        <ele>90.4</ele>
        <time>2022-10-09T09:37:50Z</time>
      </trkpt>
      <trkpt lat="45.04643" lon="0.39815">
        <ele>89.7</ele>
        <time>2022-10-09T09:37:52Z</time>
      </trkpt>
      <trkpt lat="45.0466" lon="0.39773">
        <ele>88.5</ele>
        <time>2022-10-09T09:37:58Z</time>
      </trkpt>
      <trkpt lat="45.04664" lon="0.39762">
        <ele>88.6</ele>
        <time>2022-10-09T09:38:01Z</time>
      </trkpt>
      <trkpt lat="45.04667" lon="0.39756">
        <ele>88.6</ele>
        <time>2022-10-09T09:38:03Z</time>
      </trkpt>
      <trkpt lat="45.0467" lon="0.39751">
        <ele>88.6</ele>
        <time>2022-10-09T09:38:05Z</time>
      </trkpt>
      <trkpt lat="45.04677" lon="0.3973">
        <ele>88</ele>
        <time>2022-10-09T09:38:09Z</time>
      </trkpt>
      <trkpt lat="45.0469" lon="0.39675">
        <ele>85.7</ele>
        <time>2022-10-09T09:38:16Z</time>
      </trkpt>
      <trkpt lat="45.04693" lon="0.39659">
        <ele>85.3</ele>
        <time>2022-10-09T09:38:18Z</time>
      </trkpt>
      <trkpt lat="45.04694" lon="0.39645">
        <ele>84.9</ele>
        <time>2022-10-09T09:38:20Z</time>
      </trkpt>
      <trkpt lat="45.04687" lon="0.39633">
        <ele>84.2</ele>
        <time>2022-10-09T09:38:22Z</time>
      </trkpt>
      <trkpt lat="45.04683" lon="0.39632">
        <ele>84</ele>
        <time>2022-10-09T09:38:23Z</time>
      </trkpt>
      <trkpt lat="45.04679" lon="0.3963">
        <ele>83.8</ele>
        <time>2022-10-09T09:38:24Z</time>
      </trkpt>
      <trkpt lat="45.04676" lon="0.39626">
        <ele>83.6</ele>
        <time>2022-10-09T09:38:25Z</time>
      </trkpt>
      <trkpt lat="45.04675" lon="0.39622">
        <ele>83.4</ele>
        <time>2022-10-09T09:38:26Z</time>
      </trkpt>
      <trkpt lat="45.04673" lon="0.39601">
        <ele>82.5</ele>
        <time>2022-10-09T09:38:29Z</time>
      </trkpt>
      <trkpt lat="45.04672" lon="0.39584">
        <ele>81.9</ele>
        <time>2022-10-09T09:38:31Z</time>
      </trkpt>
      <trkpt lat="45.04671" lon="0.39566">
        <ele>81.5</ele>
        <time>2022-10-09T09:38:33Z</time>
      </trkpt>
      <trkpt lat="45.04669" lon="0.39541">
        <ele>81</ele>
        <time>2022-10-09T09:38:36Z</time>
      </trkpt>
      <trkpt lat="45.04663" lon="0.39534">
        <ele>80.8</ele>
        <time>2022-10-09T09:38:40Z</time>
      </trkpt>
      <trkpt lat="45.04653" lon="0.39536">
        <ele>80.9</ele>
        <time>2022-10-09T09:38:45Z</time>
      </trkpt>
      <trkpt lat="45.04642" lon="0.39538">
        <ele>81.4</ele>
        <time>2022-10-09T09:38:50Z</time>
      </trkpt>
      <trkpt lat="45.0464" lon="0.39538">
        <ele>81.5</ele>
        <time>2022-10-09T09:38:51Z</time>
      </trkpt>
      <trkpt lat="45.04625" lon="0.3954">
        <ele>82.3</ele>
        <time>2022-10-09T09:38:57Z</time>
      </trkpt>
      <trkpt lat="45.04611" lon="0.39542">
        <ele>83.1</ele>
        <time>2022-10-09T09:39:03Z</time>
      </trkpt>
      <trkpt lat="45.04599" lon="0.3954">
        <ele>84</ele>
        <time>2022-10-09T09:39:08Z</time>
      </trkpt>
      <trkpt lat="45.04589" lon="0.39539">
        <ele>84.7</ele>
        <time>2022-10-09T09:39:13Z</time>
      </trkpt>
      <trkpt lat="45.04575" lon="0.39537">
        <ele>85.5</ele>
        <time>2022-10-09T09:39:20Z</time>
      </trkpt>
      <trkpt lat="45.04565" lon="0.39536">
        <ele>85.8</ele>
        <time>2022-10-09T09:39:25Z</time>
      </trkpt>
      <trkpt lat="45.04552" lon="0.39535">
        <ele>86</ele>
        <time>2022-10-09T09:39:30Z</time>
      </trkpt>
      <trkpt lat="45.04527" lon="0.39533">
        <ele>85.9</ele>
        <time>2022-10-09T09:39:38Z</time>
      </trkpt>
      <trkpt lat="45.04508" lon="0.39529">
        <ele>85.6</ele>
        <time>2022-10-09T09:39:43Z</time>
      </trkpt>
      <trkpt lat="45.04503" lon="0.39528">
        <ele>85.6</ele>
        <time>2022-10-09T09:39:44Z</time>
      </trkpt>
      <trkpt lat="45.04489" lon="0.39531">
        <ele>85.8</ele>
        <time>2022-10-09T09:39:47Z</time>
      </trkpt>
      <trkpt lat="45.04485" lon="0.39534">
        <ele>85.9</ele>
        <time>2022-10-09T09:39:48Z</time>
      </trkpt>
      <trkpt lat="45.04483" lon="0.39536">
        <ele>86</ele>
        <time>2022-10-09T09:39:50Z</time>
      </trkpt>
      <trkpt lat="45.04474" lon="0.39548">
        <ele>86.6</ele>
        <time>2022-10-09T09:39:54Z</time>
      </trkpt>
      <trkpt lat="45.04461" lon="0.3956">
        <ele>87.4</ele>
        <time>2022-10-09T09:39:59Z</time>
      </trkpt>
      <trkpt lat="45.04447" lon="0.39571">
        <ele>88.2</ele>
        <time>2022-10-09T09:40:04Z</time>
      </trkpt>
      <trkpt lat="45.04438" lon="0.39592">
        <ele>88.8</ele>
        <time>2022-10-09T09:40:10Z</time>
      </trkpt>
      <trkpt lat="45.04431" lon="0.39616">
        <ele>89.1</ele>
        <time>2022-10-09T09:40:16Z</time>
      </trkpt>
      <trkpt lat="45.04424" lon="0.39644">
        <ele>89.2</ele>
        <time>2022-10-09T09:40:23Z</time>
      </trkpt>
      <trkpt lat="45.04417" lon="0.3967">
        <ele>89.4</ele>
        <time>2022-10-09T09:40:29Z</time>
      </trkpt>
      <trkpt lat="45.0441" lon="0.39699">
        <ele>89.6</ele>
        <time>2022-10-09T09:40:35Z</time>
      </trkpt>
      <trkpt lat="45.04401" lon="0.39735">
        <ele>90.2</ele>
        <time>2022-10-09T09:40:43Z</time>
      </trkpt>
      <trkpt lat="45.04393" lon="0.39768">
        <ele>90.8</ele>
        <time>2022-10-09T09:40:51Z</time>
      </trkpt>
      <trkpt lat="45.04392" lon="0.39775">
        <ele>90.9</ele>
        <time>2022-10-09T09:40:53Z</time>
      </trkpt>
      <trkpt lat="45.04389" lon="0.39778">
        <ele>91</ele>
        <time>2022-10-09T09:40:54Z</time>
      </trkpt>
      <trkpt lat="45.04371" lon="0.39778">
        <ele>91.3</ele>
        <time>2022-10-09T09:41:00Z</time>
      </trkpt>
      <trkpt lat="45.04347" lon="0.3978">
        <ele>91.9</ele>
        <time>2022-10-09T09:41:07Z</time>
      </trkpt>
      <trkpt lat="45.04334" lon="0.3977">
        <ele>92.1</ele>
        <time>2022-10-09T09:41:12Z</time>
      </trkpt>
      <trkpt lat="45.04312" lon="0.39753">
        <ele>92.7</ele>
        <time>2022-10-09T09:41:19Z</time>
      </trkpt>
      <trkpt lat="45.0429" lon="0.39736">
        <ele>93.3</ele>
        <time>2022-10-09T09:41:27Z</time>
      </trkpt>
      <trkpt lat="45.04267" lon="0.39719">
        <ele>93.8</ele>
        <time>2022-10-09T09:41:36Z</time>
      </trkpt>
      <trkpt lat="45.04246" lon="0.39705">
        <ele>94.3</ele>
        <time>2022-10-09T09:41:45Z</time>
      </trkpt>
      <trkpt lat="45.04231" lon="0.39696">
        <ele>94.7</ele>
        <time>2022-10-09T09:41:52Z</time>
      </trkpt>
      <trkpt lat="45.04217" lon="0.39684">
        <ele>95.3</ele>
        <time>2022-10-09T09:42:00Z</time>
      </trkpt>
      <trkpt lat="45.04205" lon="0.39681">
        <ele>95.9</ele>
        <time>2022-10-09T09:42:06Z</time>
      </trkpt>
      <trkpt lat="45.04193" lon="0.3968">
        <ele>96.4</ele>
        <time>2022-10-09T09:42:12Z</time>
      </trkpt>
      <trkpt lat="45.0419" lon="0.3968">
        <ele>96.5</ele>
        <time>2022-10-09T09:42:14Z</time>
      </trkpt>
      <trkpt lat="45.04184" lon="0.3968">
        <ele>96.8</ele>
        <time>2022-10-09T09:42:17Z</time>
      </trkpt>
      <trkpt lat="45.04175" lon="0.39677">
        <ele>97.2</ele>
        <time>2022-10-09T09:42:21Z</time>
      </trkpt>
      <trkpt lat="45.04173" lon="0.39676">
        <ele>97.2</ele>
        <time>2022-10-09T09:42:22Z</time>
      </trkpt>
      <trkpt lat="45.0416" lon="0.39671">
        <ele>97.9</ele>
        <time>2022-10-09T09:42:28Z</time>
      </trkpt>
      <trkpt lat="45.04147" lon="0.39664">
        <ele>98.8</ele>
        <time>2022-10-09T09:42:35Z</time>
      </trkpt>
      <trkpt lat="45.0413" lon="0.39657">
        <ele>100</ele>
        <time>2022-10-09T09:42:43Z</time>
      </trkpt>
      <trkpt lat="45.04116" lon="0.3965">
        <ele>100.9</ele>
        <time>2022-10-09T09:42:50Z</time>
      </trkpt>
      <trkpt lat="45.04102" lon="0.39644">
        <ele>101.7</ele>
        <time>2022-10-09T09:42:56Z</time>
      </trkpt>
      <trkpt lat="45.04083" lon="0.39637">
        <ele>102.6</ele>
        <time>2022-10-09T09:43:04Z</time>
      </trkpt>
      <trkpt lat="45.04065" lon="0.3963">
        <ele>103</ele>
        <time>2022-10-09T09:43:12Z</time>
      </trkpt>
      <trkpt lat="45.04052" lon="0.39626">
        <ele>103.1</ele>
        <time>2022-10-09T09:43:17Z</time>
      </trkpt>
      <trkpt lat="45.04034" lon="0.39623">
        <ele>103</ele>
        <time>2022-10-09T09:43:23Z</time>
      </trkpt>
      <trkpt lat="45.04029" lon="0.39623">
        <ele>102.9</ele>
        <time>2022-10-09T09:43:27Z</time>
      </trkpt>
      <trkpt lat="45.04015" lon="0.39622">
        <ele>102.1</ele>
        <time>2022-10-09T09:43:32Z</time>
      </trkpt>
      <trkpt lat="45.04005" lon="0.39611">
        <ele>101.2</ele>
        <time>2022-10-09T09:43:36Z</time>
      </trkpt>
      <trkpt lat="45.0398" lon="0.39583">
        <ele>98.7</ele>
        <time>2022-10-09T09:43:41Z</time>
      </trkpt>
      <trkpt lat="45.03953" lon="0.39553">
        <ele>96.4</ele>
        <time>2022-10-09T09:43:46Z</time>
      </trkpt>
      <trkpt lat="45.03949" lon="0.39549">
        <ele>96.2</ele>
        <time>2022-10-09T09:43:47Z</time>
      </trkpt>
      <trkpt lat="45.03942" lon="0.39533">
        <ele>95.5</ele>
        <time>2022-10-09T09:43:49Z</time>
      </trkpt>
      <trkpt lat="45.03962" lon="0.39501">
        <ele>94.4</ele>
        <time>2022-10-09T09:43:55Z</time>
      </trkpt>
      <trkpt lat="45.03965" lon="0.39496">
        <ele>94.4</ele>
        <time>2022-10-09T09:43:56Z</time>
      </trkpt>
      <trkpt lat="45.03971" lon="0.39485">
        <ele>94.3</ele>
        <time>2022-10-09T09:43:58Z</time>
      </trkpt>
      <trkpt lat="45.03977" lon="0.39476">
        <ele>94.4</ele>
        <time>2022-10-09T09:44:00Z</time>
      </trkpt>
      <trkpt lat="45.0399" lon="0.39454">
        <ele>94.6</ele>
        <time>2022-10-09T09:44:05Z</time>
      </trkpt>
      <trkpt lat="45.03996" lon="0.39444">
        <ele>94.5</ele>
        <time>2022-10-09T09:44:07Z</time>
      </trkpt>
      <trkpt lat="45.04002" lon="0.39434">
        <ele>94.5</ele>
        <time>2022-10-09T09:44:09Z</time>
      </trkpt>
      <trkpt lat="45.04022" lon="0.39401">
        <ele>94.1</ele>
        <time>2022-10-09T09:44:15Z</time>
      </trkpt>
      <trkpt lat="45.04032" lon="0.39384">
        <ele>94</ele>
        <time>2022-10-09T09:44:18Z</time>
      </trkpt>
      <trkpt lat="45.04042" lon="0.39367">
        <ele>94.1</ele>
        <time>2022-10-09T09:44:21Z</time>
      </trkpt>
      <trkpt lat="45.04056" lon="0.39355">
        <ele>94.2</ele>
        <time>2022-10-09T09:44:24Z</time>
      </trkpt>
      <trkpt lat="45.04063" lon="0.3935">
        <ele>94.4</ele>
        <time>2022-10-09T09:44:26Z</time>
      </trkpt>
      <trkpt lat="45.04089" lon="0.39349">
        <ele>94.8</ele>
        <time>2022-10-09T09:44:32Z</time>
      </trkpt>
      <trkpt lat="45.04098" lon="0.39348">
        <ele>95</ele>
        <time>2022-10-09T09:44:34Z</time>
      </trkpt>
      <trkpt lat="45.04115" lon="0.39341">
        <ele>95.3</ele>
        <time>2022-10-09T09:44:38Z</time>
      </trkpt>
      <trkpt lat="45.04137" lon="0.3933">
        <ele>95.4</ele>
        <time>2022-10-09T09:44:43Z</time>
      </trkpt>
      <trkpt lat="45.04162" lon="0.39322">
        <ele>95.7</ele>
        <time>2022-10-09T09:44:49Z</time>
      </trkpt>
      <trkpt lat="45.04171" lon="0.39319">
        <ele>95.7</ele>
        <time>2022-10-09T09:44:51Z</time>
      </trkpt>
      <trkpt lat="45.0419" lon="0.39311">
        <ele>95.4</ele>
        <time>2022-10-09T09:44:55Z</time>
      </trkpt>
      <trkpt lat="45.0422" lon="0.39299">
        <ele>94</ele>
        <time>2022-10-09T09:45:00Z</time>
      </trkpt>
      <trkpt lat="45.04255" lon="0.39293">
        <ele>92.5</ele>
        <time>2022-10-09T09:45:05Z</time>
      </trkpt>
      <trkpt lat="45.0428" lon="0.39284">
        <ele>91.8</ele>
        <time>2022-10-09T09:45:09Z</time>
      </trkpt>
      <trkpt lat="45.04286" lon="0.39281">
        <ele>91.7</ele>
        <time>2022-10-09T09:45:10Z</time>
      </trkpt>
      <trkpt lat="45.04296" lon="0.39271">
        <ele>91.5</ele>
        <time>2022-10-09T09:45:12Z</time>
      </trkpt>
      <trkpt lat="45.04309" lon="0.39254">
        <ele>91.1</ele>
        <time>2022-10-09T09:45:15Z</time>
      </trkpt>
      <trkpt lat="45.04326" lon="0.39228">
        <ele>90.8</ele>
        <time>2022-10-09T09:45:19Z</time>
      </trkpt>
      <trkpt lat="45.04354" lon="0.39183">
        <ele>89.8</ele>
        <time>2022-10-09T09:45:26Z</time>
      </trkpt>
      <trkpt lat="45.04369" lon="0.39164">
        <ele>88.6</ele>
        <time>2022-10-09T09:45:29Z</time>
      </trkpt>
      <trkpt lat="45.04383" lon="0.39154">
        <ele>87.8</ele>
        <time>2022-10-09T09:45:31Z</time>
      </trkpt>
      <trkpt lat="45.04417" lon="0.39135">
        <ele>85.9</ele>
        <time>2022-10-09T09:45:36Z</time>
      </trkpt>
      <trkpt lat="45.04451" lon="0.39118">
        <ele>84.8</ele>
        <time>2022-10-09T09:45:41Z</time>
      </trkpt>
      <trkpt lat="45.04462" lon="0.39112">
        <ele>84.6</ele>
        <time>2022-10-09T09:45:43Z</time>
      </trkpt>
      <trkpt lat="45.04484" lon="0.39097">
        <ele>84.2</ele>
        <time>2022-10-09T09:45:47Z</time>
      </trkpt>
      <trkpt lat="45.04524" lon="0.3907">
        <ele>83.7</ele>
        <time>2022-10-09T09:45:54Z</time>
      </trkpt>
      <trkpt lat="45.04569" lon="0.39041">
        <ele>83.4</ele>
        <time>2022-10-09T09:46:02Z</time>
      </trkpt>
      <trkpt lat="45.04612" lon="0.39012">
        <ele>82.9</ele>
        <time>2022-10-09T09:46:10Z</time>
      </trkpt>
      <trkpt lat="45.04623" lon="0.39005">
        <ele>82.8</ele>
        <time>2022-10-09T09:46:12Z</time>
      </trkpt>
      <trkpt lat="45.04632" lon="0.38996">
        <ele>82.8</ele>
        <time>2022-10-09T09:46:14Z</time>
      </trkpt>
      <trkpt lat="45.04637" lon="0.38982">
        <ele>82.8</ele>
        <time>2022-10-09T09:46:16Z</time>
      </trkpt>
      <trkpt lat="45.04635" lon="0.38976">
        <ele>82.8</ele>
        <time>2022-10-09T09:46:17Z</time>
      </trkpt>
      <trkpt lat="45.04637" lon="0.38967">
        <ele>82.7</ele>
        <time>2022-10-09T09:46:18Z</time>
      </trkpt>
      <trkpt lat="45.04645" lon="0.38958">
        <ele>82.7</ele>
        <time>2022-10-09T09:46:20Z</time>
      </trkpt>
      <trkpt lat="45.04688" lon="0.38932">
        <ele>82.7</ele>
        <time>2022-10-09T09:46:28Z</time>
      </trkpt>
      <trkpt lat="45.04714" lon="0.38914">
        <ele>82.7</ele>
        <time>2022-10-09T09:46:33Z</time>
      </trkpt>
      <trkpt lat="45.04729" lon="0.38902">
        <ele>82.5</ele>
        <time>2022-10-09T09:46:36Z</time>
      </trkpt>
      <trkpt lat="45.04747" lon="0.38879">
        <ele>81.5</ele>
        <time>2022-10-09T09:46:41Z</time>
      </trkpt>
      <trkpt lat="45.04755" lon="0.38868">
        <ele>80.5</ele>
        <time>2022-10-09T09:46:43Z</time>
      </trkpt>
      <trkpt lat="45.04762" lon="0.38858">
        <ele>79.5</ele>
        <time>2022-10-09T09:46:45Z</time>
      </trkpt>
      <trkpt lat="45.04764" lon="0.38833">
        <ele>79.4</ele>
        <time>2022-10-09T09:46:46Z</time>
      </trkpt>
      <trkpt lat="45.04767" lon="0.38808">
        <ele>79.2</ele>
        <time>2022-10-09T09:46:48Z</time>
      </trkpt>
      <trkpt lat="45.04767" lon="0.3878">
        <ele>78.8</ele>
        <time>2022-10-09T09:46:50Z</time>
      </trkpt>
      <trkpt lat="45.04767" lon="0.38766">
        <ele>77.9</ele>
        <time>2022-10-09T09:46:51Z</time>
      </trkpt>
      <trkpt lat="45.04767" lon="0.38737">
        <ele>75.5</ele>
        <time>2022-10-09T09:46:53Z</time>
      </trkpt>
      <trkpt lat="45.04767" lon="0.38705">
        <ele>73.1</ele>
        <time>2022-10-09T09:46:55Z</time>
      </trkpt>
      <trkpt lat="45.04765" lon="0.38626">
        <ele>67.4</ele>
        <time>2022-10-09T09:47:00Z</time>
      </trkpt>
      <trkpt lat="45.04773" lon="0.38603">
        <ele>63.2</ele>
        <time>2022-10-09T09:47:02Z</time>
      </trkpt>
      <trkpt lat="45.04795" lon="0.38582">
        <ele>58.7</ele>
        <time>2022-10-09T09:47:05Z</time>
      </trkpt>
      <trkpt lat="45.04827" lon="0.38561">
        <ele>57.7</ele>
        <time>2022-10-09T09:47:10Z</time>
      </trkpt>
      <trkpt lat="45.04835" lon="0.38555">
        <ele>57.5</ele>
        <time>2022-10-09T09:47:13Z</time>
      </trkpt>
      <trkpt lat="45.04843" lon="0.38549">
        <ele>57.5</ele>
        <time>2022-10-09T09:47:15Z</time>
      </trkpt>
      <trkpt lat="45.04843" lon="0.38549">
        <ele>57.5</ele>
        <time>2022-10-09T09:47:18Z</time>
      </trkpt>
      <trkpt lat="45.0485" lon="0.38545">
        <ele>57.5</ele>
        <time>2022-10-09T09:47:22Z</time>
      </trkpt>
      <trkpt lat="45.04881" lon="0.38527">
        <ele>57.1</ele>
        <time>2022-10-09T09:47:29Z</time>
      </trkpt>
      <trkpt lat="45.04925" lon="0.38501">
        <ele>56.8</ele>
        <time>2022-10-09T09:47:39Z</time>
      </trkpt>
      <trkpt lat="45.04946" lon="0.38489">
        <ele>56.8</ele>
        <time>2022-10-09T09:47:44Z</time>
      </trkpt>
      <trkpt lat="45.0495" lon="0.38486">
        <ele>56.9</ele>
        <time>2022-10-09T09:47:45Z</time>
      </trkpt>
      <trkpt lat="45.04954" lon="0.38484">
        <ele>56.9</ele>
        <time>2022-10-09T09:47:46Z</time>
      </trkpt>
      <trkpt lat="45.04962" lon="0.38492">
        <ele>56.9</ele>
        <time>2022-10-09T09:47:48Z</time>
      </trkpt>
      <trkpt lat="45.04977" lon="0.38525">
        <ele>56.7</ele>
        <time>2022-10-09T09:47:54Z</time>
      </trkpt>
      <trkpt lat="45.05" lon="0.3856">
        <ele>56.5</ele>
        <time>2022-10-09T09:48:01Z</time>
      </trkpt>
      <trkpt lat="45.05029" lon="0.38605">
        <ele>56.7</ele>
        <time>2022-10-09T09:48:10Z</time>
      </trkpt>
      <trkpt lat="45.05057" lon="0.38649">
        <ele>56.7</ele>
        <time>2022-10-09T09:48:19Z</time>
      </trkpt>
      <trkpt lat="45.05078" lon="0.38681">
        <ele>56.6</ele>
        <time>2022-10-09T09:48:26Z</time>
      </trkpt>
      <trkpt lat="45.05106" lon="0.38723">
        <ele>55.9</ele>
        <time>2022-10-09T09:48:35Z</time>
      </trkpt>
      <trkpt lat="45.05112" lon="0.38733">
        <ele>55.6</ele>
        <time>2022-10-09T09:48:37Z</time>
      </trkpt>
      <trkpt lat="45.05122" lon="0.38748">
        <ele>55</ele>
        <time>2022-10-09T09:48:40Z</time>
      </trkpt>
      <trkpt lat="45.05132" lon="0.38764">
        <ele>54.6</ele>
        <time>2022-10-09T09:48:43Z</time>
      </trkpt>
      <trkpt lat="45.05137" lon="0.38777">
        <ele>54.4</ele>
        <time>2022-10-09T09:48:45Z</time>
      </trkpt>
      <trkpt lat="45.05137" lon="0.388">
        <ele>54.3</ele>
        <time>2022-10-09T09:48:48Z</time>
      </trkpt>
      <trkpt lat="45.05136" lon="0.38813">
        <ele>54.3</ele>
        <time>2022-10-09T09:48:50Z</time>
      </trkpt>
      <trkpt lat="45.05134" lon="0.38826">
        <ele>54.3</ele>
        <time>2022-10-09T09:48:52Z</time>
      </trkpt>
      <trkpt lat="45.05131" lon="0.38841">
        <ele>54.3</ele>
        <time>2022-10-09T09:48:55Z</time>
      </trkpt>
      <trkpt lat="45.05129" lon="0.38847">
        <ele>54.3</ele>
        <time>2022-10-09T09:48:56Z</time>
      </trkpt>
      <trkpt lat="45.05128" lon="0.38874">
        <ele>54</ele>
        <time>2022-10-09T09:49:00Z</time>
      </trkpt>
      <trkpt lat="45.05128" lon="0.38899">
        <ele>53.4</ele>
        <time>2022-10-09T09:49:03Z</time>
      </trkpt>
      <trkpt lat="45.05128" lon="0.38917">
        <ele>53.1</ele>
        <time>2022-10-09T09:49:05Z</time>
      </trkpt>
      <trkpt lat="45.05129" lon="0.38932">
        <ele>52.9</ele>
        <time>2022-10-09T09:49:07Z</time>
      </trkpt>
      <trkpt lat="45.05131" lon="0.38955">
        <ele>52.8</ele>
        <time>2022-10-09T09:49:10Z</time>
      </trkpt>
      <trkpt lat="45.05133" lon="0.38988">
        <ele>52.8</ele>
        <time>2022-10-09T09:49:14Z</time>
      </trkpt>
      <trkpt lat="45.05133" lon="0.39004">
        <ele>52.8</ele>
        <time>2022-10-09T09:49:16Z</time>
      </trkpt>
      <trkpt lat="45.05131" lon="0.39028">
        <ele>52.8</ele>
        <time>2022-10-09T09:49:19Z</time>
      </trkpt>
      <trkpt lat="45.05127" lon="0.39051">
        <ele>53</ele>
        <time>2022-10-09T09:49:22Z</time>
      </trkpt>
      <trkpt lat="45.05127" lon="0.39067">
        <ele>53</ele>
        <time>2022-10-09T09:49:24Z</time>
      </trkpt>
      <trkpt lat="45.05131" lon="0.39089">
        <ele>53.2</ele>
        <time>2022-10-09T09:49:27Z</time>
      </trkpt>
      <trkpt lat="45.05135" lon="0.39103">
        <ele>53.4</ele>
        <time>2022-10-09T09:49:30Z</time>
      </trkpt>
      <trkpt lat="45.05148" lon="0.39104">
        <ele>53.2</ele>
        <time>2022-10-09T09:49:35Z</time>
      </trkpt>
      <trkpt lat="45.05153" lon="0.39104">
        <ele>53.2</ele>
        <time>2022-10-09T09:49:37Z</time>
      </trkpt>
      <trkpt lat="45.05156" lon="0.39105">
        <ele>53.2</ele>
        <time>2022-10-09T09:49:38Z</time>
      </trkpt>
      <trkpt lat="45.05158" lon="0.39106">
        <ele>53.2</ele>
        <time>2022-10-09T09:49:39Z</time>
      </trkpt>
      <trkpt lat="45.05158" lon="0.39125">
        <ele>53.1</ele>
        <time>2022-10-09T09:49:41Z</time>
      </trkpt>
      <trkpt lat="45.05155" lon="0.39129">
        <ele>53.1</ele>
        <time>2022-10-09T09:49:45Z</time>
      </trkpt>
      <trkpt lat="45.05155" lon="0.39129">
        <ele>53.1</ele>
        <time>2022-10-09T09:49:46Z</time>
      </trkpt>
    </trkseg>
  </trk>
</gpx>